GFSSGP_sfc_wetblb_000.txt.gz
Wetbulb
76.25 74.40 73.17 70.21 57.17 53.36 50.79 53.80 58.55 58.04 59.29 63.59 65.03 63.12 61.21 62.47 59.41 53.92 68.34 71.15 72.33 71.63 73.83 74.43 77.53 76.54 76.17 76.30 76.27 76.19 76.43 77.32 77.96 78.32 78.49 78.27 77.99 78.15 77.70 77.55 77.76 77.62 77.17 76.88 76.86 76.89 76.70 76.24 75.64
74.07 73.56 71.64 64.91 51.25 47.30 48.77 56.51 56.11 59.34 62.97 65.24 65.15 64.33 62.93 60.60 66.44 67.17 68.07 72.76 73.11 73.02 73.46 74.96 76.97 77.19 76.71 76.88 77.06 76.81 76.82 77.69 78.53 78.66 78.96 78.61 78.51 78.22 78.03 77.69 77.41 77.06 76.89 76.77 76.55 76.20 75.73 75.37 75.22
73.62 72.05 65.33 59.50 49.33 47.08 49.60 56.44 59.15 63.13 65.41 64.95 63.46 66.11 64.38 62.90 67.36 68.07 71.14 73.38 74.28 73.79 74.61 75.06 77.12 77.20 77.42 77.55 77.78 78.22 78.43 78.63 78.28 78.75 78.55 78.67 78.76 78.27 77.71 77.40 77.18 77.06 76.74 76.14 75.73 75.65 75.51 74.88 75.20
69.07 66.29 62.59 51.02 48.46 53.03 55.41 58.09 62.42 63.10 64.99 65.60 64.85 62.58 67.03 69.53 68.76 70.63 73.38 74.13 73.88 74.37 75.14 77.08 77.58 77.65 77.78 77.85 77.82 78.02 78.64 78.62 78.93 79.13 78.45 78.58 78.06 77.45 77.12 76.67 76.87 76.47 76.09 75.65 75.37 75.29 75.26 75.25 75.52
66.07 59.72 50.79 48.74 51.01 57.95 59.66 61.28 62.69 61.25 63.75 64.39 65.35 62.67 64.16 69.44 71.32 72.26 73.06 73.66 73.95 74.54 75.79 76.25 78.19 78.40 77.79 77.65 77.86 78.64 78.88 78.51 78.95 78.93 78.42 78.16 77.80 77.40 77.20 77.00 76.76 76.23 75.82 75.65 75.54 75.76 75.73 75.76 75.72
57.51 55.92 49.03 46.83 51.27 58.65 60.04 61.39 62.66 63.53 64.43 64.48 63.68 63.42 65.08 70.12 69.93 71.80 72.98 73.12 75.41 75.43 76.10 76.27 78.00 78.01 78.28 78.72 78.73 78.95 78.97 79.01 78.95 78.20 77.92 77.85 77.65 77.58 77.28 76.82 76.15 75.57 75.45 75.65 75.68 76.12 76.20 76.19 76.45
58.47 52.98 50.35 50.19 53.99 57.06 59.45 64.28 62.82 62.82 63.34 63.48 65.95 61.61 66.67 68.19 70.93 72.14 72.69 73.99 75.35 75.85 75.95 76.42 77.00 77.57 78.77 79.33 78.92 78.94 78.08 78.23 77.98 77.79 78.02 77.82 77.57 77.55 77.08 76.87 76.43 76.01 75.98 76.20 76.32 76.54 76.57 76.45 76.61
58.91 54.22 52.49 51.46 53.47 54.36 61.19 63.18 64.98 62.95 63.44 67.97 67.01 61.22 62.97 68.24 71.82 72.17 72.65 73.69 74.96 75.46 76.26 76.22 76.41 76.59 76.27 77.66 78.15 77.80 77.86 77.63 77.67 77.79 77.75 77.65 77.28 77.04 76.62 77.28 77.04 76.65 76.71 77.10 76.50 76.31 76.20 76.22 75.84
62.34 51.66 49.62 51.64 53.45 55.31 61.25 62.42 65.81 67.61 65.05 66.09 66.97 65.59 68.00 71.20 71.99 71.32 71.53 72.60 73.43 74.20 74.53 75.30 75.52 75.52 76.77 77.12 77.01 77.49 77.15 77.52 77.36 77.05 77.59 77.85 75.94 75.58 75.88 74.89 75.99 75.84 75.93 76.19 76.88 76.06 76.03 76.05 75.39
56.82 52.64 52.98 56.61 56.96 58.49 60.86 63.38 64.26 63.32 63.20 63.87 65.19 68.39 70.52 71.06 70.68 69.70 69.38 69.61 71.26 72.04 73.83 75.12 75.45 75.69 76.39 77.66 76.78 75.34 75.73 75.99 75.92 75.98 76.15 75.66 74.74 74.34 72.26 74.90 75.47 75.09 74.68 76.33 76.21 75.58 76.05 74.77 73.21
57.09 54.16 57.25 57.83 58.82 62.56 60.61 62.90 63.52 61.82 60.37 63.47 63.13 66.56 69.20 69.87 69.60 69.68 69.59 69.83 70.47 72.60 73.97 74.71 75.15 75.33 75.92 76.44 75.97 75.34 75.72 75.12 75.36 75.43 75.30 74.96 73.28 73.12 73.66 72.09 72.38 73.12 74.54 73.95 74.00 73.52 72.84 72.71 72.39
53.92 58.47 59.17 58.97 61.22 61.23 60.41 62.26 62.24 62.54 62.41 66.39 66.67 68.22 69.00 69.01 69.11 69.32 69.43 70.64 71.24 72.19 73.64 74.58 74.96 75.25 75.22 74.98 75.32 74.52 74.62 74.81 74.20 74.12 74.56 73.56 72.01 71.53 71.74 72.00 72.59 72.90 72.94 72.15 71.94 71.68 72.06 71.95 71.76
51.84 52.93 59.05 61.17 59.22 60.41 62.18 61.41 62.32 62.11 65.34 67.54 67.77 68.37 68.20 68.45 69.37 70.16 70.91 71.84 71.74 71.82 73.17 73.91 74.65 74.70 75.50 74.48 74.84 74.21 74.05 74.26 74.30 74.40 74.15 73.56 72.34 70.18 70.53 72.25 72.79 72.51 72.58 71.76 71.54 71.55 71.05 70.39 70.76
52.94 57.42 58.71 59.23 58.93 59.50 60.61 61.28 62.28 63.48 66.96 67.11 67.08 67.05 67.88 68.25 69.24 69.77 70.79 71.10 71.62 72.46 72.88 73.83 74.40 74.94 74.79 74.16 74.38 73.80 73.57 74.19 74.07 73.83 74.01 73.98 71.79 71.40 71.15 71.77 71.41 71.46 71.87 71.13 71.60 71.00 70.05 69.19 69.27
58.36 55.30 57.69 57.74 58.45 60.84 62.31 58.27 59.47 64.17 66.35 66.12 66.82 67.42 68.13 68.73 70.22 69.74 71.07 71.19 71.79 72.52 73.31 73.67 74.16 75.21 74.37 74.41 72.76 73.17 73.85 73.83 73.39 73.54 73.64 73.23 72.90 71.60 71.44 70.75 70.81 71.27 70.50 70.66 70.50 69.79 68.61 68.19 68.45
53.73 54.12 51.42 56.47 58.98 61.18 58.82 52.83 61.31 64.31 64.16 64.67 66.60 67.25 67.95 68.78 69.88 70.69 71.62 71.65 72.09 72.53 72.34 73.40 74.94 74.81 73.97 73.68 72.73 72.88 73.11 73.17 73.09 73.26 72.97 72.56 73.32 72.86 71.28 70.59 69.94 70.73 70.67 69.92 69.75 68.29 67.65 67.83 67.35
50.13 48.71 49.73 53.60 58.51 59.30 57.10 54.02 61.51 63.84 63.12 63.70 65.58 66.26 67.21 67.95 68.78 70.26 71.19 71.61 71.99 72.07 72.23 72.66 74.20 74.16 73.79 72.37 73.33 73.30 73.35 72.51 72.54 72.89 72.41 72.32 72.65 72.97 72.11 70.32 70.47 70.79 70.47 69.78 68.82 67.89 67.39 67.17 67.02
47.78 49.21 49.00 52.24 55.96 57.74 55.25 54.66 60.87 62.25 62.18 62.66 63.68 64.41 65.81 66.19 67.01 68.78 69.46 71.17 71.56 71.79 72.61 73.03 73.72 73.85 72.25 73.29 72.82 72.23 72.70 72.57 72.73 72.85 72.16 72.44 72.48 72.50 71.98 70.84 70.56 70.90 69.94 68.87 68.22 67.71 67.66 67.26 66.79
51.61 51.28 52.79 53.94 56.54 54.55 54.04 55.06 59.92 61.68 61.40 61.41 61.99 62.84 64.22 64.93 67.14 68.11 68.96 70.26 70.21 70.80 71.67 72.39 72.62 73.19 72.98 72.37 71.68 71.48 71.16 71.73 71.72 72.01 72.30 72.38 71.91 72.27 71.79 71.24 70.41 70.13 69.41 69.11 68.66 67.93 67.35 67.01 67.12
51.85 48.96 50.49 51.93 55.56 55.27 54.27 55.14 59.50 61.25 61.16 61.70 61.91 62.40 63.12 64.45 64.71 65.87 67.45 69.16 68.62 69.25 71.25 71.87 72.68 72.87 73.24 72.63 72.05 72.24 71.64 71.68 72.16 72.26 72.25 72.63 72.49 72.05 71.03 70.68 69.91 70.03 69.11 68.25 67.63 67.37 66.40 66.74 67.62
45.04 46.37 45.99 51.52 54.39 55.44 55.18 52.54 54.89 60.06 61.28 62.23 62.81 63.58 64.00 64.07 64.13 64.93 65.86 67.84 68.69 68.37 70.14 71.14 71.80 72.69 73.33 72.78 71.63 71.99 72.33 72.47 71.67 71.80 72.33 72.72 71.81 71.69 71.48 70.53 70.05 68.80 67.74 67.38 66.85 66.45 66.23 65.49 66.49
43.12 48.92 49.65 51.36 50.94 45.73 53.40 43.61 51.11 56.29 58.06 59.68 61.11 62.05 63.00 63.98 65.34 65.46 65.39 66.30 67.91 68.35 70.08 70.99 71.34 71.93 72.56 72.59 71.55 71.32 70.53 70.03 70.68 69.66 71.12 71.24 70.75 70.30 69.77 68.95 68.13 67.50 67.23 66.76 66.74 67.79 67.10 66.38 64.81
47.78 50.08 49.37 50.88 48.40 47.35 49.26 44.91 47.99 55.38 54.17 57.31 60.12 61.55 62.81 63.94 64.80 65.06 65.62 66.79 67.70 68.91 69.44 70.32 70.57 70.78 71.93 72.44 72.49 71.50 70.45 70.70 67.23 66.88 68.49 68.67 67.59 66.69 67.61 67.25 67.11 67.40 66.40 66.09 66.52 67.03 66.72 66.29 65.48
50.89 46.56 45.22 43.88 43.94 39.88 46.65 47.83 44.81 50.96 56.01 58.37 60.56 62.32 63.60 64.15 65.02 65.72 66.47 67.24 67.56 68.92 69.46 70.05 69.87 70.43 71.71 72.21 72.03 71.51 70.84 68.15 65.44 65.18 66.52 65.29 64.23 64.44 65.83 66.78 67.69 66.91 65.71 65.89 66.19 66.33 66.09 66.23 66.34
46.08 42.35 36.93 36.53 37.74 38.11 44.05 45.78 49.85 52.91 58.45 59.88 60.06 61.93 63.90 65.06 65.38 65.08 65.19 66.14 67.09 67.96 69.00 70.10 70.17 70.00 71.64 71.96 72.19 72.29 71.55 67.88 65.76 64.87 65.05 62.74 62.24 63.84 65.21 66.27 65.54 65.09 64.56 64.95 65.51 65.98 65.58 65.52 65.56
44.08 43.46 37.73 33.19 34.65 40.67 45.24 43.88 50.14 57.10 57.80 60.18 60.86 62.77 63.47 64.73 65.56 65.62 65.86 66.52 67.28 68.25 69.04 70.05 70.23 70.10 71.65 72.51 72.61 72.96 71.45 67.37 65.55 64.48 63.29 63.05 63.13 64.07 64.96 64.58 64.97 63.32 63.66 64.93 65.85 65.01 64.95 65.21 65.76
43.25 40.70 44.19 38.24 35.73 36.82 40.39 44.44 50.39 52.92 54.23 57.25 59.27 60.78 61.63 63.92 65.26 66.11 66.57 66.95 67.34 68.29 69.14 69.78 70.28 70.83 71.41 71.89 72.33 70.30 68.91 65.10 64.12 63.65 63.40 63.33 63.77 63.81 64.14 64.04 64.22 63.32 63.45 65.54 65.49 64.72 65.24 65.42 65.64
46.98 46.72 41.33 37.33 33.70 32.85 38.11 40.12 43.72 48.56 52.13 53.88 56.60 58.94 61.00 63.02 65.13 65.89 67.08 67.52 68.11 68.75 69.75 70.37 70.97 70.93 71.24 71.14 70.30 68.99 66.70 64.36 63.22 63.02 63.04 62.26 62.57 63.54 63.69 63.85 63.68 63.68 63.89 65.01 65.05 64.27 64.68 64.85 64.61
43.57 41.63 40.19 40.32 37.65 35.14 34.35 38.58 46.52 49.53 52.56 54.01 56.01 59.27 60.24 61.36 63.94 64.99 67.06 68.45 68.70 69.10 69.61 70.10 70.72 71.03 70.87 70.10 68.63 67.02 64.59 63.67 63.23 63.28 63.76 62.83 62.32 63.05 63.50 63.50 63.54 63.85 63.78 64.57 64.04 63.95 64.58 64.52 64.76
47.32 44.50 43.21 41.52 36.39 36.21 37.40 39.61 49.47 51.55 52.32 55.38 56.18 59.00 57.92 61.01 63.48 64.56 66.71 68.13 68.45 68.46 69.17 69.80 70.67 70.97 71.33 70.13 67.71 65.77 64.39 64.08 63.71 63.88 64.11 63.73 63.11 62.87 63.57 63.79 63.94 64.38 64.73 64.47 63.90 63.81 65.05 64.34 64.21

GFSSGP_sfc_wetblb_003.txt.gz
Wetbulb
77.56 77.24 75.74 72.37 61.58 60.71 55.83 57.25 61.94 60.88 61.43 65.75 65.70 63.48 62.21 63.51 60.35 57.63 70.56 72.72 73.43 73.74 75.04 75.65 76.86 76.32 76.40 76.20 75.91 76.54 76.83 77.54 78.23 78.15 78.10 77.54 76.93 77.27 77.35 77.74 77.89 77.73 77.34 77.28 77.31 76.73 76.77 76.38 76.13
75.14 74.87 74.40 66.93 57.59 53.50 55.12 59.69 59.94 62.09 64.85 67.16 66.82 65.80 63.22 61.44 66.69 67.84 69.72 73.22 73.72 73.95 75.22 75.44 76.34 76.78 76.37 76.25 76.45 76.47 77.54 77.46 77.86 78.55 78.05 77.43 77.50 77.31 77.27 77.61 77.52 77.35 77.41 77.15 76.77 76.45 76.14 76.02 76.02
75.54 73.70 69.86 61.94 58.00 52.99 54.86 59.65 62.60 64.64 66.45 65.43 64.65 67.17 65.04 63.62 67.64 69.11 72.39 73.54 74.12 74.43 75.61 76.20 76.23 76.41 76.60 76.76 76.83 77.04 78.25 77.64 77.70 78.09 77.89 77.60 77.53 77.82 77.70 77.40 77.12 77.14 77.12 76.60 76.39 76.09 75.98 75.95 75.94
72.69 70.85 66.98 57.18 55.11 57.66 58.86 61.80 64.76 64.85 66.14 66.64 65.79 62.64 67.35 70.13 68.99 71.42 73.21 73.92 73.86 74.68 75.67 76.52 76.84 77.08 76.77 76.97 76.72 77.56 78.30 77.82 78.13 78.42 78.11 78.03 78.00 77.34 76.97 76.70 76.66 76.94 76.58 76.42 76.06 76.00 76.09 76.25 76.33
70.59 65.61 57.97 56.46 57.14 60.48 62.22 64.79 66.09 63.99 64.90 64.94 65.84 62.51 64.41 70.12 72.29 72.64 73.50 74.34 74.03 74.91 75.90 76.98 77.76 77.22 77.35 77.57 77.58 78.43 78.58 77.89 78.46 78.29 78.00 77.87 77.53 76.98 76.90 77.11 77.00 76.66 76.25 75.90 75.93 76.01 76.23 76.37 76.60
64.02 62.76 56.73 54.66 57.62 61.05 62.79 65.66 65.65 65.01 65.59 65.51 64.37 63.71 65.59 72.04 70.95 72.51 74.18 74.50 74.75 74.69 76.47 76.93 77.52 77.53 77.68 77.70 77.68 77.94 78.83 78.41 78.55 78.19 78.00 77.70 77.53 77.42 77.14 76.83 76.40 76.20 75.98 76.03 76.31 76.54 76.70 76.86 76.87
62.94 60.12 55.91 56.77 58.62 59.68 61.46 66.10 64.83 64.71 64.61 64.23 67.01 63.32 67.17 69.23 71.10 73.14 74.10 74.99 75.35 76.12 76.03 77.48 77.79 78.32 78.05 78.59 78.47 78.67 79.04 78.59 78.14 78.15 77.88 77.78 77.77 77.34 77.11 76.73 76.42 76.26 76.29 76.59 76.73 76.68 76.53 76.46 76.48
64.79 61.95 56.72 57.80 58.38 58.56 64.07 65.42 67.31 65.59 64.21 68.94 68.83 63.18 63.53 68.85 71.59 73.21 73.84 74.68 75.13 75.67 76.20 76.90 77.54 77.88 78.21 77.84 78.92 77.94 78.48 78.11 77.76 77.82 77.59 77.63 76.97 76.90 76.59 76.41 76.84 76.97 76.97 76.64 77.15 76.58 76.17 75.95 76.14
65.17 59.61 56.07 56.68 59.32 60.68 65.52 63.73 67.53 68.93 66.67 67.10 68.08 67.74 68.82 71.10 71.65 71.62 72.31 73.46 74.15 75.18 76.29 76.91 77.00 77.90 78.41 78.04 77.87 78.27 77.68 77.66 77.80 77.59 77.14 77.07 78.28 77.59 76.79 76.00 76.31 76.23 76.04 76.32 76.74 76.42 76.27 76.03 75.11
61.87 59.52 58.03 60.72 62.69 62.52 64.36 65.15 66.10 65.73 65.36 65.24 66.63 69.68 70.68 71.41 70.35 69.53 70.13 70.92 72.26 73.15 75.16 76.67 77.28 77.26 77.31 77.10 77.62 78.05 77.14 76.66 76.82 77.36 77.49 77.61 77.94 78.00 76.63 75.63 75.86 75.86 75.29 76.00 76.12 75.89 75.56 75.13 75.49
61.74 59.01 60.94 61.21 62.77 65.27 64.83 64.53 67.18 64.77 62.79 65.49 65.88 68.16 69.78 70.32 70.07 69.82 69.93 70.94 71.66 73.54 74.56 75.85 76.87 77.49 77.14 77.69 77.80 77.96 77.43 77.36 77.20 77.73 77.47 77.90 77.62 77.11 76.47 76.85 75.96 75.52 75.73 76.66 75.83 75.80 75.70 75.43 74.90
58.22 61.35 62.03 61.74 64.25 64.78 64.25 66.53 64.66 65.17 64.24 67.96 69.13 70.04 70.10 69.61 69.75 69.86 70.11 70.95 71.91 72.88 74.43 75.41 76.57 77.23 77.61 78.55 76.84 78.39 76.81 77.14 76.02 76.61 78.03 77.24 76.38 76.05 76.37 76.37 76.97 77.72 76.90 76.47 75.80 75.32 75.20 74.60 74.06
56.75 57.58 60.86 62.83 64.39 65.00 66.18 64.77 64.79 65.05 66.82 69.30 70.05 69.98 69.75 69.85 70.39 71.33 71.68 72.09 72.90 72.68 74.51 75.81 76.71 77.11 77.34 77.21 76.39 76.31 77.25 75.94 76.20 76.79 77.01 76.63 75.73 75.88 76.20 76.09 76.83 77.26 76.99 76.49 76.04 75.26 74.46 73.85 73.11
56.98 57.96 59.26 63.11 63.67 64.53 63.68 64.19 64.95 65.50 68.63 68.48 69.02 69.15 69.89 70.12 70.73 71.54 72.11 72.06 72.86 73.48 74.27 76.01 76.73 77.57 77.82 77.14 77.66 77.17 77.48 77.51 76.99 76.80 76.59 77.28 76.73 76.45 77.55 75.92 76.68 76.49 76.50 75.98 75.78 74.79 73.77 72.83 72.93
61.69 59.57 61.46 61.97 63.11 62.99 65.16 61.62 62.59 66.50 68.48 67.44 67.76 68.79 69.66 70.41 71.44 71.49 72.25 72.36 73.79 74.50 74.68 74.84 75.98 77.17 77.50 77.64 77.97 77.38 77.20 77.02 75.99 76.07 76.98 77.34 77.52 77.25 77.30 77.15 76.44 76.23 76.03 75.36 74.90 74.34 74.07 72.65 72.38
59.24 60.20 56.56 61.03 63.32 63.89 63.31 57.50 64.07 67.33 67.40 66.31 67.05 68.04 68.89 69.90 71.11 72.36 73.21 73.41 74.90 75.11 74.87 75.17 75.20 75.98 76.76 76.93 77.61 76.67 77.03 76.75 76.59 76.69 77.42 77.22 77.42 77.92 77.72 77.50 77.44 75.79 75.26 74.74 74.31 73.49 72.46 72.89 72.04
57.62 54.61 56.27 58.04 63.24 63.15 62.20 58.86 63.98 67.29 67.07 66.45 66.99 67.75 68.67 69.58 71.05 72.62 73.64 74.47 74.98 75.54 75.66 75.63 76.54 76.45 77.19 77.83 77.94 77.42 77.87 77.48 77.55 77.31 77.15 77.64 77.02 76.73 77.57 77.66 76.97 75.57 74.65 75.08 74.18 73.49 72.84 71.68 71.31
53.88 55.19 56.81 57.28 60.30 62.64 60.63 60.26 63.82 65.89 66.25 66.21 67.36 67.95 68.61 69.34 70.76 72.97 74.00 74.63 75.32 75.70 76.26 76.44 76.32 77.11 77.76 78.03 78.04 78.29 78.26 78.66 77.36 76.98 76.70 77.13 77.03 76.54 76.19 75.80 75.45 74.86 74.79 74.45 73.69 72.99 73.17 71.97 71.42
57.02 57.15 56.51 58.86 60.77 60.32 60.11 60.22 62.43 64.96 65.28 65.37 66.85 67.78 68.44 69.06 71.48 72.88 73.70 74.50 74.98 75.51 75.65 75.98 76.05 77.00 77.16 76.12 75.45 75.59 74.40 76.23 76.36 76.91 77.12 76.76 77.09 76.55 76.55 76.38 75.09 74.87 73.80 73.89 73.34 73.05 71.81 71.24 72.37
57.24 56.59 56.80 58.29 60.36 60.39 59.44 59.19 62.57 64.46 64.43 65.47 65.89 66.92 67.82 69.15 70.41 71.61 72.88 73.43 73.98 74.71 75.34 76.05 76.42 77.27 77.38 76.79 77.04 76.45 76.29 76.36 76.32 76.97 77.19 76.88 76.41 76.63 76.33 75.64 74.30 73.96 72.70 72.97 72.50 72.10 70.65 70.99 72.21
53.85 55.20 56.58 56.59 58.16 59.89 59.58 57.72 59.87 63.65 65.14 65.44 66.22 67.23 67.81 67.99 68.76 70.09 71.01 72.39 73.37 73.75 74.75 75.50 76.71 77.66 77.47 77.73 77.11 76.68 76.69 76.73 75.70 75.98 76.04 76.37 76.63 76.42 75.84 75.16 74.27 73.81 72.71 70.61 71.94 71.28 70.60 68.67 71.06
51.16 56.30 57.35 57.42 56.17 52.86 59.10 50.92 57.97 61.52 62.55 63.93 65.13 65.92 66.59 67.53 68.88 69.75 70.27 71.20 72.47 73.37 74.58 75.94 76.64 77.47 77.77 78.08 76.62 76.37 74.59 73.52 74.90 76.03 76.29 76.48 76.71 75.48 75.15 74.78 73.36 73.18 71.98 72.30 71.98 71.68 71.95 71.26 68.45
53.44 55.03 55.45 57.11 55.96 54.44 55.23 52.42 55.81 60.07 59.79 62.64 64.71 65.69 66.75 67.60 68.15 68.78 69.80 70.81 72.33 73.44 73.60 74.70 76.69 77.29 78.31 78.02 77.90 76.01 75.49 75.39 76.19 75.42 75.18 76.46 76.01 75.23 73.93 73.19 72.79 72.65 71.79 72.01 70.98 71.84 71.46 70.83 69.19
54.65 53.51 53.07 54.25 54.13 47.99 52.64 53.12 52.38 57.23 59.79 62.21 64.74 65.77 66.58 67.39 68.29 69.28 70.48 71.05 71.65 72.90 73.33 74.03 76.00 76.85 76.92 77.06 77.14 76.63 76.41 75.96 75.20 74.54 72.62 73.13 73.96 72.78 72.38 71.87 72.43 73.00 72.44 71.17 70.35 71.11 70.45 70.23 69.83
53.76 51.82 46.52 45.48 45.88 45.68 52.68 52.61 54.20 58.97 61.83 63.04 63.79 64.96 66.45 67.60 67.93 68.52 69.31 69.95 70.86 71.72 72.76 73.56 75.20 75.62 75.62 75.97 76.59 76.63 76.38 76.83 76.17 75.61 73.48 72.77 72.19 71.41 70.65 71.41 71.83 71.78 72.12 70.64 70.65 70.58 70.30 69.91 68.90
51.59 51.69 47.96 42.70 43.81 46.68 51.06 49.10 53.76 60.66 61.99 63.58 65.27 66.11 66.77 66.99 68.08 68.50 69.67 70.81 71.10 71.74 72.46 73.14 74.39 74.98 75.34 75.12 76.57 77.12 76.98 76.20 76.06 75.93 73.93 72.45 72.33 71.84 71.49 71.14 71.58 71.94 70.63 69.81 70.12 68.93 68.57 69.82 69.05
51.12 49.03 53.86 50.02 47.32 46.97 50.17 53.75 56.10 59.15 59.93 61.31 62.91 64.88 65.88 66.85 68.08 68.79 69.77 70.54 71.41 72.08 72.97 73.77 74.47 75.13 75.37 74.68 76.41 76.23 77.20 76.79 76.34 75.80 73.83 72.45 73.13 71.00 70.73 70.80 70.99 70.52 68.82 69.33 70.19 67.86 68.43 69.27 69.54
52.55 53.93 47.87 48.73 44.58 42.64 47.16 48.88 50.18 56.98 58.89 61.59 61.79 63.58 65.68 67.56 68.39 69.18 70.29 70.89 71.86 72.31 73.32 73.79 74.65 74.79 75.40 75.01 75.66 75.72 76.28 76.64 76.57 75.86 72.89 71.69 71.79 70.97 70.60 70.46 70.01 69.61 68.82 68.71 69.99 68.59 68.86 68.84 68.00
49.72 49.36 50.30 51.26 49.48 45.93 44.30 47.74 57.10 59.51 62.30 61.62 62.44 63.96 65.54 67.04 68.40 69.76 70.60 71.08 72.06 72.63 72.86 73.57 73.58 74.64 74.59 75.04 76.05 76.26 75.91 75.97 76.21 73.67 73.18 69.14 70.13 70.66 70.07 70.09 69.41 69.26 69.03 69.38 69.27 69.48 68.63 67.96 68.52
51.87 51.00 51.81 47.84 47.41 48.23 48.41 48.46 57.37 58.80 60.54 62.00 62.60 63.74 65.40 67.62 68.96 69.52 70.21 70.73 71.28 71.97 72.23 72.79 73.43 73.41 74.74 75.73 75.82 75.32 75.47 72.51 72.15 73.17 68.38 69.33 68.35 70.00 70.05 69.83 69.51 69.39 69.34 69.66 69.24 68.49 67.25 67.68 67.69

GFSSGP_sfc_wetblb_009.txt.gz
Wetbulb
77.25 77.84 77.42 73.41 63.25 59.43 57.54 60.18 63.82 62.74 63.64 66.69 67.06 65.69 63.81 65.49 63.34 61.22 72.41 74.51 74.98 74.21 74.89 75.81 75.91 76.38 76.68 76.72 77.66 78.02 77.50 77.63 77.71 77.83 78.10 77.51 77.81 78.16 78.03 77.73 77.68 77.66 77.49 77.03 76.70 76.64 76.42 76.42 76.39
78.27 78.04 76.93 73.02 62.46 53.48 56.17 61.91 60.23 64.25 65.45 67.55 68.22 67.16 65.51 63.78 69.81 69.97 71.28 73.88 74.39 74.44 74.88 75.61 76.53 76.01 76.38 76.69 76.79 77.54 76.85 76.85 77.09 77.54 77.10 77.35 77.47 77.82 77.66 77.28 77.38 77.22 77.08 76.75 76.42 76.39 76.45 76.45 76.53
79.18 78.05 70.67 66.38 58.07 55.69 57.44 62.60 64.83 66.66 68.16 67.08 66.60 68.70 66.76 66.08 70.53 71.40 74.57 74.98 74.30 73.77 74.69 76.00 76.62 76.39 76.31 76.96 77.22 77.62 77.14 77.07 77.04 77.10 77.05 77.06 77.48 77.75 77.14 77.14 77.14 76.92 76.67 76.45 76.25 76.45 76.31 76.39 76.75
76.05 74.26 71.75 58.79 56.89 61.98 61.89 64.35 65.95 65.72 67.37 68.49 68.48 65.62 69.67 72.14 70.97 73.38 74.89 74.07 73.95 73.94 75.36 76.29 76.32 76.41 76.54 77.18 77.66 77.60 77.63 77.71 77.30 76.83 77.06 77.34 77.62 77.31 76.95 77.17 77.00 76.59 76.39 76.19 76.39 76.30 76.56 76.47 76.64
75.59 70.91 63.13 56.31 57.62 61.87 65.08 66.24 66.40 64.67 66.41 67.17 68.54 65.93 67.40 72.08 74.20 74.57 74.76 73.81 73.59 75.58 75.56 75.46 76.86 76.40 76.76 77.32 77.61 77.76 77.58 77.53 77.20 77.00 77.22 77.67 77.09 76.91 76.89 77.03 76.24 76.04 75.99 76.02 76.27 76.55 76.67 76.45 76.20
68.07 66.07 57.95 55.15 56.82 60.83 64.91 66.65 66.07 66.16 67.19 67.23 67.60 67.06 68.71 73.71 73.41 74.39 74.81 74.04 74.45 74.53 75.33 75.87 76.82 76.59 76.92 77.33 77.66 77.18 77.59 77.51 77.75 77.43 77.44 77.00 76.83 76.72 76.86 76.03 75.84 75.67 75.92 76.21 76.63 75.88 75.88 76.00 75.75
67.21 63.23 58.26 57.87 57.83 58.64 62.17 66.14 65.01 65.72 66.37 66.79 69.79 66.69 69.70 71.93 74.26 74.44 74.76 74.63 74.38 75.83 75.90 76.74 76.94 77.56 77.62 77.79 77.62 77.54 77.46 77.51 77.57 77.55 77.33 76.78 76.67 76.44 75.92 75.23 75.22 75.93 76.26 76.52 76.49 75.84 75.57 75.58 75.42
67.27 62.52 58.71 60.62 57.22 57.33 62.66 64.49 65.53 65.71 66.10 70.38 71.28 66.59 67.15 72.27 74.84 74.95 74.49 74.63 74.24 75.99 76.40 76.29 77.00 77.19 77.94 78.06 77.87 77.50 77.38 77.00 76.61 77.14 76.95 76.89 77.09 76.85 76.20 75.57 76.08 75.74 75.48 75.87 75.91 75.37 75.44 75.31 75.67
66.81 59.48 58.78 58.92 59.19 60.29 63.73 62.42 65.73 68.54 67.01 68.07 69.11 70.32 71.88 73.89 74.85 74.37 73.25 73.29 73.43 74.57 76.02 76.49 76.54 76.82 78.26 78.22 78.22 77.90 77.20 76.25 76.61 76.97 77.00 77.08 76.00 75.96 77.39 77.24 75.66 75.72 75.74 75.60 75.52 75.50 75.97 75.77 76.03
63.33 57.82 59.54 62.24 63.89 62.59 63.20 63.17 64.79 65.10 65.53 66.33 67.64 71.49 72.78 73.57 73.52 72.93 72.42 73.06 73.55 73.65 74.37 75.50 76.08 76.63 76.63 76.02 77.57 77.20 76.07 75.85 76.10 76.40 76.65 76.57 77.95 77.53 76.29 76.82 76.44 76.24 76.19 76.38 76.31 76.44 76.86 76.67 75.66
62.24 60.78 63.05 63.11 63.64 64.89 63.62 63.58 65.35 64.30 63.18 66.19 66.66 69.24 71.23 72.38 72.62 72.62 72.57 73.38 73.20 74.16 75.03 76.07 76.35 77.90 76.82 76.51 76.25 76.45 76.41 76.28 76.36 77.58 77.66 77.03 76.99 77.68 75.68 75.18 76.04 77.48 76.80 75.89 76.28 75.63 75.33 75.66 75.10
59.32 62.16 62.40 63.21 63.98 64.21 63.61 65.39 63.56 63.40 64.76 67.82 69.31 70.49 70.92 71.47 71.89 72.20 72.56 73.20 73.80 73.96 74.87 75.56 77.34 77.30 77.59 76.89 75.95 76.36 75.66 75.90 75.56 76.37 78.29 77.55 76.51 76.50 76.21 75.75 75.78 76.93 76.18 76.96 77.11 75.79 75.80 75.53 75.61
59.34 60.94 61.29 62.17 63.42 63.67 66.05 64.52 63.55 63.23 65.84 68.50 70.14 70.19 70.24 71.33 72.19 72.99 73.34 73.75 74.41 74.11 75.21 75.73 76.63 77.53 78.56 78.55 76.36 76.46 76.36 75.36 75.45 76.19 77.45 77.12 76.06 78.06 77.33 77.75 76.21 77.14 77.20 75.61 76.22 76.19 75.75 75.51 75.05
60.94 60.83 60.64 61.60 61.91 63.69 63.80 64.07 65.07 65.05 67.05 68.01 69.49 69.34 70.16 70.77 71.82 72.70 72.92 72.97 73.57 74.29 74.74 75.72 76.59 77.69 77.71 78.34 78.96 77.71 77.04 77.17 75.63 75.65 76.69 77.83 76.97 77.83 76.47 78.07 75.99 76.40 76.48 77.33 76.76 76.34 75.38 75.43 74.42
60.76 58.39 60.84 61.49 61.73 62.11 64.42 61.86 62.11 66.24 68.04 67.55 68.72 69.52 69.71 70.61 71.66 71.97 73.02 73.25 73.80 74.58 75.37 75.62 76.31 77.38 77.80 77.97 78.58 77.14 76.25 75.87 75.75 75.58 77.63 77.46 77.95 77.71 78.08 76.73 76.54 75.70 77.87 77.33 76.98 75.86 77.06 73.55 72.82
58.25 58.86 56.42 61.41 61.88 62.58 63.08 58.91 64.22 67.04 66.78 66.37 67.92 68.99 69.46 70.29 70.97 72.56 73.11 73.69 74.44 75.00 75.22 76.12 75.74 76.34 77.25 77.78 78.32 77.07 76.63 77.08 76.50 76.23 76.21 78.08 78.19 78.48 78.42 76.16 75.34 76.59 76.95 76.77 76.48 75.26 71.50 71.68 70.82
57.84 54.31 56.40 58.37 62.63 63.47 62.47 59.22 64.86 67.54 66.09 66.20 67.27 68.42 69.15 69.98 71.30 72.71 73.43 73.83 74.34 75.33 75.77 75.92 76.61 76.39 77.45 79.70 78.24 78.01 79.19 76.82 77.59 77.90 76.87 77.05 79.13 78.88 77.56 76.31 76.64 77.52 76.60 75.77 75.02 74.39 73.48 70.60 70.02
54.70 55.32 57.26 58.97 60.47 63.22 61.10 60.76 65.05 67.14 66.45 65.28 66.49 67.61 68.72 69.20 70.46 72.66 73.62 74.37 74.85 75.61 76.38 76.71 76.48 78.63 79.72 79.18 81.55 77.18 76.51 77.18 77.18 77.08 76.61 78.31 77.83 78.45 77.84 76.60 77.24 76.93 75.31 74.97 73.84 73.97 72.28 70.98 70.20
57.84 57.33 56.56 58.99 61.08 61.32 61.17 61.35 63.88 66.63 66.80 65.65 66.26 66.73 67.98 68.97 71.42 72.77 73.85 74.48 74.58 75.48 76.00 77.48 77.81 80.27 78.22 76.15 76.97 75.67 74.75 76.09 75.98 76.16 78.71 78.76 78.12 78.93 77.56 76.73 76.80 76.57 76.08 75.29 73.67 71.90 71.66 69.37 71.34
56.85 56.49 56.98 59.53 60.05 61.09 60.89 60.48 63.92 66.62 66.26 67.05 66.62 66.63 67.22 68.41 69.91 71.98 73.41 73.96 74.21 75.07 76.29 78.42 78.96 80.37 79.42 77.33 77.70 77.41 75.49 75.55 75.55 76.43 79.30 78.37 77.90 78.62 77.75 78.19 76.39 76.73 74.01 73.89 72.44 71.62 69.21 69.18 70.78
56.36 55.91 56.88 57.09 61.40 62.27 60.93 59.00 61.12 64.39 67.34 67.71 67.81 68.36 68.33 68.14 68.26 70.90 72.33 73.48 74.17 74.83 76.50 78.28 80.05 80.49 80.38 79.86 79.07 78.67 79.62 77.50 76.80 76.25 76.93 77.62 78.19 78.10 78.40 77.48 77.17 76.16 73.61 68.69 72.55 71.76 70.42 67.64 70.22
53.99 57.66 57.82 57.48 57.19 55.41 60.04 53.48 60.11 62.01 63.14 66.44 67.34 67.86 67.99 68.54 69.28 70.41 72.11 73.28 73.80 75.15 76.51 79.07 80.41 80.86 80.63 80.99 78.64 78.92 75.47 73.64 73.49 74.85 75.15 76.86 78.64 77.70 77.87 77.74 75.65 75.05 71.54 74.40 72.17 71.07 70.94 70.55 68.48
54.90 58.15 57.76 57.76 57.85 57.88 56.68 54.84 57.39 61.38 60.92 63.54 66.54 68.01 68.36 68.76 69.48 69.78 71.56 73.14 74.29 75.09 75.66 77.84 80.58 81.09 81.38 80.48 79.64 77.21 76.69 74.72 74.89 74.06 78.98 79.35 79.82 77.05 76.11 76.15 75.12 73.37 70.45 73.12 72.89 71.61 71.62 71.14 68.37
57.34 56.85 57.51 57.18 56.39 51.98 56.65 54.66 56.43 57.68 61.17 63.00 65.43 67.67 69.20 69.13 69.38 71.01 71.86 73.14 73.74 74.84 75.64 77.38 80.12 80.91 81.33 81.18 79.47 79.58 79.35 77.45 74.80 75.24 74.66 74.88 74.95 75.61 76.25 75.08 75.06 73.84 72.42 72.64 72.10 72.20 71.52 71.06 70.76
55.39 54.37 50.16 49.96 49.71 49.42 56.64 55.50 57.59 61.48 62.72 63.22 63.32 65.35 68.23 70.08 69.31 69.94 71.35 71.90 73.71 75.28 76.28 77.42 79.74 80.48 81.01 80.09 80.10 80.00 80.11 80.44 79.13 77.78 75.04 76.74 72.79 73.48 77.03 76.61 75.34 73.17 73.51 73.04 72.79 72.40 71.73 70.62 69.49
53.31 53.71 49.96 46.52 48.13 50.61 56.02 52.66 56.43 62.84 62.94 63.73 64.13 63.96 65.91 69.21 70.04 69.24 70.69 72.66 74.76 74.89 76.89 77.49 78.73 80.14 80.87 80.35 80.68 81.02 80.85 77.13 76.49 77.78 76.14 73.99 73.29 74.02 78.03 75.58 75.01 73.92 72.92 72.75 72.72 70.15 69.37 71.55 69.68
52.70 51.59 56.11 52.53 54.24 51.36 53.43 56.34 59.65 62.07 62.38 62.40 62.62 62.97 63.56 67.38 69.51 69.80 70.09 71.45 73.69 74.42 76.47 77.46 78.70 79.72 80.32 78.81 81.11 80.94 80.76 80.27 77.41 78.96 79.21 76.15 77.16 74.16 74.72 75.31 74.57 73.64 72.29 72.77 72.29 69.19 70.98 70.40 70.41
52.50 55.56 51.47 53.84 48.79 47.38 51.36 53.26 54.13 58.93 59.92 61.14 61.97 62.21 63.63 65.87 69.21 70.15 70.23 71.01 73.01 73.64 75.71 77.57 78.81 79.33 79.14 79.57 79.95 79.52 79.91 80.74 80.56 81.16 80.00 78.27 77.73 77.59 76.25 75.68 74.50 73.24 73.23 73.21 72.85 71.44 71.65 70.69 68.98
50.88 50.45 53.72 53.99 52.99 49.21 48.24 52.11 59.39 60.67 61.62 61.01 62.01 62.56 63.47 65.36 68.46 70.16 70.50 71.08 72.35 73.12 74.71 75.86 77.10 78.60 78.99 79.43 79.44 79.68 79.06 79.57 80.47 79.94 79.80 79.84 78.72 78.43 76.77 76.26 75.02 72.90 72.15 72.25 72.68 71.70 70.69 70.54 70.86
53.63 51.94 52.20 51.09 51.79 52.77 53.27 52.32 59.93 60.96 61.55 61.83 62.19 63.11 63.76 65.71 68.31 70.16 70.96 71.26 71.62 72.95 73.05 73.97 74.99 75.35 77.64 78.90 79.89 79.71 79.93 79.80 79.22 79.95 80.23 80.09 78.69 78.61 76.97 75.99 74.37 72.97 70.74 68.71 71.92 70.26 70.17 68.63 68.34

GFSSGP_sfc_wetblb_012.txt.gz
Wetbulb
76.20 76.40 76.35 72.47 62.13 59.89 56.34 58.87 62.78 61.27 62.57 66.92 66.74 65.30 64.54 65.80 63.54 58.71 72.34 73.14 73.18 73.07 74.06 74.91 76.90 77.01 77.01 77.72 78.32 78.48 78.35 78.52 78.79 78.89 78.70 78.88 78.98 78.74 78.62 78.45 77.86 78.00 77.62 77.27 77.08 76.88 76.80 76.77 76.24
76.04 76.38 74.50 66.49 57.71 54.08 56.81 61.71 60.75 62.65 65.09 67.83 67.31 66.34 65.69 63.69 68.49 69.04 70.49 73.01 73.64 73.42 73.70 74.27 77.18 77.51 77.56 78.04 78.13 77.88 78.16 78.04 78.41 78.48 78.40 78.85 78.93 78.58 78.00 77.38 77.07 76.96 77.05 76.66 76.58 76.72 76.61 76.83 76.60
76.66 77.02 69.39 65.31 57.90 53.95 57.39 61.62 62.96 65.80 67.26 67.12 64.96 67.61 67.17 65.55 70.03 70.63 72.88 73.67 73.01 73.26 74.64 75.07 77.49 77.71 77.80 77.85 78.19 78.09 78.00 77.81 78.18 78.30 78.30 78.60 78.63 78.15 77.42 77.19 76.94 76.67 76.67 76.55 76.61 76.67 76.58 76.44 76.66
75.60 71.44 71.04 62.00 56.66 61.12 61.25 63.40 65.74 65.44 67.15 68.39 67.37 64.22 69.06 71.73 70.77 72.23 73.85 73.85 73.11 74.26 74.36 76.18 77.64 77.41 77.79 78.11 77.92 77.85 78.21 77.97 77.97 78.03 78.23 78.51 78.05 77.14 77.33 76.86 76.24 76.07 76.22 76.53 76.86 76.75 76.72 76.47 76.47
73.70 69.20 62.20 59.45 60.18 61.93 64.13 65.91 65.55 64.53 66.03 66.27 67.34 64.56 65.93 70.72 73.04 73.40 73.27 73.66 73.31 74.06 74.32 75.19 77.67 77.84 77.80 78.19 78.36 77.83 78.01 77.63 77.87 77.86 77.99 77.50 77.20 76.77 77.06 76.26 75.78 75.78 76.13 76.63 76.86 76.40 76.16 75.80 75.69
67.38 67.13 58.95 54.02 56.31 61.93 64.23 66.59 65.79 65.54 66.12 66.85 66.15 65.51 66.09 71.77 72.42 72.87 73.64 73.12 74.26 73.79 73.77 74.59 77.22 77.81 78.05 78.12 78.07 78.32 77.80 77.59 77.78 77.52 77.64 77.17 76.77 76.74 76.57 75.58 75.45 75.70 76.26 76.85 76.77 75.98 75.85 75.49 74.91
62.47 61.97 58.98 57.71 56.72 59.19 62.01 65.92 64.23 65.37 65.93 65.86 68.92 64.31 67.45 70.39 72.92 73.14 73.68 74.28 74.20 74.20 74.49 75.14 75.28 76.58 77.74 78.66 78.09 77.71 77.64 77.80 77.57 77.47 77.33 76.81 76.72 76.60 76.42 76.37 75.32 75.83 76.08 76.29 76.26 75.30 75.15 75.15 75.16
65.92 63.37 58.67 59.49 56.68 56.53 62.21 64.08 65.69 64.91 65.42 69.79 69.65 64.09 64.82 70.73 73.72 73.99 73.77 73.30 74.27 74.93 74.85 75.79 76.28 76.03 76.53 76.53 77.77 77.48 77.43 77.24 77.19 77.17 76.75 76.78 76.94 77.16 77.24 77.16 76.97 75.73 75.27 75.61 75.56 75.39 75.28 75.18 75.75
66.80 59.91 57.94 58.47 58.50 58.53 62.89 61.22 66.27 68.58 66.95 68.95 69.16 68.80 70.62 72.55 73.85 72.31 72.16 72.60 73.09 74.12 74.59 75.43 75.58 77.08 77.50 77.11 76.68 77.52 77.11 76.61 76.61 76.53 77.20 77.66 75.92 76.44 76.98 77.73 76.97 76.76 76.31 75.25 76.03 76.80 76.94 76.92 77.00
63.94 58.87 58.98 61.79 62.54 61.09 62.35 62.37 62.72 63.77 64.77 66.04 68.39 70.44 71.63 72.47 72.55 71.10 70.64 70.86 72.29 72.05 74.27 74.33 76.01 76.64 76.76 75.66 77.53 77.60 76.34 74.95 75.62 76.08 76.92 76.08 74.38 76.32 76.83 77.27 76.67 77.45 77.03 70.42 75.47 77.30 76.64 76.18 75.95
62.89 58.31 61.88 62.66 63.91 63.57 62.22 62.21 63.52 62.99 61.97 65.11 66.98 68.87 70.29 71.55 71.80 71.17 71.40 71.73 71.71 73.49 73.93 75.39 76.25 77.19 76.38 76.80 76.62 76.12 75.63 75.60 75.93 78.55 76.42 77.83 74.94 78.57 73.22 74.15 75.03 74.88 74.17 70.63 74.36 76.66 74.65 75.30 74.74
58.72 62.85 63.29 63.37 65.10 64.30 61.95 63.80 62.37 63.45 63.70 67.61 70.15 70.92 70.64 70.56 70.97 70.73 71.06 71.42 72.50 73.69 74.91 75.78 76.31 77.31 78.01 75.84 75.25 76.06 75.59 76.02 75.74 76.89 79.25 79.52 78.00 76.28 73.48 73.14 74.73 72.63 73.43 74.38 76.12 74.77 75.68 75.72 74.64
58.61 61.48 62.41 62.43 62.84 63.63 64.17 62.89 62.70 62.59 66.06 68.08 69.48 70.56 70.32 70.38 70.55 71.74 71.47 72.62 73.27 73.39 74.78 75.69 76.85 77.99 79.08 78.60 77.34 74.98 77.11 75.00 74.46 77.17 78.10 77.17 78.47 76.38 73.36 77.61 78.03 76.29 73.98 76.41 77.33 75.66 76.24 76.24 75.19
60.13 60.13 60.58 61.01 61.09 62.61 63.60 63.45 63.17 63.29 65.84 66.87 68.07 68.76 70.10 70.51 70.33 71.69 72.05 72.10 73.21 73.03 74.82 76.44 76.98 78.49 78.33 78.54 80.54 80.65 77.35 76.96 77.07 74.31 77.27 79.62 79.42 79.11 78.09 78.68 76.60 75.22 75.74 78.09 76.28 76.36 76.14 76.19 75.00
59.85 57.55 59.49 59.88 60.67 61.07 63.05 61.31 61.36 64.48 65.28 66.09 66.68 68.00 69.29 70.29 71.26 71.19 72.07 72.69 73.91 74.25 75.43 75.97 76.60 77.12 77.92 79.83 79.70 80.38 77.34 76.32 74.90 76.85 77.28 78.56 79.26 79.72 79.64 77.83 77.87 77.02 76.13 77.00 76.19 74.97 76.52 72.28 73.82
56.46 57.17 54.52 59.13 60.83 61.43 61.52 58.05 61.67 65.53 64.48 64.42 66.36 67.06 68.10 69.32 70.51 72.18 72.45 72.99 73.93 74.24 75.46 76.40 75.23 76.66 76.59 78.07 79.64 78.20 76.51 76.13 75.36 78.95 74.70 78.74 79.96 79.49 80.32 77.63 73.58 76.37 74.88 76.67 74.70 75.05 74.74 70.70 71.32
55.26 52.39 54.16 56.35 61.44 60.87 60.08 58.15 63.09 65.66 64.96 64.01 65.59 66.65 67.33 69.02 70.44 72.19 72.68 73.66 73.65 75.52 76.38 76.43 77.24 76.77 76.94 78.57 77.90 78.34 77.64 76.87 75.79 77.17 78.67 75.82 76.03 79.66 77.42 77.36 74.90 77.58 77.48 75.98 75.49 74.35 74.16 72.12 70.77
51.49 52.85 55.18 55.66 59.91 60.22 60.40 58.56 60.79 64.57 64.73 64.43 64.70 66.04 67.30 67.65 69.10 71.67 72.61 73.32 74.44 75.45 76.66 76.61 76.95 79.36 77.78 77.92 77.67 77.97 76.41 75.83 76.03 80.31 75.00 76.44 78.08 78.36 77.77 77.36 78.56 78.34 77.29 72.94 75.46 72.22 71.99 71.43 70.33
54.93 55.29 55.13 57.35 61.16 59.55 60.04 56.68 56.56 61.74 64.83 63.87 64.94 65.56 66.67 67.85 70.30 71.96 72.74 73.34 73.75 75.19 76.27 76.42 76.53 78.93 79.00 77.78 75.50 75.93 75.94 75.94 76.30 76.97 78.92 77.65 79.07 79.61 79.51 78.06 77.43 76.07 76.15 71.26 73.01 73.29 71.15 71.00 71.37
54.91 54.44 55.39 58.23 61.10 60.52 60.36 58.76 60.03 63.60 65.28 64.56 64.67 64.73 65.67 66.63 68.83 71.11 72.42 72.86 73.34 74.68 75.46 76.84 76.99 79.04 78.68 78.06 77.59 76.75 76.39 76.60 75.09 77.05 77.63 78.93 78.57 79.41 77.27 77.47 77.13 75.78 75.47 74.28 73.07 72.41 70.62 70.17 71.84
54.25 53.91 55.07 55.82 59.62 60.29 58.78 57.50 61.46 64.23 64.83 65.72 65.65 66.20 66.10 66.88 67.16 70.24 71.73 72.32 73.62 74.11 75.60 76.71 77.59 78.34 78.13 78.76 77.51 77.74 77.24 78.46 76.34 76.92 77.70 77.98 78.82 77.81 75.62 77.58 77.49 76.88 74.81 72.94 73.24 72.71 71.92 68.30 71.08
52.02 56.48 56.29 55.85 56.72 53.60 59.20 51.51 57.84 61.28 63.42 64.19 65.17 65.89 66.22 67.06 68.32 70.04 71.42 72.58 73.25 74.31 76.33 77.30 78.01 78.07 78.81 78.23 77.24 76.40 74.39 74.67 75.46 75.10 76.34 77.49 78.54 78.45 78.74 78.04 77.43 76.27 74.21 74.55 73.22 72.73 71.00 71.84 68.12
54.09 57.35 56.36 56.01 55.72 56.62 57.67 54.72 58.53 61.93 60.64 63.70 64.84 66.12 67.00 68.10 68.12 68.80 71.11 72.54 73.59 74.95 75.79 76.80 78.15 78.34 78.55 78.41 77.61 76.74 76.07 75.09 76.06 76.13 78.71 77.16 78.00 78.03 77.25 77.94 76.97 74.97 73.01 74.93 73.05 72.24 71.40 71.78 70.05
56.66 55.78 55.76 55.73 55.04 50.31 55.82 54.46 55.16 58.87 59.45 61.26 65.14 66.42 67.58 68.27 68.83 69.66 71.68 72.97 73.43 74.73 75.98 76.16 78.14 78.26 78.58 78.90 77.60 78.21 75.66 75.13 75.17 75.36 76.05 76.11 76.61 76.58 78.03 76.50 75.96 74.94 73.22 73.93 73.15 73.31 72.89 71.13 71.58
53.50 52.38 49.04 48.12 49.25 48.70 55.97 55.00 57.28 61.72 62.95 62.94 62.12 65.19 68.13 69.26 69.12 69.66 70.53 71.83 73.09 73.81 75.03 76.06 77.70 77.69 78.55 78.85 78.24 77.52 77.84 76.53 76.91 79.17 76.43 75.61 74.34 74.93 76.16 76.20 75.03 74.00 74.04 74.90 73.68 73.31 73.10 71.53 70.42
51.74 51.59 49.71 44.78 46.91 49.38 55.33 52.03 56.33 63.16 63.92 63.80 64.67 63.35 67.77 68.97 69.35 69.90 70.80 71.90 73.14 73.62 74.94 75.82 77.02 77.33 78.64 78.12 78.65 78.49 78.20 77.84 77.19 77.56 77.12 76.17 75.12 74.42 75.12 75.02 74.53 74.77 73.24 73.19 73.21 72.08 70.25 71.23 70.66
51.43 49.37 53.72 50.52 52.27 49.76 52.55 55.07 58.11 61.76 62.89 62.87 62.89 64.04 65.48 68.55 69.53 69.44 71.49 71.83 73.54 73.66 74.60 75.59 77.29 77.88 78.71 78.64 78.90 78.79 78.37 78.10 77.50 77.41 77.36 77.62 76.50 77.36 74.63 74.57 75.14 73.91 73.17 73.31 73.81 70.24 69.98 71.86 71.70
52.33 54.33 48.28 50.03 45.96 46.01 50.68 53.05 54.50 58.77 61.79 63.00 63.33 63.04 64.20 64.83 69.45 70.24 70.32 72.27 73.51 74.47 75.06 76.22 77.12 77.84 78.93 78.93 78.73 78.59 78.93 78.39 77.61 77.57 77.51 76.02 77.20 76.25 75.49 75.08 74.57 73.67 72.77 71.48 72.16 69.74 71.60 70.00 70.27
50.74 49.79 50.72 51.46 51.08 48.20 47.96 51.49 60.44 61.50 63.99 63.46 63.64 63.97 64.04 65.06 67.10 69.64 70.54 71.52 73.43 74.81 74.81 75.68 76.07 77.70 78.45 78.74 78.59 78.67 78.62 78.79 77.91 78.36 77.38 77.82 76.72 76.18 75.58 74.94 74.00 73.41 72.12 72.23 71.48 70.52 69.34 69.47 69.29
53.49 51.41 50.83 47.44 49.04 51.06 50.89 52.12 59.91 63.00 62.26 63.91 63.38 64.06 64.92 65.28 67.06 68.90 71.07 71.08 72.09 73.20 74.03 75.06 76.04 77.10 78.01 78.43 78.43 78.31 78.64 78.64 78.36 77.37 78.45 77.60 78.22 77.03 75.48 75.20 74.10 73.18 70.97 71.91 70.01 68.90 68.76 69.86 68.88

GFSSGP_sfc_wetblb_015.txt.gz
Wetbulb
75.79 75.45 74.54 70.06 61.43 59.54 56.04 57.60 62.49 60.93 61.65 64.99 66.71 65.50 63.53 64.81 61.73 56.73 70.01 71.82 72.07 72.48 73.73 74.75 77.01 77.69 77.71 78.31 78.44 78.61 78.78 79.12 79.07 79.16 79.13 79.13 78.35 78.38 78.51 77.94 77.90 78.00 77.75 76.80 76.72 76.80 76.74 76.33 75.78
75.03 74.42 69.64 63.92 58.08 53.64 54.69 60.77 60.21 62.48 64.63 65.99 67.11 66.35 64.28 62.01 67.09 67.69 68.76 71.81 72.41 72.76 73.05 74.38 77.18 77.73 78.19 78.48 78.56 78.54 78.42 78.13 78.77 78.85 79.05 78.84 78.35 78.50 78.01 77.29 77.23 77.20 77.39 76.69 76.61 76.53 76.53 76.61 76.14
75.25 75.10 67.42 61.05 57.75 54.26 55.39 60.88 61.53 64.99 66.51 66.09 65.15 67.78 65.74 63.82 68.03 68.73 71.13 72.09 72.22 72.08 73.11 74.62 77.82 78.04 78.19 78.03 78.56 78.45 78.36 78.09 78.50 78.47 79.05 78.84 78.64 77.93 77.32 77.13 76.86 76.58 77.12 76.92 76.47 76.47 76.33 76.36 76.06
72.30 69.50 68.76 60.50 55.64 59.52 60.10 62.45 64.29 63.67 66.22 67.39 66.64 62.93 67.74 70.81 69.62 70.82 72.35 72.01 71.72 72.28 74.06 76.94 77.95 77.78 78.15 78.38 78.35 78.21 78.15 78.05 78.29 78.45 78.95 78.71 78.40 77.49 77.22 76.78 76.47 76.25 76.39 76.73 76.86 76.56 76.00 75.97 75.95
71.63 67.82 61.26 58.83 57.75 61.08 63.36 65.13 66.10 64.02 64.95 65.45 66.41 63.34 64.77 69.29 71.57 72.20 71.46 73.08 71.61 72.38 74.19 75.79 78.17 78.72 78.56 78.30 78.31 78.44 77.93 77.66 78.18 78.50 78.66 78.65 78.37 77.61 77.14 76.61 76.16 75.94 76.11 76.36 76.50 75.80 75.86 75.14 75.42
65.77 66.44 57.82 54.57 57.70 62.18 63.56 65.74 65.12 64.63 66.07 65.99 64.79 64.12 64.55 70.79 70.74 71.31 72.10 72.33 72.59 72.40 73.55 74.81 77.75 78.44 78.93 78.26 78.01 78.76 78.22 77.74 78.41 78.50 78.53 78.53 78.39 78.28 77.75 76.84 76.05 75.93 75.96 76.33 76.42 76.00 75.67 75.45 75.56
62.78 59.59 56.52 55.65 55.60 59.91 63.04 66.38 64.58 64.34 64.90 64.92 66.97 62.48 66.01 68.36 70.72 71.99 71.85 72.67 72.19 72.64 72.78 74.29 74.92 76.55 78.26 78.97 78.25 78.22 78.35 78.37 78.39 78.62 78.53 78.22 77.86 77.20 77.28 77.23 76.56 75.90 75.56 75.93 76.08 75.91 76.86 76.77 76.88
64.05 61.77 55.94 56.85 55.91 55.26 62.75 64.89 67.15 65.45 64.87 69.12 68.46 62.50 62.70 68.38 71.25 72.04 72.49 72.34 70.99 72.30 73.08 73.15 73.78 74.66 75.59 76.04 77.98 77.57 77.86 77.90 77.88 78.24 77.73 77.65 76.64 76.52 77.05 77.65 77.54 75.54 75.28 75.93 76.47 77.33 77.41 77.07 77.57
67.45 57.62 55.14 56.36 57.14 57.36 60.68 63.74 67.22 69.17 66.74 67.33 68.42 67.33 69.08 70.80 71.60 70.53 70.13 70.13 71.85 72.42 72.60 73.22 73.67 74.02 74.08 74.36 76.01 77.46 77.65 77.70 77.86 77.52 77.94 77.08 74.75 74.24 75.17 73.71 76.91 76.38 76.33 76.61 75.64 77.94 77.78 77.58 78.32
60.90 55.87 57.37 61.88 61.45 58.14 61.18 64.55 65.06 66.13 65.64 65.58 66.94 69.55 70.61 70.99 70.10 68.80 68.82 68.82 70.48 70.94 72.47 73.48 73.70 74.10 74.24 75.33 74.37 74.52 75.04 73.55 73.52 74.14 73.87 74.17 72.55 72.88 76.20 74.82 75.78 76.44 76.18 74.41 73.68 76.01 78.42 76.75 73.80
59.94 55.19 61.24 61.87 63.07 62.75 59.98 60.21 63.60 64.28 63.07 65.23 65.02 67.76 69.59 69.63 69.07 68.64 69.49 70.17 70.18 71.16 72.62 73.38 74.08 74.70 73.87 73.67 74.22 74.51 73.64 72.33 72.49 72.88 73.67 73.05 74.56 74.08 73.06 71.47 73.23 72.70 71.45 68.77 73.40 73.69 74.66 73.43 71.88
57.36 61.03 61.71 62.77 63.59 61.27 59.87 60.83 61.91 62.53 64.56 68.52 68.56 69.30 69.38 68.54 68.52 68.70 68.86 69.44 70.49 70.58 72.86 73.06 74.03 73.74 73.72 74.36 73.96 74.25 73.22 72.46 72.24 73.44 73.86 74.24 73.04 71.57 71.75 71.95 73.12 72.07 70.86 70.65 73.02 71.97 72.54 72.69 71.21
57.12 59.70 62.29 63.81 63.02 62.07 62.15 61.00 61.75 62.44 67.94 69.54 69.45 69.07 68.97 68.72 69.07 69.59 70.17 70.21 70.24 71.17 72.42 72.62 73.86 73.88 74.18 73.31 72.53 72.66 72.76 73.18 73.18 73.91 74.33 72.89 73.07 71.35 71.31 71.28 72.18 71.19 69.82 72.24 72.84 72.24 72.97 71.74 71.50
58.24 58.62 60.38 60.45 62.20 62.17 60.48 61.46 62.55 64.13 68.71 68.34 68.51 67.53 68.92 68.98 69.22 69.78 69.86 69.73 69.87 71.99 72.30 73.16 73.66 74.54 74.97 74.06 73.78 73.69 74.32 73.44 73.13 74.67 74.60 73.39 73.42 73.37 72.46 72.91 72.30 73.43 72.99 74.16 73.33 72.06 71.44 72.85 71.48
57.50 54.53 56.25 57.45 56.93 61.20 63.12 58.96 59.08 64.32 66.72 67.13 67.52 68.00 68.32 68.54 69.80 68.11 69.88 69.92 71.07 72.23 72.75 73.24 73.61 75.18 74.17 74.51 73.72 74.16 71.95 71.30 70.02 72.36 74.84 74.28 74.58 73.64 73.10 72.45 72.76 72.09 73.57 73.50 70.85 72.61 71.17 69.60 71.12
53.76 51.68 47.85 55.11 57.23 58.31 59.62 54.26 61.44 63.15 64.92 65.17 66.70 67.57 68.18 68.24 68.03 69.35 69.95 70.61 71.22 71.98 72.52 73.83 74.89 74.75 73.97 74.02 74.71 73.65 72.50 72.18 72.24 74.03 74.91 74.98 74.72 74.21 73.77 73.19 70.87 72.75 71.19 72.68 71.77 72.39 69.93 69.24 68.47
48.89 45.88 48.44 51.80 57.68 58.39 58.08 53.81 60.76 62.21 63.66 63.24 64.92 66.06 67.17 67.73 67.76 68.76 69.72 70.24 71.03 71.92 73.04 73.27 73.78 73.22 73.61 73.83 74.66 73.66 73.19 74.05 72.51 73.74 73.69 74.81 75.08 75.43 73.05 73.47 72.39 72.38 72.46 70.87 70.61 69.12 69.67 66.37 64.74
44.81 46.14 49.01 50.32 55.52 57.73 56.13 55.14 59.33 61.82 61.95 62.83 63.92 64.78 65.69 66.45 67.46 69.22 69.67 70.68 71.66 72.57 73.29 72.93 73.48 73.06 72.76 74.72 73.10 73.27 73.32 73.10 73.96 73.96 72.46 74.67 74.74 75.43 73.72 72.37 72.61 72.96 71.81 70.52 69.69 69.48 67.82 65.52 65.28
50.67 49.71 49.85 52.80 57.90 58.44 57.18 56.97 59.11 59.35 60.52 60.90 62.99 63.55 64.51 65.63 67.59 69.62 70.18 70.87 71.30 73.02 72.55 72.50 72.57 73.48 73.16 73.61 72.57 72.12 72.41 72.61 71.27 73.03 73.46 74.37 74.42 74.59 74.02 73.26 72.69 73.66 71.54 69.55 70.58 67.92 64.39 64.90 65.45
50.19 49.36 49.48 53.18 57.96 57.90 57.35 56.94 59.41 59.08 58.56 60.81 62.69 63.37 64.10 65.41 66.36 68.42 69.29 70.14 70.92 71.75 72.03 71.92 71.92 74.94 74.39 74.15 73.16 72.63 72.45 73.30 72.72 72.84 74.67 73.92 74.86 74.94 73.17 72.91 72.25 72.67 70.99 68.71 66.34 65.03 64.11 65.12 66.04
49.19 48.21 49.56 50.43 57.05 58.40 57.28 54.46 55.46 58.74 61.15 62.02 63.15 64.23 64.98 64.97 65.42 67.16 68.22 69.07 70.03 71.01 72.25 72.46 72.22 74.96 75.17 74.85 73.63 73.16 73.65 73.21 72.91 72.55 75.19 75.29 75.47 75.24 73.22 73.75 72.71 70.91 68.42 67.39 66.27 65.71 64.99 62.42 66.26
46.77 52.43 52.62 52.17 51.38 50.16 58.16 48.23 53.47 59.27 61.41 61.88 62.89 62.55 63.84 65.16 66.34 67.39 68.28 68.68 69.55 71.29 73.13 73.06 73.56 75.08 74.51 74.71 73.40 71.74 70.56 69.41 70.99 73.09 73.51 75.12 75.52 74.27 73.74 73.37 73.19 70.75 69.24 68.10 66.45 67.00 64.27 65.54 62.27
48.81 53.43 52.62 52.44 50.75 51.61 53.61 48.91 53.25 58.25 56.26 57.93 61.44 62.65 63.26 64.49 65.67 66.89 68.60 69.17 70.33 71.82 72.40 74.11 73.95 74.12 74.84 74.67 73.61 72.75 71.31 71.52 72.67 72.35 72.60 73.82 74.14 74.47 74.93 73.73 72.59 68.76 66.68 68.53 67.54 65.66 64.49 65.81 65.08
51.97 51.08 51.32 51.64 49.98 45.21 50.75 51.26 49.19 54.21 56.36 57.95 62.16 63.04 63.53 64.24 65.25 67.26 68.92 69.88 69.86 72.02 73.18 74.23 74.19 74.24 75.30 74.14 74.18 73.62 72.53 71.67 70.58 70.16 72.65 73.79 73.40 73.43 74.48 73.77 70.31 68.35 66.83 67.75 66.88 66.50 66.30 65.34 65.24
49.25 43.71 42.32 41.71 42.96 41.51 49.39 50.58 52.52 57.36 59.56 61.62 62.40 62.47 65.16 65.04 65.04 65.27 67.65 69.08 69.73 70.81 72.34 73.84 74.10 73.79 75.10 74.65 73.70 74.11 73.14 72.50 70.71 71.54 72.49 72.73 72.83 71.68 72.87 72.10 69.87 68.25 67.15 68.87 68.16 67.92 65.86 65.18 64.28
46.76 45.54 42.23 36.22 39.87 42.86 48.33 46.88 52.35 59.37 61.62 63.21 63.64 63.98 64.97 65.79 65.58 65.66 67.60 68.92 69.81 70.60 72.21 73.62 74.07 73.65 75.07 75.27 74.73 73.82 74.64 73.21 72.64 72.58 72.76 72.76 72.98 72.56 72.50 71.78 70.21 68.98 67.39 70.05 68.85 67.43 66.25 66.39 65.05
46.17 44.20 47.52 40.76 43.86 41.52 45.59 48.43 53.09 59.70 59.37 61.51 61.96 64.02 64.63 63.99 64.95 66.18 67.23 68.87 69.81 70.46 72.22 72.57 74.55 74.63 75.28 75.46 75.65 74.85 74.39 74.58 74.29 73.49 73.17 72.67 72.00 72.12 72.34 71.96 70.46 69.62 68.32 67.30 68.33 67.14 65.39 66.00 65.47
48.54 48.55 42.63 44.62 37.50 38.55 44.49 45.55 48.10 53.59 57.59 59.50 60.28 60.97 62.94 63.56 64.92 66.40 67.16 68.76 70.13 71.01 72.42 73.04 74.91 74.82 75.50 74.97 76.33 75.80 75.23 74.58 74.73 74.11 72.95 73.42 71.87 72.31 71.71 72.01 70.98 70.97 68.80 68.31 68.66 65.84 66.78 65.38 65.99
47.68 45.65 44.11 43.52 44.19 40.01 39.40 44.83 50.84 54.20 59.35 59.11 60.41 61.86 62.63 63.97 64.37 66.85 67.79 69.12 70.62 71.41 72.18 72.89 74.11 74.93 75.50 75.76 75.53 76.30 75.82 75.59 74.86 74.52 73.52 72.80 73.14 71.80 71.66 71.79 71.64 70.19 69.24 69.22 68.41 65.69 65.43 66.48 64.15
50.50 46.33 44.76 41.80 37.95 41.95 42.75 44.16 53.81 54.68 59.78 61.08 61.09 61.51 62.23 61.68 65.30 67.17 68.10 68.63 70.34 70.83 71.47 72.60 74.69 74.99 75.82 76.47 76.09 75.95 76.37 76.36 75.34 74.42 74.09 74.12 72.64 72.72 72.73 71.95 71.44 70.41 69.53 68.47 68.33 65.99 66.00 64.78 65.57

GFSSGP_sfc_wetblb_018.txt.gz
Wetbulb
75.12 74.57 73.53 68.99 61.30 58.94 55.12 58.00 61.27 60.35 60.85 64.59 66.38 64.84 62.34 63.51 60.66 56.28 68.82 70.87 71.44 71.81 73.15 74.61 77.02 78.05 78.11 78.34 78.80 78.72 78.79 78.43 78.99 78.95 78.26 77.51 77.60 77.46 77.39 77.03 76.87 76.85 76.50 76.45 76.48 76.61 76.31 75.67 75.45
75.03 73.21 70.08 64.91 57.80 52.87 53.76 60.61 59.42 61.72 64.14 66.10 66.39 65.24 63.13 61.65 66.12 67.07 67.85 70.98 72.45 72.75 73.15 74.69 77.39 77.95 77.98 78.38 78.54 78.65 78.28 78.15 78.98 78.76 78.18 77.62 77.52 77.46 77.04 76.80 76.66 76.55 76.59 76.45 76.40 76.01 76.32 76.04 75.62
74.35 71.49 63.41 58.74 57.34 52.85 53.88 60.01 61.36 63.90 66.58 66.15 64.94 66.36 64.64 62.85 66.97 67.65 70.42 72.15 72.54 72.27 73.37 74.75 77.94 78.21 77.93 78.09 78.42 78.42 78.25 77.55 78.17 78.32 77.50 77.23 77.27 77.15 76.78 76.64 76.50 76.48 76.50 76.43 76.15 76.02 75.74 75.71 75.71
72.75 69.12 66.31 60.94 55.80 58.76 60.12 61.52 63.40 63.72 65.93 66.33 65.22 62.55 66.70 69.54 68.33 70.13 71.79 71.92 71.23 72.20 73.83 76.46 77.98 77.33 77.67 77.97 77.87 77.62 77.46 77.50 77.75 78.40 77.48 77.28 77.29 77.01 76.51 76.38 76.18 76.35 76.54 76.32 75.77 75.49 75.02 75.38 75.89
71.00 67.53 59.87 57.38 58.21 60.48 62.38 64.20 64.68 62.98 64.45 64.80 65.59 63.07 64.10 69.19 70.85 71.31 71.12 71.64 71.24 72.42 74.11 75.13 77.75 78.10 78.17 77.93 77.62 77.54 77.15 76.99 77.75 78.27 77.48 77.19 77.34 76.85 76.52 76.13 76.02 76.16 76.21 76.05 75.57 74.99 75.32 75.13 75.71
65.07 65.84 56.89 53.33 55.97 61.95 63.66 65.45 65.18 64.24 64.87 64.66 63.62 62.91 63.14 69.60 69.65 70.45 71.35 71.13 72.58 73.05 74.39 75.22 77.54 78.21 78.02 77.64 77.29 77.54 77.02 76.89 77.55 77.83 77.58 77.49 77.39 77.07 76.30 75.77 75.96 76.13 76.38 76.38 75.79 75.43 75.63 76.01 75.64
59.84 58.08 54.62 54.78 58.28 59.96 62.89 66.03 64.30 63.54 63.97 63.53 65.91 61.19 64.59 67.79 70.28 71.08 71.44 71.90 72.21 73.59 73.94 74.69 75.54 75.87 77.36 78.17 77.64 77.45 77.18 76.89 77.32 77.60 77.48 77.70 77.23 76.52 75.49 75.74 75.68 75.84 76.01 76.18 76.10 75.74 76.21 76.15 75.63
62.66 59.28 56.50 55.45 55.27 58.17 64.18 65.11 66.05 64.50 63.77 68.31 67.68 61.78 62.17 67.67 70.37 71.07 71.12 71.17 71.23 72.58 73.42 73.30 73.89 74.84 75.86 75.91 77.87 77.87 77.47 77.19 77.36 77.53 77.07 76.86 76.63 76.29 75.93 77.07 76.06 75.59 75.08 76.13 76.18 76.30 76.76 75.94 76.25
67.81 55.49 52.97 53.87 56.51 60.22 64.77 63.33 66.91 67.98 65.46 66.62 67.78 66.47 67.98 69.63 70.49 69.73 69.49 69.19 70.28 71.48 72.58 73.19 73.43 74.08 74.71 74.46 75.84 77.58 77.85 77.49 77.53 77.10 77.38 77.40 74.02 73.74 75.26 74.75 75.63 75.56 75.96 74.21 73.31 75.54 77.53 77.21 76.88
60.38 53.38 56.16 60.14 60.15 60.74 64.31 64.50 65.15 64.21 64.01 64.61 65.63 68.12 69.23 69.66 69.03 68.24 67.23 67.49 68.58 69.98 71.19 72.75 73.45 73.86 74.11 75.44 73.90 73.84 74.57 74.45 74.34 74.42 73.81 74.16 72.64 72.26 75.49 75.11 74.94 75.79 75.04 73.80 75.12 76.34 77.02 75.31 71.97
60.30 55.64 59.96 61.31 62.55 63.74 64.25 64.69 66.05 63.69 61.63 64.38 64.11 66.05 67.93 68.49 68.41 68.09 68.27 68.74 69.18 70.57 71.65 72.18 72.87 73.58 73.41 73.40 73.47 73.40 73.30 72.36 72.26 72.68 72.29 72.63 73.16 73.34 73.03 71.66 72.53 71.56 70.54 66.74 71.98 72.87 72.38 72.55 72.08
54.76 59.77 60.40 62.20 63.50 61.46 63.16 65.71 64.49 64.82 64.73 67.44 67.78 67.94 67.91 67.43 67.37 67.90 68.43 69.10 69.70 70.57 71.72 72.50 72.99 73.10 72.80 72.55 73.70 73.56 73.14 71.77 70.67 71.44 71.87 71.76 71.55 71.42 71.23 70.41 71.85 71.43 69.69 69.71 71.36 71.20 71.24 71.74 70.93
54.87 57.80 61.73 63.36 62.47 60.53 61.77 63.11 64.69 64.91 67.15 68.62 68.58 68.40 67.50 67.27 67.60 68.42 69.52 70.01 70.32 70.51 71.66 72.45 73.14 73.12 72.80 72.41 72.62 71.94 72.38 71.58 71.32 71.14 72.91 72.76 71.52 70.17 70.55 70.89 71.84 71.47 70.07 70.88 71.16 71.73 71.86 71.96 71.09
55.85 56.18 56.70 61.15 61.92 61.72 58.78 60.91 62.66 65.18 67.66 67.88 67.81 67.35 67.74 67.60 67.60 67.97 68.48 68.89 69.45 70.81 71.49 72.65 72.88 73.09 72.96 72.72 71.46 71.60 72.10 71.76 71.51 72.71 73.57 72.95 71.94 70.77 69.99 70.19 71.55 71.03 70.56 69.48 71.86 70.91 70.38 70.87 69.45
55.73 52.46 54.41 55.68 60.71 60.51 62.34 58.65 61.68 66.03 67.15 66.65 66.87 67.46 67.59 68.04 68.58 67.90 68.65 68.72 69.52 71.12 71.87 71.95 72.80 73.10 72.96 72.39 71.97 72.10 72.47 72.97 72.79 72.95 73.36 72.74 72.73 71.96 72.11 71.95 71.29 71.14 72.01 72.61 70.39 70.74 70.73 68.01 68.82
50.18 48.40 45.85 52.20 56.00 60.78 58.77 53.47 62.94 66.58 65.57 64.94 66.56 67.15 67.20 67.61 68.34 69.02 69.50 69.49 70.03 71.40 71.25 72.04 73.89 73.17 72.72 73.16 72.29 72.95 72.59 70.25 70.82 72.67 73.02 73.22 73.22 73.42 72.00 72.39 70.42 71.41 71.50 71.53 70.37 70.30 68.90 67.15 64.60
45.67 43.61 45.65 48.74 56.84 60.31 57.00 53.14 60.01 66.21 65.25 64.39 65.08 66.35 67.23 67.44 68.35 69.36 70.15 70.01 70.12 71.66 71.52 71.44 72.39 72.79 72.22 73.06 73.49 72.30 71.14 72.06 71.83 72.56 72.98 73.07 73.77 74.04 72.40 72.00 71.57 70.70 72.34 70.30 70.08 68.94 68.48 65.22 63.09
42.54 43.19 45.38 46.78 52.19 57.20 54.61 53.89 59.25 65.28 64.83 64.52 65.09 65.50 66.16 66.26 67.65 68.96 68.92 70.51 70.97 71.99 72.06 72.21 72.15 72.55 72.64 72.84 72.65 71.77 71.38 72.08 71.62 72.02 72.50 74.30 73.97 74.09 71.71 71.79 71.82 71.33 70.45 69.80 68.72 67.26 66.38 64.15 64.30
47.21 46.14 45.92 49.62 53.90 54.91 55.31 55.29 58.17 62.71 64.09 63.85 64.38 64.94 65.38 66.23 67.90 68.67 69.11 70.23 70.96 71.37 71.69 72.03 71.71 72.04 72.11 72.33 70.83 69.91 69.68 70.87 71.13 72.33 71.66 73.17 73.62 74.29 72.16 71.62 71.97 71.76 70.59 68.64 68.14 66.66 62.87 62.99 64.23
47.10 45.80 46.11 49.33 52.11 54.99 54.71 55.36 57.91 60.50 61.95 63.52 63.67 64.31 65.14 66.15 66.70 67.18 68.07 69.50 69.60 70.82 71.66 71.78 71.71 71.30 71.50 72.55 72.48 70.75 70.83 71.52 71.81 70.67 71.71 73.04 73.04 73.45 72.83 72.18 71.36 71.31 68.59 67.34 65.03 63.48 62.51 63.46 63.50
46.18 44.82 45.92 46.18 50.25 55.92 55.82 53.78 56.11 57.95 58.86 61.88 63.74 64.59 65.32 65.69 65.54 66.71 67.38 68.70 69.68 70.60 71.06 71.24 71.86 71.77 71.64 72.15 71.95 71.31 71.98 72.33 71.38 70.82 71.96 73.08 73.43 73.74 73.10 72.00 71.66 70.72 69.48 66.90 64.91 64.25 62.82 60.78 63.59
41.66 48.96 49.02 48.50 46.18 43.37 53.99 44.82 54.30 56.50 57.58 59.69 61.50 62.52 63.71 64.95 65.97 66.65 67.62 67.62 69.14 70.31 71.56 71.41 72.54 72.54 72.50 72.77 72.10 71.10 70.42 69.79 70.32 70.59 72.32 73.15 73.72 73.65 72.54 72.37 71.59 67.84 68.12 65.80 65.19 66.03 64.30 62.76 60.89
46.37 49.54 49.29 49.30 46.52 42.94 48.32 46.06 50.23 55.85 55.57 57.90 60.09 61.63 63.39 64.66 65.62 65.66 67.45 68.24 69.01 70.68 70.88 71.17 71.36 73.22 73.50 73.33 72.46 71.62 70.19 70.40 69.95 70.77 71.19 72.53 73.66 73.37 73.02 72.35 71.48 67.70 67.22 66.51 65.50 64.59 63.66 64.74 62.78
51.37 46.74 46.66 46.19 45.99 39.87 46.07 49.63 46.97 52.38 55.98 58.95 61.08 62.29 62.84 64.24 65.42 66.14 67.93 68.74 68.89 70.48 71.41 71.41 70.70 73.00 73.74 73.48 72.64 71.46 70.38 69.63 68.98 69.65 70.07 72.12 73.38 73.16 72.90 73.00 71.20 67.19 66.45 67.02 65.44 64.21 63.41 64.45 64.62
46.90 40.64 36.88 36.69 37.79 39.22 45.22 45.87 49.78 56.16 59.19 60.56 61.21 60.45 62.80 64.34 64.92 65.51 66.16 67.23 68.09 68.63 70.52 71.28 71.04 70.61 73.10 72.85 72.51 72.04 71.51 70.88 69.71 69.06 70.57 71.22 72.15 71.08 72.24 71.62 68.88 67.02 65.16 66.26 65.72 65.29 64.81 63.61 63.20
43.34 42.71 38.58 32.85 33.85 38.08 44.28 42.01 49.13 56.82 61.34 62.20 62.46 61.53 62.94 63.19 64.73 65.38 66.24 67.55 67.92 68.65 70.33 71.64 71.19 70.96 72.71 73.04 72.58 72.54 72.19 71.73 71.61 70.25 71.09 72.21 72.33 72.54 72.64 71.51 69.67 67.06 66.47 66.97 66.13 65.45 64.76 64.36 62.89
45.27 39.91 44.77 37.86 37.99 37.16 41.31 45.20 49.68 54.51 58.69 60.97 61.13 61.65 62.25 62.97 63.71 65.00 66.00 67.66 68.17 68.73 70.36 71.25 71.75 71.71 72.67 72.89 72.90 73.15 73.19 72.41 71.98 70.70 71.88 71.93 72.60 72.43 72.20 71.64 69.38 67.47 65.92 68.05 66.81 65.51 64.47 65.49 63.59
46.19 46.26 40.21 35.71 34.18 34.81 38.14 41.53 44.24 48.74 52.90 57.38 60.12 61.31 62.68 63.70 64.62 65.21 65.23 67.27 68.74 69.25 70.71 71.76 72.59 72.23 72.93 73.74 73.20 72.83 73.20 73.71 72.85 71.42 71.68 71.96 71.96 72.01 71.50 70.79 69.31 67.99 66.42 66.83 66.85 65.64 64.78 63.86 64.34
45.53 43.35 40.25 40.88 37.84 37.29 33.71 41.23 47.60 49.33 52.00 56.19 60.15 62.50 63.28 63.92 63.68 64.73 65.42 67.01 68.56 69.68 70.75 71.86 72.37 72.37 72.92 73.78 73.84 73.53 72.75 72.72 73.57 73.34 73.01 72.62 71.69 71.07 71.37 70.80 69.45 68.43 67.21 66.03 67.23 64.98 65.14 63.37 63.41
49.60 45.69 41.83 40.15 36.09 38.15 41.73 42.37 50.54 51.19 52.56 57.44 60.57 62.90 63.94 64.70 64.30 64.23 65.47 65.90 67.79 69.16 70.39 71.34 72.86 72.68 73.19 73.97 74.09 73.94 73.94 73.50 72.85 72.94 73.61 72.86 72.28 71.12 71.32 71.00 69.82 69.21 68.45 67.32 66.47 65.56 65.41 64.76 63.17

GFSSGP_sfc_wetblb_021.txt.gz
Wetbulb
74.51 74.24 73.16 69.26 60.58 58.48 55.20 57.62 61.09 59.25 60.29 64.32 65.35 62.95 61.76 62.52 59.93 55.35 68.19 70.48 71.09 71.06 72.74 74.26 76.63 77.71 77.63 77.88 78.34 78.02 78.17 77.91 77.67 77.50 77.20 76.91 77.18 76.96 76.86 76.82 76.55 76.34 76.21 75.99 76.59 76.43 75.87 75.63 75.47
74.11 72.61 69.92 64.96 56.96 50.97 53.31 59.58 58.24 60.99 63.58 65.34 65.83 64.45 62.82 61.08 65.94 66.12 67.64 70.52 71.54 72.22 72.62 74.12 76.52 77.94 77.30 77.93 78.02 78.20 77.75 77.69 77.45 77.24 77.28 77.26 77.08 76.82 76.67 76.45 76.15 76.15 76.04 75.94 75.94 76.02 76.21 75.85 75.35
73.80 70.59 62.78 59.62 56.26 52.07 53.45 59.32 60.27 63.75 65.91 65.95 63.42 65.68 63.99 62.93 66.35 66.67 69.29 71.55 71.81 72.16 73.28 74.28 77.16 78.09 77.21 77.39 77.75 77.96 78.28 77.37 77.14 77.12 77.21 77.16 76.93 76.62 76.29 76.02 75.96 75.93 75.97 75.94 76.11 75.91 75.74 75.93 75.47
69.65 68.75 65.99 58.52 55.50 58.40 59.11 60.91 62.92 63.86 64.52 65.29 64.41 61.70 66.24 68.25 67.28 68.98 71.24 71.98 71.42 72.32 73.60 75.67 77.47 77.09 77.10 77.04 77.06 77.09 77.34 77.47 77.12 77.05 76.97 77.09 76.72 76.33 76.00 75.86 75.70 75.70 75.86 76.17 75.70 75.81 75.61 75.75 75.42
70.69 66.63 59.12 56.87 57.04 60.42 61.54 63.91 64.42 62.47 63.36 63.49 64.79 61.44 62.96 68.04 70.03 70.44 71.18 71.25 70.92 72.01 73.52 75.00 77.77 77.78 77.22 76.97 76.84 76.60 76.82 77.30 77.43 77.00 77.02 77.19 76.75 76.23 75.81 75.54 75.37 75.54 76.20 76.34 75.65 75.67 75.70 75.37 75.32
63.63 64.21 57.18 52.31 55.10 60.75 62.60 64.84 64.24 63.46 63.92 63.71 62.76 62.33 63.31 69.14 69.00 70.13 70.97 70.37 72.22 72.51 73.45 74.65 76.84 77.33 77.12 76.84 76.94 76.68 76.52 76.85 77.25 77.09 76.97 76.97 76.73 76.20 75.76 75.32 75.31 75.84 75.98 76.04 75.84 75.67 75.53 75.12 75.40
59.45 58.20 55.29 54.57 57.15 59.36 62.14 65.12 63.42 62.69 62.72 62.32 64.90 60.47 64.05 66.99 69.46 70.19 70.48 71.13 72.05 73.43 73.56 73.90 73.91 75.28 77.02 77.13 76.84 76.76 76.44 76.76 77.16 76.93 76.86 76.79 76.76 76.09 75.59 75.06 75.31 75.06 75.31 75.70 75.82 75.70 75.34 75.40 75.73
62.54 57.62 54.43 56.43 57.48 57.10 63.12 63.95 65.43 63.61 63.01 66.87 66.47 60.40 60.84 66.60 69.59 70.04 70.68 70.74 71.71 73.29 73.65 73.59 73.56 73.38 74.19 74.75 76.85 76.88 76.69 76.66 76.96 76.88 76.72 76.68 76.48 75.98 75.73 76.31 75.47 75.37 74.83 75.59 75.94 75.80 75.62 75.34 75.51
66.60 53.36 51.56 52.69 54.92 59.29 63.61 62.50 66.05 67.15 64.28 65.47 66.86 65.34 66.62 69.07 69.75 69.04 69.05 69.20 70.87 72.02 72.79 72.94 73.42 73.67 74.46 74.64 75.69 76.96 77.10 76.86 76.88 76.84 76.84 76.80 73.66 73.43 74.63 74.93 74.95 75.37 75.34 74.54 74.48 74.32 76.75 75.74 75.34
60.96 52.27 54.10 57.99 59.15 61.47 63.67 63.81 64.15 63.63 63.25 63.85 64.75 67.29 68.67 68.91 68.60 67.36 67.41 67.30 68.82 69.97 71.77 72.98 72.96 74.09 73.99 75.54 73.94 74.23 74.57 74.22 74.44 74.45 73.89 74.21 72.48 72.00 74.58 74.77 75.48 75.42 75.64 72.40 75.02 76.04 75.85 74.38 71.03
61.85 55.57 58.40 60.70 62.31 64.83 63.42 63.71 64.90 62.91 60.83 63.36 62.69 65.27 67.03 67.23 67.59 67.27 67.46 67.89 68.06 69.96 71.27 72.55 73.00 73.99 73.59 73.71 72.81 73.04 73.01 72.99 73.12 73.05 72.49 72.70 72.35 71.10 73.41 71.66 71.91 71.26 70.62 65.78 70.34 71.48 71.18 71.82 70.69
54.14 60.67 61.63 61.23 63.66 64.41 62.83 64.78 62.96 63.49 62.82 66.33 66.27 66.76 66.81 66.19 66.51 67.03 66.99 67.85 68.20 69.40 70.36 71.89 72.95 73.25 72.95 72.07 72.98 72.74 72.49 71.77 70.87 71.15 71.48 70.80 71.20 70.88 71.27 70.11 70.59 70.64 69.79 67.62 70.51 70.57 71.75 71.11 70.42
56.41 57.18 57.95 61.57 61.48 64.84 65.28 63.60 63.47 63.13 66.29 67.36 67.21 66.78 66.19 66.58 66.88 68.06 68.15 68.79 69.23 69.13 70.44 71.21 72.44 72.71 72.73 71.03 72.80 71.71 71.53 71.54 70.40 70.08 71.18 71.55 70.75 70.03 70.34 69.93 70.36 70.66 70.04 69.94 69.69 70.25 70.82 70.90 70.44
53.54 54.58 55.27 57.36 58.98 62.60 63.46 63.53 63.91 64.49 66.90 66.34 66.25 65.74 66.31 66.68 67.24 67.74 68.19 68.31 69.19 69.97 70.74 71.53 71.61 72.22 72.21 71.35 70.80 71.47 71.65 71.18 70.38 70.62 71.40 72.37 71.19 69.97 69.73 69.57 70.05 70.61 70.52 68.96 69.77 70.76 69.94 70.39 68.59
53.61 51.11 52.45 53.40 54.92 59.99 64.56 59.65 61.49 65.41 66.32 65.27 65.45 65.85 66.47 66.90 67.61 67.53 68.67 68.39 69.45 70.28 71.35 71.18 71.85 72.19 71.65 71.30 71.35 70.68 71.13 71.67 70.68 71.32 72.71 72.28 71.72 70.44 69.94 69.64 70.68 70.92 71.08 70.78 70.65 69.49 69.48 67.81 66.17
48.22 47.09 45.02 51.10 52.98 59.27 59.77 53.40 62.80 65.38 65.01 64.03 65.08 65.70 65.96 66.52 67.16 67.74 68.95 69.25 69.94 70.41 70.58 71.71 73.03 72.48 71.80 71.70 71.30 71.43 71.01 70.95 71.47 72.54 71.83 72.41 72.44 71.54 70.64 70.78 70.55 70.27 71.11 70.82 69.40 69.50 68.04 65.81 65.02
43.82 42.36 44.73 47.68 52.12 57.59 56.40 52.08 62.32 65.06 64.74 63.75 64.68 65.29 65.80 66.09 67.16 67.77 68.67 69.37 69.85 70.32 70.84 71.01 72.18 71.96 71.85 71.94 71.69 71.35 71.86 70.89 70.70 70.77 71.65 72.13 72.61 72.94 71.54 71.64 70.22 70.37 70.18 70.00 69.59 67.88 67.26 64.16 62.55
41.60 41.97 43.54 45.04 51.92 56.38 53.25 52.70 61.78 63.86 64.32 64.03 64.62 65.34 65.61 65.85 66.44 68.02 68.57 69.26 69.43 70.63 71.05 71.03 71.75 72.04 72.19 72.07 72.14 70.86 70.07 70.85 70.71 71.41 71.80 72.31 72.73 73.28 71.77 71.13 70.97 70.01 70.04 69.10 67.99 66.80 65.37 62.96 63.22
45.88 44.33 44.43 47.47 52.26 53.91 54.92 52.88 60.04 63.07 63.21 63.51 64.10 64.74 65.21 65.54 67.40 68.54 68.98 69.44 69.07 70.40 70.38 70.45 71.00 71.59 71.54 71.26 70.97 69.57 69.70 69.92 70.38 70.92 71.79 72.45 72.80 73.35 71.08 70.57 71.15 70.37 69.32 68.50 67.34 66.09 62.74 61.31 62.87
45.56 44.07 44.38 46.60 50.41 50.44 51.11 52.69 58.98 62.32 62.55 63.39 63.79 64.52 65.17 66.01 66.81 67.90 68.15 69.01 69.01 69.51 70.33 70.49 70.73 70.80 71.43 71.53 72.16 70.79 69.61 69.76 70.42 71.35 70.98 72.44 73.23 73.25 71.67 70.76 70.94 70.81 69.57 67.61 66.58 63.01 61.67 62.36 62.23
42.93 42.81 44.87 44.40 48.34 50.85 52.35 50.09 53.99 61.70 63.23 64.03 64.48 65.15 65.74 65.80 65.61 66.78 67.04 67.48 69.08 69.06 70.04 70.57 70.86 70.93 71.21 71.55 71.58 70.20 70.69 70.90 69.95 69.31 70.04 71.01 72.39 72.76 73.17 71.49 71.06 70.43 68.24 66.63 64.18 63.30 62.07 60.18 62.85
40.15 46.34 47.29 46.19 43.98 40.02 51.27 43.25 50.03 53.73 60.20 62.05 63.06 64.22 64.94 65.38 66.39 66.11 67.05 66.98 68.18 69.22 70.59 70.90 71.32 71.05 71.03 71.29 70.88 70.86 69.56 68.77 69.57 69.88 70.58 71.23 72.24 72.94 72.44 71.83 71.11 69.93 69.54 66.59 64.55 64.46 62.30 61.44 61.65
45.64 48.41 46.96 46.69 43.28 40.15 44.50 43.57 47.27 53.60 54.34 57.66 61.21 63.04 64.66 65.49 66.20 66.03 66.17 67.45 68.37 69.62 70.18 71.10 71.08 71.15 70.98 70.90 71.15 70.62 69.09 69.34 69.73 70.10 70.42 71.29 71.95 72.18 72.49 71.66 70.79 67.41 67.73 66.25 64.92 64.06 63.85 62.59 60.61
50.07 46.22 43.86 43.07 40.95 36.06 43.65 43.61 43.72 50.39 54.13 56.55 59.76 62.03 63.82 64.84 65.88 66.76 67.41 67.72 68.34 69.50 70.34 70.77 70.54 70.81 71.18 70.85 70.85 70.43 69.86 68.70 68.31 68.72 69.39 70.05 71.61 71.84 71.79 71.73 70.97 68.08 66.38 65.67 64.91 64.28 63.11 64.26 63.36
46.16 39.92 35.16 33.12 34.30 36.81 42.04 41.81 46.16 52.05 58.17 58.54 58.62 60.71 63.08 64.10 64.98 65.57 65.75 66.67 67.08 68.34 69.59 70.25 70.02 70.58 71.24 71.25 71.01 70.84 70.68 69.61 69.15 68.93 69.94 69.62 70.98 70.89 71.20 71.43 70.39 67.25 65.96 66.36 65.08 63.44 62.50 63.58 63.02
42.46 42.05 33.37 29.37 30.92 35.90 41.04 39.12 44.47 53.79 57.93 60.90 61.49 61.52 62.58 63.42 64.31 65.06 65.70 66.34 67.50 67.85 69.09 69.75 69.23 70.65 71.52 71.65 71.42 71.47 71.22 70.49 70.32 69.07 69.32 70.45 71.83 72.10 72.39 71.93 71.29 68.23 65.25 66.09 64.92 63.87 63.61 63.32 62.46
42.25 40.80 44.18 35.57 34.48 34.17 38.34 42.80 47.62 51.89 54.31 57.08 59.61 61.39 61.58 62.66 63.92 64.58 65.75 66.08 67.16 67.82 68.48 69.51 69.16 69.89 71.82 72.12 72.13 71.47 71.29 70.95 70.41 69.47 69.91 70.61 71.56 72.04 71.79 72.19 70.96 68.39 65.95 65.60 65.10 64.01 63.67 63.78 62.27
46.88 45.10 39.10 32.81 32.67 32.73 35.21 38.77 41.14 46.49 51.10 54.57 57.66 58.49 60.12 62.52 63.23 64.48 65.34 66.17 67.14 67.92 68.46 69.98 70.29 69.64 70.71 72.29 72.34 71.92 71.71 71.61 71.15 70.74 70.32 70.49 71.49 71.51 71.09 71.83 70.50 68.65 66.19 66.39 65.61 64.06 63.65 64.06 63.13
41.96 42.11 37.67 38.40 36.34 35.84 33.02 38.61 45.40 48.34 50.41 52.49 56.16 60.12 61.10 61.30 62.66 63.91 65.00 66.38 66.61 67.91 68.20 69.38 70.22 70.10 70.10 71.46 72.13 71.95 71.95 71.96 71.48 71.06 70.93 71.45 71.47 71.21 71.03 71.16 70.20 68.45 66.44 65.85 66.20 65.04 64.49 62.91 63.17
46.34 44.99 40.23 37.88 35.22 34.21 39.04 39.96 47.15 50.11 51.22 51.76 54.53 58.30 61.37 62.71 63.04 63.69 64.93 65.32 65.84 67.09 67.74 68.99 70.18 70.48 70.73 71.52 71.79 71.69 72.18 72.19 72.15 71.65 71.38 71.51 71.43 71.25 70.98 70.76 69.81 68.84 67.39 65.58 66.34 65.39 65.86 64.04 62.05

GFSSGP_sfc_wetblb_027.txt.gz
Wetbulb
75.06 75.05 73.61 69.66 61.26 59.55 55.74 57.73 61.96 60.62 61.37 65.43 66.32 63.82 62.88 64.06 60.31 58.17 69.74 71.16 71.82 72.35 73.51 74.34 76.44 77.15 77.51 77.62 78.19 78.21 78.14 77.72 77.63 77.64 77.34 77.06 76.81 76.81 76.79 76.41 76.26 76.30 76.35 76.18 76.04 75.79 75.71 75.27 75.14
74.99 73.25 70.35 66.70 59.22 56.14 56.52 61.13 59.52 62.08 64.81 66.62 66.20 65.27 63.81 61.23 65.14 67.05 68.05 71.39 72.15 72.80 73.53 74.68 76.58 77.74 77.44 78.01 78.32 78.30 77.40 77.37 77.29 77.25 77.15 76.98 76.73 76.65 76.47 76.45 76.43 76.60 76.33 75.88 75.65 75.60 75.24 75.13 74.61
73.79 71.91 65.47 62.34 59.66 55.68 56.96 61.12 62.35 64.57 66.45 65.49 64.41 66.67 65.23 63.06 67.11 68.11 70.99 71.48 72.58 73.13 74.46 75.25 77.39 78.12 77.99 78.05 78.17 78.09 77.74 77.26 77.19 77.18 77.11 76.84 76.55 76.37 76.28 76.30 76.41 76.63 76.64 76.24 76.04 75.47 75.05 74.72 74.19
71.15 67.41 66.60 60.04 56.59 59.66 60.39 62.88 64.86 64.18 65.17 66.33 65.81 62.73 65.97 69.46 68.27 70.55 71.83 72.25 72.46 73.27 74.29 76.37 77.46 77.39 77.96 78.00 78.05 77.31 77.23 77.18 77.13 77.30 76.87 76.66 76.18 76.15 76.32 76.34 76.61 76.63 76.69 75.88 75.80 75.74 75.41 74.66 74.35
71.20 68.06 60.52 58.79 57.47 61.50 63.63 65.32 65.90 63.81 64.17 64.78 65.23 61.23 63.36 68.43 71.14 71.58 71.74 72.16 72.19 73.06 74.76 76.32 77.74 77.96 77.97 78.12 77.78 77.27 76.91 77.10 77.23 77.02 76.88 76.64 76.18 76.05 75.99 76.21 76.32 76.41 76.24 75.77 75.77 75.63 75.25 75.22 75.30
66.90 66.23 58.25 55.73 57.16 61.97 64.28 66.56 65.76 64.66 64.61 64.17 63.24 63.14 64.15 70.21 70.20 70.98 72.13 71.95 73.18 73.23 74.61 75.91 77.43 77.67 77.76 77.77 77.46 77.38 77.14 77.10 77.10 77.08 76.91 76.70 76.32 75.99 76.02 76.11 76.50 76.52 76.22 75.91 75.75 75.63 74.94 75.02 75.62
63.83 62.32 58.01 57.01 58.27 60.55 63.27 67.26 64.97 64.52 63.83 62.99 65.99 61.99 64.72 67.48 70.79 71.90 72.15 72.66 73.26 73.94 74.48 75.23 76.08 76.77 77.20 77.27 77.16 77.13 77.18 77.10 77.00 76.91 76.82 76.61 76.27 75.77 75.50 75.97 75.77 76.05 75.96 75.79 75.74 75.36 75.08 75.02 75.55
67.34 62.84 57.75 58.40 59.53 59.54 65.08 65.86 66.86 65.25 63.38 67.55 67.51 61.98 61.60 67.77 71.03 71.83 72.53 72.60 73.24 73.95 74.41 74.92 75.47 75.80 76.17 76.47 76.69 76.74 76.86 76.91 76.95 76.74 76.45 76.12 75.69 75.58 75.83 74.82 75.96 75.38 75.31 75.40 75.60 74.98 74.73 74.68 74.91
67.90 61.09 57.87 57.03 59.30 60.34 65.90 64.30 66.72 67.94 65.17 65.80 66.86 66.14 67.98 70.28 71.07 70.66 70.82 71.53 72.35 73.17 74.06 74.56 74.88 76.13 76.72 76.65 76.38 76.46 76.17 76.55 76.74 76.49 76.09 76.41 77.71 77.30 76.34 75.63 75.00 75.52 75.19 75.55 74.96 75.44 75.77 74.97 75.22
65.89 61.01 58.87 61.44 62.01 61.72 65.20 65.59 65.53 64.56 63.97 64.32 65.54 67.74 69.08 69.71 69.81 68.79 69.07 69.55 70.65 71.75 73.25 74.11 74.30 75.03 75.75 75.28 76.80 76.99 76.29 75.65 76.05 76.24 76.83 77.43 77.37 77.42 76.66 76.77 75.73 75.97 73.81 73.34 75.23 75.44 75.40 75.43 75.08
65.96 60.34 62.99 61.93 62.92 64.48 65.39 65.26 66.81 64.30 61.94 64.90 64.49 65.86 67.73 68.43 68.60 68.39 68.74 69.66 70.18 71.38 72.41 73.58 74.19 75.38 75.21 74.86 75.65 75.89 76.00 76.04 76.09 76.94 77.05 76.91 77.07 76.87 77.26 77.55 76.47 77.25 73.60 74.49 75.56 76.08 76.67 75.17 74.13
61.57 63.91 63.42 63.20 63.78 65.35 64.87 66.72 65.04 64.97 64.05 67.11 67.87 67.80 67.87 67.57 67.79 68.21 68.48 69.49 70.13 70.90 71.75 73.04 74.08 75.04 75.41 75.24 75.09 75.62 75.49 75.70 75.42 75.62 77.04 76.36 75.64 76.63 77.10 77.01 76.63 76.79 76.41 75.46 76.60 76.68 76.76 76.44 75.87
62.67 61.96 62.42 63.86 62.88 61.72 66.73 65.31 65.36 65.10 67.20 68.57 68.27 67.50 67.14 67.41 68.24 69.27 69.78 70.36 70.76 70.46 71.52 72.77 74.14 74.88 75.42 75.60 75.28 75.46 75.99 75.40 75.41 75.78 75.98 75.46 74.57 75.30 76.52 77.33 76.22 76.25 76.97 75.96 76.18 77.37 76.76 75.16 74.24
58.53 58.37 57.48 57.89 57.71 59.42 63.75 64.34 65.55 66.56 68.13 67.15 66.92 66.69 67.31 67.65 68.27 69.02 69.37 69.48 70.10 70.85 71.61 73.10 73.86 74.93 75.54 75.22 75.77 75.43 76.05 75.67 75.74 75.00 74.87 75.77 75.26 76.05 76.63 76.89 76.01 75.75 76.97 76.67 75.80 76.35 75.91 72.07 71.74
54.09 51.14 53.34 54.61 56.60 56.69 62.07 60.71 62.56 67.13 67.67 65.94 66.01 66.56 67.27 67.81 68.76 68.87 70.14 70.45 70.73 71.42 72.46 73.04 73.97 74.99 75.50 75.56 75.45 75.38 75.23 74.93 74.67 74.39 75.44 75.00 75.72 76.43 76.73 76.24 75.61 75.97 77.54 76.80 75.71 75.58 76.79 73.40 70.67
51.77 52.25 49.66 54.09 55.41 56.75 59.86 53.34 62.39 67.27 66.57 65.63 65.63 66.16 66.84 67.91 68.68 70.05 70.91 71.45 72.24 72.15 72.32 73.31 73.65 74.30 75.16 75.48 75.59 74.94 74.85 74.61 74.29 74.34 74.57 75.07 75.41 76.78 76.82 76.10 75.74 77.31 77.23 77.42 76.73 76.84 75.93 74.47 69.34
49.85 47.80 49.02 51.31 55.99 58.70 59.70 55.44 61.24 67.14 66.54 65.67 65.26 65.95 66.57 67.52 68.70 70.33 71.19 71.63 72.29 72.72 72.71 72.75 73.70 73.78 74.44 75.28 75.17 74.99 74.74 74.37 74.20 74.37 74.59 75.48 75.89 76.80 76.47 76.20 76.42 77.58 76.80 76.57 76.36 75.86 74.78 72.53 71.17
45.54 46.50 48.72 49.76 53.81 55.31 57.88 57.86 60.69 65.91 66.14 65.77 65.77 66.21 66.55 66.80 67.86 69.96 71.01 71.73 72.47 72.95 73.34 73.53 73.56 74.03 74.92 74.60 74.76 74.20 73.70 73.33 73.98 74.05 74.34 76.19 76.37 76.83 76.83 76.27 76.80 76.83 75.85 75.62 75.72 75.53 73.77 72.18 71.82
48.40 48.18 48.85 51.12 53.80 55.27 55.08 56.68 60.52 65.14 65.78 65.56 65.83 65.98 66.31 67.12 69.22 70.30 70.97 71.72 72.04 72.71 73.18 73.73 73.73 74.74 74.20 73.35 72.46 72.38 71.53 72.73 73.89 75.14 76.08 76.30 76.66 77.10 77.23 76.39 76.86 76.33 75.14 75.72 75.65 74.19 72.35 71.13 71.61
48.01 47.17 48.36 50.88 52.77 53.29 54.16 55.87 59.86 63.93 64.96 66.08 66.03 66.13 66.30 67.59 68.57 69.50 70.55 71.14 71.57 72.05 73.18 74.27 74.40 75.41 74.83 74.15 74.25 73.49 73.41 73.20 74.92 76.26 76.83 76.94 76.75 77.31 77.18 77.15 76.52 76.45 75.14 75.59 75.02 73.72 71.38 70.63 71.50
47.93 46.54 47.64 48.69 51.06 52.22 53.27 52.29 55.80 62.41 64.85 66.42 67.28 67.87 67.17 67.73 68.05 68.85 69.64 70.30 71.51 71.89 73.12 74.11 75.29 75.95 75.72 76.06 74.84 74.34 74.64 74.69 74.47 75.18 75.48 76.23 77.08 77.47 77.51 77.47 76.86 76.69 76.16 74.85 75.20 73.42 71.92 69.39 71.14
45.78 49.62 49.07 48.69 48.46 46.23 53.37 46.80 53.90 57.50 61.70 63.90 65.85 66.75 67.47 68.15 68.99 69.45 69.72 69.99 70.77 72.59 73.24 74.66 75.36 76.09 75.51 76.62 75.27 75.05 72.52 71.63 73.36 74.77 75.78 76.17 77.14 77.22 77.42 77.45 76.89 76.88 76.06 76.00 75.22 73.50 72.24 70.72 68.63
48.01 51.11 49.59 49.75 48.82 48.28 49.00 47.81 52.23 57.42 58.26 61.69 64.47 66.27 67.42 68.59 69.24 69.25 69.83 70.88 71.43 72.41 72.32 74.01 75.36 75.86 76.31 76.49 76.35 74.75 74.59 73.76 74.53 74.72 76.49 77.77 77.39 77.16 77.13 77.54 77.13 76.90 76.05 76.34 75.19 73.12 72.26 70.69 69.62
52.79 50.33 49.60 48.86 48.55 42.98 47.87 47.33 49.21 52.83 57.24 61.45 64.53 66.23 67.54 68.51 69.34 70.11 71.01 71.64 71.47 72.18 72.07 73.13 74.77 75.13 76.20 76.15 76.08 76.17 75.92 75.16 73.76 74.11 73.90 74.36 75.16 75.82 76.70 77.08 77.45 77.47 76.70 76.37 75.54 74.40 73.17 71.91 70.60
50.95 48.08 42.65 40.92 41.04 41.32 49.75 46.80 49.58 54.82 58.62 59.15 62.84 65.52 67.17 68.63 69.16 69.74 70.24 70.50 71.82 72.22 72.70 72.71 74.06 74.10 75.39 75.34 75.51 75.82 76.04 76.20 75.83 75.50 74.07 75.01 74.03 74.46 76.22 76.88 76.71 76.30 76.71 76.43 75.74 74.52 73.24 72.30 70.96
48.62 48.18 42.63 37.46 39.33 42.06 48.34 44.79 49.43 55.47 57.64 61.20 62.60 65.63 67.38 68.21 68.96 69.73 71.00 71.78 72.13 72.22 72.64 72.81 73.25 73.65 74.80 74.94 75.14 75.91 76.22 75.04 75.23 75.75 74.66 74.25 74.44 74.87 77.34 76.87 77.05 76.97 76.71 76.01 75.03 74.08 72.98 72.52 71.64
47.78 46.01 49.86 44.06 43.38 42.63 45.57 48.94 52.48 54.85 55.86 58.86 61.35 62.69 65.58 67.58 68.67 69.21 70.93 71.90 72.07 72.54 72.52 72.92 73.26 73.82 74.30 74.48 75.03 75.15 75.68 75.63 75.25 76.21 76.45 74.84 76.66 75.52 76.54 77.22 77.01 77.17 76.53 75.90 74.98 73.08 72.46 71.72 71.72
49.52 51.19 43.77 45.33 38.90 38.21 43.45 44.73 47.17 52.92 54.47 56.53 58.59 61.06 63.19 65.12 67.79 69.07 70.51 71.24 72.02 72.26 72.98 73.18 73.78 73.74 74.49 74.91 74.85 74.71 75.09 75.53 75.84 76.09 75.60 76.05 76.65 76.78 76.67 76.85 77.10 76.95 76.49 75.89 75.19 74.01 73.08 71.73 71.01
46.88 46.63 48.00 47.79 45.64 41.15 39.92 43.78 52.90 55.04 57.84 57.46 58.47 60.36 62.36 63.99 65.51 67.22 69.90 71.47 71.98 71.99 72.56 72.75 73.21 73.72 74.06 74.52 75.01 74.78 74.99 75.29 75.64 75.63 75.86 76.05 76.74 76.90 76.71 76.72 76.53 76.47 76.21 75.64 74.87 74.52 73.33 71.93 71.86
50.92 49.11 48.70 44.15 43.20 44.91 44.67 44.68 53.10 55.36 56.98 58.35 58.69 60.23 62.71 65.20 66.47 67.03 68.17 69.59 70.48 71.74 71.81 72.30 72.90 73.38 74.18 74.49 74.76 74.73 75.06 75.14 75.01 75.02 75.87 76.24 76.19 76.59 77.11 76.86 76.51 76.19 76.16 75.85 74.73 74.23 73.41 72.12 71.50

GFSSGP_sfc_wetblb_030.txt.gz
Wetbulb
75.02 75.78 74.59 71.63 61.30 62.70 59.65 59.36 64.59 62.78 63.83 67.10 68.02 66.11 65.65 65.96 61.49 60.54 71.94 73.53 72.49 72.11 74.66 76.01 76.63 76.79 76.90 78.11 78.19 78.31 78.02 77.65 77.34 77.28 77.29 76.99 77.08 76.78 76.73 76.38 76.65 76.78 76.60 76.44 76.11 75.86 75.42 75.25 75.45
75.32 73.29 72.94 68.73 60.64 56.40 58.90 63.37 61.38 64.92 66.83 68.81 68.10 67.21 66.04 61.93 66.55 68.45 69.73 74.02 73.86 74.35 73.60 76.21 76.58 77.47 77.62 77.71 78.36 78.27 77.48 77.30 77.49 77.30 77.21 76.96 76.95 76.82 76.57 76.51 76.88 76.05 76.33 76.02 75.95 75.78 75.34 75.20 74.64
75.79 73.54 67.37 64.81 63.88 57.91 58.60 63.26 65.25 66.54 68.00 67.31 66.48 69.43 67.66 63.90 67.92 69.23 72.78 74.25 74.57 72.14 75.00 76.65 76.76 77.56 77.75 77.98 78.39 78.29 77.66 77.31 77.30 77.21 76.96 76.89 76.71 76.57 76.38 76.39 76.91 76.66 76.30 76.36 76.06 75.55 75.58 75.13 74.37
72.67 70.61 68.25 62.88 59.81 62.05 62.81 64.84 66.74 66.64 67.50 68.10 67.98 65.17 68.35 70.77 70.21 71.76 73.60 73.97 73.44 74.55 75.42 76.81 77.46 77.64 78.01 78.01 77.93 77.39 77.43 77.29 77.46 77.19 76.81 76.57 76.52 76.64 76.50 76.96 76.77 76.72 76.17 76.17 76.09 75.89 75.83 75.21 74.46
73.51 69.72 64.02 61.30 60.49 63.59 65.73 67.03 67.45 65.70 66.44 67.08 67.81 63.80 64.19 69.01 72.16 72.59 72.80 73.58 74.36 74.86 75.69 77.10 78.02 78.29 78.33 77.87 77.47 77.54 77.43 77.43 77.29 77.05 76.79 76.64 76.50 76.33 76.53 76.86 76.61 76.50 76.14 76.00 75.86 75.72 75.72 75.86 75.49
68.45 68.64 61.13 57.32 59.96 64.13 66.52 68.02 67.29 66.59 67.18 66.95 66.36 65.81 65.49 71.48 70.86 71.75 73.32 73.53 74.42 74.64 75.31 76.26 77.91 78.07 78.56 78.03 77.43 77.21 77.32 77.31 77.26 77.17 77.05 76.69 76.50 76.36 76.31 76.53 76.67 76.52 75.91 75.80 75.60 75.60 75.46 76.03 75.86
67.27 64.78 60.84 60.13 60.74 62.00 65.13 68.66 66.70 66.62 66.34 65.66 68.76 64.73 67.49 69.61 71.55 73.21 73.97 74.02 74.04 74.98 74.66 75.29 76.05 77.69 77.88 77.89 77.40 77.27 77.27 77.32 77.24 77.26 77.02 76.64 76.25 76.08 76.00 76.06 75.97 76.26 76.00 75.92 75.59 75.46 75.41 75.52 75.86
69.81 66.26 61.10 62.10 60.37 61.37 66.81 67.56 68.45 67.11 65.84 69.96 70.08 64.39 64.58 69.10 72.51 73.66 73.92 73.69 73.68 74.41 74.37 74.79 75.70 76.30 77.12 77.39 77.27 77.39 77.24 77.30 77.15 76.82 76.86 76.55 76.22 75.97 76.20 75.58 76.17 75.68 75.47 75.42 75.73 75.50 75.33 75.04 75.41
71.07 63.83 60.23 60.36 60.78 62.82 68.13 66.38 68.65 69.39 67.49 68.05 68.63 69.06 70.85 72.22 72.56 72.40 72.00 72.45 72.10 73.07 73.75 74.60 74.94 75.82 76.79 76.45 76.85 76.92 76.89 76.84 76.79 76.86 76.53 76.95 78.12 77.80 77.41 76.20 75.72 75.63 75.23 74.81 75.89 75.88 75.66 75.26 76.33
67.40 62.84 60.73 63.23 63.06 63.07 66.89 67.09 67.65 66.56 66.15 66.59 67.65 70.32 71.45 72.07 70.80 70.43 70.61 70.98 71.35 71.98 73.10 73.99 74.61 75.21 75.90 75.19 76.50 76.74 75.87 75.60 76.21 76.22 77.08 78.20 78.33 78.27 77.38 76.82 75.45 76.50 72.55 74.48 75.09 74.86 75.66 76.65 73.21
66.72 62.42 63.49 62.81 63.96 64.99 66.79 67.13 68.98 66.03 64.30 67.05 66.97 68.63 70.36 70.87 71.27 71.22 71.36 71.99 72.85 73.79 73.27 73.57 74.73 75.70 75.49 75.35 75.84 75.70 75.59 75.80 76.41 77.36 77.82 78.53 78.84 78.62 79.15 77.45 76.48 76.78 73.95 76.16 76.37 76.42 75.69 74.30 73.28
63.36 64.93 64.57 64.09 63.81 63.86 64.61 68.24 67.01 67.28 66.02 69.42 70.25 70.46 70.58 70.20 70.61 71.22 71.41 72.37 73.03 73.49 73.54 73.81 74.54 75.41 75.58 75.25 75.10 75.41 74.94 75.47 74.88 75.50 77.62 78.16 77.04 78.07 78.74 77.48 77.15 77.10 77.39 77.29 77.41 75.05 76.10 75.99 75.05
64.27 63.42 63.25 64.72 64.11 62.95 63.39 65.45 65.91 67.05 69.01 70.08 70.80 70.17 70.13 70.46 70.96 71.95 72.47 72.94 73.23 72.84 73.73 74.25 74.97 75.70 75.75 75.81 74.88 74.73 75.21 75.01 74.84 75.55 76.64 77.41 77.46 78.21 78.39 78.00 78.19 77.84 78.47 76.81 76.94 75.81 75.44 76.56 74.29
62.02 63.64 62.67 61.63 60.41 61.02 59.57 63.94 66.07 67.27 70.11 69.61 69.60 69.40 70.16 70.28 70.81 71.37 71.66 71.89 72.51 73.03 73.21 74.10 74.75 75.78 75.96 75.93 76.57 75.83 76.04 75.63 75.55 74.94 75.22 77.04 77.14 78.65 78.62 77.70 77.86 78.26 78.74 78.46 77.33 76.42 75.90 76.03 74.17
61.41 55.03 56.77 57.34 58.42 58.56 60.73 60.30 62.82 66.97 69.93 69.04 68.90 69.34 69.71 70.33 71.28 71.19 71.84 72.03 72.70 73.02 73.58 73.83 74.75 75.54 75.93 76.37 76.75 76.41 75.88 75.80 75.06 74.51 76.04 76.84 77.46 78.27 78.76 78.77 76.68 78.31 78.53 77.46 77.65 77.02 77.12 73.43 73.63
55.10 55.61 53.32 58.49 58.42 58.73 59.02 56.67 62.70 67.40 68.75 68.37 68.88 68.67 68.93 69.97 70.63 71.80 72.28 72.59 73.06 73.39 73.47 74.54 74.50 75.17 75.94 76.37 76.57 75.96 75.77 75.77 74.82 74.19 75.27 76.68 76.98 78.26 78.59 78.05 76.97 78.58 78.53 77.96 76.85 75.70 74.80 73.67 73.20
54.02 52.45 54.71 56.54 58.80 58.95 58.61 57.72 61.61 66.86 68.16 68.04 68.77 68.44 68.77 69.40 70.54 71.62 72.16 72.45 73.16 73.91 74.32 74.67 75.53 75.24 76.00 77.03 76.76 76.56 76.71 75.50 74.47 74.44 75.08 76.79 77.17 77.84 78.42 77.91 77.70 79.31 78.58 77.09 77.22 75.84 75.95 73.06 72.60
51.20 51.60 54.87 55.49 57.93 58.10 58.25 58.70 61.25 66.21 66.92 67.46 68.56 68.72 68.97 69.25 69.97 71.60 72.21 73.16 74.20 74.73 75.00 75.53 75.57 76.15 76.90 76.76 76.91 76.11 75.24 74.77 74.52 74.57 75.02 76.64 77.25 77.78 78.47 77.73 78.09 77.15 77.98 76.84 76.66 75.36 75.83 74.43 73.02
54.45 53.57 53.37 56.20 58.42 56.47 57.18 57.86 60.03 64.35 66.37 66.77 68.34 68.64 69.06 69.58 71.28 71.92 72.57 73.43 73.91 74.54 74.96 75.41 75.38 76.79 76.22 75.61 74.74 74.24 72.84 73.39 73.72 74.54 76.39 77.23 78.16 78.82 79.42 77.86 77.74 77.96 76.97 76.97 76.19 75.46 74.46 72.81 74.17
52.27 51.48 52.29 55.81 56.88 55.93 57.60 57.62 59.94 62.71 65.91 66.99 68.09 68.71 69.38 70.12 70.76 71.35 72.15 72.78 73.14 73.82 74.65 75.30 75.79 76.97 76.69 76.06 75.99 74.87 73.98 73.65 74.10 75.07 76.87 78.25 78.58 79.37 79.05 79.33 78.53 78.24 77.26 77.30 76.82 76.13 74.36 73.51 71.17
50.89 50.92 52.07 52.61 55.43 56.01 55.10 54.59 57.10 60.19 65.69 67.21 68.48 69.55 70.21 70.28 69.50 70.79 71.17 71.98 72.74 73.20 74.31 75.47 76.46 77.25 77.28 77.82 76.41 75.56 75.09 74.47 73.71 74.87 76.70 78.38 79.02 79.12 79.70 79.28 77.62 78.76 77.91 76.29 77.04 76.33 74.58 71.48 70.71
48.80 52.36 52.00 51.67 51.74 49.35 56.06 49.88 56.97 58.98 61.41 64.51 66.61 68.55 69.24 70.51 71.37 71.58 71.24 71.78 72.39 73.40 74.77 76.00 77.11 77.47 77.60 77.89 77.14 77.50 73.38 72.17 73.40 75.24 76.52 77.30 78.74 78.90 79.06 79.25 78.81 79.33 77.71 78.01 78.43 76.73 75.68 74.35 69.25
49.98 52.34 51.55 51.30 50.67 51.40 52.18 51.01 54.66 58.74 57.62 60.77 64.12 66.94 69.03 70.55 71.29 71.60 71.84 72.07 73.08 73.91 74.40 75.38 77.41 78.57 78.96 79.07 78.81 76.27 75.94 74.24 74.27 74.82 78.93 79.80 79.35 78.99 78.58 79.23 79.37 79.09 78.22 78.14 78.33 76.85 76.17 74.42 70.53
53.37 51.55 51.50 51.47 49.82 45.75 51.00 51.34 52.32 55.57 58.45 60.11 63.26 66.26 68.71 69.96 71.20 72.24 73.11 73.15 73.01 74.07 74.66 75.18 77.45 78.50 78.60 78.15 77.64 78.76 78.23 77.41 74.69 76.11 75.04 75.57 76.40 77.51 78.60 78.83 79.36 79.47 79.00 78.43 78.31 77.93 76.75 75.76 73.39
52.27 50.27 45.19 43.86 44.11 44.04 52.01 50.48 52.86 57.18 59.52 60.76 61.91 64.13 68.52 70.21 70.78 71.57 72.41 72.70 73.10 73.23 74.17 74.78 77.07 77.30 78.29 77.36 77.87 77.70 78.15 78.54 78.04 77.83 75.88 77.29 74.99 75.31 78.65 78.85 78.75 78.38 79.48 79.03 78.82 78.26 76.91 76.33 74.28
50.94 50.30 45.85 41.48 42.66 44.98 51.12 47.86 52.16 58.30 60.06 61.02 62.45 63.30 67.11 69.40 70.88 71.41 72.52 73.16 73.52 73.56 75.03 75.15 76.38 77.06 77.19 77.24 78.79 79.46 79.69 77.02 77.14 78.25 76.69 76.16 75.68 76.54 78.02 78.10 78.59 78.79 78.88 78.91 78.78 77.90 76.90 76.44 75.11
51.20 49.13 52.04 47.26 48.66 45.98 48.70 51.14 54.70 57.46 58.50 59.66 60.45 62.14 63.23 67.90 70.55 71.43 72.44 73.29 73.96 74.70 75.87 76.50 77.04 77.82 77.59 76.82 78.93 79.35 79.27 78.93 77.20 79.43 79.39 77.36 79.37 77.01 77.62 77.86 78.18 78.52 78.75 78.86 78.81 77.17 76.89 75.83 75.26
52.95 53.74 47.42 48.30 43.15 42.39 46.40 48.56 49.61 54.48 56.25 58.81 59.65 61.45 63.67 67.41 70.21 71.44 72.38 73.04 74.16 74.83 75.45 76.43 77.42 77.43 78.06 77.62 77.97 77.97 78.68 79.58 79.56 79.82 79.68 79.39 79.05 79.25 78.15 77.78 77.96 78.17 78.62 78.88 78.91 77.50 77.40 76.22 74.67
50.51 49.96 50.73 50.49 48.61 44.99 44.25 48.15 55.62 55.77 57.83 58.05 59.81 62.19 63.69 66.39 69.47 70.58 71.72 72.84 73.85 74.85 75.36 75.47 76.00 77.13 77.17 77.84 78.35 78.12 77.88 78.35 78.95 79.04 79.55 80.00 79.35 80.18 78.93 79.28 78.02 77.76 78.32 78.83 78.60 78.62 77.55 76.39 75.45
53.04 51.42 51.37 46.88 46.85 48.39 48.49 49.09 55.34 56.00 57.23 59.27 59.96 61.92 63.99 66.12 67.29 68.68 70.44 71.99 72.82 73.73 74.61 75.25 75.59 75.44 76.80 77.69 78.48 78.57 78.89 78.86 78.21 78.76 79.27 80.13 79.73 79.89 80.23 79.70 79.01 78.48 77.92 78.70 78.03 77.59 76.94 76.35 75.45

GFSSGP_sfc_wetblb_036.txt.gz
Wetbulb
74.48 74.26 73.72 70.50 61.94 61.47 56.92 58.93 62.42 60.93 63.32 67.75 67.78 66.07 64.29 66.50 62.90 59.17 69.62 70.33 69.70 72.00 73.72 75.18 77.17 77.21 78.01 78.39 78.26 78.05 78.33 77.91 78.19 77.82 77.79 77.89 77.41 77.65 77.63 76.93 77.07 76.96 76.78 76.45 75.93 75.96 76.13 76.01 75.76
74.71 73.88 72.84 68.24 58.76 55.07 56.77 63.00 61.41 64.06 66.95 68.82 68.12 67.20 65.73 63.36 67.09 66.46 67.94 69.79 69.78 72.09 73.68 74.43 77.33 77.89 77.84 78.30 78.13 78.16 77.63 77.73 77.95 77.40 78.20 77.99 77.40 77.59 77.06 76.78 76.97 76.67 76.48 76.38 75.99 75.85 75.65 75.32 75.63
74.37 74.33 67.05 63.50 59.63 55.37 58.01 63.42 64.06 66.65 68.52 67.94 67.49 69.57 67.32 65.00 68.10 67.46 69.81 69.13 70.55 72.47 73.70 75.99 77.82 77.76 77.74 77.95 78.12 78.08 77.99 77.73 77.41 77.33 77.65 77.24 77.25 77.23 76.65 76.90 76.82 76.70 76.68 76.18 76.18 75.87 75.53 75.07 75.06
71.92 70.54 67.97 59.63 57.15 61.35 62.60 63.08 66.41 66.42 67.99 69.23 68.30 65.11 68.55 70.95 69.40 68.73 68.62 70.43 70.84 72.87 74.50 76.59 77.43 77.66 78.01 78.35 78.03 77.91 77.64 77.25 77.52 77.15 76.75 77.06 77.15 77.18 76.91 76.96 76.66 76.74 76.63 76.54 76.54 76.32 76.18 75.70 75.17
72.50 68.54 60.94 58.60 58.73 63.09 65.52 67.19 67.32 65.90 66.46 67.31 68.42 64.19 65.56 70.45 70.88 69.31 70.91 70.84 70.84 73.86 75.05 75.53 78.26 78.50 78.35 78.00 77.86 77.81 77.42 77.07 77.13 76.97 76.76 76.79 76.76 77.04 77.04 76.91 76.77 76.71 76.68 76.51 76.49 76.57 76.35 76.15 75.68
66.80 63.88 57.02 55.89 57.96 63.99 65.77 67.41 67.77 66.16 67.58 67.78 66.43 64.93 65.36 71.08 71.00 72.15 72.42 72.90 74.33 73.73 74.85 75.71 77.70 78.32 78.31 77.79 77.73 77.96 77.37 76.83 76.94 76.84 76.76 76.62 76.85 77.07 77.30 77.27 76.99 76.84 76.65 76.45 76.29 76.21 76.27 76.24 75.65
60.04 59.21 56.23 57.49 59.82 62.41 65.02 67.93 65.59 66.36 66.80 66.32 68.68 64.70 66.61 69.00 71.59 71.98 73.19 73.26 73.44 74.10 74.75 75.48 76.42 77.04 77.66 78.08 77.45 77.38 77.05 77.03 77.06 76.87 76.71 76.57 76.46 76.71 76.91 77.44 77.38 76.98 76.72 76.35 75.65 75.55 75.93 75.99 76.04
68.91 64.63 59.60 59.70 58.80 59.10 65.55 66.64 67.66 67.50 66.65 71.44 70.27 64.15 64.17 69.49 71.91 72.83 72.82 72.68 72.97 73.06 73.70 75.16 75.99 75.43 75.62 75.81 77.16 77.06 76.92 76.98 77.01 76.79 76.29 76.07 75.89 75.60 76.48 78.05 77.85 76.56 76.38 75.54 75.31 75.00 75.11 76.38 76.78
70.46 60.50 58.19 59.22 60.04 60.20 64.75 64.84 68.35 69.86 68.21 69.60 70.57 68.61 69.84 71.61 71.64 71.24 71.79 72.39 72.26 72.69 73.15 73.84 73.66 75.42 76.45 76.25 76.34 76.93 76.90 76.93 77.07 76.37 76.40 76.32 77.64 77.16 75.97 77.88 77.47 76.00 75.50 75.00 75.27 75.11 76.06 77.57 77.28
65.49 58.04 57.15 63.35 63.25 63.06 63.82 64.06 65.95 66.18 66.39 67.79 68.27 70.10 70.72 70.89 70.42 69.21 68.85 70.09 70.25 69.82 71.59 72.82 73.65 74.72 75.27 74.13 76.42 76.88 75.96 75.58 75.92 74.79 71.83 73.21 76.55 76.16 76.73 76.95 77.91 76.78 74.78 74.84 76.18 75.30 76.18 76.99 74.96
64.67 60.32 62.87 63.32 64.93 65.55 63.63 63.83 66.75 64.77 64.05 67.76 66.63 67.87 69.47 69.54 70.06 69.79 69.97 70.82 70.10 70.95 71.26 72.76 74.17 75.33 74.49 74.68 75.31 75.35 75.34 75.49 74.87 73.02 71.40 71.06 74.44 74.69 77.07 75.01 75.27 76.46 75.99 73.76 70.44 72.11 74.38 75.46 74.43
62.22 63.22 64.26 64.31 65.64 64.94 63.56 63.69 63.63 64.69 65.61 70.49 70.11 69.87 69.85 69.08 69.26 69.41 69.46 70.76 70.90 70.55 71.68 72.70 74.50 75.51 75.33 74.83 73.67 74.82 74.18 73.92 75.81 75.21 73.50 73.66 73.68 73.58 74.52 76.46 76.54 76.23 74.02 72.86 73.42 73.73 75.53 73.22 72.84
62.64 62.66 64.91 65.06 65.32 66.03 64.59 63.30 63.90 64.64 68.63 70.68 70.83 70.22 69.59 69.72 69.90 70.64 70.96 71.53 72.15 70.95 72.03 72.97 74.51 75.82 77.62 76.79 74.21 74.18 75.35 75.30 75.38 77.25 79.32 72.92 75.09 74.64 74.57 75.45 73.13 76.06 74.85 73.85 74.47 75.57 74.05 76.07 73.84
64.30 64.84 64.19 65.44 64.89 63.54 62.75 63.66 63.47 64.96 67.96 69.00 69.91 69.46 69.99 69.94 69.83 71.58 71.31 71.09 72.00 72.73 72.28 74.37 74.57 76.09 78.41 78.39 80.98 76.45 78.79 74.86 76.74 74.96 77.07 79.37 75.97 76.23 76.76 77.79 75.28 75.59 74.94 73.84 75.85 77.74 75.97 71.89 73.99
63.22 61.03 63.36 63.77 63.71 62.44 62.59 60.61 63.02 66.39 68.03 67.54 68.71 69.57 70.01 70.27 71.54 71.17 72.48 72.45 72.47 72.95 73.23 73.87 74.65 75.48 77.54 78.00 79.09 79.23 78.16 74.14 75.76 76.44 78.20 78.69 79.48 79.07 74.71 77.68 76.86 77.34 78.53 78.19 77.88 73.56 74.65 72.75 72.04
60.47 61.03 57.33 62.24 63.40 62.63 60.68 55.89 63.32 67.60 67.53 66.78 67.83 68.80 69.74 70.29 70.33 72.03 73.04 73.12 73.96 72.98 73.41 74.02 73.25 74.56 75.48 76.58 77.81 77.75 76.00 77.12 76.98 76.83 76.76 78.16 79.30 80.99 80.61 76.92 75.26 74.18 75.49 77.68 73.33 75.94 72.97 73.15 72.78
58.92 54.75 57.37 59.15 62.97 61.03 59.39 56.89 62.45 66.75 67.01 67.05 67.54 67.89 68.60 70.23 70.94 72.26 72.07 73.10 73.14 73.93 74.44 74.43 74.63 74.45 74.93 77.02 76.97 76.55 77.34 77.72 77.65 78.18 76.79 78.28 78.87 79.52 79.79 76.74 73.87 77.78 78.06 76.38 76.24 75.49 72.76 72.87 72.32
53.86 53.47 56.57 56.61 59.35 59.71 58.09 57.50 61.58 64.16 65.99 67.02 68.12 67.94 68.41 68.84 70.07 72.00 72.30 73.07 73.51 74.92 75.20 75.43 75.17 76.46 76.10 76.14 76.88 76.36 75.99 77.14 77.26 77.87 77.59 78.14 78.63 79.02 79.41 77.44 77.93 78.74 77.59 75.36 75.54 76.31 74.93 73.64 72.07
57.25 54.60 54.15 57.58 60.01 58.13 57.57 57.83 61.07 63.71 64.05 66.11 67.91 68.21 68.30 68.70 70.95 72.32 72.51 73.00 73.50 74.40 74.92 74.64 75.29 76.93 75.85 75.09 74.46 74.92 73.58 75.53 76.48 77.39 78.68 78.89 78.88 79.48 80.33 78.14 73.92 77.72 77.39 77.38 77.21 76.01 73.23 71.66 71.90
57.10 54.94 53.75 56.18 59.05 59.13 58.45 57.30 60.15 62.54 63.44 64.22 67.03 68.30 68.56 68.58 69.57 71.25 71.93 72.28 72.63 73.29 74.42 74.89 75.22 76.65 76.46 75.89 75.77 75.71 76.06 75.41 75.57 76.39 78.57 78.75 78.43 80.27 79.76 78.86 78.03 79.07 73.99 77.64 77.15 76.40 73.45 72.75 71.79
56.19 54.96 54.36 54.15 56.80 59.01 58.06 56.34 58.97 61.15 62.99 64.95 66.68 68.79 69.51 69.41 69.08 70.35 71.09 71.70 72.31 73.13 74.11 74.70 75.35 77.04 77.26 76.88 77.32 77.66 77.91 78.02 75.07 74.63 75.86 77.01 78.39 78.97 79.23 79.15 78.27 78.12 77.52 75.83 76.39 76.41 76.64 71.58 71.17
50.98 56.58 55.74 55.12 54.07 51.52 58.78 50.85 58.04 59.20 60.09 62.96 64.46 67.32 68.41 69.87 70.75 70.60 71.37 71.53 71.97 73.11 74.42 75.52 75.96 76.73 77.40 77.95 76.10 76.48 73.64 72.31 73.73 74.25 75.40 75.96 77.25 78.40 78.42 78.47 79.32 79.16 77.76 77.08 77.53 77.96 77.26 75.27 69.52
51.02 54.63 54.43 53.84 53.06 52.98 53.40 51.92 55.68 59.10 58.13 60.53 63.82 66.69 67.91 69.90 70.65 70.77 70.96 71.75 72.35 73.40 74.72 75.54 76.29 76.73 77.68 76.47 77.81 75.79 75.09 74.24 74.18 75.34 76.04 76.85 77.51 78.73 78.93 78.51 79.56 79.52 78.91 78.08 77.21 78.37 77.48 76.78 74.24
54.29 52.47 52.33 52.16 51.44 48.00 51.58 51.69 53.46 56.21 58.76 60.81 63.17 65.37 68.57 69.48 70.87 72.18 72.05 72.39 72.19 73.70 75.10 75.71 76.42 76.49 77.75 77.44 76.51 77.85 75.30 75.23 73.46 73.73 74.64 75.85 77.39 77.58 79.29 78.95 78.59 79.37 79.02 78.68 77.82 78.76 78.52 77.42 76.55
53.00 50.06 45.18 44.44 44.98 44.36 51.90 50.66 53.67 57.53 60.53 61.54 61.97 65.09 68.37 69.72 70.61 71.92 71.86 71.70 71.93 72.67 74.14 74.98 76.53 76.17 76.97 77.35 76.27 75.94 78.07 75.61 76.61 76.93 73.32 74.51 74.68 76.30 77.35 78.93 78.74 77.92 78.45 79.03 78.97 78.30 78.65 77.68 76.54
51.22 50.08 45.56 41.15 42.51 44.62 50.92 47.91 52.13 58.59 60.16 61.56 63.25 64.91 66.87 68.52 69.48 71.63 72.55 72.42 72.06 72.71 73.56 74.34 75.71 75.85 76.82 77.01 77.23 76.53 78.05 76.79 75.12 77.72 75.01 74.02 75.05 75.46 78.16 77.68 78.38 78.26 77.97 78.36 79.72 78.88 77.90 77.57 76.50
51.36 48.52 51.97 47.82 48.83 45.91 47.91 50.79 54.33 58.04 58.38 60.12 60.78 63.45 65.23 66.80 68.42 71.03 72.87 73.28 72.68 72.53 73.37 74.09 75.08 76.20 76.97 76.55 77.73 77.67 76.35 77.97 76.41 76.59 77.55 77.19 76.39 77.23 79.30 77.94 78.13 77.87 78.42 78.83 79.25 77.30 77.71 78.32 76.79
52.86 54.22 47.68 48.93 43.80 43.96 47.47 50.60 50.26 54.68 57.25 59.25 60.68 61.33 64.29 66.27 67.98 70.63 72.29 73.56 73.52 73.34 73.77 74.46 75.71 75.85 77.01 77.52 77.35 77.71 76.97 77.61 77.96 77.21 77.49 76.49 78.17 77.25 80.54 78.13 77.80 78.15 77.91 79.02 78.56 77.87 78.27 77.36 76.65
51.18 51.28 50.91 50.51 49.08 45.59 45.82 48.29 57.97 57.45 58.48 59.58 60.93 62.34 64.07 65.93 67.64 69.86 72.32 73.50 74.52 74.20 74.30 74.32 74.85 76.24 76.82 77.38 77.59 77.48 77.74 77.12 77.59 77.52 77.91 79.00 77.71 80.27 77.77 79.15 77.88 77.97 77.94 78.15 78.17 77.34 77.23 77.58 76.70
53.43 52.02 52.81 47.77 47.98 49.67 49.73 49.81 57.52 59.51 60.30 60.57 60.71 62.56 64.43 66.35 68.54 69.78 71.81 73.22 74.15 74.33 74.36 74.55 74.97 75.79 76.85 77.95 77.77 77.24 77.74 78.16 77.71 77.09 77.91 78.86 79.58 78.36 80.02 78.92 78.23 78.06 77.67 77.93 77.54 77.10 76.21 77.05 76.09

GFSSGP_sfc_wetblb_039.txt.gz
Wetbulb
73.64 72.62 72.55 69.97 62.28 59.50 56.03 57.68 62.36 61.38 62.17 66.95 65.95 65.91 63.66 64.93 62.50 56.58 68.68 69.79 71.23 71.45 73.50 76.13 77.92 78.28 77.95 78.23 78.18 77.91 78.15 77.83 77.93 78.27 77.89 77.53 77.35 77.65 76.98 77.15 76.99 77.07 76.56 76.31 76.40 76.45 76.20 76.14 75.73
73.13 72.26 71.96 66.76 58.72 54.43 56.09 61.44 59.98 63.04 65.83 66.80 67.06 66.40 64.63 61.13 65.67 65.82 65.53 70.09 71.70 71.76 72.85 75.46 77.48 78.07 78.32 78.22 78.54 78.20 77.67 76.94 77.69 78.35 78.02 77.56 77.87 77.71 77.05 77.02 76.86 76.72 76.67 76.51 76.26 76.04 75.88 75.96 75.75
73.20 73.61 66.40 62.45 59.28 54.36 56.56 62.19 63.32 65.78 67.07 66.65 65.95 67.58 66.21 62.37 65.42 65.47 67.63 70.60 71.27 71.23 73.30 75.24 78.05 78.42 78.22 78.42 78.27 78.44 78.09 77.49 78.19 78.22 77.70 77.69 78.02 77.25 76.92 76.98 76.95 76.67 76.73 76.49 76.29 75.88 75.60 75.38 75.29
70.45 69.80 67.26 59.71 56.24 60.00 60.26 62.92 65.87 65.82 67.72 67.92 66.26 63.30 67.25 67.76 66.60 67.24 67.81 70.12 70.32 71.61 74.54 77.27 78.02 77.62 78.30 77.94 77.89 77.69 77.24 77.29 77.77 77.66 77.77 77.59 78.04 77.09 77.10 76.85 76.87 76.85 76.85 76.88 76.63 76.38 75.93 75.54 75.12
71.57 67.41 60.28 57.40 57.60 60.80 62.81 64.96 66.61 65.33 66.15 66.09 66.36 63.06 64.08 66.04 67.67 67.19 68.24 69.77 68.90 73.15 74.70 75.66 78.39 78.42 78.57 77.78 77.64 77.85 77.33 77.01 77.58 77.83 77.37 77.22 77.39 77.18 77.02 76.99 76.96 76.93 76.80 76.63 76.66 76.57 76.29 75.93 75.13
63.95 63.26 56.40 54.94 57.76 61.63 64.25 66.05 66.79 65.60 65.43 65.73 64.75 64.26 64.28 65.13 65.15 66.49 68.74 68.20 71.19 72.97 73.94 75.64 77.97 78.29 78.52 77.43 77.24 78.09 77.17 76.98 77.56 77.77 76.91 76.97 77.25 77.94 77.34 77.10 77.10 76.82 76.49 76.38 76.49 76.51 76.21 75.68 75.05
59.96 60.67 56.36 56.99 57.87 59.81 63.84 67.21 66.01 65.63 65.19 64.15 66.95 62.76 62.86 63.26 67.13 68.61 68.36 70.35 72.73 73.52 73.95 75.20 75.64 76.29 77.58 78.11 77.43 77.62 77.11 77.34 77.42 77.51 77.08 76.95 76.76 76.85 77.32 77.34 77.91 76.82 76.56 76.29 76.12 76.41 76.43 75.74 75.27
64.64 60.36 56.14 57.51 57.74 58.67 64.93 65.51 67.13 66.91 65.26 69.36 68.55 62.45 61.84 66.39 69.46 69.80 70.90 71.19 72.40 73.19 73.82 74.34 74.55 74.28 74.47 75.23 77.39 77.35 77.15 77.45 77.13 77.03 76.59 76.40 75.88 76.04 76.54 77.55 78.26 76.88 76.42 76.05 76.23 76.99 77.28 76.74 75.54
68.01 58.30 56.15 56.35 58.21 59.96 64.59 64.73 68.52 70.01 66.88 68.08 68.59 67.03 67.92 69.58 70.66 70.11 69.38 69.54 70.19 72.04 72.94 73.72 73.57 72.91 73.00 73.93 75.43 76.79 77.16 77.44 77.33 76.85 75.44 71.85 72.40 73.63 74.97 76.51 77.82 75.80 75.83 75.85 77.35 77.02 76.86 77.31 76.61
63.51 58.07 57.17 61.10 62.50 61.16 63.99 65.11 66.34 65.98 65.17 65.19 66.51 68.69 69.63 69.62 69.39 68.38 67.95 68.12 69.00 69.99 71.36 72.62 72.26 72.36 72.94 74.37 73.63 73.81 74.68 74.68 74.45 72.34 70.82 70.43 69.92 71.63 74.86 76.04 77.45 76.65 75.74 76.74 75.91 75.12 75.10 74.36 74.33
63.24 58.41 61.48 62.49 64.30 64.79 63.62 64.12 66.47 65.04 62.48 64.62 64.22 66.35 68.78 68.58 68.11 68.39 69.00 69.58 68.12 69.92 70.82 70.77 71.85 72.58 72.27 73.06 72.99 73.38 73.11 73.03 73.65 71.79 69.23 68.62 71.09 71.76 73.03 72.66 73.60 73.36 74.23 72.36 69.82 71.23 72.78 73.30 72.44
60.95 63.55 63.67 64.09 64.84 64.19 62.37 63.97 63.66 66.34 65.53 67.86 68.04 68.41 68.39 68.02 68.04 68.24 68.32 68.77 67.93 68.60 69.34 70.42 71.92 72.45 71.47 72.29 72.49 72.79 72.43 72.39 72.48 71.74 69.40 70.24 69.90 71.75 71.47 72.69 72.74 73.54 71.71 71.52 71.86 71.05 71.89 70.89 71.59
61.44 63.26 65.01 64.92 63.59 63.90 63.06 62.75 65.02 66.19 68.26 68.84 68.46 68.32 67.63 68.32 68.00 69.31 69.57 70.00 68.87 67.57 68.69 70.08 71.97 71.85 72.08 71.14 70.85 70.65 70.95 71.85 73.43 72.54 69.70 72.20 70.63 72.75 72.77 73.60 71.46 71.96 72.39 72.40 73.08 71.87 72.24 71.01 71.09
62.78 63.44 63.84 63.75 63.43 64.05 62.01 62.96 63.92 67.01 68.33 67.53 67.46 66.83 67.59 67.99 68.12 68.78 68.84 69.54 68.85 68.42 68.58 71.04 71.56 72.50 72.04 72.17 70.44 70.56 72.81 71.43 74.73 74.08 73.04 72.47 72.19 73.39 72.28 73.79 73.14 73.33 72.21 71.08 71.29 72.74 71.84 70.10 70.15
62.92 60.50 63.41 63.60 63.17 62.87 63.98 59.70 60.87 67.54 68.19 66.44 66.80 66.90 67.56 68.06 68.81 68.54 68.88 68.85 69.30 69.52 69.62 70.63 71.11 72.96 72.15 72.05 72.06 73.49 72.06 71.66 70.88 74.15 74.18 74.21 74.42 73.05 72.55 71.86 72.81 73.12 72.80 71.77 72.63 69.19 72.07 70.13 70.26
59.09 58.97 55.22 61.46 62.27 62.80 62.04 55.34 62.46 66.50 66.87 65.52 66.70 67.07 67.26 67.71 68.38 69.15 69.62 69.81 69.85 69.68 70.47 71.18 72.27 72.89 72.61 72.29 72.11 72.77 71.81 72.63 72.61 73.72 73.31 73.59 73.66 74.92 72.96 72.65 72.93 72.45 73.21 73.87 72.37 72.68 70.08 69.57 69.86
55.01 51.83 52.85 56.77 61.85 61.66 56.45 53.43 61.81 64.77 65.90 65.49 66.12 66.98 67.20 67.41 68.23 69.34 70.04 70.54 70.37 69.83 70.90 70.85 71.35 71.31 72.22 72.18 72.86 71.87 72.04 72.25 73.07 74.20 72.91 72.92 73.63 75.36 74.01 72.72 72.80 72.65 73.42 72.22 71.37 71.45 69.92 69.55 69.20
49.78 50.37 52.91 53.86 59.58 59.38 55.70 53.95 61.93 64.25 64.86 64.03 65.63 66.58 66.88 67.20 67.60 69.78 70.55 71.15 70.79 70.44 71.22 70.79 71.26 71.10 71.55 72.74 72.81 71.42 71.20 72.44 72.34 72.27 72.78 73.88 74.16 75.01 74.33 73.11 72.24 73.67 71.97 71.67 70.25 69.34 68.92 68.67 66.80
55.06 54.24 52.03 55.03 59.23 57.19 56.36 54.30 61.49 63.58 63.60 64.09 64.64 65.46 66.55 67.27 68.71 70.12 70.96 71.44 71.18 71.29 70.75 70.45 70.99 71.50 71.35 72.59 71.34 71.35 70.38 71.03 71.04 71.30 74.09 74.44 74.72 74.95 74.32 73.92 73.09 73.46 71.67 71.94 71.85 69.73 69.95 67.37 65.01
53.56 52.96 52.61 54.01 56.93 55.69 55.58 54.38 57.20 62.39 63.81 64.32 64.83 64.93 65.61 67.13 67.73 68.82 69.07 70.14 70.75 70.90 71.35 70.92 71.88 72.38 71.66 72.67 71.73 71.18 71.67 71.13 71.63 71.15 74.05 75.03 74.80 75.00 74.70 73.90 72.77 73.55 72.11 72.40 71.59 70.41 69.16 68.76 65.28
51.38 51.11 52.32 52.00 54.03 55.91 55.34 53.46 55.46 61.48 62.30 63.14 64.77 66.92 67.03 66.73 67.05 67.84 68.19 68.78 70.33 70.68 70.74 71.28 71.44 72.99 72.26 72.66 72.69 72.09 72.26 71.31 70.76 70.26 70.36 74.25 74.24 75.57 74.90 74.43 74.06 73.72 71.62 71.72 71.87 70.94 70.40 64.00 66.06
48.18 54.33 54.99 54.67 52.01 46.76 54.78 44.66 52.04 57.85 59.48 62.33 62.82 63.00 65.49 66.55 67.61 68.16 68.20 68.52 69.24 70.84 71.80 71.40 72.08 73.83 73.17 73.17 72.85 71.69 70.97 69.94 70.27 69.38 69.97 72.07 74.10 74.77 75.60 74.70 74.05 73.73 73.62 72.03 72.10 72.86 71.00 66.72 62.45
51.17 54.12 54.03 54.42 51.46 47.67 50.53 48.81 52.13 55.33 56.86 59.30 61.69 62.24 66.37 66.79 67.22 67.91 68.35 69.14 69.71 71.16 71.65 71.82 72.09 73.37 73.90 73.70 72.97 72.69 71.06 70.67 69.73 69.78 69.70 71.47 72.37 73.79 76.23 74.87 75.03 73.80 74.08 72.90 72.64 73.26 70.75 70.13 67.77
56.03 52.29 49.68 51.78 49.42 42.65 46.57 48.22 48.59 53.49 55.03 57.45 62.34 65.01 66.58 67.33 67.91 68.23 69.30 69.66 69.58 71.34 72.01 72.21 71.79 72.22 73.91 73.54 73.66 72.31 71.53 69.86 69.83 68.61 68.94 72.00 72.92 74.20 75.15 75.43 75.12 74.37 74.41 73.44 73.45 73.71 72.28 71.15 71.28
52.81 46.09 38.89 38.23 40.99 40.03 44.53 44.27 46.01 53.68 57.61 58.48 60.12 63.79 66.74 67.90 67.83 67.51 68.09 68.45 68.99 70.17 70.85 72.15 72.04 71.79 73.81 73.30 72.76 73.49 72.41 71.92 70.10 69.46 69.53 70.51 73.33 73.55 74.47 75.00 74.60 74.86 74.80 75.06 73.81 74.25 73.90 72.34 71.32
49.05 46.95 37.80 32.68 35.90 39.36 44.72 42.47 46.92 53.74 55.80 59.32 60.67 64.59 66.69 67.41 67.68 67.95 68.32 68.63 68.89 69.58 70.98 72.31 72.34 72.18 73.73 74.23 72.98 72.59 73.76 73.35 72.15 72.71 70.41 70.62 72.16 73.88 74.30 75.55 75.14 74.77 74.67 74.42 75.18 74.47 74.56 73.50 71.80
47.46 44.54 46.48 39.24 41.67 37.99 40.64 44.06 49.08 52.33 54.07 54.87 55.80 61.09 65.77 66.85 68.12 68.37 68.61 69.03 68.96 69.60 71.37 71.86 72.76 72.66 73.42 74.06 74.27 72.91 73.05 74.97 72.49 71.69 73.52 70.07 71.38 73.08 74.76 75.20 75.95 75.15 74.87 74.40 74.79 75.45 74.07 74.08 73.05
49.68 49.39 42.41 43.02 34.61 34.92 41.27 42.91 44.62 48.19 50.62 53.98 54.12 55.39 64.58 66.56 67.76 69.06 68.87 69.21 69.34 69.87 71.39 72.45 73.72 73.33 73.71 73.97 74.45 74.46 73.11 73.14 74.88 72.22 71.97 73.18 71.15 71.63 74.12 74.95 75.46 75.33 75.19 75.15 75.03 74.69 74.92 73.88 73.98
47.31 46.04 46.26 42.49 40.94 36.03 36.47 42.34 51.04 50.29 51.84 53.17 54.84 56.09 62.45 65.82 67.33 69.39 69.63 70.01 69.87 70.19 71.03 71.69 72.81 73.59 73.88 74.32 74.11 74.67 74.29 73.30 74.62 74.42 72.50 74.29 72.92 73.72 73.38 75.02 75.09 74.95 75.16 75.78 75.20 74.04 73.87 74.16 73.49
50.91 47.44 46.13 42.58 39.06 42.34 41.07 43.43 54.10 53.62 54.26 54.56 55.79 56.40 59.72 64.87 66.16 69.87 70.15 70.28 69.92 69.66 70.52 71.14 71.99 73.39 74.18 74.84 74.32 74.41 75.21 74.67 73.60 74.58 74.52 73.03 74.76 73.86 75.37 75.82 75.20 75.39 75.09 74.82 75.30 74.23 74.61 73.21 73.32

GFSSGP_sfc_wetblb_042.txt.gz
Wetbulb
73.35 72.98 72.41 69.46 61.35 58.88 55.99 56.84 62.59 61.16 62.10 65.75 65.77 64.29 63.01 63.19 61.40 54.33 68.45 69.69 71.13 71.93 74.73 76.06 77.79 78.04 77.54 77.34 77.83 77.95 77.20 77.20 77.61 77.33 77.69 77.78 76.98 77.17 77.31 77.29 76.76 76.43 76.43 76.46 76.57 76.32 76.24 75.26 75.46
72.27 71.59 71.58 66.89 58.58 54.17 54.88 59.21 60.08 62.66 64.89 66.93 66.88 65.98 63.75 60.54 65.33 65.91 66.21 70.62 72.02 73.03 74.35 75.26 77.74 77.98 77.68 77.72 77.82 77.88 77.16 77.65 77.38 77.33 77.73 77.52 77.01 77.56 76.90 76.87 76.79 76.62 76.52 76.33 76.25 76.17 76.25 75.86 74.84
71.85 73.00 65.87 61.44 58.09 54.52 56.02 60.54 62.42 64.67 66.48 65.99 64.82 67.05 65.02 61.83 65.77 65.54 69.15 71.30 72.17 72.42 74.57 75.58 78.13 78.11 78.04 77.46 77.78 77.36 77.42 77.09 77.16 76.97 77.21 77.63 77.55 76.87 77.18 76.85 76.58 76.58 76.41 76.25 76.06 75.87 75.56 75.54 75.20
70.52 69.95 67.29 59.60 55.91 59.45 60.48 63.23 64.93 64.93 66.78 66.93 65.93 62.54 64.19 67.15 65.67 67.04 70.84 71.46 71.09 73.38 74.56 77.27 78.10 77.42 77.48 77.29 77.58 76.97 77.02 76.76 77.16 77.14 77.39 77.60 77.40 76.83 76.94 76.91 76.83 76.78 76.59 76.26 76.06 75.54 75.34 75.37 75.15
70.92 67.28 59.70 57.31 57.32 60.50 62.94 63.99 65.12 64.28 64.96 64.91 65.74 61.01 61.06 65.55 67.01 69.51 69.76 70.86 70.89 73.29 75.16 76.19 78.16 78.43 77.44 77.34 76.92 76.92 76.70 76.62 77.05 77.22 77.14 77.53 77.22 77.11 77.03 76.97 76.75 76.75 76.73 76.59 76.28 75.92 75.79 75.37 75.34
63.56 62.79 55.77 53.63 56.53 61.14 62.72 65.65 65.15 64.93 65.41 64.94 63.11 62.46 59.31 65.41 66.07 68.00 69.40 69.87 73.03 73.47 75.03 75.69 77.93 78.26 77.54 76.88 77.34 76.86 76.54 76.76 76.86 76.99 77.08 77.47 77.38 77.16 77.11 76.89 76.90 76.65 76.56 76.40 76.34 76.09 75.72 75.28 75.31
59.89 59.92 55.17 56.60 57.03 59.12 61.87 66.37 64.52 64.22 64.21 63.85 66.55 58.61 59.72 62.55 66.09 68.08 67.94 72.48 73.16 73.95 74.58 75.21 75.57 76.13 77.13 77.24 77.32 76.76 76.90 76.90 76.85 76.89 76.83 76.89 76.96 76.86 76.95 77.00 76.95 76.73 76.54 76.26 75.98 76.00 75.60 75.37 75.16
63.41 60.48 57.11 58.31 56.77 58.11 63.82 65.53 66.77 65.38 63.92 68.54 65.58 56.96 56.15 62.03 66.38 67.66 67.03 71.76 71.94 73.51 74.35 74.10 73.59 73.81 74.50 74.88 77.31 76.94 77.06 76.97 76.89 76.76 76.43 76.53 76.30 76.23 76.51 77.25 77.22 76.70 76.42 76.14 75.89 75.81 75.95 75.44 74.65
65.97 56.79 56.25 56.92 58.08 59.72 64.73 63.95 67.89 68.33 65.55 66.84 67.56 63.84 62.79 64.87 66.54 65.53 67.94 70.52 71.32 72.96 73.64 73.62 73.19 73.24 73.57 74.05 75.45 76.75 77.35 77.08 77.03 76.52 76.46 72.87 71.01 72.87 74.69 75.57 76.70 75.98 75.75 75.83 76.01 76.25 76.71 75.77 75.40
63.55 57.99 58.29 61.90 61.98 60.91 63.45 64.07 65.61 64.86 65.08 64.78 64.25 64.02 66.78 66.64 65.50 66.34 67.59 68.78 69.62 70.88 72.49 73.01 72.59 72.25 72.75 74.92 73.61 73.41 74.83 74.77 74.17 70.26 69.54 69.70 69.80 71.36 74.36 75.38 76.48 75.83 74.70 75.33 74.73 74.70 75.92 74.75 73.71
63.36 57.86 60.99 61.96 63.79 64.93 63.00 65.52 66.69 64.41 62.22 64.04 62.84 64.74 66.20 66.07 67.12 67.32 67.84 68.57 69.36 70.87 72.27 71.99 71.84 71.94 71.99 72.45 72.65 72.60 73.07 73.51 72.96 70.33 68.83 68.91 70.50 71.44 72.22 72.13 73.44 72.61 73.52 71.51 69.61 70.56 71.93 72.01 72.34
58.99 63.80 63.14 62.12 64.44 63.99 62.26 64.76 64.84 65.45 64.70 67.06 66.44 67.03 66.79 66.45 67.12 67.27 67.50 67.98 69.15 70.20 71.29 71.27 71.06 71.60 70.34 72.27 72.35 72.39 72.20 72.19 71.76 69.81 67.35 69.31 68.54 70.90 70.81 70.89 71.82 72.83 70.93 70.67 70.32 70.72 71.32 70.95 70.54
59.54 61.62 63.78 64.48 63.91 62.76 63.38 63.37 64.34 65.11 67.14 67.94 67.60 66.97 66.40 67.07 67.33 68.15 68.95 68.75 69.08 69.07 69.94 70.22 70.85 71.15 70.87 70.64 70.71 71.31 71.14 71.38 71.93 70.90 68.78 69.68 69.46 70.45 71.32 72.04 72.08 71.54 71.74 70.95 70.93 71.04 71.41 70.69 68.85
61.56 61.71 63.48 63.66 61.61 62.43 60.75 62.83 65.15 65.22 67.32 66.75 66.84 66.00 66.65 66.89 67.32 68.02 68.48 67.30 67.89 68.61 68.99 70.13 70.86 70.83 71.22 70.17 68.77 69.49 70.28 70.50 72.10 71.52 69.16 71.20 69.65 71.24 71.51 71.36 70.63 70.83 70.99 70.87 70.31 71.26 70.72 68.76 68.57
59.58 59.08 62.19 61.60 61.71 61.00 63.27 60.17 62.61 65.81 66.68 65.61 65.93 66.31 66.84 67.35 68.07 67.89 68.71 67.36 67.77 68.14 68.99 69.64 70.77 71.27 70.86 69.47 68.93 69.20 70.64 71.14 72.46 72.24 71.53 71.54 70.59 72.26 71.76 71.97 71.89 71.28 71.31 70.39 69.95 69.32 69.51 67.40 68.15
55.56 56.63 55.11 61.14 61.99 63.32 61.89 56.52 64.12 65.90 65.07 64.23 65.15 65.78 66.49 67.21 67.70 68.79 69.41 69.13 68.42 67.51 68.16 70.00 71.80 71.48 70.26 71.28 70.59 71.43 70.13 69.74 71.15 73.38 72.77 72.60 72.70 72.70 72.05 72.29 71.94 72.21 72.66 72.10 71.45 70.56 67.81 68.40 68.30
49.59 47.47 51.88 57.43 63.08 62.04 60.90 56.62 64.12 65.59 64.26 63.47 64.37 65.08 65.96 66.33 67.37 68.52 69.38 69.22 69.01 67.95 68.47 69.42 70.36 71.76 69.96 71.14 70.36 70.81 71.15 70.99 71.16 72.10 72.52 72.69 74.03 73.87 71.91 71.51 72.40 71.83 71.83 71.78 69.54 70.99 68.64 67.83 69.25
44.81 47.73 50.38 52.32 57.20 60.54 59.34 58.14 63.13 64.63 64.15 63.83 64.19 64.60 65.34 65.85 66.63 68.45 69.34 69.76 69.72 69.14 69.55 69.68 69.83 71.68 70.63 70.93 69.78 69.71 69.64 70.22 71.33 71.79 71.51 71.88 73.04 74.36 73.12 71.65 70.87 71.96 71.00 70.43 70.01 67.68 68.41 68.44 66.94
50.32 50.41 50.78 53.89 57.25 56.64 57.84 59.29 61.82 64.05 63.79 63.74 64.12 64.33 64.93 65.81 67.64 68.82 69.47 69.57 69.63 69.52 69.42 69.25 69.06 70.81 70.76 70.10 69.41 68.25 67.57 68.64 70.03 70.64 71.92 72.20 72.96 73.63 73.16 72.65 73.09 72.34 71.55 71.20 69.32 68.58 67.98 65.85 64.06
49.22 47.59 50.41 54.53 56.94 53.99 53.68 57.72 60.57 62.94 63.47 64.32 64.49 64.86 65.40 65.98 66.83 67.90 68.57 69.13 69.27 68.86 69.45 69.39 69.31 69.97 70.90 70.61 70.55 69.82 68.87 69.08 70.08 69.84 72.22 73.01 73.31 73.90 73.41 72.43 71.70 71.91 71.68 70.98 70.47 69.11 67.47 65.90 63.92
47.51 46.32 48.06 50.63 54.55 53.57 52.09 52.60 57.48 61.82 63.79 63.10 64.25 66.57 66.72 66.46 66.17 67.01 68.05 68.73 69.42 68.78 69.23 69.23 69.67 69.54 70.29 70.84 69.86 70.06 70.81 69.61 69.37 69.01 70.92 72.68 73.51 74.03 73.51 73.14 72.32 72.16 71.05 70.85 70.50 69.84 67.74 62.16 64.98
43.94 50.36 50.56 51.34 49.58 45.10 51.99 44.87 55.41 59.28 59.88 61.02 62.66 64.56 65.52 66.39 67.36 67.53 68.12 68.66 69.18 69.45 69.71 69.75 70.22 70.24 70.21 71.24 70.04 69.73 70.01 69.79 69.45 68.82 68.62 72.29 73.33 73.90 73.92 73.45 72.85 72.79 71.61 70.53 71.00 71.15 69.41 62.25 62.47
47.57 51.00 50.23 51.14 47.60 44.54 49.58 43.78 52.02 58.85 57.48 60.06 61.30 63.22 64.99 66.53 67.40 66.97 68.14 69.02 69.90 70.34 70.00 69.80 71.03 70.58 70.88 71.59 70.83 69.92 69.19 69.89 69.30 68.62 68.42 70.40 72.46 73.34 74.13 73.39 72.79 72.48 72.59 71.43 71.11 71.69 70.17 66.59 62.59
53.65 50.71 49.60 48.91 45.04 40.99 47.54 45.28 45.45 55.43 58.23 59.80 61.05 61.34 62.88 65.18 67.37 68.01 68.74 68.64 69.53 70.55 70.39 70.22 71.00 70.85 71.15 71.68 71.20 70.54 69.65 69.16 68.70 67.97 67.72 68.77 70.84 72.05 73.45 73.73 73.01 73.08 72.80 71.97 71.25 71.90 70.18 70.28 66.43
52.01 45.14 39.43 38.73 37.57 38.53 47.59 41.86 46.58 54.64 60.87 61.21 61.14 62.48 63.69 64.06 66.58 67.36 67.37 67.68 68.63 69.52 69.79 70.10 70.05 70.96 71.56 71.33 71.76 71.27 70.99 70.23 69.73 68.15 67.59 68.62 69.93 70.23 72.17 74.05 73.02 73.10 72.97 72.31 71.94 72.15 71.70 69.65 70.04
48.69 45.44 37.58 34.32 32.63 39.46 41.98 38.22 43.92 51.45 57.55 62.78 63.60 64.64 63.79 63.89 66.50 67.11 67.75 68.05 68.21 69.51 69.95 69.88 69.94 70.21 71.79 71.71 71.58 71.88 71.53 71.81 70.95 69.40 67.99 68.98 71.10 71.50 72.49 74.13 74.13 73.90 73.58 73.35 72.58 72.19 72.74 71.52 70.34
48.19 45.38 45.80 36.73 35.14 35.23 38.67 41.28 46.18 49.97 50.18 53.74 61.18 63.72 63.29 65.33 66.72 66.91 67.94 68.20 68.58 69.10 69.91 70.16 69.71 69.83 71.47 72.08 72.04 72.22 72.54 71.79 71.77 70.47 70.42 68.02 70.35 73.23 72.71 74.18 73.91 73.98 73.56 73.60 73.30 72.66 72.20 72.75 70.72
48.06 47.80 39.95 36.04 32.22 30.90 37.51 38.57 40.86 45.82 48.05 49.05 52.31 61.57 63.27 66.41 66.88 67.16 67.76 68.38 68.81 69.52 70.31 70.85 70.67 69.97 70.80 72.31 72.03 71.65 71.92 73.76 72.97 71.51 70.33 71.35 69.13 72.00 73.18 73.31 74.83 73.81 73.69 73.16 72.78 73.53 72.62 72.84 72.00
46.57 45.40 41.61 41.99 36.77 33.75 32.76 39.65 46.27 46.63 48.81 49.14 50.38 60.52 64.53 66.02 66.85 67.24 67.69 68.73 68.84 69.39 70.12 70.73 70.89 70.59 70.94 71.90 72.75 72.42 71.74 71.76 73.70 72.39 70.37 70.94 71.54 69.83 71.75 73.23 73.88 74.33 73.71 73.21 72.48 72.90 74.01 72.56 72.59
52.41 44.51 43.49 41.01 35.56 36.27 36.89 41.73 50.40 50.16 51.28 51.59 52.15 53.86 64.76 66.93 67.36 67.63 67.72 68.33 68.38 68.66 69.74 70.09 71.54 71.21 71.61 72.36 72.86 72.89 72.94 72.03 71.43 73.45 72.07 71.47 71.53 72.02 70.30 73.39 73.39 74.03 73.98 73.81 73.37 72.84 73.98 73.72 72.79

GFSSGP_sfc_wetblb_045.txt.gz
Wetbulb
73.49 73.05 72.11 69.14 61.86 59.08 55.79 56.84 62.06 60.85 60.98 65.28 64.53 63.45 62.27 63.24 60.48 54.05 67.85 69.31 71.55 72.50 74.25 75.82 77.26 77.06 77.12 77.14 77.32 77.05 77.51 77.27 77.38 77.27 77.05 76.79 76.87 77.01 76.86 76.44 76.51 76.62 76.62 76.44 76.19 75.62 75.04 75.75 75.23
72.34 71.58 70.72 66.34 58.00 53.90 54.56 59.13 59.90 62.63 64.90 65.86 65.61 64.91 62.88 60.92 65.01 66.25 66.23 71.03 72.70 73.59 74.06 75.64 77.21 77.46 76.86 77.21 77.05 77.12 76.80 76.86 76.94 77.21 77.02 76.96 76.88 76.88 76.66 76.61 76.33 76.41 76.41 76.29 76.29 75.95 75.16 75.09 74.94
71.49 72.36 65.35 60.79 56.85 53.92 55.59 59.24 61.85 63.93 66.34 65.57 64.43 66.24 63.68 61.86 65.47 65.50 69.12 72.11 73.37 73.49 74.02 75.54 77.60 77.64 76.80 77.02 77.01 77.48 77.14 76.62 77.04 76.88 77.23 76.93 77.24 76.79 76.66 76.63 76.58 76.35 76.06 75.54 75.69 75.48 75.43 74.74 74.98
69.48 69.39 66.81 59.00 56.06 59.26 59.54 62.28 63.83 64.12 65.75 66.56 64.98 60.59 63.74 67.34 65.69 67.83 71.10 72.54 73.20 73.88 74.03 76.71 76.97 77.15 76.70 76.84 77.04 77.54 76.66 76.69 76.86 77.68 77.11 77.04 76.88 77.05 76.86 76.67 76.69 76.58 76.12 76.01 75.63 75.31 75.03 74.88 74.74
70.29 67.23 59.51 56.25 57.14 60.43 62.21 64.10 64.56 63.22 64.70 64.68 64.47 59.30 61.80 65.44 68.68 70.09 70.99 72.08 72.41 72.90 74.64 75.18 77.73 77.47 77.31 76.70 76.84 76.81 76.58 76.98 77.12 77.63 76.98 77.24 76.94 77.01 77.05 77.05 76.89 76.67 76.53 76.22 76.00 75.86 75.12 74.89 74.77
63.19 62.39 55.77 52.67 56.51 60.85 62.88 64.68 65.34 64.70 64.57 62.73 60.81 59.99 60.52 66.45 68.32 69.47 70.73 71.42 73.24 73.69 74.89 75.24 77.19 77.08 77.23 76.61 76.74 76.49 76.65 76.97 76.85 77.13 77.47 77.07 77.11 77.03 77.17 76.98 76.82 76.60 76.37 76.30 75.90 75.73 75.01 74.82 75.12
59.67 58.12 55.66 56.61 57.06 58.90 62.13 66.04 63.91 64.26 63.84 62.96 63.99 56.93 59.77 65.07 68.09 69.12 69.41 72.09 73.60 74.48 74.32 74.66 75.17 75.31 76.83 77.06 76.57 76.58 76.76 76.93 76.85 77.02 77.21 77.06 76.96 76.95 76.97 76.93 76.74 76.54 76.35 75.96 76.09 75.43 75.35 74.93 74.78
63.10 60.50 56.57 58.51 56.78 58.10 63.67 64.74 66.44 64.88 63.63 66.63 63.54 57.45 57.15 63.88 67.36 67.92 71.29 71.44 72.51 73.71 74.14 73.72 73.61 73.29 73.62 74.72 76.58 76.78 76.85 76.99 76.80 76.62 76.62 76.61 76.56 76.71 76.54 77.37 77.68 76.52 76.18 75.90 75.63 75.88 76.01 75.73 75.48
64.62 55.53 54.47 57.42 57.54 59.74 64.57 62.94 66.96 67.83 65.08 66.20 65.28 61.45 63.11 65.87 67.11 67.81 69.70 69.88 71.52 73.12 72.98 72.44 72.48 72.91 73.16 73.83 74.89 76.57 77.00 76.97 76.79 76.34 76.65 74.19 71.57 72.75 74.24 75.69 76.79 75.79 75.98 76.07 76.31 75.97 76.20 76.34 76.32
62.15 55.87 56.82 61.74 61.85 60.15 62.99 64.68 65.03 64.27 64.23 61.10 59.98 62.74 64.16 65.73 65.28 67.15 68.20 68.44 69.66 70.95 72.71 71.86 72.15 72.35 72.84 74.82 73.33 73.41 74.57 74.23 73.70 72.16 70.12 70.26 70.00 71.51 74.02 74.87 76.15 75.54 74.98 75.99 73.44 75.07 75.27 74.57 71.94
63.53 58.21 60.63 61.75 63.24 62.77 61.98 64.69 66.41 63.73 61.61 61.69 57.94 60.20 62.97 64.52 64.28 66.64 68.21 68.78 68.95 70.95 72.46 71.90 71.58 71.72 72.23 72.82 72.26 72.56 73.33 73.41 72.98 68.76 68.48 69.03 69.89 70.66 71.52 71.94 73.03 71.70 73.23 70.74 70.28 70.55 71.31 71.29 71.91
59.62 62.91 63.87 63.07 64.34 64.17 61.87 65.47 64.49 64.81 64.44 65.04 62.00 62.16 62.68 63.29 63.15 66.28 68.00 68.78 69.38 70.60 71.58 71.70 71.47 71.13 70.92 71.28 71.88 72.00 72.34 72.33 71.70 70.13 67.30 67.93 69.53 70.35 70.78 70.47 70.71 71.49 70.22 70.02 69.69 70.23 71.39 69.77 70.34
59.74 61.36 63.22 65.28 65.30 62.89 62.92 64.21 64.21 64.49 66.52 63.88 64.19 62.90 62.11 62.72 64.33 67.60 68.68 69.62 69.78 69.73 71.02 71.12 70.75 70.62 70.27 70.58 70.91 71.27 71.38 71.71 71.50 68.96 67.30 68.22 68.79 69.79 70.54 70.92 71.06 70.96 71.07 70.04 70.41 69.79 70.09 69.22 67.66
59.10 59.52 60.60 62.36 62.29 59.96 60.28 61.32 64.06 65.03 65.99 64.28 64.27 62.42 62.82 63.19 66.09 67.18 67.88 68.40 68.91 70.01 70.22 70.45 69.99 70.54 69.79 69.59 69.08 70.11 70.53 71.01 71.45 70.77 68.50 69.45 69.43 70.47 70.43 70.60 69.87 70.13 70.38 70.02 69.83 70.22 69.81 68.18 67.62
57.09 55.62 57.75 59.75 60.95 61.01 63.12 60.98 61.85 65.16 65.45 63.93 64.05 64.37 64.35 65.81 67.44 66.75 68.04 68.11 68.97 69.30 69.82 69.09 69.40 70.23 69.31 69.38 68.33 69.26 70.12 70.58 70.84 71.43 69.96 69.76 69.70 71.10 71.28 70.60 70.47 69.91 70.27 70.18 68.81 67.95 68.64 66.74 66.78
52.86 52.20 48.61 57.55 61.79 61.45 60.40 53.58 62.72 65.21 64.08 63.01 63.79 64.54 64.76 65.80 66.78 67.78 68.27 68.32 68.93 68.77 68.36 68.80 70.79 70.28 69.43 68.89 67.98 68.71 69.25 69.73 70.26 71.22 71.42 70.83 70.66 71.75 71.33 71.13 71.09 70.57 70.96 70.85 70.91 69.58 66.92 66.81 65.87
45.43 44.10 50.19 53.70 61.14 61.28 59.84 56.69 62.76 64.88 63.81 62.87 63.20 63.86 64.86 65.26 66.29 67.97 68.90 68.24 68.19 68.03 67.91 67.81 69.61 69.75 69.30 69.06 68.82 69.59 69.53 69.21 70.28 71.63 71.87 71.49 71.92 72.71 71.37 71.41 71.67 71.39 70.62 70.34 71.48 69.68 67.78 68.09 66.96
41.24 45.18 47.50 49.52 55.80 60.22 57.05 57.53 62.15 63.77 63.42 63.19 63.68 63.86 64.49 64.98 65.70 67.68 68.65 68.71 67.85 67.38 67.57 68.18 69.36 69.82 69.07 69.65 68.82 69.20 69.39 70.04 70.17 70.86 71.48 72.14 72.94 73.11 71.03 70.85 70.94 71.05 70.91 69.90 69.46 68.84 66.98 66.44 66.18
47.89 48.57 49.16 52.36 56.14 57.45 57.48 57.23 61.01 62.69 62.89 62.62 62.93 63.46 64.10 64.92 67.08 68.00 68.73 69.32 68.43 67.35 66.57 67.78 68.51 69.44 69.31 68.99 67.75 67.23 67.13 67.97 69.53 70.42 71.48 71.57 72.58 73.31 71.84 70.95 70.93 71.60 69.86 70.19 68.18 67.62 65.24 63.54 63.12
45.49 44.29 45.86 51.01 54.75 53.17 53.87 56.88 61.29 62.21 61.92 62.77 63.02 63.23 63.84 64.83 65.85 66.96 67.79 68.56 68.00 67.62 66.67 67.79 68.43 69.04 69.94 69.96 69.97 67.72 67.12 67.82 69.07 69.55 70.71 71.43 72.07 72.95 72.53 71.75 71.40 71.38 70.57 69.88 69.55 67.81 66.50 63.68 63.11
44.51 43.41 45.15 46.89 52.19 52.82 54.76 54.34 58.88 61.89 62.93 63.49 64.01 64.56 64.73 64.68 65.01 65.97 66.92 67.72 68.22 67.58 67.55 67.63 68.14 68.78 70.27 70.12 68.66 69.12 69.04 68.20 68.12 68.18 69.97 71.11 72.19 73.05 72.54 71.96 71.08 71.33 70.53 70.09 69.44 68.78 66.27 61.25 63.76
39.39 47.77 48.76 48.54 48.32 43.46 50.57 45.30 56.07 59.56 60.44 61.95 62.91 63.71 64.24 65.16 66.21 66.31 66.93 67.31 68.08 67.63 68.73 68.49 68.32 68.62 70.21 69.76 69.15 68.32 67.74 66.54 66.50 67.56 68.40 70.93 72.25 72.55 73.21 72.25 71.44 71.36 70.61 69.19 70.03 69.92 68.01 61.88 62.23
45.62 48.60 47.70 47.78 44.12 44.17 46.52 42.51 49.74 58.07 57.40 60.01 62.34 63.99 65.02 65.75 66.20 66.31 66.74 67.53 68.50 68.84 68.67 68.84 68.65 68.37 69.77 69.67 69.69 68.87 66.86 66.56 68.18 67.73 67.70 70.21 71.45 72.51 73.26 72.47 71.74 71.71 71.40 70.30 70.36 69.74 68.75 62.00 61.62
50.56 46.96 45.79 44.82 42.44 38.93 45.04 44.02 42.29 53.49 56.21 60.14 62.06 63.01 64.60 66.31 66.81 67.41 67.93 68.36 68.43 69.13 68.96 69.02 68.45 68.37 68.90 69.44 69.32 68.60 67.96 67.54 67.73 67.55 67.00 68.04 70.34 71.55 72.39 72.80 71.78 71.56 71.66 71.12 70.27 70.40 69.37 67.41 64.17
49.12 41.58 35.41 34.52 34.92 38.20 44.35 42.37 47.13 56.10 59.47 60.89 61.28 62.40 63.15 65.96 66.81 66.93 67.06 67.57 68.32 68.47 68.46 68.48 68.50 68.30 68.96 69.18 69.60 69.15 68.40 68.30 68.66 67.88 67.15 66.77 68.52 69.06 71.19 72.17 71.75 71.48 71.65 71.97 71.16 70.39 70.58 69.41 67.07
46.42 45.31 35.58 30.39 32.76 38.99 42.35 38.33 43.85 54.15 60.83 62.58 63.54 63.79 64.36 64.96 66.50 67.11 67.20 67.86 68.26 68.93 68.69 68.46 68.60 68.46 69.05 69.40 69.71 69.82 69.43 69.18 69.33 69.33 67.84 67.67 69.02 70.09 71.35 72.41 72.39 72.04 72.41 72.20 71.23 70.93 71.18 69.56 69.73
45.85 43.69 46.64 37.25 32.29 34.85 40.49 39.79 45.14 50.20 56.34 60.55 61.94 63.36 63.65 63.19 63.79 65.73 67.66 67.71 68.05 68.88 68.91 68.76 68.44 69.25 69.43 69.67 70.10 70.21 70.17 69.93 69.56 69.30 69.04 68.55 68.52 70.38 70.43 71.71 73.13 72.71 72.47 72.47 71.68 70.86 71.21 71.49 69.80
50.03 48.48 40.45 36.01 33.29 28.98 34.82 37.27 41.88 45.02 47.12 54.87 60.54 61.70 63.15 64.08 63.97 64.64 67.31 67.74 67.70 69.04 69.45 69.54 69.32 69.31 69.84 70.20 70.43 70.68 70.52 70.73 70.65 69.87 68.56 67.75 68.86 70.62 70.96 71.43 72.02 72.37 72.79 72.67 72.36 71.44 71.09 71.40 71.18
44.41 45.43 42.63 43.62 37.55 38.14 30.42 37.84 44.05 45.43 48.38 49.64 57.54 61.29 62.17 64.06 64.34 64.47 66.71 68.15 68.33 68.92 69.47 69.16 69.42 69.19 69.68 70.51 70.61 70.80 70.82 71.12 71.21 70.66 69.89 70.33 68.24 69.98 71.20 71.41 72.21 72.43 72.38 72.46 72.18 72.53 72.47 71.21 71.28
43.90 45.33 40.35 42.69 36.96 34.00 35.77 41.34 47.44 48.08 49.09 48.63 51.65 58.47 61.18 64.29 64.83 65.50 66.82 67.61 68.04 67.86 68.97 69.27 69.41 69.18 69.64 70.83 70.93 70.85 71.16 71.63 71.91 71.37 70.14 70.24 70.99 68.93 70.52 71.38 71.74 72.97 72.91 72.63 72.30 71.69 72.70 72.61 71.42

GFSSGP_sfc_wetblb_048.txt.gz
Wetbulb
73.23 72.60 71.38 68.50 60.71 57.98 55.12 56.47 61.51 59.82 60.72 64.02 63.58 61.97 61.37 62.94 59.57 53.50 66.88 68.93 71.20 71.86 73.89 75.13 77.09 77.15 77.08 76.54 77.40 76.79 77.12 76.90 76.82 76.72 76.54 76.60 76.52 76.29 76.51 76.46 76.05 76.30 76.41 75.88 75.24 75.28 75.33 74.86 75.22
72.25 71.47 70.23 66.05 57.19 52.97 54.59 58.99 59.15 62.05 64.31 63.91 64.61 64.51 62.48 60.78 64.93 65.29 65.93 70.82 72.29 73.05 73.96 74.65 76.56 77.46 76.81 76.77 77.47 76.89 77.18 77.12 77.11 76.29 76.31 76.51 76.25 76.57 76.18 76.36 76.47 75.65 75.70 75.99 75.58 75.14 75.22 75.00 75.22
71.78 71.43 65.70 61.01 56.61 53.54 55.12 59.46 60.66 64.03 66.08 63.70 63.65 64.94 63.26 61.59 65.56 65.28 68.89 72.16 73.32 73.11 74.45 74.55 77.17 77.51 76.65 77.03 77.20 76.52 76.79 76.95 76.83 76.56 76.84 76.63 76.58 76.71 76.73 76.57 76.28 75.56 75.78 75.08 75.44 75.36 74.75 74.42 74.59
69.06 68.76 66.45 58.58 55.53 59.09 59.84 61.75 64.03 62.97 65.42 66.39 63.59 59.38 64.04 67.39 65.37 68.06 71.96 72.88 72.85 73.45 74.26 76.10 77.11 76.70 76.58 77.19 77.16 76.54 76.70 76.58 76.58 76.87 76.58 76.63 76.81 76.82 76.68 76.60 76.17 76.29 76.15 75.85 75.35 75.28 74.89 74.89 74.71
70.03 67.02 59.29 56.77 57.17 60.26 62.44 63.85 65.09 63.13 64.18 63.96 63.11 59.34 61.65 65.49 68.67 70.82 72.05 72.93 72.32 72.62 73.98 74.67 77.51 77.32 76.55 77.14 77.02 76.60 76.56 76.34 76.91 76.74 77.05 77.01 76.66 76.55 76.78 76.84 76.65 76.46 76.41 75.90 75.39 75.08 74.67 74.70 74.70
63.95 62.51 55.03 52.68 56.61 60.97 63.27 64.88 64.79 64.68 63.89 62.48 60.87 60.95 61.08 67.87 68.45 70.57 72.36 72.20 72.78 73.22 74.06 74.53 76.68 77.40 76.61 76.80 76.63 76.54 76.90 76.56 76.96 77.20 77.30 77.14 77.11 76.87 76.91 76.60 76.52 76.41 76.19 75.77 75.31 74.97 74.67 74.86 74.72
61.27 57.19 55.62 56.75 57.12 59.60 61.64 63.74 60.91 64.13 63.18 61.59 62.65 57.65 61.86 66.17 68.76 70.74 71.30 72.23 73.29 74.32 73.92 74.18 73.70 76.25 76.38 76.40 76.32 76.67 76.94 76.75 77.04 77.39 77.29 77.10 77.17 76.95 76.69 76.55 76.22 76.19 75.77 75.61 75.18 75.14 74.89 75.14 74.44
61.18 59.33 56.32 58.01 56.35 58.08 63.08 63.83 66.62 65.28 63.65 65.02 63.57 57.49 60.39 66.04 68.97 69.47 71.45 72.13 72.81 73.63 73.74 73.64 73.08 73.06 74.13 74.13 76.28 76.37 76.79 76.79 76.89 77.06 77.10 76.97 77.01 76.60 76.52 75.11 76.22 75.83 75.97 75.66 75.06 75.39 75.83 75.38 75.38
64.74 55.60 53.20 57.10 57.40 60.05 64.36 63.10 66.63 67.52 64.20 64.57 63.45 61.87 64.48 67.62 68.16 69.46 69.81 71.13 72.25 72.80 72.77 72.79 72.20 72.76 73.55 73.87 74.99 76.46 76.99 76.77 76.74 76.41 76.29 74.55 73.42 74.12 74.94 75.78 76.03 75.67 75.97 76.11 75.97 75.97 76.76 76.55 75.66
60.66 54.53 54.92 61.40 61.98 60.28 63.47 64.23 65.22 63.83 63.29 59.53 60.48 63.74 66.17 66.27 67.66 66.86 67.00 67.43 69.28 71.11 72.46 71.95 72.10 72.42 73.12 74.84 73.89 74.15 75.05 74.28 74.37 73.65 71.66 71.71 72.04 73.43 74.34 75.25 75.47 75.21 75.66 74.61 75.50 75.77 75.61 74.32 73.67
62.64 57.42 60.21 62.05 62.92 63.49 62.28 64.53 65.78 63.08 60.96 59.49 58.86 61.78 64.27 64.99 66.63 66.34 66.76 67.82 68.73 70.26 72.44 71.64 71.91 72.31 72.66 73.50 72.92 73.32 73.67 73.83 73.18 71.13 70.40 71.19 71.32 72.34 72.92 73.09 73.84 73.24 73.37 71.67 71.82 72.21 72.78 72.88 72.88
59.18 62.84 63.26 63.15 64.49 63.22 61.83 65.01 63.98 64.07 64.15 63.80 62.33 63.66 64.06 63.80 65.97 66.00 66.40 67.40 68.72 69.83 71.39 71.77 71.85 71.73 71.95 72.29 72.28 72.58 72.94 73.23 72.51 70.39 69.02 69.67 70.51 71.66 72.34 72.35 72.50 73.05 71.71 71.41 71.72 72.15 72.66 70.86 72.73
59.59 62.05 62.69 64.68 64.89 63.92 63.53 62.98 63.65 63.95 63.58 62.99 63.22 63.56 63.37 63.77 66.20 67.68 68.32 68.95 69.43 69.41 71.18 71.63 71.42 71.18 71.38 71.11 71.95 72.00 72.22 72.59 72.31 71.07 68.49 69.68 70.07 71.36 72.27 72.04 71.64 72.26 72.36 71.65 72.19 72.65 71.99 70.88 69.79
59.02 61.06 61.24 61.75 60.65 61.61 61.36 61.60 63.89 63.09 62.01 61.26 61.72 62.03 63.57 63.86 65.33 67.81 68.58 68.49 69.02 69.97 70.72 71.44 71.04 70.87 70.52 70.07 70.91 71.15 71.53 72.02 72.24 70.15 68.63 69.56 70.14 71.04 71.92 71.47 72.06 71.48 72.25 71.88 72.03 72.81 71.38 69.90 69.17
56.63 52.16 54.80 56.81 59.23 59.42 61.51 59.99 60.73 62.39 61.83 59.80 60.22 61.53 63.30 63.63 65.83 67.09 68.65 68.62 68.99 69.51 70.56 70.40 70.28 70.36 69.57 69.64 69.86 70.36 71.02 71.63 71.65 72.03 70.78 69.86 70.92 71.41 72.55 72.42 72.09 71.54 72.41 71.91 71.80 69.90 70.29 69.24 69.06
50.03 50.39 47.55 55.74 58.34 60.24 59.58 52.86 62.43 62.77 61.46 59.51 59.64 60.39 61.76 62.74 65.68 67.49 68.44 69.24 69.61 69.61 69.62 70.01 71.18 69.98 69.27 69.12 68.97 69.40 70.31 70.80 70.97 71.86 71.92 70.73 71.76 71.39 72.74 72.94 72.66 72.21 72.57 72.74 72.44 71.97 69.77 69.02 68.82
43.43 44.19 48.15 52.50 58.82 59.51 57.55 55.47 62.41 63.51 62.01 60.34 59.96 59.98 60.78 61.80 65.21 67.19 68.54 69.11 69.56 69.41 69.12 68.69 69.42 68.95 69.06 69.11 68.95 68.80 69.83 69.86 70.47 71.67 72.03 71.86 72.16 72.84 72.92 72.66 73.22 73.47 73.27 72.68 72.73 71.59 70.58 69.71 68.90
41.07 41.90 46.66 49.72 53.89 58.15 55.80 56.19 61.59 62.63 62.22 61.44 61.42 61.72 61.76 62.37 64.73 67.24 68.15 68.85 69.30 69.02 68.63 68.46 68.71 68.92 68.88 68.86 68.96 69.58 69.96 70.30 70.25 71.50 72.16 72.46 72.53 73.50 72.42 72.80 72.66 72.91 73.00 72.69 71.34 70.84 68.92 69.55 67.71
46.12 46.64 47.76 51.27 54.41 55.97 55.05 56.83 60.41 62.23 62.06 61.39 61.76 62.20 62.67 62.85 66.10 67.67 68.35 68.49 68.45 68.36 67.49 67.45 68.16 68.25 68.54 68.32 67.75 68.37 68.53 69.74 70.84 71.14 72.66 72.71 73.12 73.93 72.11 72.35 72.20 73.29 72.19 72.37 71.23 69.99 68.00 66.27 66.73
44.96 42.09 44.24 49.30 53.72 53.22 53.10 54.75 60.59 61.63 61.76 62.38 62.25 62.24 62.92 63.92 64.74 66.41 67.47 67.69 67.41 66.99 66.86 67.25 68.09 68.46 69.37 69.44 69.11 68.98 68.40 69.18 70.90 71.30 72.19 72.65 73.26 74.23 73.25 72.42 72.52 73.20 72.23 71.25 71.39 70.79 69.26 66.00 66.46
43.08 41.28 42.32 45.83 49.55 53.35 51.65 50.07 57.05 61.38 62.22 63.14 63.75 64.15 64.04 64.10 64.29 65.26 66.59 67.46 67.40 66.20 66.10 66.87 67.85 68.46 69.68 69.51 69.06 68.96 69.03 69.16 69.57 70.02 70.93 71.85 72.76 74.10 74.09 73.26 72.90 72.66 72.18 71.33 71.57 71.02 69.55 65.23 67.13
35.74 46.45 47.27 45.69 44.94 41.07 50.73 41.70 52.20 58.30 59.60 61.23 62.03 63.06 63.56 64.41 65.62 66.00 66.20 66.89 67.61 67.10 67.07 67.23 67.88 68.02 69.68 69.85 69.26 69.01 67.88 67.14 67.84 69.27 70.28 71.36 72.63 73.04 73.85 73.56 72.78 72.93 72.17 72.18 72.40 71.68 70.25 66.58 66.72
42.04 46.81 45.61 45.87 43.14 41.09 45.28 43.54 45.72 57.48 57.13 59.19 61.15 62.47 63.80 64.71 65.39 65.71 66.42 67.15 68.21 68.39 67.94 67.22 67.73 67.98 69.34 69.66 69.65 68.97 68.71 67.63 68.10 68.88 69.74 71.07 72.18 72.94 73.79 73.72 73.08 72.67 73.07 72.31 72.27 71.95 70.91 66.36 66.32
48.74 44.78 43.68 42.47 40.22 36.17 42.62 45.10 43.24 51.26 57.09 59.52 61.80 63.11 64.05 64.61 65.41 66.38 67.20 67.92 67.92 68.90 68.37 68.17 67.42 67.41 68.65 69.64 69.60 69.04 68.43 67.32 67.94 68.04 68.17 69.32 71.12 72.02 73.31 73.85 73.30 73.21 73.45 72.97 71.96 72.55 71.45 69.08 66.78
46.45 41.78 33.22 31.75 32.96 36.58 43.34 43.95 44.70 49.82 57.86 60.63 61.72 63.09 64.55 65.39 65.47 65.90 66.27 66.62 67.39 67.72 67.64 68.28 67.64 67.07 68.17 69.14 69.48 69.11 69.09 68.00 68.15 68.24 67.95 67.85 69.50 70.87 71.89 73.19 73.03 72.69 73.08 73.57 73.09 72.42 72.57 71.45 69.08
44.61 40.98 33.21 27.86 29.65 38.14 40.75 37.97 44.02 53.01 56.53 61.51 62.94 64.38 65.21 65.42 66.03 66.29 66.80 67.20 67.37 67.77 68.06 68.13 67.66 67.54 67.88 68.51 69.15 69.38 69.44 68.68 69.12 69.02 68.83 68.87 69.31 70.69 72.40 72.59 73.36 73.39 73.48 73.59 73.46 72.72 72.55 72.35 71.79
43.08 40.46 43.48 35.66 31.81 33.34 41.82 40.71 46.83 50.06 52.81 57.95 60.18 62.41 63.54 64.58 65.17 66.74 67.71 67.84 67.88 67.92 68.04 68.10 68.14 68.02 68.22 68.22 68.85 69.21 69.36 69.00 69.14 69.65 69.80 69.27 69.73 70.84 72.00 72.64 73.19 73.29 73.64 73.73 73.40 72.44 72.60 73.29 72.02
45.37 47.02 38.62 35.41 31.09 28.23 34.79 36.71 43.92 45.41 49.50 53.17 57.21 60.02 62.35 64.32 64.43 66.05 67.65 67.90 68.51 68.88 69.14 68.62 68.71 68.13 68.68 68.99 69.04 69.39 69.41 69.61 69.83 69.83 69.53 69.46 69.58 71.03 71.46 71.81 73.03 73.42 73.79 73.59 73.57 73.00 72.90 72.99 73.13
41.61 44.09 41.48 42.12 37.87 33.32 30.30 35.99 44.91 46.68 50.77 51.77 53.53 60.32 61.83 63.41 64.22 65.55 67.22 68.49 68.65 69.21 69.20 68.76 68.62 68.43 68.84 69.20 69.33 69.67 69.82 70.20 70.35 69.91 69.92 69.79 69.86 70.38 71.25 71.69 72.18 72.51 73.17 73.81 73.61 73.50 73.40 72.46 72.75
41.13 39.04 40.90 41.63 36.30 34.22 35.40 39.80 47.10 48.16 49.19 49.93 53.19 56.66 62.25 64.00 64.78 64.82 65.97 67.35 68.12 68.26 68.86 69.01 68.85 68.52 69.21 69.57 69.68 69.72 70.29 70.44 70.39 70.45 70.43 70.58 69.75 70.22 71.37 72.12 72.22 72.65 72.93 73.47 73.25 73.13 73.87 73.01 72.62

GFSSGP_sfc_wetblb_051.txt.gz
Wetbulb
73.06 72.56 72.60 69.44 61.01 59.31 55.86 57.64 61.83 60.54 62.22 64.93 65.41 63.43 62.51 63.60 61.12 58.29 69.93 71.52 71.95 73.90 75.18 76.37 77.41 77.65 77.47 77.43 77.62 77.28 77.37 77.40 77.02 76.91 76.76 76.77 76.79 76.83 76.35 75.90 76.11 76.37 75.96 75.35 75.77 75.07 74.93 75.53 75.99
72.83 71.21 70.13 66.03 58.04 55.10 55.84 59.32 59.67 62.30 65.11 65.94 65.97 65.20 64.08 61.60 65.98 66.07 68.44 71.85 72.70 74.21 74.72 76.10 77.40 77.49 76.86 77.34 77.57 77.64 77.29 77.11 77.03 76.87 76.82 76.64 76.42 76.62 76.26 75.88 75.49 75.84 76.08 75.74 75.41 75.43 75.35 75.55 75.60
72.20 71.41 65.88 61.03 57.96 55.75 55.58 60.05 61.21 64.93 65.36 65.08 64.85 66.34 64.72 62.70 66.34 67.30 70.87 72.49 73.47 74.47 75.20 76.28 77.68 77.04 77.26 77.07 77.24 77.63 77.28 77.09 76.41 76.44 76.65 76.34 76.54 76.17 75.95 75.92 75.55 75.90 75.18 75.68 75.54 75.05 74.80 74.80 75.07
70.18 69.51 66.84 59.39 55.67 58.99 59.57 62.24 64.58 64.54 65.01 65.85 66.10 62.07 65.87 68.21 67.25 69.67 72.29 73.19 73.03 74.68 74.76 76.37 77.29 76.61 77.23 77.35 77.14 77.19 76.93 76.60 76.81 76.76 76.40 76.49 76.76 76.37 76.45 76.06 76.09 76.12 75.96 75.29 75.32 75.32 75.23 74.74 74.55
71.23 67.11 60.95 57.83 57.46 60.51 61.94 63.74 65.16 63.84 64.04 65.02 64.78 60.94 62.23 66.34 70.03 71.50 72.22 72.99 73.06 73.78 75.29 76.39 77.60 77.22 76.90 77.29 76.72 77.20 76.76 76.66 76.64 76.62 76.77 77.03 77.07 76.99 76.53 76.70 76.43 76.43 75.96 75.41 75.35 75.19 75.13 74.69 74.99
65.72 63.69 57.77 54.40 57.02 61.18 64.17 65.56 65.17 65.21 63.98 63.28 63.12 62.05 61.92 68.97 69.86 70.94 72.50 72.98 73.90 73.24 74.73 76.11 77.00 77.14 76.57 77.36 76.68 76.95 76.90 76.87 77.14 76.92 77.59 77.76 76.86 77.25 77.07 76.65 76.21 75.91 75.35 75.07 74.85 75.21 75.30 74.99 75.10
63.06 61.98 56.40 57.63 57.41 60.51 62.99 64.80 62.21 64.90 63.67 62.96 65.24 60.75 64.23 67.35 70.27 71.39 72.21 73.42 73.81 73.70 75.09 75.49 76.73 76.46 77.00 77.05 76.70 77.11 77.04 76.95 76.87 77.30 77.63 77.43 77.22 77.12 76.99 76.43 76.24 75.88 75.37 75.14 75.11 75.27 75.27 75.10 75.43
66.30 62.95 57.24 59.70 57.71 58.07 63.80 63.47 66.32 65.58 62.28 66.83 65.92 60.72 61.35 67.16 70.50 72.02 72.41 72.67 73.69 73.50 75.02 74.86 76.65 75.26 75.71 76.14 76.79 77.01 77.12 77.27 77.24 77.50 77.49 77.22 77.15 76.82 76.48 76.50 76.02 76.04 75.53 75.31 75.42 75.54 75.41 75.71 76.03
66.15 58.70 56.03 58.12 59.03 59.84 63.85 63.80 67.54 68.61 63.20 65.00 65.34 64.91 67.19 69.59 70.69 71.04 70.41 71.00 72.95 72.79 74.66 74.18 75.72 75.44 76.38 76.03 76.12 76.07 76.88 77.18 77.10 77.25 77.13 76.74 76.84 76.50 75.95 76.35 76.10 75.65 75.93 75.72 75.36 75.51 75.93 76.15 76.18
61.93 59.41 58.15 62.04 62.60 61.51 64.48 65.01 66.05 64.82 63.86 62.15 63.38 66.63 68.32 69.01 69.63 68.54 67.89 68.32 70.35 71.24 73.61 73.70 74.76 75.25 75.39 75.16 76.81 77.15 76.87 76.55 76.87 76.98 76.74 76.42 76.62 76.87 75.68 75.92 76.21 75.74 75.55 75.43 76.07 75.79 75.93 75.50 75.15
64.13 59.57 62.64 63.55 64.09 65.31 63.24 64.88 67.72 65.26 63.05 63.90 62.83 64.95 66.24 67.69 68.30 67.45 67.56 68.67 69.89 71.43 73.20 74.13 74.49 75.92 75.36 75.48 75.85 76.13 76.40 76.41 76.63 76.02 75.62 75.92 76.31 76.91 76.08 76.24 76.41 76.19 74.60 75.34 75.23 75.70 75.17 74.47 74.65
61.16 64.24 64.67 64.23 65.32 64.20 64.10 66.88 65.57 66.19 66.08 67.83 66.43 66.85 66.93 66.64 67.04 67.20 67.30 68.80 70.36 71.60 72.81 74.27 74.54 75.18 75.52 75.73 75.52 75.98 75.69 75.85 75.20 75.03 75.10 75.38 75.55 76.39 76.96 75.51 75.72 75.83 75.99 75.67 76.08 75.81 75.63 75.08 75.22
61.97 63.62 64.93 65.22 65.73 65.80 66.29 64.44 64.66 65.94 66.75 67.01 66.91 66.78 65.94 66.53 66.92 67.82 68.75 70.21 70.82 70.67 71.77 74.08 74.68 74.83 75.65 75.95 75.43 75.55 75.78 75.42 75.25 74.53 73.51 75.21 75.30 75.74 75.99 75.81 75.54 76.49 76.91 76.46 76.37 76.35 75.29 75.14 75.09
62.35 62.30 63.58 64.07 63.99 64.76 62.91 63.57 65.64 65.38 66.14 65.22 65.71 65.56 66.13 66.21 66.83 67.85 68.64 69.35 70.44 71.16 72.09 74.16 74.42 74.73 75.27 75.07 75.90 75.45 75.71 75.66 75.70 75.48 73.70 73.69 75.07 75.85 76.24 76.56 76.30 76.10 76.65 76.60 77.21 76.38 74.56 74.28 74.22
60.77 58.12 59.28 60.18 62.05 61.98 63.48 60.49 63.11 64.98 65.48 63.98 64.71 65.37 65.68 66.30 67.28 67.51 68.93 69.38 70.65 71.57 72.73 73.55 74.26 74.41 74.77 74.91 75.30 74.83 74.94 75.07 75.05 74.52 73.88 73.76 75.02 75.78 76.61 76.27 75.80 75.63 76.06 76.29 76.18 75.04 74.36 73.38 73.98
53.92 54.76 54.07 60.05 61.44 62.35 62.64 57.43 64.30 64.67 64.49 63.18 64.00 64.54 64.84 65.78 67.15 68.55 69.73 70.35 71.21 71.74 72.62 73.60 73.35 73.46 73.82 73.79 74.12 74.01 74.25 74.70 75.58 76.08 76.43 75.07 75.21 76.05 76.88 76.02 75.91 76.19 76.19 76.50 75.58 74.56 73.01 73.10 72.93
51.69 49.00 52.18 56.59 61.71 61.75 61.62 58.25 64.74 64.63 63.93 62.51 63.23 64.07 64.45 65.01 66.69 69.02 70.20 71.14 71.77 72.26 72.47 73.05 73.53 73.06 73.08 73.84 73.72 73.64 74.21 74.35 75.02 75.59 75.74 76.63 75.71 75.77 77.10 77.27 76.71 76.96 76.69 76.17 76.09 75.28 74.06 72.45 72.52
47.16 48.15 52.96 55.87 59.86 60.82 59.98 59.57 63.93 64.09 63.63 62.19 62.55 63.61 64.25 64.40 65.26 68.58 70.24 71.54 72.32 72.66 72.81 73.14 73.17 73.45 73.67 73.41 73.94 73.23 72.67 73.84 74.91 74.92 75.43 76.38 76.37 76.10 76.77 77.61 76.99 76.76 76.88 75.93 75.25 75.57 71.77 74.41 73.20
51.15 50.66 51.95 56.81 60.20 59.35 59.88 60.22 62.99 64.52 64.30 62.43 62.30 62.57 63.53 64.25 66.31 68.54 69.88 71.15 72.22 72.83 72.64 72.56 72.77 73.38 72.63 72.19 71.61 71.92 71.56 72.90 74.01 75.11 76.10 76.46 76.63 76.77 77.29 77.06 77.16 76.67 77.95 77.34 75.37 73.54 72.68 70.66 72.08
48.73 48.84 51.21 55.61 57.22 58.11 58.42 58.70 63.05 64.27 64.43 64.51 63.17 62.71 63.08 64.16 65.22 67.24 69.25 70.29 71.04 71.91 72.47 72.58 72.65 73.32 73.00 72.48 73.61 73.22 73.72 74.07 75.67 76.00 76.26 76.84 76.71 77.41 77.18 76.63 76.27 77.12 76.73 76.01 75.54 74.99 71.40 71.40 71.71
46.92 47.11 49.44 50.52 52.09 56.44 56.43 55.87 59.22 64.01 65.25 65.62 65.80 65.58 65.18 64.55 64.64 66.45 68.09 69.56 70.59 71.12 71.78 72.42 72.90 73.64 73.63 74.18 73.53 73.54 74.10 74.19 73.78 74.75 75.24 76.27 76.82 77.58 77.98 77.17 76.60 77.45 78.57 75.47 75.99 75.18 73.73 69.81 71.70
43.18 48.63 50.04 49.78 48.87 49.81 56.53 50.45 56.70 60.92 62.54 64.15 65.20 65.71 65.90 66.07 66.43 67.34 68.09 68.79 69.70 71.10 72.00 72.64 73.25 73.55 73.75 74.58 73.61 74.29 72.21 71.41 73.20 74.50 75.44 76.01 76.96 77.07 78.00 78.15 77.42 77.16 77.10 77.08 76.21 75.82 74.93 72.82 70.59
45.17 48.31 47.13 48.96 48.85 48.77 50.80 50.08 55.39 59.86 59.99 62.52 64.85 66.08 66.71 67.21 67.43 67.46 68.37 69.48 70.50 71.16 71.17 71.90 73.29 74.06 74.72 74.30 74.87 73.27 73.54 73.21 73.82 73.94 75.49 76.56 76.94 77.08 76.96 77.63 77.39 76.87 76.49 77.30 76.65 76.50 75.83 73.30 71.84
49.39 48.36 47.67 47.44 47.03 43.20 49.16 49.33 51.68 56.21 59.86 62.63 65.02 66.19 67.22 67.71 67.98 68.69 69.58 70.26 70.63 71.72 71.08 71.30 72.98 73.60 74.44 74.34 74.58 75.21 74.85 74.14 72.70 73.41 73.03 74.09 75.01 75.84 76.71 77.10 77.27 77.47 77.02 76.85 76.65 76.93 76.51 74.59 72.20
48.50 45.50 41.09 39.25 38.95 39.86 50.87 48.20 50.77 57.07 61.01 63.33 64.70 65.82 67.34 68.32 68.29 68.41 68.69 69.32 70.39 71.44 71.40 71.67 72.29 72.36 73.72 73.76 74.18 74.57 75.20 75.47 74.52 74.21 72.93 73.91 73.64 74.62 75.79 76.87 77.11 76.74 77.63 77.51 77.47 77.16 76.42 75.53 73.91
47.49 46.71 40.82 36.11 37.69 39.92 49.25 45.60 50.12 57.16 58.94 62.25 65.26 66.92 67.79 68.12 68.77 68.93 69.24 70.01 71.14 71.34 72.11 72.11 72.03 72.13 73.15 73.54 74.12 74.91 75.44 73.38 73.21 74.49 73.27 73.01 73.15 74.19 76.63 76.74 77.10 77.41 77.69 77.47 77.66 76.73 76.45 76.43 75.35
47.64 44.63 49.07 43.67 44.16 42.14 44.67 49.41 54.07 56.41 57.39 59.27 61.85 65.30 66.55 67.78 68.53 68.80 69.62 70.44 71.11 71.46 71.97 72.18 72.47 72.56 72.96 72.46 74.01 74.41 74.78 74.69 73.79 75.35 75.07 73.65 75.29 73.77 75.64 76.67 76.74 77.13 77.30 77.46 77.83 76.44 76.75 76.87 76.78
48.93 51.35 43.73 44.81 37.31 37.05 42.61 44.82 46.77 53.81 55.43 57.71 59.54 62.59 66.14 68.07 68.95 69.38 69.70 70.39 71.46 71.73 72.47 72.75 73.08 72.60 73.11 73.39 73.83 73.80 74.47 74.88 75.15 75.31 74.94 75.32 74.57 74.71 74.72 75.88 76.43 76.74 76.96 77.35 77.62 76.63 77.24 76.93 76.36
46.19 45.87 47.93 47.95 45.28 39.75 38.87 43.65 53.11 54.72 57.99 57.93 59.41 61.89 64.60 67.36 68.65 69.54 70.21 71.12 71.48 71.89 72.40 72.56 72.55 72.87 73.01 73.17 73.36 73.88 73.75 73.75 73.85 74.08 74.56 75.53 75.02 75.07 75.29 76.01 76.24 76.38 76.43 76.93 76.95 76.89 76.82 76.67 76.86
45.63 45.94 47.78 43.73 42.95 45.46 44.91 44.47 53.83 56.68 58.16 59.46 60.03 61.57 64.01 66.86 68.69 69.42 70.26 71.13 71.28 72.07 72.22 72.19 72.56 71.96 72.87 73.40 73.60 73.41 74.24 74.30 73.53 74.30 74.43 75.56 75.60 75.10 75.32 75.91 76.24 76.07 76.24 76.49 76.45 75.95 75.76 76.20 76.45

GFSSGP_sfc_wetblb_057.txt.gz
Wetbulb
74.05 74.17 74.65 71.06 61.12 62.91 58.10 60.13 64.92 63.26 63.51 67.06 67.80 66.30 64.22 65.64 63.98 61.21 72.24 73.74 74.03 74.06 76.22 76.83 77.40 77.42 77.26 76.94 77.00 76.91 77.08 77.01 76.76 76.83 76.88 77.15 76.98 76.21 76.45 76.09 76.21 76.07 76.05 75.35 75.63 75.67 75.49 76.21 76.24
73.69 71.98 73.70 68.39 59.77 57.30 58.56 63.98 62.25 64.42 67.04 68.46 67.88 67.32 66.45 65.12 70.03 69.78 71.31 74.65 74.60 73.99 74.31 75.70 77.69 77.76 77.57 77.72 77.51 76.95 76.96 76.87 76.79 77.12 77.23 77.07 76.84 76.46 75.96 75.82 76.08 76.24 76.21 76.29 76.21 75.91 76.38 76.12 76.14
72.56 72.86 67.60 63.46 61.64 57.57 57.41 64.06 64.59 66.35 68.41 67.45 66.42 68.62 67.92 65.61 70.14 71.38 73.80 74.36 74.16 73.60 75.05 77.04 77.08 77.70 77.59 77.38 77.62 77.15 77.36 77.39 77.14 77.23 76.96 77.08 76.53 76.29 76.24 76.27 76.02 76.77 76.07 75.77 75.94 75.43 75.49 76.16 76.15
71.24 69.65 68.26 61.27 59.26 61.89 61.65 65.55 66.36 65.71 68.23 68.24 68.73 66.23 69.65 71.93 70.60 72.18 73.95 73.90 73.66 73.45 75.52 77.10 77.56 77.36 77.40 77.34 77.53 77.33 77.06 77.28 77.18 76.83 77.06 76.73 76.68 76.30 76.13 76.35 75.96 75.71 76.24 76.19 75.88 75.35 75.27 75.35 75.80
71.67 69.88 61.84 61.13 60.99 62.06 65.14 66.50 66.37 65.20 65.41 66.89 67.82 65.81 66.71 70.11 72.34 73.86 73.78 72.87 73.31 73.84 75.66 76.54 77.49 77.40 77.66 77.66 77.43 77.27 77.29 77.16 76.71 76.91 77.00 76.99 76.59 76.54 76.71 76.74 76.58 75.82 75.74 75.65 75.55 75.60 75.48 75.23 75.38
66.55 68.62 60.97 57.45 61.14 63.70 66.68 66.31 66.14 64.92 65.43 66.80 67.35 66.40 66.67 72.04 71.10 73.08 73.74 73.00 73.66 73.37 74.46 76.30 77.35 77.41 77.54 77.57 77.37 77.02 76.91 77.16 77.33 77.09 76.99 76.84 76.84 76.93 76.58 76.04 75.71 75.59 75.57 75.57 75.71 75.65 75.82 76.03 75.82
66.32 63.78 60.36 60.76 60.74 60.02 63.31 67.38 64.82 66.13 66.98 66.20 69.68 65.97 67.71 70.13 71.46 72.79 73.22 72.91 73.14 73.77 74.21 76.22 77.15 77.43 77.51 77.19 77.38 77.11 77.11 77.16 77.06 77.14 77.08 77.14 76.99 76.66 76.29 76.04 76.03 75.69 75.44 75.54 75.37 75.60 75.82 76.10 75.95
68.10 65.15 61.06 61.25 60.46 60.57 66.59 66.95 68.42 67.63 65.63 71.14 71.74 65.70 65.16 70.47 71.64 72.05 72.60 72.36 72.78 73.42 73.69 75.36 76.66 76.18 76.51 77.39 77.49 77.28 77.12 77.24 76.96 77.31 77.46 77.02 76.34 75.48 75.48 76.70 76.43 75.76 75.36 75.60 75.57 75.88 75.96 76.48 76.27
70.52 62.64 58.85 58.89 59.92 63.72 67.07 64.34 67.54 69.50 68.01 69.08 70.25 70.10 70.92 72.49 71.97 70.53 70.84 71.20 72.53 71.86 73.01 73.88 75.15 75.48 76.06 77.39 77.71 77.32 77.09 77.13 77.67 77.41 77.38 77.27 75.30 75.65 75.74 76.66 76.02 75.66 75.59 75.42 75.41 75.79 76.16 76.59 76.14
65.55 63.24 59.31 65.97 65.05 64.83 66.91 66.89 67.44 66.82 67.48 68.19 68.73 71.58 71.52 71.83 70.51 68.92 69.90 69.44 71.05 71.11 72.37 72.55 73.94 74.73 75.40 75.32 77.35 77.71 77.18 77.01 76.52 75.48 77.55 75.80 76.34 77.16 75.85 76.43 76.28 75.83 75.93 75.58 75.50 75.93 76.15 76.66 75.63
67.02 63.18 65.27 65.36 66.84 66.45 65.38 65.52 68.56 66.98 65.45 67.97 67.81 68.91 69.44 70.99 70.44 70.34 70.05 70.13 70.64 71.75 72.08 72.79 73.97 75.08 74.87 75.65 76.08 75.70 75.44 75.43 76.89 76.89 76.81 76.22 75.53 75.55 75.77 75.82 76.18 76.21 76.37 75.44 75.36 75.38 75.57 74.63 75.38
63.29 65.72 65.54 64.81 67.72 65.89 65.19 68.25 66.85 67.96 66.07 70.30 71.00 70.33 70.21 70.08 69.87 69.89 70.09 70.13 70.67 71.37 71.72 72.86 74.43 75.05 76.11 75.10 74.53 76.85 74.19 75.67 74.88 75.99 76.92 76.30 76.61 75.84 75.69 74.19 76.47 75.08 76.21 76.07 74.80 72.84 75.24 75.79 73.20
63.37 64.34 66.92 67.36 67.29 66.03 66.05 64.21 64.59 67.63 70.80 71.92 71.61 70.35 69.70 70.07 70.11 70.55 71.24 70.98 71.07 71.01 71.36 72.94 74.60 75.83 76.76 78.88 76.43 76.26 75.29 74.68 75.24 76.22 76.66 76.26 75.13 74.92 75.93 76.93 73.95 74.27 74.75 74.55 74.14 76.41 76.18 74.75 74.92
62.73 63.74 65.55 66.09 67.87 67.83 65.08 65.26 67.00 68.01 71.21 70.75 70.49 69.77 70.27 70.44 70.17 70.31 70.97 70.43 70.62 71.67 71.71 73.21 74.31 75.91 76.24 77.10 78.71 76.78 76.19 76.22 74.73 74.89 75.88 76.75 77.09 76.42 76.49 76.89 74.93 76.94 76.46 76.36 76.27 76.91 75.19 75.29 74.02
61.62 60.33 64.28 65.74 66.55 66.48 67.38 63.90 64.62 69.36 71.07 69.99 69.76 70.28 70.41 70.46 70.76 70.03 70.80 70.62 71.02 71.57 72.43 73.13 74.40 75.37 76.08 76.98 76.46 76.45 75.69 75.14 75.61 74.96 77.02 76.81 77.88 77.83 77.28 75.87 75.13 76.49 77.00 77.45 75.92 74.62 73.99 72.29 73.89
58.19 59.68 58.73 64.87 65.41 66.62 65.68 58.84 65.69 70.34 70.17 69.35 69.72 69.68 70.02 70.25 70.67 70.89 71.08 71.18 72.07 71.80 72.29 73.60 73.79 74.76 75.54 76.26 76.47 75.98 75.65 75.81 75.62 75.94 76.33 77.24 77.81 78.29 78.21 76.61 75.62 75.95 77.02 75.30 72.35 74.28 74.33 72.21 74.10
54.26 53.11 56.76 60.43 64.19 64.49 63.90 60.22 64.85 69.79 69.76 69.27 69.79 69.42 69.47 69.97 70.54 71.15 71.25 71.56 72.11 72.38 72.71 73.44 74.30 74.25 75.21 76.75 76.48 76.33 77.41 76.62 76.14 75.53 76.70 77.98 78.10 77.83 77.65 76.88 76.66 77.53 76.00 74.09 75.18 76.06 73.83 71.52 72.20
50.65 51.61 55.60 58.14 63.28 63.80 62.59 62.68 64.02 68.46 68.90 68.86 69.54 69.31 69.24 69.35 70.00 71.15 71.33 71.73 72.33 72.64 73.00 73.84 74.04 76.02 77.01 76.29 76.64 75.71 75.40 75.70 77.06 75.44 76.32 78.67 77.71 77.36 77.80 76.77 76.90 77.41 76.02 74.17 75.49 74.73 74.97 73.24 71.58
53.12 53.94 53.87 58.47 63.21 61.90 60.72 61.92 63.20 67.55 68.12 68.55 69.06 68.86 69.16 69.41 71.11 71.39 71.39 71.83 71.79 72.56 72.77 73.84 74.85 77.76 75.67 74.59 73.96 74.20 73.69 75.36 75.42 77.20 78.18 78.55 78.48 77.83 78.21 76.68 76.87 76.91 76.33 72.24 75.97 73.24 74.00 71.46 72.15
52.45 52.22 53.77 57.36 61.82 61.54 60.43 60.19 63.87 67.01 67.42 68.95 69.19 68.75 68.91 69.70 70.18 70.72 71.06 71.35 71.29 72.21 72.80 74.98 75.62 77.78 76.24 75.12 76.21 76.06 76.41 74.78 75.29 75.86 78.36 78.17 77.80 78.44 77.57 76.78 76.86 77.11 76.38 76.75 75.96 76.07 71.54 72.49 72.77
51.48 51.16 54.00 55.69 60.27 63.36 60.81 58.88 62.55 65.62 67.86 69.01 69.85 69.85 69.40 69.80 69.58 69.99 70.38 70.92 71.30 71.77 72.90 75.11 76.69 77.60 77.07 77.48 76.20 76.43 76.98 76.48 74.62 76.26 76.15 77.74 78.17 78.14 78.78 77.84 77.97 77.52 77.55 75.07 76.37 75.96 77.78 71.94 71.73
49.71 52.86 52.06 53.65 55.48 53.86 61.25 51.76 59.05 60.51 65.44 67.25 68.45 69.22 68.92 69.49 70.58 70.62 70.77 70.72 71.24 71.81 73.50 75.91 76.56 77.84 77.04 77.99 75.36 77.33 74.03 72.79 73.84 75.98 75.91 77.19 78.50 78.21 78.26 78.41 77.90 78.70 77.35 78.36 76.97 76.44 76.57 76.21 71.62
51.05 53.83 51.75 50.81 52.10 54.60 54.98 55.06 59.37 62.76 61.09 65.26 67.82 68.63 69.59 69.83 70.24 70.30 70.77 71.48 72.16 72.46 73.42 74.02 77.03 77.91 77.93 77.40 77.37 75.29 75.76 74.06 74.44 74.56 79.37 81.24 80.49 78.65 77.90 78.83 78.19 78.16 76.63 77.75 76.79 77.18 77.75 75.13 74.40
54.28 52.21 51.89 51.38 49.38 46.03 53.26 55.26 56.35 57.15 61.97 64.33 67.41 69.00 69.57 69.92 70.48 70.91 71.62 72.38 72.31 72.62 73.35 74.70 77.03 77.99 78.33 77.88 77.02 77.90 76.00 76.37 73.54 74.92 75.69 74.73 76.60 77.31 78.68 78.48 79.59 78.73 78.16 77.68 77.71 78.15 77.47 78.25 76.72
52.80 50.59 45.39 43.89 43.46 42.91 51.09 53.04 56.82 61.69 63.23 63.23 66.04 68.38 70.13 70.59 70.31 70.57 70.67 71.02 72.11 72.93 73.57 75.07 76.96 77.49 78.17 77.39 76.36 76.88 77.87 77.87 78.95 78.09 74.58 76.24 73.84 74.59 79.17 80.24 79.44 78.38 79.07 78.50 78.30 78.59 78.06 77.66 75.87
51.59 50.59 46.69 41.94 43.16 44.75 49.58 47.90 54.53 61.64 64.49 64.82 64.34 67.97 69.81 70.60 71.00 70.70 71.08 71.35 73.03 73.37 74.63 74.99 76.60 77.50 78.08 77.58 77.47 76.97 78.24 74.73 74.64 76.80 74.95 74.25 73.90 74.96 80.75 78.80 78.49 78.89 78.86 78.54 79.29 77.39 77.00 79.25 76.69
51.64 49.07 52.69 48.94 50.49 47.79 48.53 50.13 54.00 59.99 61.51 64.16 63.96 66.59 67.53 70.03 70.87 71.51 71.76 71.75 72.89 73.78 75.14 75.33 76.37 77.36 77.86 76.45 77.76 77.77 77.54 76.54 74.48 77.01 78.51 76.20 77.68 75.74 76.62 78.52 78.35 78.39 78.33 79.11 79.96 76.69 78.69 78.54 77.99
51.87 54.56 48.06 48.41 43.14 43.02 48.01 49.69 48.46 52.91 57.18 61.09 62.67 64.34 66.67 70.08 70.78 71.64 72.45 72.56 72.77 73.35 74.13 75.67 76.72 77.09 77.14 77.32 78.10 77.78 77.66 78.13 77.69 78.06 79.33 77.90 78.98 79.36 77.83 77.93 77.62 78.09 78.89 79.12 80.53 78.70 79.05 79.27 77.51
49.24 48.91 50.88 51.29 48.86 44.64 44.77 48.69 56.47 55.29 55.60 58.73 61.60 64.11 65.83 68.50 69.93 71.23 72.76 73.54 73.70 73.98 73.95 74.41 75.35 76.50 76.63 77.42 77.76 77.37 77.41 77.41 77.56 78.83 79.10 79.67 79.37 80.14 79.56 79.12 78.22 77.87 77.97 78.89 80.34 80.00 79.15 77.90 78.92
50.22 48.93 48.77 47.01 47.17 49.06 48.68 49.43 57.54 57.68 57.21 58.50 61.35 63.27 64.77 66.71 69.19 70.99 71.75 73.16 73.82 73.89 73.99 74.40 74.56 74.44 76.05 77.20 78.01 77.38 78.11 77.45 76.92 77.26 78.73 79.85 79.68 79.59 80.26 79.52 79.03 77.96 77.51 79.11 79.54 77.63 77.64 77.64 77.58

GFSSGP_sfc_wetblb_060.txt.gz
Wetbulb
73.88 72.88 72.05 69.38 60.41 60.57 58.23 58.88 62.55 62.72 63.68 67.18 67.63 65.81 63.78 66.24 62.41 58.45 71.31 73.59 74.28 74.23 75.70 76.49 77.52 76.97 77.04 77.00 77.30 77.35 77.57 77.46 77.65 77.45 77.36 77.21 76.39 76.90 76.51 76.50 76.39 75.74 76.18 76.10 75.97 76.01 76.56 76.61 76.31
72.56 72.53 71.54 68.93 59.30 56.26 57.51 62.21 61.29 64.17 66.75 68.19 68.03 66.35 65.69 63.85 68.39 68.61 70.64 73.30 73.73 74.65 75.64 75.64 77.62 78.21 77.27 77.20 77.23 77.28 77.13 77.00 77.16 77.40 77.44 77.23 76.58 76.45 76.28 76.14 76.43 76.54 76.53 76.63 76.37 76.23 76.15 76.28 76.66
74.12 72.31 66.88 63.31 60.38 56.66 52.76 62.50 63.62 65.84 67.63 67.23 66.22 69.10 67.08 65.22 68.79 70.07 72.87 72.95 72.66 72.93 74.70 76.13 77.91 78.37 77.77 77.61 78.02 77.45 77.32 77.17 77.41 77.22 77.23 76.95 77.00 77.00 76.54 76.54 76.53 76.07 76.29 76.12 75.57 76.18 75.90 76.50 76.30
70.07 68.82 68.43 60.93 57.06 61.07 61.88 64.48 65.71 65.42 67.43 68.34 67.90 64.86 68.60 70.78 69.59 72.07 73.47 72.48 70.92 73.76 75.02 76.86 78.29 78.02 77.86 77.42 77.42 77.42 77.60 77.46 77.25 77.12 76.96 76.95 76.92 76.65 76.46 76.07 76.07 76.34 76.32 75.93 75.65 75.49 75.63 75.88 75.40
70.48 68.74 61.31 60.65 60.74 62.93 65.51 66.42 67.21 64.71 65.90 65.79 67.51 63.85 65.37 69.84 72.37 72.75 72.10 72.19 71.82 74.07 74.99 76.05 78.25 77.68 77.84 77.16 78.02 77.48 77.46 77.30 77.03 77.23 77.46 77.17 76.59 76.71 76.84 76.93 75.99 76.32 76.07 75.71 75.85 75.65 75.54 75.52 75.51
66.42 67.36 60.10 57.98 59.45 64.25 66.05 67.44 65.91 64.88 66.10 65.88 66.08 65.46 65.95 70.98 71.28 71.84 72.43 71.65 73.77 73.05 74.14 75.36 77.31 77.46 77.42 77.49 77.60 77.46 77.55 77.22 77.49 77.37 77.23 77.13 77.61 77.34 76.57 75.99 76.13 76.07 76.01 75.93 75.79 76.07 75.90 75.60 75.23
64.87 63.46 60.21 59.72 59.97 61.70 64.40 68.11 65.09 65.21 65.83 65.17 68.75 64.41 67.58 69.21 71.57 72.07 72.29 71.80 71.93 72.93 74.30 74.69 75.30 77.01 77.53 77.44 77.72 77.61 77.58 77.53 78.15 77.82 77.77 77.98 77.53 76.90 76.60 76.79 76.49 76.15 76.01 75.87 75.93 75.82 76.03 75.83 75.17
67.77 65.54 60.96 60.69 59.12 59.24 65.09 66.00 66.92 66.38 65.78 70.41 70.81 64.35 64.17 68.96 72.24 71.98 71.99 71.35 71.89 72.71 73.64 74.98 74.85 75.90 75.99 76.24 77.29 77.46 77.56 77.94 77.21 77.38 78.04 77.72 77.41 76.12 76.24 77.49 77.21 76.03 75.92 75.84 76.24 76.32 76.22 76.05 75.48
68.82 62.23 58.37 59.03 60.25 60.56 66.08 64.19 67.48 69.71 68.16 69.54 70.24 68.71 70.11 71.09 72.01 70.25 70.56 70.10 71.43 71.75 73.22 73.73 73.74 75.48 76.93 76.85 76.91 77.36 77.50 77.55 77.72 77.26 77.54 76.73 74.69 75.28 75.29 77.10 77.30 76.02 75.89 75.92 75.73 75.96 76.69 76.03 75.35
64.54 61.16 59.75 63.20 64.63 64.51 67.40 66.54 67.75 66.39 66.81 67.19 68.70 71.09 71.25 70.74 70.51 69.20 68.90 68.76 68.27 69.71 71.39 72.70 73.83 74.61 75.78 74.87 77.18 77.20 76.60 76.29 76.23 76.09 74.94 76.28 77.42 76.38 74.96 76.22 77.63 76.62 76.23 75.92 75.93 75.98 75.38 75.43 74.51
65.06 61.46 63.51 64.72 66.33 67.34 65.34 65.34 67.12 65.87 64.84 67.07 67.20 68.47 69.54 69.41 69.06 69.15 69.04 69.64 69.19 70.25 70.00 72.90 74.62 74.71 75.47 75.11 76.78 76.31 76.10 76.63 76.26 77.07 74.70 75.86 76.73 75.82 72.85 75.73 74.86 75.59 76.46 74.23 75.28 75.12 75.69 74.10 74.70
61.85 64.74 65.61 64.85 66.78 66.49 66.27 63.68 61.91 64.54 66.90 69.71 70.41 70.05 69.65 68.42 68.35 68.68 68.38 70.21 68.74 70.66 69.64 72.58 73.71 76.89 74.67 75.43 76.02 73.00 75.85 76.02 75.22 75.58 76.49 78.95 75.60 73.44 71.25 74.16 76.89 73.14 75.88 74.88 72.24 74.33 73.95 71.09 72.01
62.33 64.02 65.52 66.32 66.89 66.84 67.27 63.36 62.98 65.96 67.99 69.60 70.87 69.94 68.92 68.49 68.70 70.16 69.81 70.51 70.21 69.65 70.65 72.53 73.88 75.71 75.37 76.56 76.79 74.70 73.22 74.86 75.84 75.99 78.20 73.08 75.20 73.36 73.42 74.12 73.13 73.22 74.93 73.14 72.96 73.40 74.70 72.06 73.54
63.16 63.04 64.44 67.07 65.89 66.72 63.82 64.54 65.97 66.46 67.92 70.09 69.35 68.71 69.23 68.62 69.59 70.03 70.12 69.85 70.68 70.20 71.80 73.64 74.06 76.00 75.96 76.10 75.74 73.01 75.64 74.52 75.40 75.07 75.55 73.20 75.84 74.86 74.87 74.09 73.97 71.94 73.61 75.98 75.67 73.55 74.13 71.27 73.37
60.10 59.46 62.39 65.37 65.63 64.64 66.26 61.03 61.62 66.96 69.07 68.66 68.12 68.70 69.46 69.60 70.07 69.80 70.85 70.36 71.19 71.14 72.53 73.06 73.81 75.24 77.35 76.43 78.24 78.82 77.12 76.80 75.49 76.34 77.71 78.70 75.37 76.58 77.90 74.43 77.32 76.95 71.59 77.24 74.46 75.50 74.28 73.22 73.17
56.36 58.32 55.30 62.95 65.72 66.19 66.18 58.79 64.91 67.72 68.28 67.46 67.88 68.34 68.89 69.16 69.30 70.39 71.29 70.75 71.46 71.63 72.93 72.74 72.59 74.21 75.75 75.07 79.41 74.57 78.08 76.17 76.85 77.34 77.13 78.45 79.08 78.59 74.26 73.47 71.67 74.98 77.66 71.48 71.18 74.13 71.87 72.54 71.11
54.08 51.60 55.02 58.24 65.73 65.38 63.59 59.51 63.38 66.08 67.81 67.12 67.87 68.17 68.49 68.78 69.96 70.46 71.08 71.39 71.27 72.83 73.60 72.94 74.86 74.45 75.11 77.50 77.56 72.66 76.91 76.90 74.28 77.00 76.61 79.34 78.63 79.57 73.52 71.54 73.28 78.35 73.54 75.80 72.78 74.99 74.24 68.97 72.39
49.94 51.39 53.74 56.16 62.51 63.93 61.72 61.91 64.34 64.40 65.48 67.22 67.56 68.21 68.56 68.00 69.16 70.46 70.84 71.37 71.54 72.98 73.65 73.61 74.98 75.84 76.48 77.31 78.47 76.33 75.60 75.65 78.83 77.59 76.45 79.24 78.95 79.04 77.94 77.02 78.64 79.08 72.75 74.56 75.98 71.98 73.92 72.64 70.10
53.11 51.81 52.30 55.29 62.86 62.50 60.24 58.68 62.08 61.94 63.91 65.14 67.25 67.92 68.52 68.88 70.27 70.83 71.02 71.29 72.16 72.57 72.58 74.40 75.40 76.19 75.34 75.26 74.59 73.16 74.01 72.28 77.07 75.60 75.75 79.34 79.12 79.36 79.82 78.61 77.66 76.24 71.17 74.21 75.89 75.23 72.21 71.49 72.35
53.92 51.95 51.06 55.38 61.07 62.73 61.26 57.99 61.78 62.34 62.23 64.54 67.12 67.31 68.24 68.81 69.32 70.08 70.64 70.71 71.29 71.96 72.42 74.30 75.34 75.89 75.13 75.70 76.06 76.91 73.58 72.86 71.61 76.48 76.86 78.67 78.47 79.14 79.09 78.73 78.47 74.90 74.06 75.78 75.83 71.32 71.36 74.21 73.08
51.56 50.65 51.24 52.73 57.94 62.01 60.50 57.28 57.43 60.20 62.58 65.33 67.98 68.49 68.98 69.11 69.12 69.59 69.94 70.40 70.97 71.73 72.16 73.36 75.32 75.67 75.43 77.13 75.99 77.93 78.58 76.01 73.17 76.43 76.84 78.45 79.37 78.61 79.73 79.26 79.25 78.53 77.45 76.53 76.15 73.74 75.39 72.84 71.42
49.23 53.04 51.96 51.78 52.98 51.60 60.78 52.02 58.36 58.83 60.82 63.54 65.94 67.07 67.70 68.93 70.39 70.28 69.98 70.44 70.48 72.11 73.18 73.83 75.40 76.30 75.43 77.50 75.18 76.92 74.93 74.75 74.57 75.56 75.18 77.39 79.28 78.80 78.95 79.43 79.76 79.52 74.58 77.83 77.24 77.08 75.99 70.40 72.10
51.09 54.27 52.62 51.39 49.89 51.34 54.14 53.92 58.09 61.89 59.51 58.38 60.93 66.22 67.35 69.49 70.03 70.10 70.14 70.87 71.19 72.76 72.93 74.00 74.96 76.38 75.30 75.47 76.82 75.35 75.57 75.00 75.93 74.96 74.66 77.57 79.66 79.64 78.52 78.72 79.56 78.08 78.19 78.49 78.13 77.28 77.32 76.61 72.14
54.20 52.14 52.32 51.86 49.29 44.43 49.37 51.83 53.54 57.12 57.81 58.61 62.35 63.18 68.24 68.96 70.21 70.80 71.37 71.66 71.52 72.69 72.84 73.86 74.26 75.15 75.84 75.15 75.46 76.65 74.53 76.33 75.72 75.76 74.50 76.17 77.04 78.25 79.45 78.56 79.29 79.91 78.28 77.40 78.30 78.82 78.26 77.83 77.27
52.33 49.45 44.15 43.03 43.02 42.49 48.86 47.87 53.74 60.44 63.14 62.10 60.72 62.75 69.22 69.57 70.20 70.57 70.70 70.90 71.35 71.55 72.44 73.42 73.96 73.90 75.26 74.98 74.30 76.29 75.51 75.33 76.66 77.97 74.46 74.97 75.44 75.65 77.65 79.18 78.59 78.40 79.90 79.39 78.58 78.75 78.65 78.79 77.72
50.44 49.54 44.98 40.23 41.88 44.08 50.13 45.26 49.29 58.06 62.60 65.75 65.95 66.09 67.78 69.62 70.09 70.60 71.15 71.50 71.47 71.99 72.30 73.16 73.86 73.84 74.82 75.89 73.96 74.85 76.79 74.67 74.79 77.35 75.30 77.24 75.07 75.21 77.63 78.72 78.11 78.79 78.98 78.87 78.81 78.48 78.05 77.90 77.76
50.50 48.25 51.27 46.99 48.56 46.18 48.27 50.53 53.11 55.65 58.67 64.22 64.28 66.21 65.01 64.14 66.33 70.64 71.47 71.71 72.21 72.39 72.35 73.36 74.04 74.46 75.24 74.79 75.50 73.83 75.52 75.55 73.98 76.96 78.16 76.46 77.76 77.39 77.74 78.33 79.03 78.55 78.93 78.79 78.44 76.90 77.04 77.48 78.24
50.12 52.54 47.32 48.40 41.38 41.23 46.29 49.49 49.08 53.29 55.90 60.92 63.32 63.09 63.91 64.88 64.18 67.51 71.72 71.83 72.88 73.12 73.71 73.71 75.02 74.88 75.67 75.76 75.84 75.18 73.43 75.57 75.68 74.57 77.41 76.18 78.03 77.72 77.77 78.33 78.11 78.44 79.08 79.41 78.94 77.54 77.96 77.33 76.53
48.22 47.57 48.99 49.42 48.79 43.68 42.66 47.25 56.77 57.66 56.71 59.02 64.02 64.58 63.26 64.36 66.12 66.92 68.84 72.48 72.66 73.55 73.95 73.83 73.96 75.56 75.99 76.35 75.79 75.65 75.01 74.49 74.38 75.35 74.08 77.01 76.51 80.36 78.92 79.79 78.58 78.02 77.99 79.21 78.77 77.81 78.24 77.30 77.22
50.13 48.54 48.53 45.59 45.29 48.11 47.46 47.50 57.12 58.39 58.48 58.47 59.59 63.13 66.98 67.01 66.74 66.31 65.20 67.20 72.65 72.76 73.50 74.18 74.09 74.65 75.85 76.47 76.21 75.90 75.93 74.96 74.65 73.25 76.15 76.91 77.43 77.74 79.44 78.60 79.70 77.99 77.91 78.17 77.93 77.40 75.76 77.04 76.86

GFSSGP_sfc_wetblb_063.txt.gz
Wetbulb
73.19 72.58 71.00 68.20 58.61 57.60 55.89 58.21 62.46 61.95 62.80 66.11 66.79 65.23 63.93 65.43 62.52 56.37 69.27 71.56 72.76 73.02 75.04 76.12 77.30 76.97 77.03 77.46 77.30 77.45 77.50 76.89 77.42 77.57 77.49 76.74 77.13 76.73 76.66 76.65 75.90 75.96 76.53 76.15 76.38 76.50 76.65 76.45 76.81
71.88 70.56 69.23 65.37 56.91 53.73 54.57 61.80 60.79 63.37 65.60 66.96 66.84 66.44 65.00 62.20 67.15 66.96 68.42 72.33 73.99 74.12 74.60 75.24 77.25 77.42 77.04 77.35 77.91 78.16 77.29 77.07 77.54 77.42 77.77 77.30 76.58 76.52 76.45 76.56 76.54 76.73 77.14 76.43 76.21 76.43 76.51 76.59 77.28
71.54 71.40 65.56 61.15 58.05 55.08 53.28 59.06 61.42 65.34 67.35 66.38 65.16 67.87 66.07 63.30 67.59 68.67 71.48 73.25 73.51 73.98 74.29 75.17 78.29 78.00 77.21 77.13 77.48 77.69 77.61 77.13 77.53 77.40 77.33 76.71 76.85 76.70 77.00 76.43 76.16 76.56 76.07 76.35 76.35 76.18 76.28 76.42 76.41
70.51 67.53 66.39 59.55 56.88 59.53 58.13 60.77 64.13 65.30 66.99 67.17 66.15 62.73 66.69 69.60 68.90 70.11 72.16 72.73 72.73 73.77 75.13 77.48 78.21 77.76 77.54 77.68 77.70 77.40 77.50 77.64 77.37 77.37 76.93 76.94 76.87 76.54 76.16 76.68 76.38 76.27 75.94 75.80 75.71 76.10 75.74 75.98 75.95
70.30 66.15 60.24 58.08 59.52 61.66 63.90 64.58 65.61 64.47 65.04 65.57 65.68 62.19 63.61 68.30 70.76 71.06 69.56 72.37 72.21 73.35 75.21 76.49 78.51 78.31 77.62 77.38 77.74 77.50 77.62 77.16 77.04 77.65 76.91 76.98 76.74 76.82 76.54 76.13 76.46 75.99 75.71 75.77 75.58 75.44 75.55 75.71 75.38
63.58 65.02 57.70 55.42 59.11 63.04 65.28 66.78 65.99 64.82 65.04 65.81 64.45 63.92 64.69 69.67 69.52 70.26 70.68 72.25 73.37 73.20 74.67 75.56 77.67 77.82 77.45 77.62 77.26 77.72 77.22 77.27 77.29 77.55 76.80 77.08 77.25 76.71 76.27 76.08 76.30 76.13 76.13 75.94 75.88 75.71 75.52 75.38 74.77
61.71 61.50 58.07 59.44 59.40 61.28 63.78 66.53 64.56 65.18 64.29 64.41 67.11 62.12 65.19 67.85 69.63 70.73 71.88 72.12 72.36 73.17 73.83 74.84 75.25 76.38 77.43 77.85 77.57 77.37 77.46 77.19 77.30 77.15 77.07 76.97 76.57 76.57 76.27 76.52 76.38 76.02 75.91 75.80 75.55 75.57 75.46 75.35 74.88
66.15 63.94 59.51 59.99 58.37 59.24 65.21 65.52 67.23 66.13 64.41 69.41 68.80 62.28 62.45 67.66 68.90 71.23 71.09 70.79 72.33 72.86 73.10 73.08 74.30 74.55 74.37 74.96 77.56 77.62 77.74 77.61 77.34 77.28 77.06 76.79 76.66 76.55 76.38 77.46 77.23 76.16 75.88 75.93 75.66 75.35 75.45 74.66 74.66
68.42 58.85 57.53 58.58 59.11 59.25 65.37 62.97 66.40 69.55 66.60 68.10 68.43 67.13 68.11 69.62 69.65 69.01 68.38 69.37 70.82 71.31 71.45 72.92 73.69 73.40 74.04 74.42 75.97 77.53 77.76 77.27 77.39 77.00 76.81 75.33 72.38 72.91 74.51 76.43 76.99 76.10 75.80 75.88 75.83 75.96 75.62 75.60 75.60
61.70 59.31 58.54 62.03 63.20 61.44 65.02 64.40 64.34 63.90 64.72 66.43 66.39 68.74 69.47 69.63 68.19 67.23 67.26 66.93 68.20 70.03 70.88 71.59 72.80 73.40 73.87 75.23 74.32 74.28 74.97 74.75 74.44 74.00 73.63 73.30 72.98 71.74 74.29 75.75 77.35 76.01 75.99 75.88 76.05 76.35 75.79 74.86 73.11
62.09 58.32 63.55 63.71 65.20 65.49 64.48 64.29 66.52 64.73 63.70 66.31 64.57 66.42 67.78 68.34 66.89 67.12 67.73 67.12 67.73 70.20 71.10 70.56 72.65 73.24 72.09 73.60 73.99 73.93 73.41 73.59 72.39 73.05 73.45 72.75 73.65 71.52 72.65 73.06 73.17 72.41 75.20 72.89 74.79 73.57 72.05 72.77 72.82
59.77 63.41 64.91 64.78 66.59 64.82 63.52 63.85 62.56 64.67 65.16 68.44 68.26 67.97 67.51 67.19 66.43 66.57 66.39 66.41 67.29 68.38 70.40 71.59 71.78 72.78 71.90 73.71 73.63 73.38 73.40 73.30 72.12 72.16 72.28 72.77 71.47 69.40 69.29 71.55 73.55 71.84 72.48 71.40 70.27 72.62 73.15 72.68 71.42
60.67 62.74 65.44 66.14 65.75 65.36 65.08 63.04 64.08 63.45 66.24 69.34 69.38 68.17 66.91 66.63 66.58 67.17 67.87 67.29 66.28 68.91 70.55 70.23 71.86 71.66 73.22 72.59 71.42 71.08 71.50 72.55 72.24 71.66 71.66 71.92 71.95 70.22 71.25 72.49 71.44 71.29 72.34 71.84 70.43 71.39 71.40 69.98 70.58
60.56 61.45 63.66 64.63 65.23 65.67 63.78 63.46 64.16 63.06 66.93 68.31 68.37 66.72 66.81 66.28 66.79 67.76 67.82 66.87 67.29 69.42 69.19 70.87 70.56 70.92 72.10 70.02 71.99 71.25 71.32 71.75 72.73 71.35 70.75 71.05 71.79 70.91 71.55 71.75 72.17 71.35 70.64 71.60 70.23 71.20 72.46 70.88 70.72
57.02 54.53 57.53 63.86 64.30 64.00 65.07 61.60 61.10 66.28 67.55 66.90 67.08 66.77 66.75 66.67 67.08 67.40 67.79 66.90 67.08 69.24 70.00 70.74 69.87 71.28 72.26 71.66 71.72 70.96 72.98 73.17 70.85 72.29 71.79 71.99 73.02 70.60 72.55 72.61 71.54 71.37 72.52 73.57 70.32 72.31 70.50 69.83 70.55
52.83 51.85 48.22 57.08 64.36 65.35 63.99 57.10 62.38 65.25 65.36 65.46 66.57 66.72 66.60 66.48 67.08 68.17 68.10 67.60 67.82 69.78 69.63 70.37 72.54 72.86 72.15 71.61 73.50 71.13 71.42 72.53 73.28 72.91 72.82 73.84 74.02 72.64 72.06 70.22 71.79 71.76 72.41 70.42 68.56 71.17 69.56 70.58 69.33
49.48 43.53 48.51 52.73 63.53 64.39 62.20 59.07 63.48 64.30 65.83 65.22 65.50 66.52 66.55 66.43 67.98 67.71 68.27 68.16 68.31 69.41 69.55 68.81 69.87 70.90 70.61 71.67 71.97 70.35 71.39 71.98 70.09 72.53 72.96 73.61 74.59 73.05 70.75 68.96 70.74 73.12 70.12 69.85 70.92 69.31 70.38 67.09 67.61
45.07 44.95 47.62 50.02 60.22 63.20 60.31 61.02 64.13 65.83 66.08 64.69 65.16 66.53 66.60 66.86 66.75 67.26 68.58 68.86 69.72 69.47 69.15 69.35 70.93 71.10 71.19 71.69 71.96 71.35 71.67 72.43 73.97 73.60 73.28 75.28 73.87 73.66 72.40 71.46 69.34 71.95 70.42 70.43 71.89 67.56 68.97 68.68 68.44
50.77 49.74 47.90 51.09 56.72 60.62 59.00 60.25 62.73 60.66 59.98 61.69 64.03 65.35 65.74 65.67 67.57 67.50 68.70 68.69 70.12 69.52 68.97 69.35 70.54 71.09 72.16 72.11 71.13 70.93 70.16 69.39 72.57 72.88 74.69 75.16 74.23 75.05 72.74 73.06 72.86 72.08 69.07 69.07 71.94 69.70 69.29 67.47 68.59
50.07 48.74 48.32 51.14 52.56 59.85 58.40 58.93 61.44 59.80 61.60 63.80 62.89 65.17 65.88 66.39 66.76 67.24 67.37 67.73 68.83 69.35 68.70 69.76 71.26 71.34 71.99 71.47 71.79 70.98 71.42 70.51 70.91 73.40 72.66 75.57 74.79 74.79 73.94 72.06 72.94 72.43 70.26 70.16 69.61 69.45 66.85 69.70 67.45
48.61 46.55 47.52 47.50 50.74 59.86 57.31 55.00 57.86 61.30 63.19 64.67 65.10 65.64 66.31 66.34 65.94 66.15 66.57 67.27 68.46 68.49 69.60 70.23 72.11 71.45 72.21 71.51 71.50 72.91 71.74 70.31 69.58 72.26 73.08 74.57 75.28 74.77 75.05 73.63 73.17 71.13 72.54 71.52 70.49 70.85 71.11 67.66 68.18
42.25 50.18 50.20 48.84 45.79 42.16 59.14 47.88 54.55 57.63 59.61 62.80 63.94 63.16 63.58 66.29 66.83 66.36 66.56 66.63 68.13 68.51 70.07 71.40 72.42 71.85 71.69 72.67 70.34 70.63 71.06 68.99 70.21 72.21 73.08 74.29 75.22 74.70 75.07 74.83 73.90 72.81 71.08 72.20 71.20 72.59 70.75 67.88 66.09
47.15 51.33 49.55 49.23 44.60 41.39 45.02 43.36 55.12 58.43 56.06 59.42 62.64 63.80 64.91 66.11 67.04 66.32 66.76 67.29 68.83 69.50 69.25 71.41 72.57 72.04 71.71 72.42 70.80 70.64 70.50 72.34 70.78 72.53 73.25 73.47 74.56 74.88 74.87 74.50 74.60 73.53 71.94 72.35 72.31 71.42 72.56 71.80 70.48
52.08 48.95 47.50 46.21 43.04 37.73 41.84 41.51 45.61 53.41 56.22 58.71 61.61 63.17 65.31 65.35 67.83 67.47 67.67 68.37 68.15 69.87 69.73 70.93 72.41 71.25 71.41 71.58 72.57 70.31 70.83 70.51 71.59 71.41 72.17 73.61 74.35 74.42 75.70 74.75 74.45 73.69 73.59 72.86 72.74 73.44 71.92 71.25 72.27
48.33 43.06 35.48 34.92 36.10 36.04 42.22 40.28 42.07 57.77 60.30 59.38 60.61 62.91 65.20 63.84 67.71 67.47 67.00 67.36 67.56 69.12 69.35 70.14 71.37 71.74 71.22 70.94 71.24 72.91 70.83 70.32 71.32 71.64 71.93 72.90 73.14 73.16 74.06 74.20 74.58 74.31 73.37 74.03 73.84 72.78 73.59 72.53 72.32
45.38 42.35 36.62 31.89 33.96 37.35 43.97 38.80 43.52 58.54 63.53 62.21 63.34 64.35 64.32 64.30 64.03 67.94 67.72 67.83 68.09 69.22 69.49 70.27 70.26 71.13 71.79 70.99 70.74 71.54 72.97 70.97 71.38 72.16 72.06 73.23 73.55 73.53 73.66 74.69 74.35 74.20 75.04 74.07 74.17 73.28 73.66 72.64 73.56
45.04 41.48 45.32 39.19 41.49 37.04 41.36 44.96 49.31 50.95 60.92 63.03 62.03 61.42 62.28 66.28 66.15 67.04 68.36 68.48 68.26 68.93 69.39 70.26 70.46 70.44 71.90 71.82 70.29 71.07 72.70 71.27 70.54 71.09 72.60 72.13 72.57 73.47 74.20 75.71 74.61 74.62 74.74 74.49 73.91 72.97 73.70 73.30 73.17
44.66 46.25 39.06 39.32 32.48 31.73 39.15 41.35 43.32 47.92 49.38 60.41 60.02 61.29 64.20 65.51 66.82 66.83 66.91 68.54 68.90 69.50 70.02 70.45 71.34 70.91 72.01 72.27 71.72 70.43 71.51 72.70 70.80 70.68 72.14 72.01 71.06 73.13 74.15 75.64 74.76 75.32 74.75 74.05 73.82 72.14 73.39 72.86 71.96
42.67 40.21 40.61 40.25 38.66 35.15 34.41 39.51 48.58 50.23 51.83 58.65 60.28 62.88 64.39 62.91 64.61 66.33 67.36 66.45 66.94 67.84 70.02 70.56 71.45 71.18 71.61 71.86 72.87 71.20 70.24 72.15 72.07 71.10 70.17 72.41 71.60 73.60 75.34 74.99 75.02 75.07 74.77 74.81 74.51 72.71 73.64 72.77 72.34
44.07 41.15 40.84 36.33 35.91 38.91 39.45 41.57 52.49 51.87 54.00 56.99 62.37 63.89 64.79 62.79 64.09 66.11 66.25 65.17 65.40 64.51 69.99 70.22 71.38 71.76 72.25 72.74 72.34 72.87 71.33 70.45 71.96 71.05 71.06 70.59 71.79 72.51 74.82 75.41 75.25 74.40 73.87 74.79 74.18 73.28 73.15 73.18 72.84

GFSSGP_sfc_wetblb_066.txt.gz
Wetbulb
73.38 72.63 71.29 66.85 57.26 57.20 54.84 57.05 62.01 61.35 61.90 65.17 65.23 63.73 63.11 64.17 61.83 54.20 68.91 71.20 73.03 73.15 74.61 75.88 77.67 77.21 77.29 77.37 77.58 77.16 76.89 76.38 77.05 77.16 76.75 76.86 76.73 76.47 76.47 75.57 76.01 76.35 75.77 76.34 76.42 76.48 76.75 76.86 77.21
72.00 71.04 67.95 65.05 55.36 54.02 55.07 60.63 59.90 62.72 64.52 66.08 66.79 66.17 64.19 61.75 66.18 66.28 67.79 71.72 72.76 73.95 74.67 75.33 77.29 77.84 77.24 77.01 77.40 77.66 76.88 76.85 77.41 76.82 77.12 76.80 76.54 76.80 76.85 76.43 76.77 76.44 76.14 76.37 76.64 76.38 76.70 77.09 76.64
71.53 70.64 65.32 61.32 57.07 54.36 53.89 59.61 60.58 64.61 66.81 66.38 64.77 67.02 65.33 62.75 66.93 67.48 71.17 73.15 73.69 73.82 74.37 75.27 77.68 77.85 77.19 77.66 77.62 77.69 77.09 77.07 77.15 76.80 76.89 76.68 76.43 76.86 76.24 76.34 76.43 76.28 76.30 76.29 76.62 76.54 76.42 76.43 76.01
69.40 67.00 65.37 57.65 56.46 58.14 57.80 60.43 62.20 63.28 65.84 66.03 65.47 62.02 66.19 69.32 68.06 70.14 73.08 73.59 73.10 73.65 74.27 76.96 77.59 76.92 77.10 77.33 77.25 77.17 77.21 77.35 77.12 77.08 76.95 76.55 76.43 76.67 76.32 76.13 76.24 75.63 75.91 76.48 76.21 75.90 76.04 76.15 76.51
69.31 64.87 59.44 57.53 58.56 59.07 62.10 64.45 65.00 63.65 63.70 64.26 64.80 61.51 63.25 67.98 71.05 72.38 72.37 73.28 72.67 73.75 75.25 76.16 78.26 78.16 77.73 77.23 77.45 77.31 77.04 77.20 77.00 76.89 76.69 76.67 76.42 75.99 76.59 76.38 75.88 75.69 75.52 75.25 75.44 75.72 75.71 76.20 76.01
63.07 63.86 56.90 55.09 58.73 61.81 64.02 65.58 65.71 64.20 64.88 64.61 63.41 63.04 62.87 69.16 70.22 70.99 72.78 72.78 73.62 74.16 75.22 75.83 77.71 77.87 77.89 77.61 77.58 77.31 77.32 77.01 77.09 77.09 76.69 76.77 76.72 76.54 76.10 76.24 75.94 75.91 76.00 75.61 75.33 75.30 75.55 75.60 75.73
60.89 60.43 56.62 58.70 59.23 60.75 63.49 66.45 64.28 63.46 63.84 63.64 66.28 60.56 63.78 66.66 68.60 71.52 72.25 72.54 73.92 74.67 74.44 74.53 75.27 76.45 77.65 77.98 77.40 77.21 77.21 77.34 77.13 76.85 77.10 76.56 76.27 76.22 76.13 76.33 76.24 75.88 75.72 75.55 75.25 75.13 75.19 75.04 75.27
63.83 62.59 58.96 58.98 58.08 59.22 64.48 65.15 67.23 65.13 64.00 68.52 67.45 60.82 61.09 66.36 70.44 71.40 71.42 71.91 72.48 73.57 73.94 73.58 73.95 73.94 74.46 75.38 77.41 77.47 77.16 77.36 77.09 76.88 76.54 76.60 76.85 76.44 76.49 76.79 76.75 75.99 75.83 75.55 75.44 75.45 75.48 75.37 74.91
67.82 57.74 56.94 57.72 58.74 60.84 65.50 63.70 67.49 69.27 65.85 67.02 68.13 66.44 67.24 69.15 70.46 69.30 69.83 70.29 70.94 72.78 72.88 73.21 73.31 73.08 73.58 74.26 76.01 77.57 77.59 77.31 77.10 76.72 76.46 75.74 72.23 73.05 73.73 75.84 76.88 76.02 75.91 75.83 75.61 75.57 75.81 75.76 75.55
63.38 58.79 59.65 62.30 63.44 62.52 64.63 64.22 65.98 65.22 64.85 65.68 66.47 68.30 68.60 69.05 68.21 67.82 68.28 68.03 68.56 69.57 71.69 72.63 72.56 72.70 73.36 75.42 74.26 73.77 74.77 73.76 73.81 73.71 73.00 72.00 71.71 71.83 73.78 75.09 76.52 75.97 75.88 75.86 75.97 75.75 75.46 74.34 72.11
63.33 58.74 63.30 63.64 65.02 65.24 64.52 64.70 66.20 64.05 63.06 66.27 64.84 65.83 66.78 66.91 66.95 67.76 68.05 68.13 68.27 69.26 71.44 71.97 72.55 73.09 72.67 73.61 73.38 73.13 73.28 73.63 72.88 72.49 71.88 71.80 71.83 72.08 71.99 72.38 72.81 71.94 74.59 72.53 73.43 71.76 71.78 70.89 71.92
57.98 62.03 62.58 64.94 66.43 65.54 62.49 65.12 63.47 65.56 65.67 68.18 68.50 67.57 67.00 65.46 65.97 66.32 66.79 67.70 68.57 69.04 70.09 71.62 72.75 71.99 71.55 73.22 73.14 72.65 72.73 72.62 71.67 71.37 71.99 71.52 70.22 69.24 70.90 71.34 71.95 71.27 71.87 70.95 71.24 71.35 72.26 72.03 71.47
58.38 59.96 62.57 65.77 66.18 66.02 65.47 63.62 63.92 63.61 67.30 69.14 68.66 67.87 66.57 65.93 66.47 67.01 67.54 68.20 69.46 68.95 69.21 71.16 71.94 70.97 71.35 72.75 72.14 72.37 71.79 72.09 71.06 71.18 71.87 71.89 69.95 69.19 71.15 71.21 70.78 70.70 71.42 70.45 68.58 69.61 70.55 70.53 69.90
59.67 59.56 59.97 65.05 65.35 65.24 63.39 63.48 64.01 63.19 66.98 67.81 68.44 66.51 66.94 65.94 66.58 66.36 66.06 65.99 68.59 69.20 69.22 70.56 70.93 70.82 71.92 71.34 70.90 70.08 70.78 71.72 71.08 70.21 71.04 70.88 71.33 70.05 71.07 70.34 70.36 70.41 70.45 70.82 69.85 70.38 70.88 70.24 69.95
57.90 52.32 56.23 63.36 64.17 63.96 65.57 61.33 61.69 65.70 68.27 67.36 66.49 66.45 66.79 65.48 66.72 65.70 65.90 65.12 68.22 69.35 69.47 70.17 70.58 71.69 71.32 69.77 70.89 69.51 70.27 71.40 70.39 70.06 68.69 71.24 71.38 70.89 71.91 69.60 70.08 69.93 70.18 70.98 69.12 70.44 70.96 69.35 69.39
51.53 48.54 45.30 61.19 63.23 64.06 63.61 56.97 62.59 65.68 65.95 65.68 66.42 66.21 66.12 65.11 65.80 67.09 67.64 67.56 69.20 68.64 69.43 70.22 72.38 71.59 70.01 70.46 70.30 71.62 71.54 71.11 70.48 71.03 70.79 72.63 71.60 71.22 71.17 70.42 70.75 71.22 71.59 70.20 68.44 69.87 68.22 68.33 68.72
46.84 42.85 45.52 49.99 63.58 62.15 61.59 57.93 62.52 66.39 65.81 64.70 66.02 65.45 65.79 64.58 65.16 67.82 67.28 68.09 68.56 69.51 69.37 68.82 70.11 70.88 69.99 72.03 70.00 70.85 71.12 71.20 71.41 71.29 71.69 73.23 72.76 73.04 69.44 69.69 70.19 71.89 70.23 68.50 68.16 68.70 69.01 67.53 67.53
42.90 42.87 44.90 46.39 57.59 61.00 59.83 60.12 61.42 64.45 65.88 65.35 65.80 65.28 64.92 64.58 65.21 66.95 67.39 68.63 68.81 69.51 69.12 69.73 70.87 69.58 69.64 70.72 69.83 68.64 70.13 70.46 70.98 70.95 71.89 73.37 72.94 71.42 70.89 68.81 69.89 69.98 68.75 69.24 70.12 66.11 67.83 67.24 66.93
47.31 46.14 46.15 49.85 52.49 59.04 59.06 60.15 60.55 63.62 62.77 63.75 64.05 65.15 65.14 64.76 67.12 67.09 67.11 68.62 68.51 68.78 67.87 68.63 69.04 68.19 70.23 69.12 69.26 68.54 68.74 70.37 71.79 71.70 72.75 73.23 73.20 73.36 71.89 71.80 71.19 70.19 68.17 69.01 69.31 68.08 68.97 66.95 66.93
48.36 46.03 45.78 49.19 54.06 56.55 59.22 59.21 60.34 63.05 61.53 63.20 63.94 64.21 65.31 66.04 66.54 66.19 66.81 68.19 68.33 67.70 68.18 68.51 69.41 68.68 70.88 69.84 69.90 69.72 69.68 69.82 71.47 72.15 73.45 73.60 73.43 73.67 72.56 71.61 71.40 70.54 67.82 70.04 68.01 66.64 66.47 67.94 65.99
47.30 44.45 46.66 46.26 55.50 60.44 58.24 56.98 59.72 61.87 61.71 64.14 65.64 66.27 66.27 66.00 64.76 65.64 66.45 67.33 67.76 67.05 67.79 68.93 69.55 69.18 70.89 70.31 70.62 71.33 70.32 69.06 69.77 70.89 70.74 73.81 73.59 74.07 72.72 72.53 71.98 70.35 69.86 69.49 68.80 68.47 68.45 65.88 66.80
40.78 48.20 48.72 47.52 43.59 46.48 57.83 49.21 55.55 57.03 57.89 62.96 64.54 65.04 64.48 65.32 66.38 65.60 65.74 66.55 66.99 67.06 68.25 69.67 70.24 69.51 70.63 70.07 69.54 70.05 68.59 66.82 67.51 70.40 71.59 72.47 74.02 73.50 74.07 73.23 72.26 71.10 70.37 70.33 69.86 72.06 68.68 66.24 64.82
47.05 50.02 47.32 47.09 42.18 40.13 46.11 44.47 49.95 56.86 56.44 60.54 63.56 64.33 65.08 66.02 66.49 65.31 65.59 66.85 67.81 68.04 67.90 70.61 70.30 69.99 70.65 70.29 69.21 69.75 68.88 68.85 68.82 70.47 70.93 71.99 73.28 73.05 73.75 73.74 72.73 71.06 70.31 70.71 70.82 70.12 70.64 69.84 68.81
50.75 46.80 44.24 41.92 39.97 34.97 39.14 39.48 42.17 53.68 56.37 60.07 62.88 62.80 64.89 65.91 66.41 66.52 66.47 67.11 67.37 68.76 68.93 70.86 70.04 69.63 70.55 70.65 69.03 68.96 69.49 69.41 69.31 69.13 70.38 71.38 72.97 72.79 73.08 73.20 73.18 71.91 71.05 71.44 71.56 71.44 70.77 70.19 70.50
46.16 39.36 33.67 33.73 33.18 33.94 38.29 38.60 40.39 56.50 59.33 60.28 62.72 63.67 65.46 66.12 65.92 65.89 65.45 66.04 66.82 67.31 68.38 70.57 70.12 69.09 69.80 70.34 70.81 69.03 69.62 69.53 69.56 69.70 70.97 71.27 72.41 72.24 73.10 72.48 72.80 71.88 71.98 72.33 72.00 72.08 72.21 70.47 70.65
42.37 39.97 34.57 29.97 30.59 34.46 40.83 36.03 42.64 51.49 60.33 61.90 64.17 63.67 63.78 64.51 64.70 66.17 65.89 65.99 66.99 67.28 67.68 69.86 70.02 69.43 69.62 69.96 69.58 70.89 70.00 69.41 70.07 70.87 71.51 72.12 72.89 73.08 73.24 73.25 73.12 73.28 72.42 72.89 72.64 71.46 71.95 71.52 71.76
40.95 38.79 41.80 36.23 34.30 34.36 37.14 41.98 47.32 49.23 56.33 59.74 60.68 62.12 63.14 64.59 63.99 66.75 66.39 66.79 67.41 67.61 67.55 68.41 70.24 69.75 69.68 69.59 69.71 69.70 71.24 70.58 69.44 70.77 71.13 72.06 72.36 72.45 72.94 73.43 72.97 73.12 73.59 72.22 72.30 71.85 71.77 72.22 71.37
40.07 43.47 37.22 35.18 29.85 29.00 35.37 37.42 39.88 47.52 52.43 58.80 58.61 61.10 62.57 63.74 65.70 67.25 66.73 66.77 67.31 68.48 68.38 68.67 69.73 70.20 70.46 69.95 69.55 69.69 70.23 71.40 69.46 70.19 69.95 71.44 71.15 71.94 72.32 74.05 73.30 72.82 73.17 72.91 72.00 71.24 71.82 71.99 71.13
37.97 36.35 36.34 35.90 35.64 31.34 30.63 35.97 44.80 49.36 51.89 54.11 58.80 61.50 61.42 64.20 65.30 66.19 66.78 67.37 67.18 68.51 69.04 68.85 68.84 69.43 70.63 70.98 70.37 69.23 69.64 70.36 70.80 69.44 69.73 70.71 70.28 71.74 71.84 73.95 73.40 73.10 73.16 72.19 72.44 70.99 70.94 71.77 71.10
40.06 36.07 33.81 31.12 32.40 33.94 35.03 37.12 50.61 51.39 52.10 54.32 59.48 60.85 62.62 64.97 65.48 66.31 67.02 66.90 66.71 66.81 68.61 68.80 69.57 69.38 69.68 71.24 70.94 69.98 69.01 69.77 70.61 70.72 69.53 69.65 70.30 71.65 72.95 73.77 73.87 73.43 73.47 73.15 72.67 71.65 72.12 72.00 71.16

GFSSGP_sfc_wetblb_069.txt.gz
Wetbulb
73.38 72.18 70.95 66.27 56.37 56.69 53.41 57.68 61.48 61.03 61.30 63.15 62.90 62.19 60.91 63.15 60.74 53.14 67.60 70.76 70.70 71.70 74.26 75.66 77.27 76.86 77.09 77.30 76.87 76.62 75.77 76.76 76.59 76.41 76.43 75.99 76.26 75.87 76.03 75.65 75.52 76.11 76.41 76.27 76.43 76.88 76.92 77.26 76.90
71.83 70.77 68.15 64.94 54.98 53.45 54.27 58.94 59.25 62.26 64.70 63.70 65.07 64.80 63.45 60.97 65.56 66.02 67.81 71.70 72.06 73.26 74.00 75.11 77.20 77.63 77.35 77.23 76.99 76.45 76.27 77.09 76.45 76.74 76.54 76.21 76.71 76.14 75.83 76.15 76.01 75.72 76.10 76.29 76.44 76.44 76.88 76.63 76.36
71.48 70.43 64.56 61.03 56.93 53.93 54.18 59.45 61.90 64.23 66.03 65.10 64.00 66.02 64.38 62.55 66.20 66.77 70.62 71.95 72.86 73.42 74.05 74.75 77.13 77.52 77.17 77.06 77.02 76.72 76.46 77.06 76.29 76.84 76.19 76.28 76.40 76.60 76.23 76.36 75.87 75.91 75.93 75.91 76.21 76.29 76.57 76.24 75.98
67.84 67.01 64.60 58.00 56.17 58.16 58.21 60.33 62.42 62.88 65.38 65.52 65.04 61.58 66.05 68.25 66.80 69.59 71.81 72.78 73.12 73.42 73.90 76.36 76.96 76.82 77.09 77.13 77.06 76.95 76.71 76.64 76.52 76.68 76.39 76.28 76.27 75.65 76.19 75.62 75.72 75.87 75.81 76.08 75.97 75.86 76.08 76.42 76.03
68.92 64.14 58.77 57.59 57.94 59.17 61.21 62.25 62.73 62.67 63.74 64.07 64.51 61.22 62.66 67.79 71.25 71.75 72.05 72.97 72.27 72.77 74.35 75.26 77.51 77.09 77.40 77.15 77.04 76.87 76.75 76.57 76.54 76.13 76.17 75.94 76.38 76.16 76.09 75.95 75.48 75.29 75.31 75.40 75.40 75.75 76.13 76.11 75.90
62.81 63.76 56.59 55.32 58.28 60.41 62.66 65.00 64.51 64.31 64.34 64.24 62.90 62.51 62.99 70.23 70.29 71.51 72.47 72.29 73.41 73.84 74.56 75.26 77.26 76.99 76.78 76.88 77.11 76.91 76.67 76.66 76.49 76.39 76.45 76.14 75.92 76.12 75.83 75.79 75.70 75.54 75.18 75.15 75.45 75.59 75.63 75.96 76.17
60.47 60.22 55.79 58.21 57.31 59.02 63.09 66.55 63.46 62.86 63.19 63.02 65.46 60.41 65.50 67.98 70.66 71.93 72.20 72.86 73.88 74.60 74.18 74.43 74.92 76.22 76.94 77.06 76.92 77.12 76.76 76.83 76.49 76.20 76.24 76.24 76.15 75.86 76.20 75.81 75.90 75.53 75.32 75.12 75.18 75.19 75.38 75.75 75.81
63.83 62.72 58.16 57.96 57.46 58.81 64.39 65.28 66.33 64.63 63.53 67.20 66.24 60.58 62.33 67.17 71.21 71.70 71.67 72.43 73.12 73.49 73.68 73.16 73.94 74.39 74.42 74.78 77.08 77.05 76.88 77.06 76.50 76.48 76.06 76.08 75.82 76.15 76.28 76.51 76.52 75.70 75.37 75.43 75.53 75.25 75.33 75.01 75.61
67.32 59.26 55.40 57.37 58.37 60.54 64.75 63.31 66.79 68.60 64.65 64.84 67.73 65.03 66.77 69.86 70.77 69.82 70.39 70.76 72.21 72.74 72.36 72.63 72.89 73.23 73.75 74.09 75.35 76.58 76.91 76.51 76.36 75.91 76.32 74.72 71.51 72.94 73.80 75.63 76.09 75.84 75.57 75.40 75.40 75.15 75.29 75.31 75.37
63.26 58.62 58.50 62.07 63.16 62.26 64.36 64.44 65.34 64.14 64.33 64.90 64.43 66.67 68.70 69.42 68.78 67.78 67.87 67.99 69.49 70.78 71.94 72.07 72.29 72.58 73.34 75.19 74.13 73.70 74.33 73.93 73.77 73.05 71.62 71.49 71.48 71.44 73.36 74.83 75.98 75.59 75.73 75.79 75.83 75.46 75.56 73.93 71.46
62.80 58.25 62.14 62.68 64.93 65.73 64.43 64.76 65.82 63.78 62.13 64.45 62.95 64.88 67.14 67.40 67.74 67.30 67.58 68.39 69.32 70.79 72.42 71.57 71.84 72.46 72.66 73.20 72.91 72.62 73.07 72.99 72.66 72.08 71.27 71.39 71.37 72.09 72.02 72.13 71.81 71.76 74.13 72.32 72.54 72.37 71.10 70.75 71.54
58.35 61.92 63.55 63.85 66.49 65.15 63.92 65.24 64.14 64.93 65.59 67.33 67.33 66.83 66.54 66.03 66.73 66.98 66.63 67.10 67.93 69.66 70.70 71.75 72.10 71.89 71.55 72.84 72.26 71.89 72.45 72.58 71.25 71.01 70.79 70.40 69.95 69.95 70.28 70.73 70.83 70.93 71.07 70.42 70.52 69.89 71.05 71.20 70.53
58.76 60.15 60.43 61.79 65.79 65.36 64.63 63.23 64.06 64.83 68.05 68.93 67.87 66.82 65.93 66.03 67.01 67.93 67.85 67.71 67.86 68.73 70.15 71.05 71.91 70.74 71.27 71.93 71.58 71.71 71.44 72.08 71.39 70.55 71.52 70.45 69.11 68.84 69.88 70.64 70.84 70.25 70.95 70.04 69.23 68.96 69.76 69.65 69.91
59.06 59.09 58.79 58.66 64.25 64.51 63.09 62.97 63.74 64.59 67.40 67.78 68.11 65.46 65.30 66.12 66.21 67.24 67.37 67.40 67.77 68.37 69.11 70.74 70.85 70.12 71.13 71.12 70.86 71.12 71.22 71.80 70.72 70.46 71.14 70.76 69.31 69.38 70.42 70.05 69.82 69.91 69.53 70.72 69.25 68.89 69.48 69.89 69.69
58.48 55.01 53.92 62.55 63.34 63.57 64.59 60.40 61.39 64.71 65.89 66.40 66.47 65.47 65.47 65.85 66.68 66.02 66.81 67.70 68.49 68.43 68.67 70.01 69.98 70.27 70.88 71.23 71.18 70.55 70.44 71.27 70.17 70.19 69.77 70.73 70.27 69.73 70.24 69.56 68.93 69.06 69.22 70.11 69.52 68.95 70.16 69.99 68.93
49.86 47.49 43.80 60.98 63.03 63.94 63.34 57.10 62.25 66.25 64.64 64.01 65.61 65.63 65.76 65.48 66.20 66.16 66.57 68.23 68.85 68.45 68.42 69.57 71.79 70.67 70.62 70.04 70.37 69.75 69.70 70.35 69.88 69.66 68.57 71.67 71.19 71.11 70.90 68.75 69.33 70.17 70.24 69.87 69.26 68.24 68.71 67.88 67.33
45.79 42.01 43.93 55.35 62.01 62.55 60.83 57.67 62.76 65.93 65.91 64.40 64.70 65.25 65.52 64.76 66.07 65.61 65.54 67.45 68.39 68.48 68.73 69.13 70.29 70.26 69.96 69.96 69.88 70.57 69.66 70.21 69.78 70.21 70.26 71.48 71.36 71.49 70.94 69.49 69.82 70.31 70.13 69.49 67.06 68.40 67.22 66.89 67.08
41.93 41.88 42.76 44.99 58.58 60.20 58.88 58.05 62.23 64.68 65.13 64.94 64.90 64.79 65.15 63.93 64.96 65.93 65.78 67.63 68.78 68.74 69.11 69.43 69.99 69.96 69.53 70.65 68.53 69.36 70.69 69.40 70.04 70.46 70.86 72.59 71.87 71.83 68.64 69.32 69.94 69.80 68.33 68.09 68.19 66.34 66.83 66.65 66.67
46.19 44.33 44.02 47.81 51.99 57.96 57.42 58.47 59.83 63.02 64.12 64.35 64.31 63.91 64.36 64.37 65.68 66.69 66.34 68.29 68.09 68.73 68.56 68.84 69.46 68.36 69.74 68.48 67.64 67.45 68.29 68.95 69.55 70.12 71.59 71.96 71.93 71.09 69.54 68.75 69.57 69.02 68.05 68.83 68.09 66.49 66.69 65.57 65.59
46.55 44.22 43.99 48.00 52.95 52.84 54.97 58.12 59.63 62.50 63.58 64.16 64.35 63.86 63.92 64.51 64.02 65.32 65.95 67.53 67.51 68.12 68.36 68.91 69.28 67.79 69.35 69.00 68.99 68.69 68.68 69.70 70.48 70.80 71.49 71.65 72.59 72.36 71.49 71.05 70.97 67.95 67.67 67.92 67.04 65.63 66.63 65.97 65.46
44.28 41.96 44.17 45.35 52.35 58.42 57.71 55.68 57.69 61.11 62.49 62.80 64.32 65.67 65.27 64.56 64.07 64.36 65.29 66.45 67.08 67.31 67.33 68.88 68.80 68.03 69.31 68.87 69.74 69.43 68.76 68.83 69.95 70.21 70.89 72.77 72.07 72.86 72.23 71.27 71.28 70.16 68.09 67.67 66.12 67.00 66.68 64.11 65.57
40.52 47.88 48.83 46.72 41.94 38.50 54.54 45.38 57.04 59.07 60.16 60.40 62.58 64.91 64.54 65.11 65.38 64.66 64.95 65.91 66.57 66.98 67.80 68.95 68.87 68.01 69.32 69.01 69.35 68.76 67.96 66.53 67.75 69.96 69.74 72.22 73.09 73.04 71.82 71.99 71.00 70.22 69.60 69.33 69.26 70.29 67.37 64.91 63.76
46.42 49.99 46.56 45.88 40.80 43.66 46.84 42.27 48.60 57.47 56.53 58.69 61.82 64.07 65.26 65.17 66.53 64.50 65.00 66.09 67.08 67.44 67.83 68.19 68.56 68.16 69.52 69.20 69.40 69.29 67.88 67.31 67.55 69.53 69.58 70.73 72.28 72.70 73.45 72.39 71.23 70.46 69.60 69.65 69.62 69.79 69.15 68.53 66.67
50.47 45.42 42.14 39.59 37.73 33.94 38.36 38.42 42.40 53.96 55.82 58.33 61.10 63.97 65.18 65.83 66.02 65.40 66.20 66.80 66.71 67.34 68.05 68.54 68.47 68.16 69.10 69.33 68.20 68.75 68.76 68.42 67.68 67.59 68.84 69.87 71.12 71.96 71.89 72.98 71.83 70.79 69.85 70.07 70.04 69.81 69.86 69.52 69.48
43.71 38.34 32.76 32.32 32.29 33.08 36.00 37.41 40.02 53.70 59.02 59.12 60.05 63.31 65.25 65.93 65.75 65.07 64.54 65.61 65.90 66.10 66.84 68.71 68.54 67.82 68.84 69.20 68.40 68.07 68.99 68.64 68.52 67.95 69.01 69.82 70.60 71.23 71.77 71.67 71.85 70.91 70.51 70.58 70.98 70.90 70.28 69.43 69.68
40.27 38.92 33.36 28.86 29.53 34.08 37.57 35.78 41.21 47.22 54.02 60.58 62.24 63.49 65.45 64.91 65.46 66.04 64.90 65.58 66.04 66.32 66.63 68.65 68.47 68.04 68.64 68.98 68.98 68.15 68.13 69.27 69.23 69.37 68.93 70.43 71.26 72.31 72.19 72.04 71.80 71.75 71.17 71.49 71.09 70.96 71.20 70.98 70.31
38.83 36.32 38.61 33.60 31.08 33.39 35.38 39.99 45.18 51.69 53.77 57.67 60.19 62.50 63.80 64.24 64.90 66.18 65.22 65.38 66.20 66.67 66.76 68.12 68.56 68.43 68.63 69.12 69.15 69.33 68.66 68.23 68.80 70.03 69.48 70.73 71.06 72.42 72.02 72.78 71.95 72.29 71.93 71.51 71.29 70.89 70.27 70.88 70.16
39.17 40.07 35.03 34.28 29.03 28.12 33.44 35.19 37.98 46.50 49.33 56.85 57.15 60.64 63.03 64.54 63.95 65.03 65.84 65.32 66.46 66.90 67.46 68.43 69.11 68.66 68.90 69.16 69.40 69.20 70.07 70.29 68.71 69.02 70.20 70.08 70.61 71.07 71.71 72.72 71.63 72.02 72.42 72.07 70.90 70.64 70.83 70.77 70.78
36.09 33.71 32.25 32.96 32.56 29.52 29.47 34.10 45.80 47.49 49.37 50.71 55.70 59.02 60.72 62.36 63.68 64.54 65.93 66.01 66.56 67.30 67.20 67.50 68.82 68.76 68.80 68.91 69.23 68.99 68.71 69.29 69.74 68.97 69.31 70.37 70.82 70.89 70.92 72.42 72.44 71.99 71.91 72.17 71.18 70.47 70.51 70.63 70.41
38.06 33.65 30.42 28.15 28.53 30.65 32.06 35.18 45.94 46.48 50.54 56.77 58.77 60.47 61.06 63.11 64.02 65.31 65.77 65.65 65.78 66.34 66.95 66.71 67.88 68.94 69.00 69.24 69.06 68.67 68.57 68.62 69.69 69.59 68.88 68.75 69.42 69.99 71.05 71.26 72.62 72.30 72.19 71.70 71.35 71.04 71.20 69.97 70.13

GFSSGP_sfc_wetblb_072.txt.gz
Wetbulb
72.85 71.69 70.26 65.77 55.95 56.07 52.87 56.52 61.15 60.34 60.46 62.32 62.01 60.39 59.16 61.68 59.66 52.43 66.38 68.96 68.92 71.08 73.65 75.24 77.05 77.01 77.27 76.47 76.33 75.63 76.69 76.68 76.53 76.43 76.09 75.82 75.66 76.69 76.16 75.38 76.40 76.41 76.37 76.54 76.66 76.66 76.69 76.88 76.67
71.46 70.71 67.62 64.58 54.13 52.61 54.54 59.61 59.57 61.92 63.96 61.95 62.53 63.93 62.48 60.49 65.19 64.98 67.45 68.92 69.83 72.70 73.78 75.03 77.19 77.48 77.15 76.82 76.45 75.88 76.45 76.58 76.43 76.48 76.30 76.61 75.83 75.63 76.33 76.04 75.55 75.95 76.29 76.19 76.20 76.54 76.64 76.77 76.47
71.37 70.39 64.70 61.12 56.53 53.39 53.85 59.31 61.33 63.48 63.88 62.79 63.24 65.39 63.98 61.63 65.46 65.94 69.38 69.37 72.09 73.14 73.84 74.49 76.96 77.53 76.94 76.81 76.49 76.29 76.62 76.26 76.37 76.44 76.29 76.66 76.49 76.10 76.15 75.91 75.71 75.41 75.82 76.13 76.27 76.07 76.57 76.33 75.81
67.66 66.15 63.68 57.77 55.81 59.06 58.30 60.70 63.04 63.13 65.21 65.84 64.96 61.60 65.25 67.77 65.67 69.17 70.73 71.49 72.30 73.20 73.84 76.47 77.11 77.03 77.19 76.97 76.58 76.57 76.70 76.07 76.03 76.11 76.08 76.04 75.72 76.20 75.86 75.94 75.59 75.78 75.54 75.85 75.93 76.33 75.55 75.94 76.33
68.41 63.75 58.39 57.15 57.75 59.53 60.81 62.32 63.18 62.67 63.39 63.92 64.37 60.92 62.22 68.26 70.25 70.65 70.95 71.99 72.15 72.56 73.80 74.86 77.33 77.24 77.23 77.03 76.83 76.41 76.36 76.15 76.16 76.07 75.89 75.75 75.67 75.84 75.64 75.53 75.75 75.46 75.36 75.75 75.73 76.16 75.89 76.23 76.11
62.33 63.09 56.57 54.58 57.65 60.68 62.84 63.43 63.08 63.43 63.92 63.57 62.01 61.99 63.84 69.36 69.37 70.53 71.61 71.66 72.79 73.24 73.86 74.65 76.57 77.23 77.05 76.97 76.92 76.19 76.32 75.93 76.00 75.67 75.98 75.72 75.83 75.54 75.39 75.34 75.09 74.89 75.31 75.70 76.02 75.63 75.79 76.25 76.47
59.89 59.78 55.69 57.43 57.19 57.88 62.12 65.95 63.90 63.08 63.16 62.58 65.06 61.08 65.88 67.85 70.30 71.23 71.63 72.49 73.37 74.38 74.31 74.43 74.66 75.41 76.76 76.71 76.25 76.33 76.44 76.05 75.90 76.21 75.94 75.41 75.61 75.59 75.78 75.52 75.59 75.17 75.25 75.45 75.52 75.73 76.10 76.29 76.23
63.34 62.56 58.12 58.61 57.43 57.32 63.37 64.57 65.53 64.34 62.71 66.77 66.61 61.03 62.97 67.50 70.85 71.47 72.27 72.65 73.05 73.47 73.77 73.74 74.02 73.91 74.22 74.77 76.56 76.68 76.57 76.49 75.90 75.83 75.79 75.75 75.28 75.14 75.65 75.50 76.30 75.34 75.34 75.51 75.61 75.83 75.41 76.13 76.43
67.16 59.50 56.06 57.44 57.96 60.39 64.88 62.69 66.58 67.84 63.52 65.77 67.16 65.46 67.55 70.62 70.97 70.45 70.73 71.05 71.77 72.68 72.33 72.83 73.26 73.47 73.91 74.17 75.33 76.33 76.95 76.21 76.02 75.58 75.56 74.16 73.16 74.27 74.38 75.40 75.78 75.45 75.31 75.39 75.53 75.53 75.53 75.84 75.84
62.86 57.53 56.79 62.12 62.23 61.94 64.36 64.07 64.65 63.51 62.82 62.88 64.50 67.65 69.65 70.10 69.03 67.72 67.32 67.01 68.47 70.47 72.12 72.34 72.70 73.02 73.72 75.31 73.69 73.74 74.55 74.17 74.18 73.27 72.29 72.39 72.75 72.84 73.93 75.17 75.73 75.45 75.17 74.98 74.81 75.12 75.58 73.70 72.82
63.53 57.91 61.25 62.46 64.99 65.39 64.00 64.13 66.32 63.64 62.32 63.37 63.18 65.84 67.61 67.62 67.39 67.14 66.43 66.70 68.46 70.41 72.43 71.87 72.12 72.76 73.20 73.54 73.19 73.33 73.24 73.33 73.02 72.20 71.88 72.17 72.08 72.88 72.98 72.82 72.62 73.28 74.57 74.37 73.31 72.68 72.45 72.11 72.72
58.74 61.97 62.30 63.36 65.47 64.82 63.72 65.08 64.08 64.84 65.01 65.87 66.30 67.50 67.47 66.72 66.75 66.68 66.78 67.80 68.73 69.54 71.64 71.66 72.20 72.38 72.44 73.20 72.90 72.64 72.79 72.74 71.83 72.04 72.15 71.71 71.31 71.76 72.18 71.94 72.54 72.55 72.21 72.05 72.15 71.73 72.53 72.60 71.81
59.37 60.06 60.55 61.12 64.73 65.56 65.91 63.94 63.94 64.88 66.34 67.17 67.19 67.20 66.68 66.82 66.61 67.35 67.58 68.37 69.14 69.45 70.69 71.23 71.93 71.51 72.05 72.37 72.01 72.35 72.33 72.52 71.74 71.65 72.07 71.72 70.90 70.92 71.32 71.77 72.24 71.76 72.49 71.79 70.34 71.46 71.18 71.23 71.25
58.89 58.88 58.54 57.66 61.57 63.91 62.32 63.25 64.41 66.07 66.85 66.28 66.35 65.47 66.26 66.81 66.68 66.69 66.32 66.43 67.68 69.25 69.76 70.81 71.25 70.95 71.44 71.67 71.48 71.50 72.08 72.62 72.18 71.69 72.03 71.73 70.73 70.65 71.50 71.67 71.47 71.97 71.40 72.15 71.14 71.07 71.04 71.58 70.86
56.61 52.13 54.12 62.14 62.42 61.96 64.33 60.52 60.87 66.10 67.61 66.52 65.88 65.46 65.82 66.39 67.54 66.45 67.08 66.52 67.53 68.48 69.79 70.29 70.46 70.45 70.84 71.48 71.45 71.39 71.70 72.21 71.81 71.35 71.65 71.92 71.07 70.78 71.69 71.37 71.10 71.27 71.58 71.99 71.67 71.00 71.66 71.25 70.45
48.49 46.76 43.60 59.76 62.02 63.01 62.37 56.86 62.47 65.96 65.25 65.30 65.29 64.63 64.92 66.11 66.91 67.50 67.48 67.59 67.61 67.76 68.76 70.27 72.00 70.32 70.67 71.03 71.29 71.19 71.30 71.53 71.41 71.18 70.58 71.72 71.89 71.64 71.83 71.07 71.01 71.27 71.58 71.60 71.52 70.05 70.87 70.02 69.83
45.27 41.41 42.65 53.56 62.60 62.09 60.10 56.59 62.45 66.15 64.27 64.25 64.98 63.84 63.73 65.18 66.14 66.86 67.67 68.14 68.06 67.83 68.67 69.56 70.31 69.87 70.33 70.77 70.91 70.61 70.64 70.75 71.00 71.03 70.12 71.77 72.65 72.33 71.69 70.77 71.49 72.22 72.42 71.40 70.16 70.31 70.13 69.38 69.51
41.71 41.25 41.58 43.62 58.40 60.19 58.42 57.10 61.72 65.19 65.21 63.51 63.74 63.00 63.23 63.88 65.32 65.96 66.65 68.54 68.60 68.21 68.75 69.98 70.16 70.00 69.91 70.52 70.17 70.48 70.62 70.59 70.61 70.96 71.03 72.34 72.32 72.08 71.73 71.14 71.85 72.40 71.04 70.18 69.92 70.18 69.35 69.65 69.38
45.62 43.94 42.98 46.26 52.83 56.84 56.62 56.39 60.32 63.26 64.70 63.86 62.97 63.09 63.14 63.66 66.17 65.76 65.69 67.97 68.24 67.97 67.94 68.86 69.38 69.38 69.68 69.21 68.10 68.73 69.18 69.44 70.44 70.91 72.30 73.25 72.75 72.57 70.39 70.98 71.36 71.18 70.73 70.91 70.68 69.48 70.05 68.58 68.70
45.43 43.24 42.71 47.21 49.24 51.12 51.47 55.19 59.31 62.58 63.38 64.52 64.09 63.29 63.34 63.39 64.33 64.67 64.56 65.97 67.44 67.54 68.14 68.22 69.32 68.65 69.96 70.20 69.02 69.61 69.65 70.66 71.14 71.36 72.44 73.24 73.17 72.00 71.36 70.87 72.30 70.62 70.55 70.62 70.31 70.15 69.15 68.44 68.43
42.66 41.68 43.00 45.78 46.55 57.53 56.56 55.41 56.77 60.14 63.42 62.57 64.17 65.25 64.44 64.10 62.92 63.94 64.02 65.53 67.15 67.39 67.75 67.96 69.21 68.71 70.02 69.70 69.44 69.42 69.64 70.35 70.84 71.32 71.63 73.02 73.30 73.47 72.50 72.62 72.64 70.47 71.04 69.76 69.46 69.77 69.78 67.59 67.94
37.12 47.41 48.49 48.43 41.51 38.11 53.67 45.15 53.28 57.37 59.36 60.59 61.62 63.82 64.54 64.13 63.99 63.97 64.30 65.32 66.29 67.43 68.45 68.75 69.10 68.63 69.48 69.53 69.54 69.01 68.15 68.30 69.95 70.72 71.66 72.99 73.44 73.64 73.89 72.43 72.26 71.84 70.84 70.95 70.56 71.53 70.47 69.05 67.77
45.41 48.34 47.21 46.36 40.14 43.01 45.01 41.93 46.15 56.46 55.27 58.31 60.95 62.56 64.42 65.06 64.72 63.42 64.42 65.80 66.81 68.08 67.87 68.92 69.16 68.55 69.40 69.42 70.07 69.00 68.32 69.01 69.46 70.87 71.05 71.95 73.56 73.88 73.42 73.10 72.58 72.02 71.45 72.10 72.47 72.16 71.30 70.97 68.57
49.20 43.47 40.42 39.21 36.56 33.36 38.21 38.84 38.42 51.00 54.40 56.70 60.61 62.64 63.90 65.54 65.52 64.97 65.52 66.43 66.41 67.91 67.97 68.51 68.46 68.13 69.10 69.42 69.01 69.01 68.70 68.35 68.21 69.36 70.18 70.71 72.12 73.19 73.61 73.83 73.55 72.78 72.08 71.86 71.97 72.48 72.41 72.47 72.04
42.98 37.83 31.29 31.37 31.71 32.66 34.51 37.20 39.34 45.29 51.57 54.89 58.86 62.18 64.15 65.33 65.90 65.38 64.15 64.98 65.87 66.34 67.19 67.65 68.18 67.59 68.33 69.11 68.70 69.19 69.17 69.25 68.86 68.73 69.78 70.40 71.25 72.24 73.00 73.32 73.55 72.13 72.44 72.56 72.71 72.63 72.64 71.88 71.96
39.03 38.29 32.60 28.45 28.82 33.16 36.75 34.85 41.85 49.59 53.06 57.96 59.65 62.50 64.55 64.80 65.71 66.17 64.56 65.22 65.81 66.29 66.73 67.45 67.42 67.58 68.12 69.20 68.77 68.97 69.70 69.86 69.88 69.74 69.83 70.45 71.35 72.28 73.72 73.42 73.27 73.64 72.64 72.62 72.98 72.35 73.01 73.05 72.04
38.33 35.22 37.31 32.34 29.82 32.17 34.50 38.77 44.57 49.70 51.77 54.26 57.73 61.12 62.13 64.72 65.37 65.61 64.43 65.61 65.80 66.22 66.26 67.32 67.51 67.85 68.04 68.87 69.27 68.41 68.67 69.24 69.71 70.53 70.74 70.90 72.14 72.93 73.76 73.89 73.42 73.42 73.14 72.93 72.87 72.37 72.61 73.31 72.80
38.46 38.27 34.90 33.85 29.03 27.89 32.91 35.74 37.41 42.50 45.54 53.49 57.24 58.69 60.06 64.12 64.28 65.15 65.24 65.08 66.14 66.49 66.49 67.72 68.51 68.03 68.31 68.80 69.19 69.25 68.74 68.96 69.48 70.49 70.68 71.04 71.90 72.59 73.51 73.59 73.63 73.47 73.30 73.63 73.24 72.84 72.90 72.71 72.86
34.96 32.60 31.58 32.66 31.32 29.56 28.72 34.52 43.43 42.46 48.86 54.15 55.93 58.31 60.90 61.12 64.12 64.41 65.78 65.02 66.17 66.87 66.75 66.81 68.29 68.34 68.25 68.94 69.29 69.34 69.47 69.51 69.19 69.46 70.70 71.40 71.97 72.25 72.59 73.58 73.83 73.28 72.93 73.38 72.30 72.51 72.90 72.72 72.84
35.84 32.32 29.31 30.85 29.46 28.97 31.31 33.32 48.29 52.92 54.30 54.52 56.20 58.26 60.57 62.34 63.21 64.72 65.73 65.26 65.54 65.63 66.23 66.61 67.65 68.41 68.69 68.86 69.12 68.99 69.13 70.05 70.15 69.38 69.93 70.93 71.50 72.03 72.49 72.77 73.68 73.75 73.52 73.35 73.45 72.95 73.07 72.16 71.93

GFSSGP_sfc_wetblb_078.txt.gz
Wetbulb
73.83 73.46 73.79 71.12 62.47 60.96 56.33 57.63 62.58 62.22 63.42 65.93 66.45 63.89 63.21 64.00 62.86 60.49 71.38 72.55 74.54 74.87 76.06 77.26 77.52 76.97 76.15 76.57 77.41 76.72 77.26 76.51 75.64 75.62 76.31 76.65 75.68 76.43 77.00 76.80 76.92 77.00 77.12 77.12 76.66 77.13 77.01 77.22 76.74
72.96 71.76 72.41 70.21 60.57 55.19 55.78 61.62 60.39 64.09 65.93 66.59 65.82 65.30 64.15 63.70 67.73 68.28 69.58 73.18 74.65 75.02 75.91 76.83 77.58 77.47 76.29 76.49 77.35 76.59 77.28 76.67 77.05 76.74 76.06 76.34 76.28 75.72 76.58 76.59 76.46 76.85 76.96 77.07 76.98 76.98 76.66 76.75 76.91
72.25 72.80 68.85 64.94 61.75 54.83 56.44 61.95 63.50 65.46 65.79 65.82 64.31 68.86 66.65 65.30 68.05 69.09 72.21 73.66 74.73 75.19 75.86 77.64 78.01 77.31 76.62 76.57 77.38 76.59 77.18 76.90 76.30 76.39 76.44 75.87 76.01 76.24 76.38 76.32 76.31 76.79 76.48 76.81 77.08 76.82 76.41 76.54 76.89
71.70 71.34 69.38 62.08 57.51 58.81 59.05 62.88 64.27 64.08 66.19 67.47 67.25 65.09 67.81 70.02 68.98 71.65 73.09 73.88 74.38 75.12 75.95 77.11 77.68 77.38 77.23 76.79 77.31 76.71 77.05 76.72 76.48 76.53 76.60 76.14 76.56 76.45 76.43 76.32 76.40 76.50 76.89 76.87 76.52 76.13 76.22 76.41 76.90
72.80 69.72 62.00 60.80 57.96 59.80 63.33 65.23 65.04 64.76 65.98 66.35 66.95 64.33 64.04 69.29 72.02 72.43 73.05 73.79 74.02 75.04 76.42 77.02 78.13 77.43 77.24 77.07 77.05 76.69 76.95 76.54 76.12 76.21 76.48 75.88 76.38 76.26 76.35 76.30 76.38 76.49 76.60 76.52 76.38 76.53 76.69 77.17 76.86
67.05 69.34 60.21 56.69 57.14 61.46 64.28 65.98 66.54 65.90 67.13 66.53 66.56 66.24 65.55 71.32 70.93 72.20 73.38 74.11 74.94 75.21 76.36 76.90 77.69 77.42 77.33 76.86 76.94 76.74 76.52 76.35 76.21 76.48 76.21 76.17 75.93 75.89 75.64 76.13 76.11 76.33 76.47 76.52 76.36 76.52 76.93 77.00 76.65
65.36 65.29 60.39 59.51 57.97 60.13 62.77 67.35 64.95 65.87 66.21 65.60 68.45 63.86 66.99 68.93 71.26 72.92 73.82 74.52 75.36 75.87 76.06 76.70 77.44 77.89 77.18 77.00 76.70 76.72 76.58 76.41 76.10 76.44 76.39 75.81 76.38 76.27 75.75 75.23 76.22 76.47 76.52 76.27 76.77 76.95 77.02 77.03 76.48
68.63 66.78 60.23 61.54 59.75 58.31 64.28 64.44 66.68 65.90 64.37 68.25 69.92 64.35 64.32 69.22 71.77 72.95 73.74 74.40 75.23 75.64 75.77 76.27 76.87 77.18 77.28 77.11 76.23 76.80 76.45 76.13 76.03 76.24 76.13 76.27 75.77 75.80 75.58 76.66 76.74 76.53 76.35 76.55 76.77 76.65 76.82 76.62 76.09
69.94 63.91 58.53 60.65 59.39 61.04 64.61 62.53 66.35 67.16 65.17 66.75 69.36 68.61 69.22 70.90 71.83 71.86 72.53 73.42 74.11 74.57 74.94 74.93 75.36 76.32 77.29 76.75 77.07 76.66 76.50 76.17 76.25 76.09 75.86 76.62 75.45 75.84 75.36 76.50 76.27 76.55 76.35 76.30 76.60 76.47 76.36 76.57 76.58
66.27 62.41 60.58 64.84 65.72 63.49 63.76 63.89 64.22 63.46 64.35 66.33 67.75 69.25 69.91 70.31 70.71 70.42 71.00 71.58 72.44 73.02 73.97 75.34 76.20 76.37 76.74 75.78 77.04 77.20 76.67 77.06 76.48 76.11 76.72 75.45 75.98 76.41 75.49 76.29 76.16 76.22 76.05 76.05 76.36 76.02 74.70 77.04 75.60
66.49 62.21 64.16 65.91 67.66 67.14 65.36 63.71 66.57 63.88 64.54 67.69 66.91 67.34 68.70 68.99 69.86 70.42 71.08 71.74 71.89 73.17 73.57 75.16 75.92 76.72 76.25 76.44 75.94 75.35 75.77 76.31 76.36 76.85 76.55 75.83 75.21 75.80 74.90 75.47 76.14 76.28 76.46 76.05 76.90 76.44 76.17 76.36 76.03
63.02 65.65 65.08 66.11 67.92 66.96 65.86 66.26 66.30 66.35 66.50 70.00 69.65 68.89 69.13 68.44 69.29 70.02 70.49 71.40 71.93 72.62 73.68 74.92 76.33 76.33 76.23 75.13 75.36 75.23 74.81 74.95 74.78 75.92 76.47 75.99 74.28 74.93 75.27 74.97 75.97 76.24 75.80 76.17 76.93 75.89 76.76 76.76 76.57
63.85 64.63 64.10 64.31 66.31 66.62 68.27 66.05 65.41 63.96 68.02 70.24 69.31 68.81 68.50 69.11 69.69 70.77 71.39 71.70 71.84 71.98 73.76 74.72 75.94 76.53 76.02 75.61 75.77 75.31 74.80 74.36 75.02 75.32 76.20 75.47 74.72 75.27 75.55 75.98 76.07 76.36 77.27 75.83 76.09 76.47 76.74 77.15 76.18
64.75 64.30 62.10 62.29 65.49 67.27 66.06 66.14 65.54 66.32 69.37 67.69 67.52 68.51 69.01 69.22 69.91 70.64 70.69 70.54 71.33 72.28 73.56 74.87 75.39 76.47 76.31 76.21 76.84 75.86 75.69 75.84 75.54 75.38 75.80 76.47 75.13 75.79 75.48 76.00 75.90 76.40 76.94 76.39 76.70 76.62 76.44 75.76 76.02
64.14 60.20 62.19 63.55 63.50 64.99 67.95 64.14 63.79 67.36 68.93 66.65 67.90 68.38 69.04 69.80 70.38 69.84 70.58 70.33 71.70 72.58 74.00 74.42 75.07 75.75 76.02 76.50 76.78 76.07 75.73 76.02 76.01 76.33 77.77 77.39 76.63 77.09 77.71 76.19 77.11 76.48 77.11 77.72 77.56 77.66 76.88 75.04 74.98
60.84 59.75 56.50 63.71 64.63 65.70 66.50 60.41 66.36 67.15 67.28 65.66 67.64 68.23 68.63 68.93 68.94 70.03 70.57 70.93 71.94 72.77 73.76 74.70 74.36 74.75 75.60 76.31 76.57 76.05 76.14 76.65 76.80 76.85 77.03 77.71 77.78 77.51 77.60 77.14 77.07 76.69 77.26 77.43 76.45 77.03 74.40 74.51 74.05
59.57 56.88 55.50 60.83 65.80 65.83 65.12 61.65 64.48 67.47 65.71 65.93 66.22 66.66 66.06 67.24 69.29 70.80 71.00 71.21 71.61 72.91 74.04 74.39 75.03 74.30 74.98 76.41 76.28 76.62 77.48 76.89 77.07 77.33 77.22 77.86 77.65 77.72 78.62 77.97 76.47 77.61 77.29 76.53 76.75 75.41 75.32 73.84 73.42
56.59 56.18 55.23 59.15 64.26 65.44 62.96 62.98 66.37 64.67 64.99 64.44 64.94 66.06 66.19 67.68 69.48 71.77 72.26 71.73 71.56 72.76 73.77 74.69 74.96 75.02 75.33 75.68 76.12 75.71 75.80 76.29 76.89 77.48 76.78 77.30 77.87 77.90 78.12 76.62 77.44 77.57 76.48 75.41 75.69 76.33 75.77 75.03 74.18
59.06 57.24 55.86 58.42 64.91 63.01 61.21 61.40 64.91 66.49 66.16 63.99 64.49 65.79 67.42 67.98 70.69 72.18 72.82 72.87 71.45 72.04 73.05 74.07 74.59 75.39 75.29 74.79 73.88 73.78 73.63 75.15 75.65 76.89 77.39 77.45 77.85 77.70 77.85 76.92 77.25 77.48 77.04 76.40 77.16 75.94 75.53 72.98 75.32
56.74 55.66 54.82 55.24 59.00 58.32 56.42 58.14 64.07 64.78 66.68 67.17 66.77 66.79 68.05 68.82 69.34 71.07 72.16 72.77 71.20 71.13 72.71 73.94 74.90 75.52 75.68 74.80 74.84 75.05 75.29 75.46 76.06 76.77 77.54 77.49 77.58 78.09 77.62 77.58 76.89 77.58 76.18 77.45 77.46 76.69 74.13 73.59 75.00
56.33 56.39 54.58 54.29 55.34 60.41 59.69 59.50 61.82 65.62 65.41 68.05 68.66 69.73 70.06 69.47 69.26 70.74 71.70 72.25 71.61 70.67 72.20 73.85 75.01 75.56 75.52 76.12 76.15 76.59 77.13 77.45 75.58 75.92 76.31 77.08 77.58 77.55 78.03 77.39 77.64 77.60 77.07 74.65 77.04 76.32 75.59 71.66 75.32
53.45 57.59 55.19 53.82 53.20 53.07 59.86 51.58 60.39 63.44 64.13 64.33 66.50 68.75 69.61 70.06 70.59 71.18 71.69 72.02 72.26 71.56 72.39 74.14 75.34 75.62 75.74 76.95 76.29 76.36 74.10 72.81 74.07 75.24 75.88 76.80 77.90 77.55 77.53 77.89 77.86 77.94 76.95 76.88 76.52 76.64 76.63 76.06 71.99
54.03 57.50 55.90 54.39 53.53 52.50 54.42 53.81 57.18 62.89 61.74 62.64 65.10 65.90 66.98 70.22 70.50 70.73 71.41 72.13 72.82 72.95 72.88 73.91 75.45 76.42 76.17 76.75 76.86 75.64 75.34 74.61 75.16 75.23 77.44 78.04 78.41 77.36 77.46 77.70 78.03 77.96 76.89 77.84 77.55 77.35 77.17 75.58 73.49
57.12 55.04 54.88 54.63 53.34 48.08 54.05 53.85 52.84 57.34 58.07 60.73 62.80 67.94 69.02 68.06 70.81 71.30 71.94 72.43 72.50 73.53 73.58 74.13 75.02 75.91 76.79 76.70 76.72 76.63 76.02 75.60 74.35 75.00 75.22 75.59 76.21 76.89 77.77 77.20 77.65 78.07 77.48 77.83 77.11 77.17 77.38 77.00 76.52
55.40 52.29 47.29 46.59 45.89 46.75 54.58 52.31 54.12 57.66 61.75 62.84 62.47 65.19 67.77 70.82 69.95 70.77 71.21 71.41 72.16 72.60 73.31 73.94 74.73 75.14 76.12 76.24 76.63 76.68 76.74 76.66 76.41 77.00 73.48 75.88 75.21 75.73 77.90 78.32 77.13 76.82 78.19 78.26 78.18 78.42 77.11 76.55 74.93
53.36 52.24 47.74 43.07 44.10 47.01 52.35 49.68 51.99 60.84 62.94 64.11 64.96 66.76 65.68 69.92 71.76 70.92 71.51 72.04 72.43 72.73 73.31 73.86 74.22 75.01 75.77 75.93 76.43 77.32 77.54 75.85 75.58 76.08 75.02 74.97 75.21 76.02 78.03 78.62 77.45 77.33 77.71 77.87 78.57 76.08 75.51 76.88 74.98
52.96 50.35 53.67 49.42 50.81 48.48 49.81 52.58 57.35 59.76 60.40 61.72 60.65 62.91 65.15 68.34 71.17 71.60 71.81 72.21 72.65 72.92 73.43 74.04 74.40 75.15 75.52 75.61 76.28 76.51 77.23 76.91 75.79 76.43 76.47 75.66 77.14 76.29 77.58 78.43 77.96 77.61 77.68 77.66 78.26 76.21 76.43 76.80 76.68
52.53 55.03 48.47 49.44 44.42 43.87 47.35 49.30 51.79 54.80 55.78 57.54 57.60 59.34 63.42 68.14 69.74 71.56 72.45 72.26 72.94 73.45 73.87 74.61 74.99 75.05 75.74 75.68 75.87 75.93 76.41 77.01 76.91 76.62 76.12 76.69 76.36 77.62 77.08 78.16 78.32 77.77 78.15 78.46 78.62 77.03 77.26 77.03 76.20
49.12 49.74 50.69 51.36 49.73 46.22 44.68 48.54 56.12 53.95 54.58 55.22 56.39 58.39 61.37 63.57 67.35 68.90 71.04 72.45 73.01 73.58 73.80 73.93 74.54 74.93 75.37 75.58 75.68 75.78 75.92 76.34 76.63 76.02 76.21 76.91 76.91 77.39 77.92 78.54 78.25 77.88 77.65 78.21 78.58 78.13 77.17 77.09 76.79
48.64 48.82 50.80 47.53 47.09 49.15 49.35 48.94 57.37 57.46 55.18 56.27 56.31 57.45 59.56 61.55 62.39 63.86 66.48 70.88 72.75 73.01 73.55 73.67 74.14 73.82 74.83 75.10 75.58 75.36 76.24 76.15 75.58 75.82 76.22 77.07 76.80 77.46 78.08 78.65 78.48 77.33 77.46 78.15 78.60 77.40 76.79 76.57 76.28

GFSSGP_sfc_wetblb_081.txt.gz
Wetbulb
73.99 72.96 74.54 72.10 61.96 60.07 55.72 57.89 64.38 63.82 63.10 66.73 67.29 65.32 64.27 66.85 63.69 60.20 72.26 74.45 74.40 74.32 75.28 76.44 77.24 76.08 76.93 77.23 76.50 76.69 76.11 75.64 75.62 76.02 75.81 75.93 76.66 77.10 77.14 77.09 77.25 77.36 77.29 77.16 76.98 77.06 76.94 76.94 76.95
73.54 71.84 72.76 68.18 60.91 53.68 55.57 61.31 62.19 64.64 66.35 67.68 66.61 65.75 66.17 64.00 69.11 69.17 70.87 74.64 75.14 74.92 74.99 75.40 77.18 76.74 76.68 77.41 76.68 77.21 76.88 76.77 76.27 76.17 76.46 76.45 75.82 76.80 76.93 76.94 77.29 77.32 77.32 77.03 76.88 76.57 77.14 76.95 76.95
74.60 73.12 67.35 64.07 60.76 55.16 57.65 62.10 64.09 65.57 67.03 66.34 66.17 68.42 67.77 64.55 69.03 70.31 73.56 74.57 74.69 74.87 74.73 76.28 77.68 76.66 76.76 77.02 76.56 76.66 77.02 76.60 76.60 76.46 76.31 76.62 76.43 76.57 76.57 76.76 77.04 77.06 77.04 77.16 76.54 76.65 76.98 76.93 76.57
70.86 70.11 68.59 62.65 57.14 58.73 61.00 64.78 65.54 64.48 67.34 67.52 68.16 65.29 68.90 70.34 69.92 72.30 74.22 74.66 73.80 74.53 76.27 77.39 77.46 76.71 76.99 76.98 76.88 76.76 76.99 76.67 76.67 76.74 76.67 76.86 76.67 76.79 76.65 76.87 76.95 76.81 77.13 77.02 76.22 76.06 76.65 76.90 76.52
71.48 67.87 61.86 57.83 58.25 59.19 64.29 64.97 66.03 64.97 66.26 66.72 67.54 65.02 65.42 70.66 72.40 73.23 73.87 73.86 73.30 73.97 76.21 77.43 77.92 77.39 77.02 77.13 76.94 77.14 76.88 76.42 76.81 76.68 76.51 76.85 76.49 76.60 76.52 76.51 76.82 77.02 76.69 76.77 76.83 76.68 77.03 76.67 76.28
66.00 67.89 59.31 58.55 58.67 62.15 65.16 66.33 66.14 65.29 65.99 67.46 66.80 65.78 66.10 71.97 71.61 72.80 73.70 73.20 74.14 74.41 74.58 76.27 76.98 77.36 77.12 76.85 76.88 76.81 76.33 76.47 76.26 76.58 76.37 76.46 76.24 76.49 76.66 76.58 76.66 76.91 76.66 76.63 76.72 77.16 77.13 76.58 76.33
64.33 65.23 60.66 60.33 59.76 61.14 64.54 67.41 65.65 65.62 66.28 65.89 69.63 65.08 68.17 70.24 72.26 73.23 73.10 73.86 73.99 74.80 75.29 76.31 76.90 77.52 77.12 77.13 77.01 76.68 76.54 76.46 76.52 76.29 76.07 76.43 76.30 75.91 76.19 76.46 76.80 76.66 76.71 76.88 77.08 77.19 76.99 76.47 75.99
68.24 67.24 61.60 61.33 61.11 60.05 66.29 66.21 67.67 66.62 66.44 70.56 71.15 64.14 65.05 70.09 72.70 73.59 73.74 73.43 74.09 74.02 74.60 75.55 76.14 75.74 76.37 76.74 76.79 76.67 76.60 76.20 76.29 76.07 76.57 76.29 76.24 76.30 76.21 76.93 76.74 76.49 76.55 76.83 76.72 76.74 76.96 76.18 75.66
71.10 64.32 60.21 61.13 62.07 60.87 66.27 63.99 67.19 69.59 67.91 69.33 70.00 68.68 69.76 71.56 72.66 72.56 71.98 72.30 72.59 73.49 74.43 75.61 74.36 75.20 76.56 76.38 76.75 76.74 76.21 76.51 76.49 75.69 76.16 76.18 75.23 75.79 75.45 77.26 76.79 76.77 76.74 76.91 76.72 76.66 76.88 76.68 76.19
68.42 64.64 62.18 65.47 66.49 64.83 64.19 64.95 64.52 65.25 65.87 67.26 68.38 69.77 70.67 71.30 71.42 70.75 71.28 71.20 72.30 72.19 72.82 73.81 74.89 75.18 75.57 74.60 77.11 76.34 75.84 75.25 76.11 76.47 76.54 76.39 75.46 75.03 74.77 76.64 76.69 76.69 76.77 76.83 76.60 76.69 77.02 76.89 75.76
67.15 61.28 64.68 66.60 67.68 67.46 65.22 63.54 66.05 63.73 64.23 67.72 66.45 67.98 69.36 70.06 70.31 70.28 71.07 71.37 71.42 72.70 73.43 74.10 75.62 76.78 75.66 75.38 75.65 74.92 75.27 75.22 75.66 76.74 76.34 75.22 74.64 74.66 74.79 75.77 75.94 76.59 76.66 75.95 76.03 75.14 74.84 74.95 74.73
64.69 65.98 65.86 67.08 68.32 66.79 65.23 66.53 64.57 65.65 66.66 70.18 69.79 69.77 69.36 69.39 69.31 69.57 70.18 70.96 71.40 72.48 73.35 74.27 75.32 76.19 74.90 75.20 75.35 74.35 74.69 74.58 74.68 74.93 76.00 75.60 74.08 74.84 77.11 75.36 75.10 74.26 76.16 75.89 74.66 75.57 76.41 76.14 75.57
65.53 64.78 65.22 67.17 66.33 68.27 68.24 66.50 66.56 66.43 69.51 70.50 70.74 69.49 68.95 68.95 69.62 70.51 70.81 71.59 72.12 71.94 73.13 74.86 75.62 76.32 75.82 77.90 74.68 74.73 73.94 74.32 74.60 75.32 75.74 75.66 75.38 75.57 76.12 75.31 74.35 76.30 76.21 75.26 75.81 76.62 75.88 75.05 75.12
66.28 66.34 64.02 65.38 63.93 67.91 66.34 66.08 67.21 67.51 69.76 70.16 69.01 68.65 68.91 68.73 69.32 70.11 70.27 70.59 71.35 72.56 73.43 74.99 75.09 75.79 75.83 77.89 77.50 75.82 75.50 74.51 74.81 74.90 75.62 76.67 76.23 76.57 75.88 76.07 76.40 75.80 77.70 76.08 77.36 74.94 78.16 75.31 74.58
66.54 62.38 63.16 64.44 66.40 66.31 67.85 64.33 63.59 68.49 68.91 67.19 68.07 68.65 68.91 68.58 69.38 69.63 70.51 70.62 71.35 72.75 74.18 74.55 74.95 75.55 76.40 76.39 76.09 75.95 74.74 75.01 74.78 75.21 76.99 76.88 77.04 77.88 80.19 76.21 74.37 76.08 76.85 77.66 76.78 76.95 77.76 74.97 74.37
63.76 63.62 58.44 63.34 65.35 66.99 65.59 60.15 66.15 69.57 68.33 66.84 67.43 67.38 68.33 68.76 69.24 70.27 70.36 70.59 71.94 72.92 73.90 74.77 74.27 74.76 75.72 76.22 77.59 76.99 75.11 74.45 76.72 75.35 75.91 76.97 77.48 77.29 78.26 75.67 75.07 76.22 78.22 75.73 76.57 77.77 76.42 74.26 74.07
61.86 57.92 57.89 61.13 65.77 66.29 65.47 61.65 64.49 69.05 67.81 66.97 66.21 67.77 68.02 68.37 68.73 69.73 70.51 70.47 71.66 73.31 74.29 74.39 74.80 74.31 75.68 77.00 76.63 76.06 78.22 75.66 78.26 76.17 75.93 77.67 77.71 77.34 77.61 75.93 76.02 77.59 76.21 75.33 73.59 75.04 74.96 74.00 73.40
56.96 57.85 57.97 59.22 64.51 64.36 61.63 62.49 66.71 66.25 66.25 66.21 65.83 66.71 67.48 67.35 67.95 70.26 70.50 70.76 71.79 73.33 74.59 74.94 74.67 74.87 76.49 76.38 76.83 76.03 75.37 76.54 76.57 77.63 75.91 77.96 77.47 77.95 77.87 76.08 76.63 76.20 75.59 74.51 74.69 77.31 74.33 72.13 73.92
58.83 58.47 56.86 61.25 64.19 63.72 63.02 62.48 65.27 64.49 64.60 64.87 64.78 65.18 66.14 66.49 68.73 70.52 70.85 71.78 71.84 72.80 73.73 74.70 74.71 76.15 75.16 74.90 73.84 73.46 73.09 74.89 74.71 75.71 77.66 77.72 77.79 78.03 77.90 76.90 76.78 76.29 74.83 74.60 76.15 75.23 74.94 74.23 73.37
58.93 58.03 56.13 60.76 63.44 63.68 60.46 61.61 65.36 65.79 63.97 63.86 63.99 66.77 64.97 65.95 68.39 70.33 71.33 71.39 71.10 71.87 73.14 74.46 75.14 75.74 75.65 75.26 76.28 74.75 77.50 73.94 76.25 75.63 77.52 77.60 77.88 78.25 77.60 78.15 77.10 77.55 74.36 77.04 76.40 75.56 74.89 70.85 74.46
58.55 58.04 56.65 56.19 60.08 61.29 58.54 59.19 62.74 65.56 65.50 64.90 65.67 66.94 67.90 66.38 67.61 69.05 70.50 71.18 70.91 70.84 72.26 74.11 75.52 75.96 76.42 77.42 75.58 76.39 76.95 76.64 74.54 75.55 75.77 77.17 77.54 77.69 77.96 77.55 77.89 77.67 77.20 75.04 76.66 75.99 72.89 72.34 72.64
55.49 59.56 57.42 56.74 56.03 53.80 60.50 52.17 60.69 64.26 64.72 64.34 65.57 66.32 68.93 68.15 68.21 69.59 70.39 70.83 70.82 70.99 72.86 74.63 75.59 76.15 76.02 77.04 77.46 78.16 74.08 72.29 74.12 75.38 75.96 77.08 77.85 77.66 77.38 77.82 77.92 78.21 76.12 76.49 76.73 75.12 77.67 77.02 72.31
55.01 59.30 58.26 56.86 55.35 56.64 57.35 55.13 53.57 63.04 62.67 62.43 63.93 66.69 67.92 68.77 68.29 69.30 70.56 71.45 71.82 71.52 72.64 74.35 75.87 76.98 77.75 77.44 78.53 76.15 75.25 74.42 75.51 74.22 78.15 76.90 78.81 77.70 76.86 78.16 78.09 77.67 76.62 78.96 77.55 76.88 77.48 74.85 73.80
58.15 57.58 57.67 57.28 54.95 50.37 53.96 54.98 51.59 57.59 61.42 64.19 63.87 67.87 68.48 67.95 69.90 69.93 71.10 72.00 72.01 72.27 72.21 73.81 75.85 77.18 77.04 76.88 77.16 77.70 76.96 76.55 75.41 75.18 74.85 75.20 76.06 76.49 77.69 77.32 77.97 78.21 77.71 77.93 77.38 77.74 77.36 77.20 77.86
56.97 55.10 49.65 48.19 48.38 47.90 54.56 54.32 53.83 61.32 63.86 63.68 63.06 65.54 66.84 68.76 69.50 70.02 69.57 70.45 71.57 72.07 72.78 73.57 75.18 75.84 76.60 76.26 76.60 76.94 76.96 76.88 76.67 76.78 74.59 73.61 73.11 75.04 77.85 78.18 78.10 77.01 78.13 77.81 78.45 78.20 77.42 76.94 75.40
54.72 54.40 49.70 44.45 45.86 47.99 54.50 52.41 56.42 63.27 64.99 64.62 66.36 65.38 68.76 69.90 69.20 69.22 71.28 71.85 71.01 71.67 72.97 74.04 75.11 75.89 76.51 76.60 77.98 78.67 78.41 75.95 75.23 76.76 76.79 75.33 74.30 75.40 79.21 78.00 77.70 77.71 77.83 77.62 78.21 76.64 76.38 78.61 75.96
54.51 51.93 54.95 51.27 52.28 49.01 53.01 56.43 60.33 62.49 62.31 61.01 61.82 65.89 67.86 67.78 70.14 70.25 71.47 70.61 72.06 72.58 72.85 74.25 75.56 76.03 76.55 76.54 77.79 78.20 78.45 77.71 77.04 78.78 77.73 75.70 78.98 75.06 77.91 77.64 77.46 77.54 77.64 77.97 78.86 76.48 77.77 77.35 77.17
53.99 57.09 50.72 51.08 46.55 45.22 50.69 52.84 54.21 57.64 58.25 58.37 58.39 60.74 64.97 70.57 68.32 67.59 70.25 71.93 72.18 72.45 73.03 74.21 75.16 75.74 76.75 77.00 76.97 76.85 77.42 78.03 77.88 77.21 77.43 77.58 77.84 77.72 74.14 77.42 78.23 77.86 77.47 77.84 78.72 78.33 78.41 77.10 76.26
52.38 52.12 53.73 53.20 51.94 48.09 46.62 51.41 60.00 57.88 57.59 56.74 57.46 59.12 61.01 63.62 66.18 67.35 70.11 71.26 71.06 73.31 74.18 74.27 74.77 75.55 76.21 76.80 77.33 77.23 77.28 77.25 77.71 77.05 76.95 77.17 77.35 77.79 77.62 78.30 78.76 77.90 78.09 78.06 79.42 79.04 77.19 77.28 76.92
53.05 53.27 53.66 49.49 49.51 51.17 49.88 51.15 60.00 59.89 59.56 57.82 57.15 58.64 60.60 62.35 62.98 63.74 66.19 67.66 68.73 68.97 70.83 72.77 74.59 74.97 75.94 76.66 78.02 76.99 77.65 77.96 76.76 77.07 77.23 77.71 78.08 77.65 78.25 78.80 78.04 78.05 77.36 78.64 78.44 77.25 76.57 76.43 76.43

GFSSGP_sfc_wetblb_084.txt.gz
Wetbulb
73.55 72.37 72.70 70.29 60.70 57.48 55.40 57.66 63.93 61.86 62.65 65.25 66.23 65.35 64.58 65.39 63.49 58.83 72.41 73.58 73.66 73.63 74.60 75.80 77.58 77.59 76.94 77.03 76.97 76.39 75.84 75.78 76.37 75.84 76.11 77.15 77.02 77.28 77.77 77.82 77.24 77.08 77.49 77.18 77.20 77.20 77.20 77.08 76.68
72.13 71.49 71.27 68.81 59.29 52.05 55.59 59.98 61.73 64.15 64.93 66.34 67.95 66.82 64.89 62.65 67.47 69.52 70.70 73.48 73.74 73.11 73.20 74.10 76.95 77.51 77.36 77.18 76.47 77.31 76.86 76.63 76.57 76.33 76.75 76.32 76.85 76.61 77.45 77.00 77.20 77.13 77.55 77.32 77.29 77.23 77.23 77.09 76.81
73.70 72.91 66.52 62.91 59.77 55.17 56.52 61.80 63.76 65.55 65.75 66.68 66.07 66.46 65.92 64.42 68.62 70.72 72.86 73.63 73.03 73.10 73.87 75.07 77.36 77.52 77.63 77.64 77.24 77.23 77.09 76.66 76.87 76.63 76.55 77.23 77.11 76.93 76.99 77.14 77.12 77.03 77.42 76.81 77.13 77.38 76.86 76.47 76.22
71.70 69.50 67.42 60.30 56.71 58.95 60.47 63.95 65.07 64.26 66.58 67.65 66.48 62.94 67.15 70.35 69.82 72.17 73.77 73.36 72.62 72.96 74.48 76.83 77.47 77.27 77.16 77.44 76.99 77.07 77.11 76.87 77.18 77.01 77.02 77.18 77.37 77.02 77.13 76.86 76.98 77.37 76.72 76.83 76.35 77.10 77.00 76.28 75.86
70.43 67.58 60.57 57.38 57.39 59.44 62.74 65.60 66.41 63.51 65.59 65.78 65.70 62.76 65.03 69.79 72.14 72.66 72.72 73.39 73.54 73.31 74.20 76.06 77.76 77.68 77.35 77.45 76.82 76.63 76.83 76.69 76.82 76.72 77.24 76.82 76.82 76.96 76.96 77.24 77.27 77.08 76.72 76.96 76.63 77.07 76.49 76.02 75.88
65.13 66.94 59.03 56.43 57.08 60.48 64.64 66.83 66.50 65.44 66.53 65.67 64.22 64.11 65.56 70.98 71.06 72.13 73.22 73.10 74.48 73.74 74.40 75.33 77.20 77.13 76.98 77.31 77.09 76.79 76.50 76.68 77.17 77.25 77.03 77.04 77.18 76.88 77.21 76.97 77.02 76.80 76.89 76.91 77.17 76.95 76.23 76.01 75.54
63.80 63.55 59.64 60.00 59.47 60.79 64.08 67.84 65.42 65.21 65.80 65.06 67.44 62.98 66.56 68.90 71.49 72.22 73.59 72.82 72.83 74.36 74.32 74.65 75.70 76.85 77.37 77.09 76.82 76.52 77.10 76.89 76.78 76.34 76.95 77.12 76.96 76.83 76.94 77.29 76.80 76.97 77.19 77.19 77.29 76.64 76.37 75.86 75.38
67.45 65.67 60.61 60.75 59.77 59.50 66.00 66.48 67.88 66.33 65.42 69.53 68.96 62.88 63.55 68.95 71.87 72.20 72.67 71.75 73.17 73.50 74.17 74.90 75.56 75.53 75.11 75.81 76.70 76.67 76.42 76.70 76.18 76.65 76.58 76.86 76.72 76.50 76.77 77.59 77.71 77.11 77.14 77.03 77.16 76.81 76.18 75.87 75.32
69.66 62.47 59.72 59.94 61.20 62.23 66.92 64.59 67.30 70.28 67.79 68.46 68.77 67.11 68.37 70.49 72.42 71.11 70.77 72.02 70.74 73.24 73.59 74.38 74.76 74.58 76.55 76.16 76.16 76.52 76.13 76.09 76.38 76.22 76.01 76.08 75.35 75.05 75.24 77.31 77.46 76.77 77.70 76.83 77.00 76.78 75.90 75.38 75.72
64.37 62.63 61.65 65.25 65.32 64.16 65.63 65.41 64.67 65.53 66.35 66.51 66.15 68.40 69.32 70.06 71.31 69.87 69.04 69.78 71.03 71.66 72.95 73.41 74.65 74.77 75.27 74.14 76.36 76.47 76.11 76.21 76.49 75.35 75.39 74.91 76.25 74.97 74.89 76.55 77.43 76.92 77.78 77.50 77.43 77.44 74.47 76.74 74.30
65.88 61.68 65.57 65.98 67.41 66.74 64.94 64.49 65.62 65.53 64.76 66.26 65.03 66.33 68.01 68.73 70.08 69.08 69.97 69.30 70.60 71.79 74.06 74.50 74.68 75.52 75.52 75.27 75.97 74.95 75.68 75.28 76.14 76.98 76.35 76.58 73.76 74.06 74.58 75.47 75.41 76.30 76.14 75.38 75.61 76.60 75.39 74.72 74.36
61.81 66.45 67.52 66.99 67.79 65.90 64.59 65.18 64.56 65.19 66.89 68.81 68.38 68.11 68.05 67.59 68.16 69.95 69.81 70.16 71.73 71.83 73.93 73.65 74.10 72.96 76.48 75.62 75.53 73.80 73.99 74.73 74.68 76.45 73.78 74.58 76.41 73.10 76.04 75.29 74.55 74.66 73.80 72.16 73.02 75.62 76.54 75.69 74.34
64.33 65.03 67.44 68.26 67.61 66.61 67.15 65.31 63.93 65.13 68.38 70.13 69.01 68.28 67.44 67.57 67.97 69.59 70.21 69.92 72.74 72.83 73.14 73.59 73.85 72.34 78.23 75.03 74.66 74.01 73.24 74.46 73.51 74.02 75.96 75.25 73.23 76.68 74.34 70.77 74.48 72.35 75.10 72.53 72.92 73.75 72.77 74.07 74.70
65.67 65.58 64.51 66.46 66.87 67.54 65.22 65.34 66.10 66.55 68.53 68.96 68.11 67.16 67.57 67.54 67.79 69.40 69.82 69.95 70.71 72.75 72.04 74.26 75.19 77.01 77.34 79.75 78.45 76.81 73.31 74.94 75.40 74.46 73.64 76.41 77.17 77.18 72.33 73.42 73.63 74.68 77.47 73.95 70.05 74.98 76.64 72.74 74.41
65.82 62.83 62.78 64.62 67.60 66.50 67.16 63.33 63.83 68.29 69.29 67.97 67.51 67.62 67.44 67.86 68.10 68.83 69.69 70.17 71.17 72.93 73.86 74.24 73.95 75.71 77.79 78.46 75.08 78.53 74.50 73.85 74.83 75.39 78.71 77.26 76.97 75.82 73.58 71.78 73.97 74.63 78.59 78.43 73.32 76.46 74.63 74.85 73.86
63.44 62.88 57.53 62.95 66.47 66.86 66.25 59.08 64.94 67.83 68.07 66.71 66.68 66.99 66.86 67.64 67.88 69.12 69.46 70.24 71.60 73.50 73.90 74.51 73.00 74.99 76.16 77.41 77.81 72.88 72.25 73.83 76.90 75.88 77.24 78.95 78.67 78.89 77.67 73.56 73.71 76.29 74.06 75.57 71.74 76.27 75.19 74.17 74.40
61.90 57.25 57.84 60.13 65.83 65.75 65.07 60.07 64.83 67.48 67.03 65.97 65.86 66.34 66.46 66.99 68.29 69.71 69.52 70.48 71.24 73.87 74.34 74.74 73.96 74.71 74.99 76.66 79.01 72.65 73.67 72.89 75.02 77.51 74.96 78.06 78.58 79.24 79.39 76.82 74.90 77.79 73.39 76.07 74.02 74.48 74.65 73.50 71.88
55.82 56.51 57.93 58.97 63.71 64.86 63.19 61.86 64.47 66.47 65.95 65.81 65.58 66.00 66.60 66.55 67.30 69.08 69.00 70.49 71.51 73.77 74.75 75.94 74.21 76.71 76.83 76.96 75.83 76.16 73.76 74.01 75.04 76.13 76.60 79.31 78.87 79.19 76.60 78.13 77.97 71.79 77.26 75.70 71.28 76.27 73.50 74.67 69.12
58.94 57.88 56.42 59.36 61.06 63.79 63.07 62.15 63.44 66.29 66.27 64.99 64.83 65.16 66.25 66.84 68.37 68.83 69.61 69.96 71.06 73.00 74.20 75.65 74.93 77.30 76.49 76.59 75.05 73.51 74.30 74.19 74.63 76.31 79.38 76.03 75.87 79.49 79.66 78.27 77.37 72.82 76.07 71.35 77.89 76.75 75.69 74.75 75.47
57.32 56.24 57.54 59.58 61.80 61.04 61.95 61.40 63.77 65.47 65.11 65.13 65.30 64.85 65.88 66.46 67.23 69.13 69.36 69.81 70.59 72.58 73.89 75.69 75.58 76.07 77.22 75.66 77.05 77.83 74.65 75.82 75.05 75.35 78.72 77.98 77.26 79.53 78.75 75.72 76.54 73.71 74.28 77.70 76.97 71.13 75.25 73.84 75.33
55.61 55.73 56.70 57.12 57.77 57.46 56.67 58.91 56.38 64.02 65.69 64.90 65.09 66.17 66.73 66.32 66.66 68.83 68.66 70.02 71.33 72.13 73.45 75.06 75.79 75.62 76.74 77.72 78.14 79.80 77.28 75.77 75.83 75.16 76.63 78.36 78.29 79.07 76.02 78.48 77.43 77.08 77.41 74.86 76.98 77.72 75.44 72.93 74.55
53.07 58.69 58.23 59.29 57.58 53.01 57.86 53.30 59.36 62.26 62.83 63.99 64.30 65.06 64.97 65.49 67.89 69.52 69.05 70.25 70.12 71.88 73.55 75.23 76.64 75.82 76.27 78.29 77.39 79.06 76.66 75.54 74.79 74.91 76.87 78.31 78.46 78.45 78.62 79.43 77.76 75.46 74.00 72.96 76.09 76.46 74.18 76.44 73.69
55.14 59.55 58.06 57.48 55.64 54.75 55.48 53.18 57.94 60.94 60.12 59.06 61.82 64.51 65.19 66.32 68.31 68.47 69.45 71.33 69.24 71.31 72.51 74.76 76.36 76.15 76.62 78.23 77.91 77.11 77.44 72.35 72.99 75.06 76.56 78.03 80.28 79.61 77.78 79.38 79.43 77.56 75.73 74.49 75.40 78.03 78.31 76.07 73.88
58.59 57.42 57.96 57.71 55.16 48.97 55.03 54.15 54.63 57.54 57.21 61.49 63.39 65.06 62.52 65.45 68.57 68.52 70.79 70.91 69.91 71.76 72.55 74.35 75.69 76.33 77.41 76.97 77.88 77.40 77.16 71.92 70.38 73.29 73.51 75.36 78.01 77.83 78.93 78.98 79.14 78.44 73.26 72.76 78.48 78.79 78.43 77.23 78.17
56.75 53.93 48.92 48.24 48.35 47.23 53.62 53.65 55.08 56.89 62.68 63.13 64.36 64.68 63.99 65.45 67.29 68.92 70.45 70.98 70.32 70.61 72.21 74.49 75.57 75.73 76.64 75.95 76.51 77.61 77.37 77.84 76.71 75.03 71.98 74.48 72.39 73.00 76.73 78.77 78.97 78.39 78.83 76.94 78.39 79.22 78.53 78.51 76.90
54.24 53.12 49.58 44.15 45.04 47.87 53.46 51.13 55.15 58.77 63.67 65.33 66.38 67.02 64.70 66.02 68.58 67.37 70.91 71.03 72.02 70.40 72.14 73.77 75.27 75.80 76.24 76.13 76.95 77.75 78.35 76.74 76.71 77.47 78.24 73.14 72.35 73.85 77.17 78.13 78.52 79.27 77.75 77.80 78.31 78.62 77.69 77.78 77.16
53.80 51.55 56.14 51.48 52.00 48.47 53.55 56.61 60.68 61.73 60.64 62.29 63.62 66.56 66.78 68.32 69.41 69.21 70.34 71.04 72.66 70.50 72.45 73.64 75.11 76.09 76.77 76.63 77.37 78.14 78.06 77.99 75.74 77.61 79.04 77.61 75.89 73.52 76.91 73.87 77.72 78.34 78.87 78.06 78.24 76.83 77.42 77.93 77.85
55.25 56.39 50.30 51.77 45.21 44.72 51.94 53.02 53.92 58.32 58.01 59.14 60.04 61.16 62.25 63.68 67.95 67.90 68.61 68.18 72.85 71.53 72.87 74.75 75.88 76.00 76.61 76.58 77.25 77.55 77.92 78.20 78.37 79.19 79.49 80.25 77.82 74.28 72.92 73.52 73.63 78.31 78.16 78.16 78.19 76.42 76.75 76.90 77.43
52.95 51.65 53.13 52.91 51.32 46.58 47.47 50.43 60.18 59.35 59.28 58.15 58.65 60.29 61.58 62.36 64.53 66.96 66.90 65.98 69.53 72.09 70.88 73.76 75.65 76.15 76.69 76.97 77.14 77.13 77.22 77.92 78.40 77.95 79.12 79.21 80.38 75.83 73.43 67.99 71.48 77.35 78.47 77.81 77.90 77.00 76.30 75.73 76.28
54.62 53.33 53.58 48.95 49.19 51.13 49.88 50.57 60.38 60.10 58.86 59.01 58.17 59.66 61.99 62.97 62.29 64.49 66.18 65.61 65.24 67.02 70.86 71.38 71.05 74.91 76.28 76.99 77.40 77.28 77.94 77.43 77.46 77.47 78.06 79.16 78.60 79.30 79.27 77.03 77.50 77.81 77.36 77.25 77.02 77.04 76.55 75.79 76.05

GFSSGP_sfc_wetblb_087.txt.gz
Wetbulb
72.83 72.05 70.80 68.26 59.73 57.49 54.39 56.68 62.03 60.95 61.87 64.88 66.30 63.83 62.71 65.02 61.19 56.77 69.78 72.12 73.02 73.65 74.79 75.62 77.61 76.63 76.34 76.38 75.95 75.86 75.53 76.04 75.92 76.55 77.10 77.23 77.32 77.77 77.80 77.24 77.21 77.47 78.07 77.27 77.35 77.31 76.77 76.50 76.66
71.21 70.25 68.66 65.26 57.48 51.70 54.17 59.58 59.73 63.31 64.87 65.23 64.97 64.78 64.04 62.52 67.48 68.12 68.94 72.37 73.42 73.85 74.01 75.17 77.53 77.26 76.56 76.49 76.51 76.88 76.62 76.75 76.56 76.76 76.86 77.09 76.88 77.70 77.36 77.33 76.94 77.29 78.08 77.37 77.23 77.23 77.07 76.86 76.36
72.39 71.17 64.45 60.85 58.34 53.92 55.33 60.97 62.66 65.36 66.05 64.23 63.63 65.85 65.37 63.90 68.64 68.71 71.30 71.97 72.01 71.32 73.04 75.01 77.69 77.83 77.44 77.42 77.07 76.77 77.23 77.06 76.69 76.40 76.47 77.05 76.95 77.00 77.13 77.32 77.12 76.98 77.56 77.76 77.16 76.53 76.36 75.67 75.25
69.88 67.99 66.09 58.88 54.91 58.92 60.12 61.91 64.52 62.70 64.31 65.20 64.67 61.91 67.36 70.33 68.66 70.34 71.49 71.49 71.29 71.82 73.43 76.80 77.20 77.08 77.22 77.18 76.97 77.14 76.94 76.77 76.70 76.93 76.97 77.06 76.84 77.35 76.98 77.12 77.22 76.75 76.45 76.82 77.08 76.75 76.00 76.11 76.22
69.86 66.55 59.33 57.50 56.44 59.61 63.04 64.95 65.55 63.00 63.05 63.48 64.84 62.42 64.65 69.02 71.07 71.55 70.98 72.06 71.98 72.54 73.89 75.53 77.84 77.90 77.18 76.97 76.93 76.89 76.90 76.76 76.57 77.39 77.05 77.15 76.85 77.02 77.04 77.05 77.03 77.14 76.81 77.03 76.83 76.50 76.11 76.27 76.40
63.28 65.58 58.20 55.07 56.28 61.27 63.35 65.64 64.46 62.97 63.10 64.40 63.73 63.29 64.54 70.23 69.95 70.68 71.86 70.94 72.91 72.83 73.86 74.85 76.96 77.32 77.32 76.86 76.66 76.68 76.65 76.65 76.76 76.96 76.76 76.99 77.04 77.22 77.22 76.75 77.03 77.06 76.14 77.39 76.52 76.36 75.88 75.77 75.96
63.19 62.33 59.07 56.77 57.02 60.05 63.75 67.02 65.07 62.50 62.59 63.03 65.84 61.25 63.98 68.38 70.89 72.36 72.56 71.24 72.09 73.59 73.54 74.36 74.87 76.20 77.22 76.95 76.66 76.69 76.57 76.74 76.58 76.57 76.54 77.03 77.12 77.11 77.08 76.95 76.92 77.06 77.23 77.03 76.16 75.80 75.80 75.63 75.41
65.50 64.43 59.83 59.39 58.19 58.89 65.43 66.09 68.01 65.61 63.08 67.45 66.87 60.88 61.87 67.25 70.58 70.92 71.48 72.06 71.94 72.60 73.34 73.64 74.30 74.56 74.14 74.32 76.64 76.88 76.83 76.43 76.53 76.51 76.25 77.41 77.08 76.97 76.75 77.30 78.12 77.26 76.98 76.97 76.11 75.36 74.84 74.37 74.23
69.17 60.72 58.02 59.47 59.34 61.24 66.02 64.47 67.89 70.01 66.61 66.16 66.82 65.39 67.62 69.57 70.49 69.94 69.15 70.09 71.22 71.74 72.61 73.08 73.30 73.08 73.07 73.63 75.00 76.01 76.78 76.28 76.31 76.15 76.30 76.21 72.65 73.12 74.85 76.81 77.88 76.95 76.70 76.34 76.41 75.69 75.05 74.76 74.73
64.36 59.82 60.44 64.09 64.63 63.57 65.15 65.37 65.07 65.13 64.97 65.10 64.89 67.36 69.14 69.65 69.60 67.34 66.86 68.40 69.69 70.44 71.84 72.44 73.04 72.86 73.12 74.47 73.24 72.88 73.57 73.01 73.07 72.96 73.09 72.28 71.94 72.08 74.37 75.78 77.47 77.09 76.48 75.92 76.48 77.00 76.03 76.16 72.74
64.93 60.92 64.92 64.27 66.22 66.75 64.99 63.88 66.14 64.55 63.23 63.19 62.73 64.90 67.62 67.49 67.55 67.40 67.01 68.49 70.06 71.04 72.14 71.98 72.21 72.37 71.41 72.75 72.96 71.73 72.55 73.03 73.22 71.70 72.33 72.49 71.81 72.79 73.16 73.30 73.81 73.31 74.01 72.93 73.41 73.94 72.86 72.43 72.75
62.45 64.95 65.50 66.10 66.64 65.42 63.99 65.61 64.41 66.14 65.91 67.02 66.03 66.46 67.92 66.76 66.43 66.89 66.97 69.58 69.62 69.85 70.97 72.28 72.48 72.31 72.43 72.81 72.24 71.46 71.85 72.45 70.94 73.36 71.36 70.84 70.85 71.48 71.74 73.19 72.61 70.85 71.13 70.08 71.86 72.34 73.41 73.91 73.98
60.03 62.93 66.17 66.75 65.70 65.43 65.20 64.21 64.69 64.44 67.92 69.02 66.80 66.34 67.09 67.51 67.14 68.26 69.30 70.51 71.06 70.98 71.10 71.03 70.99 70.99 72.00 73.14 71.72 71.24 72.00 70.63 71.49 70.99 71.48 72.39 71.53 71.48 70.37 70.65 72.25 71.59 70.31 70.58 68.09 69.66 71.24 70.01 71.60
65.26 64.85 65.99 65.70 64.39 65.46 63.46 63.85 64.81 64.76 64.98 67.20 65.77 64.62 64.63 65.07 68.13 68.88 69.60 69.69 69.83 70.49 71.02 69.97 69.88 71.52 73.09 73.39 72.04 72.25 70.50 69.47 70.70 70.79 72.20 73.47 72.35 71.89 71.52 71.20 71.80 70.51 71.89 70.84 67.76 69.50 71.76 69.77 69.92
64.68 61.91 63.76 65.42 64.68 64.33 65.17 61.41 62.52 65.50 65.64 66.38 65.19 65.19 64.96 65.97 68.27 67.53 69.76 70.55 70.06 70.43 71.53 70.83 71.10 72.94 73.23 71.21 72.05 71.66 72.44 71.96 71.47 72.61 72.07 72.45 72.22 70.32 70.71 68.27 69.71 71.07 72.84 71.38 71.48 71.20 73.04 70.48 71.42
61.69 61.35 57.02 62.79 64.85 65.27 64.21 57.88 64.67 66.54 65.29 66.03 65.16 65.05 65.06 65.35 65.93 67.88 68.48 70.19 70.51 70.77 70.00 69.60 73.47 72.11 71.64 71.81 71.05 70.88 72.51 71.69 71.11 72.61 73.07 74.44 72.64 72.02 70.94 70.19 70.87 71.84 70.11 72.00 69.89 70.23 69.25 68.82 69.61
58.67 53.57 56.39 58.99 66.02 64.57 62.49 59.24 64.23 66.57 66.73 64.66 64.71 65.12 64.47 64.71 64.87 67.50 67.94 68.43 70.71 71.40 70.21 69.20 71.19 70.64 72.38 72.85 72.12 71.02 70.48 70.40 72.52 72.27 72.97 72.93 73.59 73.59 73.15 71.79 70.98 73.17 71.01 71.34 71.14 69.91 70.49 69.32 68.65
51.78 54.10 56.72 56.79 62.92 63.18 60.32 58.91 62.88 65.76 65.31 64.78 64.40 64.48 64.60 64.52 64.44 67.21 67.76 68.89 71.09 70.95 70.70 71.48 71.65 70.63 70.77 72.59 72.06 71.32 71.03 71.99 73.45 73.17 73.93 74.71 74.25 73.96 72.50 73.90 71.46 71.90 71.29 71.16 69.47 69.65 69.31 70.15 67.67
54.73 54.71 55.40 58.97 61.44 62.01 58.83 59.90 62.85 64.32 64.59 63.36 63.71 64.21 63.94 64.06 66.12 66.12 68.06 69.22 71.33 70.24 70.26 70.89 71.96 72.42 71.58 72.16 69.28 70.30 68.84 70.63 72.88 73.80 74.16 72.90 72.62 74.80 73.84 73.29 70.77 71.49 71.26 69.46 72.37 71.33 71.09 70.82 70.92
52.47 53.53 55.13 59.24 61.36 59.46 54.15 57.79 62.65 63.94 63.67 63.89 64.08 63.26 64.06 64.13 64.59 64.74 66.75 68.97 70.12 69.50 69.62 72.15 72.17 71.83 71.60 71.46 72.05 71.63 71.29 71.38 72.27 74.10 74.28 73.79 74.05 73.97 74.30 72.99 72.25 71.67 70.97 72.16 70.65 68.54 69.80 69.39 69.08
50.56 51.46 52.90 56.17 58.52 57.79 55.26 55.59 59.35 63.43 64.37 64.56 65.61 65.62 65.96 64.80 64.24 64.08 65.33 67.79 69.29 69.85 70.63 71.68 71.33 71.58 71.80 71.95 72.79 74.19 73.40 72.68 72.15 73.24 73.03 74.75 75.20 74.73 73.91 73.46 73.27 70.40 70.90 69.51 70.46 72.00 68.91 67.23 69.69
45.33 53.17 55.02 55.25 54.35 49.27 57.19 49.34 54.90 59.89 61.52 62.60 63.54 64.81 65.17 66.27 65.23 65.10 64.79 67.00 68.74 70.10 71.84 72.54 71.78 70.77 70.84 73.14 70.59 71.02 69.50 69.48 70.12 70.79 72.77 73.03 75.27 75.21 74.74 74.01 73.66 73.67 70.56 69.04 70.28 73.49 71.10 68.01 67.33
49.16 54.76 56.80 57.34 53.62 53.00 52.03 50.43 53.66 59.28 59.01 60.72 61.60 63.93 64.57 65.95 65.57 65.64 66.30 67.72 69.42 70.66 71.48 73.06 72.08 71.19 70.70 72.55 72.49 71.85 70.80 69.47 70.14 72.53 71.77 73.67 73.86 75.51 74.41 74.06 73.25 72.54 72.12 71.27 71.70 72.10 71.71 71.15 71.27
54.06 51.48 55.21 54.74 52.94 44.62 52.15 49.20 53.33 56.35 59.31 61.26 61.81 64.09 64.94 65.63 65.52 66.83 67.70 68.34 69.20 70.49 71.33 72.86 72.05 71.50 71.30 72.91 72.18 71.84 70.99 69.40 69.66 69.83 72.19 71.17 72.44 72.87 73.04 74.97 73.64 73.40 70.97 69.03 69.32 72.31 72.10 72.42 71.84
50.00 45.15 43.51 42.61 44.26 43.16 47.77 50.00 52.38 58.93 62.29 60.92 60.47 63.32 63.45 64.58 65.50 66.11 66.69 68.48 68.11 68.80 70.61 71.33 72.66 71.30 71.95 72.44 71.81 72.74 72.04 71.47 71.11 71.62 70.08 70.64 70.57 70.47 71.21 73.73 73.79 73.12 72.26 70.62 70.93 72.90 72.07 73.13 70.74
46.83 46.92 41.89 40.26 40.60 42.11 48.28 47.04 52.15 60.09 62.60 63.71 62.52 64.35 63.25 63.31 65.01 65.82 65.56 68.34 68.72 68.17 70.28 71.18 71.95 72.23 72.21 71.58 72.27 72.90 72.38 72.51 71.75 72.72 71.05 72.62 69.20 70.82 71.92 73.41 73.65 74.43 73.21 73.44 73.56 73.02 72.77 72.25 72.07
47.37 46.10 49.82 43.68 46.61 41.31 49.24 52.83 57.17 59.76 60.21 62.68 63.12 63.13 61.40 62.24 63.16 63.63 64.36 68.35 69.72 68.08 70.30 71.26 71.81 72.40 72.03 72.67 72.56 73.53 73.14 72.89 72.00 72.01 71.93 71.57 71.45 72.99 73.70 72.70 73.63 73.73 74.04 73.07 73.67 72.74 72.92 72.93 71.92
50.00 51.54 44.56 42.88 38.23 36.79 48.54 49.54 51.77 55.73 55.80 58.99 59.58 60.91 62.36 64.67 66.54 65.41 66.81 68.01 68.28 68.95 71.00 72.17 72.81 72.60 73.06 72.94 73.42 73.64 73.59 74.01 73.98 74.30 73.61 73.11 72.31 72.03 71.99 72.36 71.85 73.19 74.16 74.01 73.23 72.09 72.79 72.41 72.65
48.47 46.12 46.63 45.54 44.68 39.12 43.01 48.43 57.26 55.44 56.62 56.40 58.98 60.60 62.04 62.92 65.88 66.94 67.29 66.80 67.30 67.61 69.74 71.47 72.16 73.19 73.61 73.49 73.59 73.42 74.36 74.65 74.05 73.97 74.53 73.27 71.98 71.87 71.37 70.58 68.66 71.11 73.28 73.71 73.20 72.59 72.32 73.40 71.91
51.05 48.44 46.39 40.85 40.70 44.63 47.44 48.32 58.67 57.16 57.34 57.98 58.94 61.10 61.54 62.95 63.03 65.40 66.19 66.85 67.57 66.42 67.10 68.56 68.78 70.14 71.01 74.15 74.28 74.02 74.26 74.51 74.66 74.49 74.36 74.24 71.87 72.08 70.49 67.28 66.92 69.92 72.49 73.89 73.22 72.72 72.89 72.28 71.57

GFSSGP_sfc_wetblb_090.txt.gz
Wetbulb
73.15 71.96 71.13 66.45 59.04 57.36 53.57 56.30 60.81 59.68 61.10 64.61 63.17 61.04 58.83 60.60 58.57 54.58 68.26 71.06 72.73 73.37 74.15 75.56 77.39 76.52 76.01 75.99 75.95 75.56 75.53 76.28 77.21 77.45 77.30 77.30 77.24 77.00 77.19 77.40 77.31 77.39 77.81 77.11 76.84 76.56 76.81 76.48 76.06
71.57 70.59 68.00 64.31 56.59 51.68 52.90 59.80 59.86 61.64 63.40 65.37 65.73 65.00 62.74 60.75 66.27 66.66 68.66 72.43 73.59 73.82 73.92 75.24 76.96 76.97 76.33 75.66 75.91 76.89 76.69 76.33 76.37 77.17 77.22 77.12 77.51 77.30 77.03 77.09 77.29 77.40 77.75 77.30 77.14 76.92 76.62 76.56 76.09
70.49 70.05 62.77 60.67 57.37 52.96 54.49 60.14 61.39 63.50 65.09 64.24 63.74 66.51 65.01 63.47 67.53 67.85 71.37 73.35 73.85 73.07 73.88 74.72 76.88 76.57 77.06 77.06 76.88 76.54 77.06 76.74 76.25 76.73 76.79 76.78 77.30 77.31 77.33 77.07 77.07 77.35 77.13 77.17 76.59 76.59 76.40 75.71 75.74
69.56 67.72 65.88 58.39 54.92 58.83 59.77 61.75 63.87 62.22 64.20 65.74 64.78 62.02 66.92 69.65 68.32 70.40 72.49 72.62 71.30 72.26 73.46 76.74 77.03 77.18 77.39 77.05 76.92 77.01 76.93 76.98 76.85 76.86 76.95 77.14 77.22 77.38 77.21 76.92 76.87 77.14 77.42 76.60 76.15 75.65 76.04 75.94 75.38
68.08 65.95 58.34 56.83 56.35 59.70 62.53 63.87 64.74 61.41 63.06 64.00 64.82 62.17 63.37 68.38 70.76 71.14 70.43 71.02 70.90 72.06 74.45 75.27 77.81 77.39 77.00 77.03 77.14 77.01 76.85 77.06 77.19 77.30 77.26 77.13 77.24 77.33 77.13 76.92 76.93 76.67 77.17 77.01 76.18 76.21 76.39 76.13 76.32
62.98 65.23 56.74 54.73 56.75 61.09 63.34 65.23 63.72 62.48 63.72 64.60 63.35 62.63 62.74 69.03 69.16 69.48 70.76 70.32 71.81 72.78 74.32 74.85 77.25 77.21 77.11 76.77 76.81 76.84 76.68 76.66 76.88 77.08 76.82 76.87 77.15 77.00 76.97 77.14 77.23 76.93 76.95 76.43 76.18 76.31 76.19 75.82 76.09
62.27 60.77 58.03 56.42 57.46 59.29 62.71 67.27 62.45 62.56 62.90 63.01 65.82 60.73 64.01 66.87 69.08 70.64 71.36 71.23 72.05 73.67 73.67 74.21 74.42 75.76 76.87 76.60 76.73 76.81 76.85 76.82 76.73 76.68 76.85 77.01 77.11 76.89 76.87 77.40 76.73 76.93 76.68 76.10 75.76 75.56 75.45 75.58 75.62
65.67 63.85 57.82 59.01 57.36 58.44 64.64 66.06 65.21 63.39 62.30 67.50 67.35 61.15 61.50 66.55 69.61 70.40 70.87 71.74 71.96 72.68 73.75 73.17 73.49 73.72 73.20 74.05 76.75 76.70 76.42 76.51 75.95 76.22 76.75 77.13 77.09 76.87 76.96 77.70 78.07 76.88 76.48 75.96 75.51 75.23 75.07 74.76 74.63
68.73 60.56 57.14 58.75 58.59 60.51 65.61 63.74 68.03 67.52 64.17 65.38 66.27 66.25 67.53 70.17 70.30 69.14 69.31 70.20 70.77 72.09 72.55 72.87 72.98 72.71 72.54 72.87 74.97 76.20 76.30 76.33 76.35 75.83 76.44 75.93 72.68 73.20 74.33 77.08 77.84 76.65 76.46 76.12 75.68 74.76 74.43 74.35 74.90
63.84 59.79 58.58 63.27 62.39 62.69 65.12 65.50 65.77 63.50 62.68 63.55 64.85 67.83 68.85 69.75 68.94 67.89 67.78 68.34 68.60 70.00 71.40 72.34 71.96 71.95 72.47 74.57 72.70 72.58 73.19 72.34 72.68 72.64 72.88 71.79 70.93 72.27 74.13 75.95 77.59 76.10 75.57 76.00 76.06 75.90 74.95 74.67 72.11
63.70 60.45 62.23 62.92 65.89 66.76 64.91 64.58 66.49 64.03 62.68 62.88 62.93 65.15 67.32 67.89 67.85 67.64 68.22 68.59 68.81 70.41 71.51 71.32 71.63 71.61 71.41 72.19 71.74 71.70 71.72 71.58 71.61 71.41 71.68 71.39 71.60 72.76 72.70 72.92 73.10 71.78 72.57 71.91 72.61 72.98 71.44 72.73 72.20
61.43 64.83 65.37 64.32 67.09 65.35 64.34 65.99 65.05 65.33 64.05 65.89 66.51 67.31 67.30 66.63 66.62 67.03 67.67 68.70 69.21 70.02 70.66 71.30 71.25 71.33 70.45 71.87 70.73 70.52 71.36 71.58 71.31 70.42 71.29 69.80 70.45 70.65 71.75 72.15 70.94 70.56 70.99 70.38 70.19 71.04 72.23 72.78 72.90
63.17 63.55 65.86 65.95 65.65 65.65 66.07 64.89 64.88 64.28 68.06 67.19 67.43 67.04 66.53 66.50 65.93 67.60 68.60 69.94 70.01 69.45 70.23 70.77 71.47 71.40 71.49 71.30 70.58 69.96 70.80 70.91 70.77 71.22 70.04 70.83 69.94 70.55 70.65 70.27 70.69 70.01 67.73 69.77 67.52 68.61 70.11 69.47 69.26
63.78 65.28 65.51 65.03 63.67 63.89 63.68 64.27 64.35 65.03 66.98 65.83 66.28 65.68 65.74 65.92 65.79 67.89 68.78 68.84 69.29 70.60 70.32 70.29 70.93 70.73 72.37 71.31 70.05 70.05 70.33 68.41 69.09 70.09 70.85 70.95 70.89 70.25 68.32 70.03 70.41 70.17 70.55 69.88 68.67 68.36 69.83 70.00 67.98
64.76 60.60 62.85 63.61 64.11 63.00 64.57 60.98 61.86 65.65 65.19 64.13 65.71 66.23 65.97 65.89 68.27 67.83 69.18 69.35 69.71 70.32 70.28 68.70 69.76 72.71 72.27 72.19 70.83 70.19 69.63 69.67 70.27 71.42 72.38 71.87 70.66 70.12 69.94 69.12 69.66 70.65 72.28 70.94 69.88 70.26 71.00 70.04 69.19
60.54 61.69 56.12 61.78 63.21 64.01 62.10 56.22 62.97 65.85 64.59 64.72 64.19 65.00 65.19 66.52 68.36 69.60 70.01 70.30 69.94 70.24 68.50 69.51 73.18 71.71 71.05 70.83 70.49 70.61 71.07 70.44 70.86 70.71 71.83 71.24 70.73 70.30 69.90 68.11 69.04 70.87 71.03 70.64 69.16 69.50 68.92 68.00 68.19
54.71 52.64 55.25 58.77 64.46 62.87 61.85 56.60 62.88 65.62 64.53 64.03 63.24 63.78 63.70 66.56 67.69 69.63 70.47 69.64 70.32 69.84 68.89 69.33 70.49 70.26 70.29 69.78 70.04 70.11 70.20 70.75 70.95 70.75 72.38 71.95 72.28 72.38 71.82 70.10 70.56 70.38 69.94 69.96 70.00 69.59 68.78 68.39 67.36
44.97 50.88 55.00 55.78 61.32 62.13 59.34 58.59 63.56 63.78 64.46 64.40 63.27 63.50 62.93 64.61 66.01 69.22 69.60 69.93 70.51 69.39 68.42 69.55 69.40 70.14 71.20 70.05 71.07 69.05 70.83 71.30 71.71 70.60 72.19 72.16 72.62 73.52 72.22 71.34 71.34 71.22 70.63 70.05 69.42 68.67 68.98 68.19 65.80
48.53 48.10 50.26 58.08 61.47 56.95 57.87 58.50 60.77 64.17 64.33 63.73 62.85 63.24 61.67 64.01 65.45 68.85 69.36 70.01 69.96 69.51 69.06 68.71 68.07 69.03 70.59 70.20 68.87 68.40 68.28 70.56 72.07 72.41 73.50 73.48 73.37 73.57 72.93 72.37 69.63 70.26 68.37 68.69 70.73 70.18 69.36 69.61 69.06
49.12 49.50 53.76 58.94 58.52 57.47 56.39 56.46 58.19 62.32 63.22 64.20 63.62 63.39 62.28 63.38 64.71 66.47 68.62 69.16 69.32 68.55 69.18 69.43 68.87 69.40 69.99 70.61 69.29 69.87 69.78 70.36 71.66 72.29 72.61 72.04 72.26 73.70 73.13 72.23 70.31 70.44 70.26 71.15 70.13 68.12 68.29 67.69 68.06
46.51 48.07 49.81 56.37 56.47 57.35 55.63 52.67 55.65 61.51 63.21 63.75 65.05 65.01 64.28 63.30 63.00 64.69 67.57 67.98 68.58 68.19 69.65 69.92 70.28 69.77 69.95 70.92 71.03 72.15 71.22 71.26 71.16 71.72 72.33 72.80 73.99 73.67 73.62 72.43 71.74 69.46 69.42 68.65 69.41 70.43 67.55 66.64 67.99
39.74 50.76 50.74 56.49 53.59 48.83 54.52 46.50 54.74 59.60 61.27 62.46 63.68 64.69 64.82 64.14 63.76 64.95 67.20 67.51 67.62 68.70 70.90 70.92 70.90 69.87 70.12 71.23 71.21 70.95 70.11 68.39 69.69 70.94 71.22 72.64 74.35 73.35 73.29 73.13 72.33 71.79 69.42 68.35 68.62 72.16 69.37 67.01 67.74
46.51 51.49 50.75 56.75 52.81 50.77 51.45 50.18 52.74 58.61 58.89 59.96 62.31 64.02 64.65 65.26 66.31 64.68 66.39 67.90 68.63 69.37 71.01 70.96 70.78 69.55 69.51 71.28 71.59 70.10 68.96 68.65 69.98 70.78 71.59 71.46 72.17 74.49 74.16 72.98 71.65 71.29 69.95 68.46 70.07 70.91 70.33 70.70 70.18
51.32 50.35 52.35 54.60 51.32 45.38 48.87 49.18 51.36 54.06 58.49 60.88 62.02 63.50 64.77 65.25 66.55 66.74 68.05 67.82 68.77 69.82 71.18 70.29 69.51 68.41 68.81 70.65 71.59 70.36 69.22 68.10 69.55 70.09 70.14 70.54 71.02 71.20 72.47 73.20 72.16 71.38 70.62 69.33 69.03 71.68 71.54 70.83 70.34
46.66 43.42 38.63 38.97 41.52 42.19 49.96 48.84 51.93 57.64 61.55 62.16 62.16 63.27 64.27 65.13 65.61 66.10 66.53 66.47 67.86 68.80 71.09 70.38 69.21 68.02 68.66 70.83 70.77 71.05 70.24 68.93 69.57 69.22 70.53 70.19 70.34 70.25 71.05 72.73 72.09 71.67 70.18 69.00 67.95 71.28 71.35 70.91 69.70
43.41 44.29 39.07 35.97 38.11 44.45 51.05 45.67 52.93 60.09 62.61 63.76 64.28 64.49 64.44 64.68 65.45 65.91 66.95 67.07 68.34 68.65 70.26 71.56 69.55 68.71 69.27 70.52 70.96 71.23 71.34 70.85 70.43 70.41 69.56 70.72 70.02 69.41 71.18 72.87 72.97 72.66 72.30 71.88 72.25 71.30 71.31 70.95 70.89
43.83 41.78 46.61 42.58 46.02 39.91 49.42 51.92 56.61 59.52 60.32 60.66 60.62 63.57 63.29 63.89 64.72 65.62 66.51 67.76 68.35 68.37 69.28 70.98 71.04 69.96 69.92 70.61 70.60 70.87 71.66 71.14 70.55 71.25 70.14 71.64 70.30 70.67 71.53 72.08 72.77 73.08 72.77 71.57 72.17 71.37 71.52 71.32 70.77
47.16 48.85 41.96 40.12 38.06 35.30 45.97 48.02 48.61 55.50 58.07 59.71 60.58 59.90 62.35 64.17 64.26 64.61 65.37 68.00 68.60 68.37 68.07 70.16 72.37 71.15 70.69 71.27 70.79 71.83 71.72 72.05 71.61 71.02 71.16 70.73 70.35 71.16 72.09 71.86 72.39 72.46 72.74 72.35 71.88 71.42 71.01 71.45 71.09
44.81 43.45 43.43 43.03 40.49 38.35 41.87 46.64 56.77 55.44 57.30 58.21 59.54 60.90 62.27 63.21 65.15 66.74 66.04 67.36 67.87 68.38 68.68 69.64 70.79 70.94 70.91 71.39 71.61 71.71 72.42 72.45 72.25 72.48 72.57 71.75 71.05 71.00 70.75 70.72 71.71 71.14 72.25 72.78 71.94 71.08 71.10 71.02 71.08
47.71 46.16 44.28 39.50 38.96 41.41 46.49 48.62 57.67 57.35 58.22 59.31 60.07 60.96 62.10 62.80 64.19 66.48 66.37 67.20 66.93 67.56 68.19 68.39 68.91 69.31 69.86 70.08 70.12 71.55 72.47 72.66 72.87 72.79 72.82 73.00 71.10 70.60 70.24 70.24 68.55 68.71 70.72 72.22 72.13 71.55 72.23 71.07 70.71

GFSSGP_sfc_wetblb_093.txt.gz
Wetbulb
72.79 71.57 70.59 66.08 58.24 56.00 53.77 55.86 60.63 59.36 58.13 60.11 60.33 59.75 58.13 60.51 58.25 52.46 65.63 67.70 72.32 72.64 74.01 74.52 76.51 76.58 75.85 75.69 75.64 75.70 76.48 76.74 76.64 76.72 77.00 76.60 76.60 76.97 77.05 77.01 76.72 77.35 77.25 76.41 76.56 75.62 75.94 75.92 75.64
71.14 70.37 67.57 63.28 55.37 50.90 52.62 59.81 58.68 61.15 62.51 60.27 62.70 63.11 61.87 60.37 65.78 65.20 67.70 71.95 73.06 72.97 73.47 74.85 76.72 76.00 75.80 75.43 75.24 75.36 75.49 76.38 77.05 76.60 76.99 76.79 76.74 77.06 76.97 77.11 77.06 77.20 77.34 76.57 76.66 76.44 75.91 75.70 75.45
70.79 70.04 61.85 59.73 56.41 52.38 53.72 59.51 61.19 63.00 63.03 61.51 63.82 66.01 64.59 62.72 66.52 67.52 70.69 72.77 73.44 72.94 73.77 73.76 76.39 76.09 75.86 76.38 76.66 76.52 76.00 75.95 76.89 76.64 76.88 76.86 76.94 76.74 77.17 77.08 77.14 77.20 76.96 76.85 76.56 76.36 75.64 75.45 75.09
67.84 66.90 65.31 57.90 54.44 58.05 59.39 61.45 63.50 62.70 64.61 65.93 64.74 61.24 66.30 68.71 67.87 70.37 72.37 73.09 72.54 72.70 73.13 75.35 76.58 76.88 76.70 76.52 76.71 76.76 76.66 76.08 76.42 76.62 76.66 76.98 76.96 76.81 76.74 76.93 77.34 77.13 76.30 76.22 76.33 76.03 75.56 75.29 75.52
67.44 65.56 58.13 57.01 56.08 59.50 62.32 63.84 63.60 61.45 62.39 63.35 64.23 61.36 62.77 68.10 71.36 71.92 71.66 72.19 71.51 71.98 73.96 74.66 77.67 76.95 76.87 76.76 76.85 76.77 76.87 76.75 76.53 76.58 76.70 77.00 77.03 77.05 76.69 76.66 76.61 76.69 76.20 75.67 76.00 76.03 75.45 75.64 76.75
63.66 64.25 54.25 54.14 56.44 60.78 62.90 64.87 64.33 62.70 63.56 63.51 62.69 61.95 62.35 69.20 69.69 70.02 70.84 70.73 72.51 73.16 73.93 74.66 76.77 77.04 76.91 76.85 76.80 76.61 76.83 76.93 76.97 76.85 76.86 76.99 76.97 77.01 77.01 76.97 76.58 76.59 76.34 76.17 75.94 75.64 75.53 75.81 75.78
61.63 60.03 57.15 56.68 57.48 59.44 62.10 65.76 62.92 62.41 61.74 61.63 64.63 60.28 63.33 66.55 68.31 69.28 69.12 70.65 72.66 73.87 73.43 73.81 74.25 75.50 76.46 76.33 76.56 76.48 76.35 76.27 76.68 76.78 76.57 76.79 77.07 76.99 77.19 76.60 76.19 76.53 75.81 75.73 76.02 75.69 75.17 75.39 75.56
64.94 62.58 57.57 58.03 57.34 57.71 64.05 65.40 64.60 62.95 61.96 66.13 65.79 59.88 60.60 65.19 69.18 70.08 69.50 70.28 71.53 72.52 73.21 72.75 72.99 73.55 73.24 73.50 76.41 76.41 76.52 76.06 76.44 76.53 76.81 76.85 76.75 76.86 77.08 77.29 77.31 76.06 75.53 75.20 75.20 75.01 75.07 75.00 75.22
68.35 59.75 56.22 58.12 58.21 59.84 65.06 61.49 66.14 66.73 63.85 64.82 66.32 64.84 66.03 68.58 69.91 68.74 69.28 69.72 70.44 72.03 71.46 71.88 72.16 71.99 72.11 73.15 74.38 75.42 75.98 75.72 75.58 75.95 76.78 74.41 72.50 73.76 74.48 76.43 77.00 76.09 75.48 75.23 74.87 74.62 74.53 74.86 75.06
63.07 59.19 58.36 62.60 62.41 61.52 63.84 62.94 62.55 62.57 62.52 62.93 63.80 66.19 67.65 68.31 67.94 67.35 67.36 67.73 68.98 69.84 71.01 71.89 71.33 71.44 71.93 74.17 72.41 71.37 72.52 72.17 72.36 72.41 71.71 71.20 71.36 72.13 74.40 75.24 76.64 76.31 76.11 75.81 75.97 75.17 74.92 74.38 71.24
63.61 59.81 62.04 62.17 63.92 64.92 64.16 63.98 64.56 61.43 60.49 62.81 62.28 64.71 66.58 66.82 66.68 67.01 67.64 68.22 68.38 69.92 71.21 71.27 70.87 71.34 71.73 71.72 71.37 71.34 70.89 70.66 70.96 71.68 71.04 70.62 71.22 72.27 72.02 71.86 72.06 69.69 72.87 71.47 71.87 71.76 70.34 71.14 71.28
60.82 63.15 63.42 64.14 64.86 65.33 64.04 65.50 62.15 63.52 63.24 66.30 66.30 67.19 66.98 66.37 66.46 66.93 67.44 67.68 68.58 69.76 70.39 70.78 71.14 70.82 69.92 71.50 70.96 70.42 70.56 70.74 70.17 70.28 70.52 69.88 70.53 70.76 71.01 71.37 70.54 70.01 69.99 68.66 69.79 70.34 70.62 71.45 72.41
62.12 63.50 65.56 65.66 65.90 65.66 65.78 64.60 63.57 64.62 65.66 67.00 67.13 67.28 66.68 66.63 66.82 68.00 68.45 68.54 69.22 69.32 70.01 70.24 70.59 70.59 70.16 70.93 70.09 69.55 70.26 70.83 70.61 69.90 69.99 70.17 69.52 69.45 70.17 69.93 69.85 68.98 67.67 69.25 67.83 68.25 68.96 69.69 67.88
64.55 63.67 64.40 64.69 64.42 64.76 63.71 63.33 64.06 63.98 66.17 65.60 65.94 65.84 66.19 66.20 66.51 67.51 68.08 68.38 68.86 69.55 69.67 70.11 70.35 70.51 70.28 70.34 69.47 68.98 70.27 69.68 69.81 70.03 69.36 70.04 69.89 69.63 68.45 69.36 69.68 69.61 69.69 69.49 68.37 67.42 69.63 69.48 66.24
65.09 61.59 62.77 62.67 62.76 63.31 64.46 61.20 60.80 65.06 65.53 64.52 64.94 65.71 65.95 65.67 66.40 66.96 68.57 68.50 69.05 69.52 69.94 69.69 70.13 70.49 70.47 70.26 69.62 69.41 69.58 68.45 68.84 69.66 70.48 70.79 70.54 68.89 68.53 69.38 69.15 69.68 71.26 70.25 69.26 69.59 69.70 67.93 68.08
61.26 61.37 56.18 62.08 63.44 63.44 61.60 55.94 62.96 65.04 64.18 63.56 64.47 64.91 64.81 64.48 66.38 68.00 69.09 68.85 69.50 69.42 69.03 69.47 71.98 70.90 70.59 70.40 69.75 69.55 69.12 69.07 69.93 70.70 71.11 70.85 70.44 70.00 68.40 67.34 68.13 70.33 70.46 70.31 68.30 68.46 68.33 67.53 67.47
54.29 54.32 55.42 58.49 63.02 62.20 59.98 56.29 62.55 65.14 63.98 63.02 63.93 64.48 63.98 64.73 67.29 68.39 69.47 69.41 69.55 69.35 68.35 68.37 70.45 70.09 70.27 69.94 69.49 69.78 69.83 69.62 70.17 70.34 70.75 70.84 70.74 70.70 69.63 68.03 69.46 69.75 69.74 68.97 69.37 68.67 67.49 67.53 66.73
44.61 50.85 55.56 56.05 60.67 61.30 58.75 55.96 61.45 63.61 63.45 63.75 63.10 64.18 63.61 64.69 66.02 68.64 69.72 69.42 69.51 68.63 68.22 69.03 69.32 69.30 69.07 69.17 68.83 69.10 69.72 70.21 70.31 70.41 71.13 71.38 71.61 72.22 71.70 70.35 69.75 70.19 69.86 69.13 69.47 68.47 67.88 67.00 65.55
47.70 48.72 52.43 58.79 60.42 58.09 56.93 57.61 60.33 62.58 63.40 63.02 62.42 61.43 62.60 64.68 67.80 68.76 69.04 69.42 69.32 68.04 67.67 68.50 68.09 69.35 69.03 68.30 67.54 67.67 68.14 69.07 70.23 69.92 71.87 71.81 71.60 72.95 71.81 71.69 69.59 69.25 67.38 68.14 69.97 69.01 67.78 68.33 67.95
48.26 48.39 55.12 57.35 59.54 58.78 57.36 56.53 59.28 61.69 62.16 63.48 62.89 61.77 63.70 64.29 66.44 67.48 67.77 68.87 68.43 67.45 67.99 67.37 67.86 68.78 69.24 68.71 68.24 69.24 68.78 70.25 70.74 71.41 72.10 72.39 72.57 72.90 72.42 70.74 68.53 69.38 69.76 69.72 69.80 69.06 66.60 66.66 67.58
44.05 47.27 54.04 54.17 56.43 58.01 55.64 53.08 54.96 60.15 63.14 63.82 63.58 64.46 63.68 63.12 65.20 66.23 66.88 67.87 68.30 67.31 67.87 67.46 67.85 68.56 69.92 69.74 69.62 70.46 70.34 70.34 70.46 70.68 71.09 71.21 71.65 72.82 72.92 71.82 70.40 69.27 69.01 68.04 68.61 70.02 68.07 65.71 67.00
40.37 50.15 51.00 55.49 51.95 48.44 55.57 45.76 53.09 56.41 60.03 62.24 62.72 63.40 62.10 63.07 65.56 66.84 66.55 67.17 67.85 67.76 68.85 68.11 68.62 68.20 69.40 70.42 69.68 69.17 68.57 67.62 68.53 69.68 70.90 71.54 72.45 72.78 72.20 71.91 71.40 69.85 68.23 67.73 68.08 71.51 68.20 66.98 67.28
46.19 51.90 49.34 55.35 49.80 49.23 51.04 48.80 51.58 58.12 58.02 60.10 62.62 63.73 64.17 63.32 65.13 66.30 66.86 67.45 68.15 68.42 68.99 69.12 68.65 68.03 69.18 69.57 70.10 69.34 67.83 68.37 68.87 69.63 70.47 69.83 71.45 73.19 72.37 72.23 71.24 70.27 68.86 67.50 68.90 70.43 69.64 70.02 69.07
50.86 49.25 50.73 51.21 48.94 42.08 48.03 49.11 50.29 54.47 57.87 60.28 62.17 63.52 63.75 63.20 64.48 66.97 67.60 68.14 68.22 69.02 69.57 69.68 68.89 67.61 68.98 69.82 70.29 69.69 68.73 67.90 68.44 69.17 69.83 70.17 70.23 71.10 72.19 72.26 71.05 70.44 69.97 68.97 68.98 70.74 70.16 69.91 69.57
44.60 40.60 38.47 38.96 40.51 40.77 49.16 48.10 50.76 56.94 60.45 61.72 61.70 63.18 63.73 64.82 65.07 66.01 66.01 66.69 66.49 68.17 69.28 69.64 68.54 67.03 68.15 69.41 70.10 70.05 69.05 68.52 68.72 68.91 69.94 69.14 69.25 70.13 70.66 71.95 71.18 70.63 70.39 69.25 67.62 69.96 69.80 70.08 69.26
41.30 40.84 37.37 35.37 36.42 40.40 48.37 43.62 49.57 58.84 60.57 63.17 63.73 63.79 63.91 63.84 65.56 65.70 66.86 66.58 66.44 68.15 69.54 69.38 68.09 67.16 67.36 68.79 69.67 70.22 69.99 68.53 68.44 69.41 69.57 69.84 69.79 70.11 70.71 71.74 72.16 71.40 71.33 70.52 68.75 70.45 70.27 69.99 70.10
41.57 39.06 44.21 41.70 38.76 39.08 45.04 49.62 54.99 60.03 59.64 60.85 61.78 63.01 62.94 63.93 64.65 65.59 66.82 67.89 68.23 67.41 69.48 69.61 68.25 67.91 67.65 68.34 69.52 69.86 70.54 70.03 69.36 69.53 69.99 69.71 70.94 70.58 70.01 71.12 71.67 71.01 71.01 70.77 70.83 70.64 70.14 70.71 70.13
44.61 46.03 40.39 38.14 35.53 34.57 41.77 44.62 47.45 54.84 57.63 59.11 59.63 60.36 61.59 63.13 64.05 65.67 66.58 67.84 68.31 67.63 68.86 69.84 69.83 69.10 69.14 68.57 69.09 70.05 70.45 70.72 70.22 69.99 70.39 69.75 70.63 70.47 69.67 71.12 71.28 71.89 72.17 71.84 70.34 70.63 70.31 69.72 70.10
42.71 41.44 40.43 40.37 39.10 36.65 38.87 43.54 54.50 55.67 58.03 58.71 58.97 60.99 61.17 62.98 64.23 64.76 66.54 67.91 68.15 68.69 69.23 69.57 70.20 69.83 69.73 70.03 69.07 69.33 70.26 70.84 71.19 70.58 71.02 71.19 70.35 70.13 70.66 71.18 70.88 70.99 71.20 71.73 70.90 70.45 70.63 70.05 70.01
44.94 43.36 42.47 38.33 36.82 41.26 43.57 44.42 57.09 57.54 57.99 58.97 59.43 60.62 62.29 63.54 65.05 65.32 66.07 67.17 67.55 67.86 68.54 68.72 69.53 69.44 68.99 68.63 69.61 70.39 70.65 71.33 71.22 69.99 71.43 72.22 71.31 69.84 70.09 70.23 70.57 70.25 70.36 71.14 71.46 71.08 71.48 70.50 69.95

GFSSGP_sfc_wetblb_096.txt.gz
Wetbulb
72.31 71.03 70.11 66.25 57.17 55.25 51.62 54.68 59.98 54.09 54.01 58.42 57.30 57.53 56.10 60.49 57.80 50.06 64.24 67.80 72.01 72.33 73.55 75.14 76.71 76.39 76.18 75.81 75.85 76.58 76.26 76.84 76.99 76.82 76.84 76.75 76.40 76.86 76.99 76.54 76.65 76.33 76.89 75.59 75.51 75.37 75.65 75.45 75.56
70.70 70.20 67.28 63.34 55.21 49.52 51.12 58.86 57.99 59.37 59.14 57.97 59.46 61.69 61.68 59.98 65.07 62.80 65.37 70.85 72.71 73.08 73.60 74.54 76.66 75.73 75.54 75.32 75.22 75.95 76.41 76.08 76.61 76.73 76.50 76.45 76.56 76.64 76.19 76.37 76.91 76.58 76.39 76.53 76.20 76.17 75.97 75.90 75.59
70.55 69.80 61.89 58.31 56.00 52.34 52.34 60.15 60.30 61.08 58.98 58.17 63.15 65.50 63.88 62.11 64.42 66.28 70.02 72.31 72.92 72.88 73.67 73.67 75.72 75.31 75.17 75.38 75.60 75.42 75.92 76.09 76.42 75.95 76.41 76.59 76.74 76.88 76.88 76.79 76.87 76.79 76.38 76.41 76.07 75.81 75.56 75.31 75.62
66.54 66.25 64.42 57.13 53.33 57.36 58.76 61.14 61.58 58.63 60.05 65.16 64.39 61.59 65.53 67.97 67.05 69.71 72.31 72.70 72.69 72.74 72.35 74.89 75.78 75.92 76.31 76.32 76.41 76.02 75.73 76.25 76.59 76.71 76.70 76.74 76.94 76.82 77.19 77.08 76.80 76.78 76.78 76.42 75.97 75.78 75.56 75.58 75.20
67.81 65.15 58.00 56.14 55.05 59.57 62.32 63.81 63.55 60.72 62.51 63.46 64.01 60.73 62.58 68.47 70.85 71.63 71.93 72.49 71.98 71.54 73.11 74.44 76.45 76.23 76.08 75.99 76.22 76.51 75.98 76.21 76.29 76.39 76.18 76.60 76.76 76.81 76.70 77.05 76.56 76.12 76.20 76.34 75.93 75.59 75.58 76.15 76.17
63.82 63.74 54.37 54.20 56.12 60.34 62.90 64.35 63.88 62.51 62.86 63.16 61.52 61.36 62.90 69.76 69.89 70.55 71.94 71.54 72.64 72.76 73.65 74.81 75.97 76.33 75.99 75.81 76.29 76.08 76.03 76.37 76.11 76.29 76.84 77.06 76.59 76.60 76.75 76.83 76.89 76.29 76.09 75.84 75.20 75.48 75.45 75.56 75.26
61.71 60.14 56.89 56.96 57.15 58.93 62.18 65.55 62.70 61.78 61.43 61.71 64.22 60.05 64.49 66.95 68.78 69.82 70.17 71.91 73.09 73.50 73.43 73.82 74.36 74.91 76.00 76.14 76.29 76.23 76.42 75.92 76.33 76.73 76.75 76.66 76.24 76.44 76.88 76.75 76.56 76.20 76.01 75.70 75.26 75.62 75.34 75.48 75.59
65.03 62.18 57.56 58.17 57.35 57.71 63.52 63.98 64.21 62.06 60.62 65.73 65.58 59.65 61.16 64.98 68.37 69.33 70.59 71.21 71.86 72.72 73.19 72.87 73.32 73.28 73.15 73.89 76.20 76.14 76.33 75.95 75.58 76.38 76.37 76.73 76.71 76.87 76.36 76.93 76.77 75.98 75.79 75.51 75.53 75.45 75.36 75.23 75.77
67.94 59.44 56.25 57.40 58.07 59.22 64.39 61.25 65.24 65.80 62.35 64.39 65.35 64.05 65.53 68.31 68.25 68.22 68.87 70.15 70.67 72.07 71.91 71.97 72.16 72.31 72.82 73.61 74.76 75.35 75.61 75.47 75.63 75.60 76.07 74.49 73.82 74.62 75.07 77.02 76.48 75.70 75.26 75.04 74.90 74.62 74.54 75.36 76.03
63.06 57.98 58.84 62.23 62.50 61.58 62.44 62.25 62.47 61.13 61.85 61.67 63.02 66.20 68.05 67.94 66.68 66.15 66.57 67.69 69.16 70.20 71.17 71.80 71.65 71.61 72.25 74.11 72.12 72.10 73.00 72.63 72.79 72.53 72.08 72.14 72.75 74.24 75.07 76.14 76.66 76.39 75.99 75.09 74.42 74.25 74.42 73.72 72.45
63.28 59.01 61.82 62.56 62.82 64.15 62.59 61.90 64.21 61.18 59.61 61.20 61.54 64.22 66.45 66.49 66.09 65.40 65.97 67.67 68.19 69.99 71.47 71.57 71.09 71.44 71.93 71.89 71.59 71.73 70.80 71.14 71.96 71.84 71.59 71.72 72.65 73.14 73.44 73.07 71.89 72.06 73.64 72.26 72.08 72.03 72.50 72.31 73.05
60.26 63.40 63.83 63.51 64.10 64.15 62.96 65.08 62.18 63.29 62.49 64.44 64.96 65.79 65.99 65.57 65.65 65.30 66.29 67.30 67.98 69.60 70.68 71.15 71.29 71.00 70.73 71.89 71.31 70.77 70.45 70.96 70.96 71.65 71.63 71.25 71.52 72.00 72.00 72.13 71.61 71.79 70.19 70.17 70.58 71.47 71.82 72.35 73.03
61.55 62.84 64.93 65.85 64.93 65.04 65.81 63.23 62.28 63.49 65.09 65.85 66.20 65.82 65.19 65.50 65.90 66.70 67.58 67.79 68.76 69.04 70.12 70.40 71.10 70.48 70.42 71.14 70.59 70.46 70.82 71.42 71.26 70.82 71.45 71.35 71.16 71.24 71.86 71.35 71.11 70.97 71.24 70.83 70.22 70.46 70.92 71.89 69.27
64.15 63.77 64.50 65.44 64.42 65.11 63.28 62.50 62.90 63.98 65.98 65.23 65.70 64.91 65.26 65.70 66.35 67.10 67.13 67.31 68.37 69.33 69.74 70.31 70.65 70.73 70.44 70.55 69.86 69.74 70.92 71.49 70.87 71.33 70.76 71.10 70.98 71.11 70.99 71.08 71.26 71.40 71.63 72.10 70.62 69.99 71.67 71.00 68.60
64.65 60.63 62.53 63.32 64.15 63.05 64.41 59.90 60.63 64.29 65.27 64.02 64.87 65.24 65.73 66.19 67.12 66.97 67.61 67.95 68.72 69.28 69.86 69.93 70.37 70.79 70.09 70.52 70.30 69.60 70.88 69.50 70.25 71.22 71.12 71.71 71.96 70.80 70.99 70.98 70.94 71.51 73.08 72.28 71.24 71.41 71.13 70.21 69.91
60.12 60.32 56.02 61.34 62.69 63.34 62.34 56.52 62.62 64.86 64.29 63.37 64.10 64.94 65.39 65.17 66.35 67.56 68.53 68.68 69.25 69.29 69.24 70.00 71.74 70.65 70.34 70.36 69.83 69.94 70.04 69.36 70.63 71.11 71.60 71.92 71.90 71.55 71.20 70.20 70.83 71.28 72.09 71.45 71.60 70.83 70.85 69.92 70.16
51.02 52.19 55.49 58.35 63.16 61.65 59.78 57.34 62.10 64.40 63.89 62.96 63.29 64.10 64.62 63.38 65.39 67.28 69.19 69.01 69.06 69.31 69.08 69.11 70.40 70.31 70.51 70.85 70.09 70.39 70.45 70.32 71.12 71.49 71.81 71.93 71.77 71.67 71.53 70.30 71.57 72.78 71.77 71.49 71.26 71.09 70.09 70.12 69.28
44.54 51.13 55.15 55.78 60.60 60.98 58.24 56.96 60.95 62.97 63.32 63.01 63.39 63.43 63.46 63.57 65.36 67.82 69.42 69.29 69.38 69.09 68.88 69.17 70.08 70.36 70.50 70.07 69.50 70.28 70.13 70.62 71.02 71.78 71.75 72.34 72.84 72.80 72.89 71.95 72.04 72.15 71.82 71.12 72.35 71.67 71.30 70.68 70.23
47.10 49.83 53.68 57.73 60.78 58.79 57.86 57.39 60.11 62.03 62.32 62.26 62.15 62.31 62.17 63.92 66.16 67.73 69.26 69.77 69.02 68.49 68.16 69.10 68.97 68.99 69.17 68.93 68.45 68.91 69.16 70.43 71.19 71.80 72.95 72.83 73.09 73.85 73.37 72.75 72.23 71.51 70.96 71.61 71.39 70.56 71.20 70.29 69.81
46.89 52.28 55.09 57.61 59.86 57.85 57.14 56.65 59.72 62.03 61.70 62.32 62.82 61.31 62.67 63.16 65.29 66.96 68.15 68.53 68.40 67.53 68.25 68.62 68.95 68.98 68.95 69.08 69.13 69.73 69.62 70.90 71.82 71.66 72.67 73.33 73.45 73.98 73.43 72.18 71.16 71.75 72.16 72.53 72.20 70.54 69.71 69.52 70.17
43.46 45.26 54.34 54.49 56.35 57.77 55.10 53.12 56.08 60.23 62.45 63.48 64.07 64.32 63.10 63.57 64.96 66.74 66.59 67.77 68.15 67.14 67.57 68.31 68.50 69.17 68.94 69.15 70.45 70.60 71.00 71.16 71.41 71.83 72.57 72.60 72.20 73.62 72.83 71.77 71.66 71.85 71.85 71.03 71.75 72.32 70.75 69.29 70.25
41.08 50.90 56.68 54.97 51.16 45.45 54.14 43.44 53.03 56.22 59.79 61.68 62.51 62.94 62.90 64.07 65.94 66.55 66.44 67.08 67.54 67.55 68.43 68.43 68.19 69.21 69.54 69.80 70.05 69.88 68.79 68.35 69.87 70.87 72.53 73.17 73.34 73.95 74.22 73.47 72.05 71.79 71.18 71.56 71.79 72.93 70.34 71.12 69.93
45.62 52.08 55.14 55.00 49.43 47.62 49.51 47.69 51.04 55.92 55.01 59.52 62.05 63.11 63.51 63.26 65.91 65.87 66.62 67.61 68.34 68.47 68.14 68.22 68.20 68.64 69.89 70.22 70.41 69.56 69.44 69.71 70.57 70.81 71.28 72.11 72.36 73.60 72.93 73.63 72.93 72.90 71.39 71.45 71.81 73.18 72.72 73.32 72.19
50.07 50.03 50.96 50.94 46.74 42.15 47.28 47.75 47.91 53.53 54.77 58.65 62.14 63.36 63.94 62.20 65.92 66.58 67.75 68.43 68.33 68.80 68.42 68.51 68.12 67.92 69.34 70.03 70.07 70.04 69.52 69.04 69.71 70.60 70.89 71.75 72.38 73.20 73.84 73.81 72.67 72.69 72.28 71.53 71.86 73.21 73.18 72.65 72.16
44.18 44.81 38.98 41.55 41.31 39.86 45.21 47.63 49.12 56.50 59.60 60.20 61.57 62.78 63.90 63.11 64.12 66.03 66.46 66.83 67.90 67.60 68.18 68.67 68.05 67.58 68.70 69.74 70.22 70.26 70.20 69.81 69.01 70.15 70.66 70.99 71.28 71.94 72.57 73.62 72.44 72.22 72.31 72.19 71.46 72.88 73.02 73.18 72.39
40.58 42.01 37.77 34.88 36.95 40.04 47.81 44.26 48.41 58.90 61.23 63.10 63.94 64.09 64.36 62.48 64.60 66.06 66.16 66.49 66.78 67.95 69.03 69.23 68.30 67.70 68.24 69.44 69.82 70.49 70.17 69.71 70.16 70.63 71.06 71.13 71.25 71.89 72.93 73.29 73.57 73.00 72.64 71.60 71.00 72.32 72.57 72.59 72.47
39.61 37.54 42.45 38.54 38.41 40.19 43.87 47.88 54.68 59.32 59.83 61.52 62.15 62.45 62.83 64.07 64.81 65.94 66.43 66.84 67.31 67.68 69.51 69.19 68.82 68.59 68.12 69.13 69.77 70.34 70.89 70.21 69.83 70.86 71.58 71.51 71.92 72.33 72.29 72.74 73.51 72.99 72.69 73.06 72.95 72.88 72.89 73.45 72.86
43.47 44.63 38.59 36.43 33.48 34.02 38.95 44.75 45.28 55.37 57.26 59.54 60.76 60.99 62.27 63.91 64.05 65.11 65.80 66.25 67.55 68.10 69.76 69.95 69.29 68.21 68.78 68.96 69.77 70.34 70.97 71.35 71.32 71.27 71.27 71.16 71.45 72.37 72.10 71.51 72.03 73.01 73.17 73.41 72.57 72.92 73.03 72.66 72.31
41.53 39.08 38.74 38.99 38.56 35.63 35.50 40.82 52.86 54.77 58.63 58.92 60.04 61.08 61.68 63.12 64.68 65.55 66.93 67.81 68.20 69.12 69.79 70.64 69.50 68.72 69.34 69.18 69.26 70.09 70.54 71.48 71.95 71.31 71.92 72.33 72.38 71.94 71.04 71.58 72.07 72.36 72.59 73.38 73.19 72.72 72.56 72.36 72.49
43.22 39.63 40.15 37.07 35.66 38.38 39.58 41.30 56.98 58.20 59.94 59.51 59.79 61.46 62.44 63.20 63.70 65.33 66.53 67.42 67.69 68.12 69.11 69.62 69.61 68.98 70.01 70.41 70.33 69.79 70.61 71.56 71.78 71.10 71.70 72.98 73.09 72.19 70.76 71.89 72.28 72.59 72.01 72.88 72.95 72.54 73.08 71.45 71.95

GFSSGP_sfc_wetblb_099.txt.gz
Wetbulb
73.26 72.08 71.87 67.61 60.09 60.38 55.80 57.40 61.16 54.82 55.29 59.14 59.51 57.89 59.37 63.04 59.24 54.06 68.43 71.30 72.91 73.52 75.54 75.93 76.79 76.11 76.57 76.68 76.26 75.95 76.32 76.11 76.85 76.86 76.78 76.72 76.88 76.89 76.83 76.62 76.85 76.62 76.64 76.00 75.94 76.08 76.02 76.18 76.17
72.29 70.42 69.87 65.53 58.44 54.81 55.68 59.94 56.29 56.66 59.61 60.13 60.79 61.27 62.62 61.89 65.10 64.96 68.62 72.74 73.48 74.33 75.44 75.72 76.19 75.73 75.57 75.40 76.18 75.78 75.91 76.29 76.65 76.49 76.62 76.63 76.65 76.42 76.53 76.82 76.65 77.18 77.07 76.52 76.35 76.16 75.94 75.61 75.08
70.79 70.55 65.59 60.27 57.21 54.99 55.85 60.86 60.18 61.68 60.38 59.72 62.85 66.74 65.06 62.63 65.22 67.96 71.85 73.31 74.35 74.88 75.82 76.08 75.80 75.65 75.30 75.08 75.24 76.17 75.85 76.34 76.00 76.43 76.65 76.64 76.50 76.55 76.68 76.91 76.84 76.48 76.29 75.93 75.99 75.63 75.52 75.90 76.01
68.83 68.92 66.16 57.07 54.17 57.96 59.98 62.40 62.64 58.91 62.40 66.45 65.22 62.78 66.34 68.51 68.04 70.71 73.15 73.91 74.12 74.80 74.67 75.61 75.43 75.27 75.81 75.95 75.89 75.87 75.87 76.51 76.10 76.25 76.37 76.44 76.64 77.01 76.85 76.80 76.70 76.54 76.44 75.99 75.89 75.86 75.80 75.58 75.41
69.95 65.63 59.33 54.88 55.74 60.12 63.18 64.20 61.75 59.08 62.56 65.02 65.55 61.34 63.06 69.35 72.35 72.59 72.91 73.50 73.57 73.30 74.61 75.66 76.33 76.14 76.40 76.03 75.98 75.86 76.23 76.23 76.59 76.11 76.41 76.60 76.93 76.39 76.30 76.67 76.69 76.52 76.50 75.92 75.86 75.91 76.11 76.21 76.59
64.63 64.60 55.41 53.56 55.95 60.81 63.84 65.63 63.38 62.61 64.44 64.17 63.52 62.55 64.29 70.77 71.07 72.02 73.25 73.60 73.33 72.86 74.80 76.28 76.45 76.20 76.02 75.64 75.77 76.49 76.14 76.24 76.48 76.50 76.52 75.92 76.42 77.08 76.56 76.78 76.14 76.47 75.97 75.66 76.00 75.78 75.72 75.39 75.74
62.47 60.40 55.45 57.14 57.49 59.50 62.24 66.43 63.77 63.70 63.62 62.88 65.32 61.19 65.44 67.53 71.09 72.68 73.35 73.33 73.23 75.28 75.40 75.43 75.92 76.44 76.02 76.15 76.14 76.07 76.36 76.46 76.66 76.99 76.15 76.70 76.46 76.73 76.57 76.68 76.53 76.58 75.82 75.52 75.80 75.36 75.61 75.69 75.22
65.03 63.47 58.33 58.93 57.41 57.57 64.03 65.07 65.59 64.31 62.81 67.03 66.83 61.14 61.43 66.87 71.47 72.90 72.76 72.68 73.26 74.30 75.27 75.55 75.75 75.69 76.04 75.69 76.04 76.55 75.89 76.20 76.58 76.29 76.51 76.45 76.88 76.49 76.69 77.07 76.93 76.14 75.92 75.53 75.61 75.28 75.49 75.68 75.90
67.78 60.84 57.54 58.78 57.12 60.14 65.07 62.61 65.86 66.81 64.45 65.45 66.44 65.86 67.87 69.84 71.62 71.23 70.90 71.58 72.54 73.87 74.75 75.24 74.92 75.49 76.34 75.97 75.94 76.16 75.81 76.18 76.32 76.44 76.32 76.98 76.92 76.00 75.88 76.83 76.30 75.78 75.67 75.25 74.94 74.61 75.14 75.55 75.45
63.85 60.83 59.10 62.52 62.60 62.33 64.38 63.80 63.04 63.04 63.38 63.64 64.93 67.84 69.13 69.94 70.12 68.20 68.73 68.95 70.83 72.11 73.53 74.61 74.63 74.73 75.07 75.28 76.41 76.67 75.81 76.33 76.44 76.03 76.55 76.36 76.94 76.82 76.72 76.89 76.89 76.55 75.78 75.52 75.14 75.08 75.15 74.08 75.75
64.03 60.40 62.49 63.04 63.82 65.35 63.67 63.46 64.21 62.99 61.17 63.81 63.68 65.91 67.76 68.39 67.74 66.44 67.66 70.12 70.60 72.33 73.04 74.27 74.55 75.42 74.92 75.39 75.19 75.18 74.97 75.62 75.52 75.96 75.91 76.53 76.08 76.39 75.72 75.05 74.84 75.11 74.58 74.63 74.33 74.75 75.18 74.82 75.37
61.02 63.74 63.59 62.36 64.42 64.47 63.07 64.76 62.55 63.45 63.57 66.11 66.84 67.72 67.63 66.37 64.93 65.50 67.03 69.26 70.85 71.72 72.85 73.83 74.39 75.02 75.23 75.62 73.98 74.29 73.79 74.33 74.39 75.05 75.89 75.61 74.79 74.79 75.21 74.83 75.41 74.43 74.77 74.61 74.89 75.30 75.39 75.44 75.48
61.51 63.52 64.31 64.07 64.49 64.92 65.15 63.41 62.73 64.01 65.57 67.48 67.62 67.36 66.41 66.43 66.11 66.64 67.97 69.57 70.96 71.34 72.52 73.31 73.99 74.67 74.97 74.57 74.02 74.12 74.36 74.31 74.73 74.89 75.29 75.14 74.51 74.64 75.26 75.14 74.86 75.61 75.80 74.79 74.58 75.41 75.53 74.74 73.38
64.36 64.22 64.38 64.93 64.50 64.49 62.68 62.68 63.76 64.69 66.45 66.11 66.41 66.60 67.42 67.86 67.93 67.29 68.18 69.08 70.41 71.53 72.38 73.23 73.40 74.35 74.60 74.19 74.74 74.53 74.96 74.98 75.02 74.93 75.08 75.28 74.81 75.69 75.04 75.18 74.95 75.49 76.44 76.27 75.95 75.74 75.24 74.23 74.36
64.95 61.39 63.38 63.05 64.31 62.46 63.23 58.66 60.72 65.55 66.04 65.34 65.90 66.92 67.44 68.02 68.58 67.57 69.04 69.95 71.24 71.92 72.53 72.82 73.20 73.89 74.24 74.44 74.44 74.52 75.26 74.65 74.75 74.87 75.58 75.22 75.98 75.41 75.66 75.13 75.20 76.23 77.19 76.49 76.75 76.42 75.53 74.59 74.59
62.27 61.77 57.15 62.05 63.55 63.37 61.98 55.45 61.76 65.67 65.13 64.78 65.85 66.43 66.99 68.10 68.82 69.72 70.55 71.14 72.09 72.27 72.52 73.23 72.64 73.38 73.58 74.23 74.70 74.63 75.23 74.69 74.92 74.79 75.20 75.68 75.61 75.88 75.64 75.01 75.26 75.69 76.72 76.09 75.88 74.95 74.79 74.70 74.75
58.64 55.14 56.90 59.15 63.37 62.43 58.73 55.77 62.40 65.23 64.90 64.62 65.68 66.43 66.98 67.89 69.15 70.48 71.24 71.84 72.38 72.93 73.21 73.23 74.05 74.06 74.25 75.13 74.72 74.80 74.70 74.86 75.12 74.67 75.66 75.64 75.69 75.05 75.96 75.03 75.53 76.97 75.85 75.97 75.84 74.64 75.05 74.97 75.06
52.40 54.14 57.18 56.75 60.67 60.02 57.04 56.92 61.82 63.90 63.72 64.33 64.39 66.32 66.88 67.14 68.48 70.46 71.39 72.30 73.04 73.30 73.59 73.98 73.94 74.55 75.26 74.94 74.80 75.01 74.48 75.08 75.79 75.87 75.86 75.80 75.95 76.02 77.53 75.82 76.27 76.58 76.29 75.47 76.15 75.73 76.22 75.28 74.30
52.44 53.31 56.31 59.56 61.06 59.13 57.92 59.06 60.97 63.19 63.25 62.44 64.23 65.55 66.06 67.08 68.54 70.57 71.64 72.23 72.60 73.03 73.04 73.51 73.71 74.73 74.59 73.85 73.23 73.59 72.92 74.27 74.95 75.78 76.00 75.92 76.83 77.03 77.59 76.50 76.57 76.31 76.04 76.14 75.70 75.84 74.82 74.26 75.08
55.04 56.25 56.00 58.93 60.52 59.42 58.06 57.86 61.87 63.21 63.31 63.05 63.60 64.68 65.15 65.73 68.16 69.17 70.92 71.31 72.17 72.46 72.90 73.25 73.96 74.88 74.69 74.86 74.55 75.06 74.33 74.25 75.82 75.93 76.69 76.64 76.58 77.02 77.48 77.18 76.02 76.08 76.06 76.38 76.52 76.13 74.58 74.55 74.76
50.60 51.95 56.45 56.31 57.98 58.09 56.74 54.52 56.99 62.47 63.33 63.99 64.28 65.75 66.09 65.07 67.39 68.92 69.93 71.08 71.98 72.13 72.47 73.17 74.19 74.86 74.83 75.22 74.58 74.55 74.97 74.81 74.58 75.12 75.52 76.59 76.61 76.71 77.30 76.54 76.65 76.95 76.66 75.47 76.44 76.10 75.22 73.29 74.46
47.12 52.91 58.64 56.38 54.78 50.09 57.23 49.60 55.39 59.22 61.06 61.92 62.43 64.22 65.90 66.63 68.21 69.31 69.75 70.50 71.39 72.14 73.03 73.81 74.48 74.62 74.42 74.90 74.85 75.12 73.56 74.18 73.89 75.30 77.59 77.70 76.80 76.56 76.69 77.22 76.65 76.81 76.34 76.02 76.42 76.94 76.12 75.89 73.29
49.12 53.62 57.22 57.34 54.00 53.70 52.81 51.33 53.94 59.53 58.25 60.50 62.72 64.20 66.24 67.29 67.61 68.60 69.87 70.65 71.88 72.47 72.30 73.20 74.20 74.55 74.40 74.50 75.54 74.94 74.38 74.26 74.67 75.13 76.26 77.84 77.31 77.53 76.72 77.12 77.00 76.86 75.85 76.03 76.22 77.33 76.94 76.01 74.34
54.12 55.21 56.20 54.69 53.78 47.80 51.26 51.51 53.71 55.71 58.44 59.89 62.34 63.90 65.68 67.14 67.76 69.24 70.49 70.83 71.55 72.42 72.01 72.52 73.32 73.88 74.64 74.38 74.60 75.43 75.05 74.60 73.89 74.56 74.22 75.01 75.67 76.54 77.31 77.08 77.00 76.88 76.69 75.78 75.82 77.52 76.83 76.47 75.48
50.83 50.00 45.18 43.64 45.22 45.28 51.80 51.37 54.24 59.44 61.06 60.75 62.43 64.16 65.23 67.29 67.29 68.76 68.90 68.09 71.01 71.07 71.58 71.88 72.74 72.92 73.69 74.13 74.37 74.95 75.51 75.48 75.11 75.68 74.52 74.80 77.57 76.85 76.57 77.41 77.27 76.42 76.67 76.61 76.13 77.15 77.21 77.08 76.31
49.33 48.70 47.29 40.84 42.81 46.71 52.67 49.61 55.04 60.43 63.54 64.21 64.12 65.86 66.18 66.73 66.83 68.35 69.45 68.84 70.47 70.66 71.51 72.02 72.24 72.51 72.96 73.68 74.72 75.36 76.26 74.76 75.28 75.55 74.95 74.86 75.23 75.31 76.75 76.83 77.61 76.95 76.76 76.11 75.99 75.75 76.38 77.22 76.62
47.19 45.95 51.82 48.58 48.94 48.56 51.39 53.39 57.14 61.49 61.87 63.73 63.56 65.29 65.40 66.05 66.58 66.63 69.26 70.11 70.90 69.43 70.88 72.18 72.60 72.69 72.63 72.85 74.38 74.82 74.92 75.12 75.00 75.60 75.77 75.60 76.27 75.70 76.05 76.42 76.66 77.25 76.84 76.98 76.39 74.74 76.03 76.72 77.03
49.81 51.64 45.38 47.06 42.29 42.28 47.60 49.83 52.40 57.94 59.67 62.81 63.73 63.99 64.94 66.33 66.59 67.57 67.36 67.94 69.12 69.98 70.50 71.89 72.91 72.60 72.79 72.82 73.90 74.08 74.88 75.28 75.60 75.54 75.61 75.66 76.23 75.85 76.08 75.90 76.05 76.45 76.83 77.00 76.85 76.10 76.64 76.39 76.19
48.30 47.36 48.45 48.65 47.97 44.37 43.87 48.46 57.89 59.02 60.57 62.12 63.97 65.27 65.28 65.77 66.82 68.24 68.54 68.13 68.21 70.21 69.72 71.32 72.07 71.76 72.52 72.49 73.14 74.41 74.50 75.50 75.79 75.49 75.57 76.20 76.23 76.17 76.10 75.97 75.19 75.17 75.48 76.66 77.08 76.90 75.85 75.90 76.02
51.14 49.11 49.71 45.40 44.41 47.60 47.83 49.04 59.93 60.76 62.16 62.54 63.62 64.18 65.98 66.52 66.90 68.31 69.19 69.28 68.34 67.99 69.44 70.99 72.94 71.59 73.32 73.52 72.77 73.44 74.87 75.07 75.34 75.33 75.92 76.23 75.86 76.51 76.17 75.98 76.04 76.26 75.86 76.35 76.53 76.15 76.10 75.74 75.23

GFSSGP_sfc_wetblb_102.txt.gz
Wetbulb
73.68 73.41 75.29 71.38 63.76 62.56 57.79 59.11 60.30 57.92 58.58 62.09 61.83 60.22 62.07 65.23 61.00 57.46 69.66 72.43 73.66 74.05 75.44 76.14 76.20 76.19 76.79 76.57 76.06 76.48 76.74 77.17 77.08 76.86 77.12 77.09 76.88 76.83 77.15 76.44 76.56 76.60 76.50 76.59 76.42 76.01 76.39 76.08 75.06
72.83 71.83 72.01 68.75 61.22 55.62 57.50 61.59 57.63 59.52 61.01 62.66 62.28 63.21 64.20 62.96 65.74 66.60 69.26 73.12 74.20 74.75 75.25 75.85 76.29 75.90 75.90 76.52 76.06 76.50 76.70 76.79 76.66 76.93 76.82 76.83 76.39 76.79 76.80 76.39 76.42 76.56 76.49 76.02 76.20 76.17 75.70 76.08 76.00
72.77 72.62 68.78 62.54 62.21 56.57 57.72 61.38 59.67 60.90 61.65 61.84 62.90 66.34 66.75 62.81 66.46 68.35 72.35 73.72 74.65 75.11 75.45 76.70 75.80 75.61 75.10 75.85 76.38 76.13 76.45 76.30 76.53 76.65 76.71 76.05 76.47 76.86 77.22 76.89 76.83 76.27 76.37 76.16 76.05 75.61 76.14 76.16 76.24
72.19 71.49 69.72 58.14 58.23 61.33 62.26 62.72 62.90 60.41 60.93 66.39 66.71 64.30 66.72 68.26 69.00 71.52 73.64 74.58 74.77 75.52 75.67 75.24 75.38 75.24 75.84 75.55 76.15 76.17 76.59 76.04 76.25 76.56 76.54 76.79 76.72 77.03 77.11 76.91 76.54 76.59 76.36 76.31 76.51 76.20 76.12 75.95 76.14
74.45 68.30 61.66 57.88 59.34 62.60 65.09 65.81 62.75 59.95 65.26 66.14 66.81 64.37 63.35 70.00 72.41 73.31 74.20 74.71 74.34 73.79 74.01 75.66 76.22 76.37 76.46 76.01 76.02 76.28 76.17 76.70 76.65 76.34 76.44 76.77 76.81 76.83 76.72 76.54 76.58 76.76 76.28 76.42 76.37 76.31 76.56 76.57 76.83
64.72 67.43 56.69 56.69 59.28 63.29 65.84 65.93 63.57 63.25 66.89 66.84 65.76 63.89 66.02 71.61 72.08 73.48 74.03 73.80 72.85 72.90 75.58 76.26 76.43 76.24 76.31 76.45 76.32 76.37 76.42 76.42 76.26 76.54 76.35 76.58 77.08 76.59 76.51 76.73 76.81 76.20 76.34 76.28 76.12 76.06 75.89 75.84 75.01
63.19 60.70 56.70 58.85 60.25 62.30 64.26 66.68 63.76 64.96 65.66 65.41 67.60 62.88 67.52 69.82 72.88 73.74 74.12 73.11 72.35 74.11 75.49 76.20 76.50 76.77 76.25 75.97 76.63 76.49 76.47 76.42 76.51 76.32 76.23 76.54 76.78 76.70 76.62 76.78 76.73 76.05 76.14 76.06 75.87 76.09 75.83 75.67 75.19
65.73 64.27 57.99 61.22 60.28 60.65 65.86 66.74 67.89 66.81 65.43 69.29 68.71 62.92 64.12 69.05 73.14 73.80 73.49 72.02 74.34 74.83 75.00 75.62 75.41 76.33 76.09 76.50 76.59 76.43 76.51 76.37 76.93 76.47 76.75 76.56 76.90 76.75 76.62 77.35 76.95 75.80 75.94 75.78 75.73 75.70 76.11 75.94 76.04
67.56 61.74 59.20 61.04 61.43 63.05 67.20 65.15 67.58 68.89 66.73 67.02 67.77 67.43 69.72 71.80 73.07 72.32 70.51 71.30 72.69 73.73 74.55 74.66 75.25 76.12 76.52 76.57 76.73 76.42 76.52 76.82 76.41 76.56 76.12 76.73 76.28 75.69 76.51 76.51 76.20 76.11 75.56 75.25 74.85 75.14 75.56 75.73 76.05
65.33 61.68 60.71 64.88 63.94 65.00 66.26 66.21 66.10 65.98 65.88 65.65 66.52 69.30 70.57 71.64 71.75 69.03 69.03 69.81 71.44 72.59 73.44 74.51 74.87 74.98 75.51 74.99 76.57 76.82 76.31 76.85 76.71 77.40 76.03 75.16 76.04 76.78 76.19 76.79 76.47 76.25 75.50 75.34 74.87 75.20 75.01 75.19 75.95
65.55 61.87 65.11 63.38 64.82 67.68 66.34 65.57 66.74 65.42 63.92 66.36 65.81 67.51 69.48 70.23 69.37 68.01 69.29 70.71 71.58 72.93 73.34 74.06 74.63 74.88 74.80 74.92 74.92 74.80 75.73 76.10 76.80 76.67 75.75 75.85 75.70 75.74 75.01 75.40 75.76 75.64 75.16 76.02 76.48 76.33 75.95 75.96 76.53
62.18 65.53 64.50 64.47 66.46 66.98 65.62 66.56 64.50 64.54 65.60 68.52 68.80 68.98 69.01 68.22 67.63 67.40 69.18 70.88 71.73 72.50 72.88 73.52 74.07 74.90 74.90 74.66 73.78 74.02 75.13 75.24 74.85 75.53 77.01 76.54 75.18 75.32 75.65 75.48 75.89 77.20 75.99 76.84 76.67 75.95 76.65 76.15 76.71
63.41 65.16 64.36 64.96 66.23 67.12 67.07 64.89 64.26 64.78 67.75 69.03 68.63 68.19 67.60 67.73 67.23 68.32 70.02 71.60 72.29 71.89 72.37 72.99 74.28 75.37 75.91 75.32 73.91 74.19 74.50 75.17 75.08 75.40 76.51 76.19 75.44 75.80 75.91 76.54 76.75 77.08 77.13 75.95 76.40 76.63 75.90 75.58 75.15
65.12 65.52 64.45 63.88 64.76 65.85 65.11 64.97 65.10 65.75 68.07 67.46 66.95 66.84 67.32 66.97 67.15 68.47 69.54 70.79 72.24 72.11 72.22 73.21 73.98 75.36 75.88 75.44 75.78 75.11 75.32 75.52 74.96 75.28 76.19 76.68 76.11 77.09 75.88 76.33 76.15 76.78 77.07 76.80 77.05 76.79 75.44 74.94 74.68
65.65 62.99 63.58 63.74 65.74 62.03 65.14 62.41 63.08 66.38 66.98 65.87 66.48 67.29 67.53 68.35 68.97 69.15 70.34 70.98 72.22 72.27 72.73 73.48 74.47 75.63 75.78 75.84 75.94 75.24 75.29 75.17 74.68 75.27 76.81 77.03 77.32 77.45 77.93 76.22 76.56 76.74 77.81 78.60 77.93 77.29 76.66 74.44 74.59
62.48 63.81 58.70 62.65 64.71 63.04 61.84 58.65 63.98 66.86 65.67 65.77 66.67 67.03 67.95 68.90 69.54 70.63 71.36 71.80 72.64 72.23 72.82 74.07 73.86 74.70 75.16 75.52 75.92 75.33 75.28 75.15 75.02 75.80 76.59 76.98 77.43 77.59 77.63 76.26 76.17 77.57 77.68 77.90 76.10 76.04 74.30 75.08 75.09
61.95 57.87 57.55 59.61 63.12 60.82 58.13 58.01 61.91 67.05 65.74 65.77 66.96 67.57 67.96 69.16 70.16 71.30 71.85 72.33 72.82 73.10 73.49 73.56 74.37 73.95 75.12 76.48 76.00 75.96 76.70 76.00 75.95 76.05 76.70 77.62 77.07 76.89 77.94 77.19 77.00 78.37 77.18 76.70 76.61 75.36 75.70 74.79 75.00
57.40 56.66 58.05 58.37 59.92 57.87 55.89 57.00 61.09 64.99 65.55 65.46 66.95 67.64 67.81 68.41 69.80 71.95 72.39 72.84 73.15 73.83 74.12 74.44 74.32 75.44 76.13 76.10 76.13 75.84 75.73 76.18 76.22 76.22 76.33 77.46 76.73 76.97 77.81 76.73 77.76 77.60 76.59 76.30 76.23 77.19 76.14 75.02 74.45
58.77 57.80 56.55 58.80 59.59 56.16 55.90 57.25 60.24 63.09 64.48 65.37 66.52 67.17 67.96 68.61 70.56 72.31 73.04 73.21 73.25 73.87 74.25 74.77 74.80 76.13 75.75 74.68 73.93 74.20 73.65 75.07 75.58 76.22 77.27 77.65 77.47 77.14 77.81 77.61 77.42 77.67 76.74 77.04 77.90 77.01 75.61 73.78 75.72
59.56 58.52 57.20 58.85 60.49 59.81 57.97 57.53 60.29 61.99 62.24 64.51 65.81 66.92 67.53 68.37 69.82 71.27 72.55 73.14 72.94 73.67 74.37 75.08 75.40 76.65 76.26 75.83 76.13 75.92 74.95 74.91 75.36 76.14 77.28 77.42 77.29 76.99 77.28 78.39 77.45 77.99 76.02 77.91 77.78 77.27 74.70 74.84 76.22
56.20 56.48 58.29 57.60 59.09 60.01 56.33 54.05 58.24 61.81 62.62 63.67 64.94 67.79 68.50 68.69 68.48 70.32 71.78 72.74 73.32 73.24 74.11 74.90 75.93 76.53 77.08 77.26 77.10 76.66 76.96 76.70 75.40 75.60 75.45 76.90 77.44 77.14 77.34 77.59 78.15 77.88 77.16 75.48 78.01 77.02 77.00 72.77 75.66
52.10 57.56 58.92 59.20 56.42 52.11 59.23 48.94 54.45 60.13 61.36 61.51 61.71 65.35 67.92 68.92 69.95 70.42 71.27 72.29 73.17 73.81 74.42 75.01 75.97 76.18 77.08 77.98 76.47 76.87 74.42 74.54 74.76 75.64 75.88 76.04 76.52 76.84 77.10 77.53 77.62 78.53 77.94 77.88 77.78 77.44 77.52 77.29 73.66
51.39 56.35 56.51 57.76 56.91 56.05 56.46 52.93 56.10 59.48 60.02 62.56 63.34 65.63 66.27 68.92 69.60 70.48 71.19 72.35 73.53 74.39 74.47 75.02 76.26 76.44 76.55 77.44 77.45 76.62 75.09 74.35 75.10 75.89 76.45 76.71 76.81 77.30 77.23 77.49 78.33 78.21 76.73 77.62 78.00 78.13 77.10 77.23 75.13
57.72 57.52 56.76 56.01 54.67 50.29 54.61 54.44 54.58 56.60 59.83 62.76 64.13 65.35 66.27 67.52 69.50 70.62 72.06 72.79 73.16 74.54 74.72 74.79 76.00 76.70 76.88 76.88 76.80 76.51 75.56 75.72 74.61 75.32 74.59 74.37 76.18 75.79 76.40 76.60 77.20 78.14 78.10 77.73 76.89 77.94 76.32 78.23 76.94
55.75 51.12 47.69 46.66 47.90 48.56 56.22 54.29 56.51 61.94 63.79 65.41 65.35 65.01 66.99 67.60 69.67 69.84 71.16 72.19 72.96 73.66 74.21 74.41 75.48 75.75 76.52 76.28 76.13 76.35 75.76 75.74 75.89 75.51 73.98 75.79 75.09 74.94 75.74 77.00 77.00 76.75 77.46 77.86 77.53 78.29 77.34 77.21 77.51
53.97 51.01 46.34 44.31 44.29 49.09 55.46 51.78 57.36 63.48 65.51 66.42 67.94 67.78 67.70 67.60 69.34 69.92 71.26 72.49 73.18 73.47 74.38 74.25 74.84 75.24 75.87 75.95 76.44 77.15 76.33 74.31 74.06 75.12 76.22 74.70 76.55 75.54 78.00 76.79 77.08 77.43 77.21 77.68 78.04 76.97 76.05 77.00 76.05
53.08 51.28 55.43 49.59 53.36 49.98 53.34 55.89 60.94 62.81 64.24 65.20 65.79 66.61 67.12 66.86 67.92 69.67 71.41 72.70 72.91 73.47 74.31 74.54 74.76 75.37 75.55 75.37 76.13 76.18 75.80 75.56 75.80 76.06 77.27 76.02 76.54 77.35 77.86 77.78 77.02 77.40 77.37 77.76 77.93 75.98 76.79 77.65 77.36
52.55 54.22 49.97 51.56 45.76 44.88 50.92 52.44 55.76 60.25 62.18 64.55 64.64 66.04 66.44 66.64 67.02 68.53 70.68 72.04 71.68 73.56 74.40 74.09 75.23 75.28 75.40 75.15 75.53 75.33 75.50 75.91 75.40 76.24 75.47 76.62 78.45 78.09 77.77 77.77 77.53 76.86 76.99 77.04 77.48 76.69 76.89 77.18 76.08
50.44 49.69 50.73 51.32 50.76 46.42 46.43 50.58 61.51 61.43 63.87 64.70 65.60 67.10 67.28 66.75 68.12 68.10 68.88 72.13 73.29 74.06 73.49 71.73 74.75 75.20 75.07 74.95 75.14 75.31 75.33 75.34 76.25 75.62 75.55 76.38 76.31 77.56 77.57 78.34 77.87 77.62 76.91 77.43 77.79 77.39 76.64 76.48 76.06
53.72 51.07 51.57 46.90 47.06 50.24 50.43 53.71 63.22 63.80 64.73 65.72 67.05 67.57 68.13 67.99 68.69 69.10 68.43 68.94 70.66 71.47 71.15 71.07 72.11 73.24 74.70 75.16 75.40 75.25 74.65 75.46 74.83 75.53 75.50 76.95 76.23 77.60 77.21 77.57 78.06 77.36 76.38 77.32 77.38 76.45 75.85 76.01 75.02

GFSSGP_sfc_wetblb_105.txt.gz
Wetbulb
73.91 73.66 75.11 72.39 64.31 63.60 57.57 58.24 61.73 59.46 60.43 63.48 63.11 63.06 64.08 65.20 61.78 58.37 71.04 73.18 73.96 73.99 74.68 76.44 76.33 76.77 76.28 76.06 76.49 76.73 77.29 77.11 77.17 77.05 76.97 77.13 76.86 76.66 76.58 76.31 76.47 76.57 76.55 76.56 76.10 75.95 75.22 74.86 75.89
75.05 73.14 73.52 69.13 61.48 56.64 56.46 60.26 58.43 60.73 62.13 63.07 63.98 65.40 63.51 62.05 66.25 67.91 70.29 73.49 74.17 73.61 75.11 75.65 76.81 76.62 76.75 76.27 76.72 76.79 77.06 76.89 77.01 77.06 76.94 76.87 76.91 76.57 77.06 76.28 76.35 76.06 76.44 76.50 75.97 76.17 76.42 76.17 75.50
74.71 73.27 69.15 63.64 61.40 56.80 56.77 60.73 61.05 61.47 62.87 63.53 63.33 67.54 64.59 62.99 67.26 69.27 72.71 73.60 73.94 75.31 76.28 76.47 76.02 75.60 76.24 76.38 76.06 76.56 76.62 76.76 76.92 76.74 76.73 77.01 76.93 76.82 76.69 76.41 76.27 76.07 75.89 75.83 76.28 76.21 76.07 76.11 75.64
72.58 72.34 69.37 59.58 58.49 60.59 61.09 61.94 62.08 61.03 63.44 66.89 67.43 62.37 66.12 69.72 69.12 71.62 73.29 74.14 74.17 74.70 74.84 75.56 75.30 75.36 75.14 76.44 76.53 76.85 76.32 76.64 76.91 76.45 76.89 76.70 76.65 77.02 77.05 76.69 76.64 76.58 76.59 76.56 76.56 76.25 76.25 76.69 75.80
73.15 67.53 59.96 57.99 59.23 61.42 63.30 63.97 62.58 61.81 65.14 66.60 65.24 62.04 64.59 69.77 71.93 73.02 72.74 73.51 72.87 73.78 73.13 75.32 76.64 76.51 76.16 76.13 76.56 76.37 76.84 76.89 76.62 76.66 76.56 76.91 76.94 77.14 77.05 76.75 76.75 76.73 76.78 76.53 76.48 76.64 76.58 76.41 75.31
65.47 66.03 56.86 56.70 60.01 62.46 65.45 64.74 62.85 64.08 65.61 67.05 64.67 64.73 66.08 71.15 71.44 72.05 74.10 73.91 72.57 72.44 74.83 76.26 76.57 76.64 76.50 76.21 76.48 76.72 76.73 76.30 76.53 76.94 76.63 76.91 77.03 77.36 76.94 76.98 76.61 76.67 76.28 76.31 76.45 76.20 75.95 75.06 74.62
63.55 61.21 59.34 59.02 61.23 62.45 64.05 65.48 64.02 65.92 66.23 64.50 66.82 63.75 67.23 69.75 71.86 72.47 72.37 71.52 72.87 73.86 74.90 75.41 76.57 76.57 76.49 76.83 76.62 76.81 76.73 76.36 76.98 76.94 77.05 76.92 76.86 76.73 77.03 76.59 76.56 76.67 76.30 76.28 76.36 76.14 76.05 75.74 75.47
66.36 63.50 60.99 61.27 60.74 61.21 65.36 65.35 66.29 65.64 64.44 69.56 68.33 63.81 64.79 69.49 71.98 72.54 71.17 71.35 72.95 73.02 74.13 74.78 75.20 75.13 76.29 76.07 76.74 76.87 76.90 76.88 76.77 76.81 76.75 77.11 77.09 76.89 77.20 76.89 76.34 76.27 76.13 75.94 75.91 76.14 76.11 76.26 75.57
68.00 61.08 60.72 60.87 61.31 62.67 66.43 65.04 68.15 69.09 67.61 67.80 68.81 68.10 70.26 71.50 72.03 71.07 69.84 72.23 72.55 72.34 74.13 73.55 73.84 74.92 76.70 76.28 76.62 76.67 76.91 77.07 76.82 76.53 76.78 77.47 76.42 76.09 76.54 76.67 76.06 75.82 75.63 75.26 75.14 74.93 76.14 76.38 76.45
66.71 61.78 61.90 65.24 65.87 65.39 67.08 66.86 67.20 66.40 66.06 66.37 67.29 69.95 70.79 71.43 70.51 68.86 69.27 69.82 70.06 70.67 72.19 73.52 74.39 74.33 75.32 73.64 76.88 76.42 76.00 76.27 76.56 76.34 77.16 76.96 76.36 75.50 74.93 76.17 75.69 75.28 75.31 75.33 75.31 75.83 76.27 76.64 76.40
66.72 62.88 64.27 66.26 66.84 66.92 66.47 66.63 67.76 65.62 63.96 66.54 66.63 68.33 69.98 69.89 69.54 68.52 69.49 70.16 70.54 71.34 72.61 72.53 73.92 74.18 74.01 74.34 74.54 74.79 75.67 75.91 75.68 75.83 75.38 75.46 74.79 75.27 74.45 75.63 75.64 75.76 76.56 74.65 76.24 76.03 75.29 74.54 75.14
62.80 66.28 65.61 66.44 66.96 66.44 66.02 67.65 64.82 65.39 66.32 69.28 69.56 69.54 69.51 68.72 67.81 68.43 69.40 69.91 70.99 71.11 71.82 72.95 73.57 75.01 74.21 73.78 73.73 74.26 73.87 74.26 74.07 75.30 76.67 76.89 75.41 74.49 78.23 74.64 74.89 77.69 74.66 75.87 77.14 74.71 75.65 75.28 75.13
64.26 65.38 65.42 65.81 66.76 66.97 67.31 65.62 65.46 65.34 68.64 69.89 69.77 69.27 68.34 67.89 67.71 69.51 70.65 71.40 71.79 71.04 71.95 72.66 73.87 76.11 76.19 74.83 73.34 74.96 74.72 74.45 74.58 75.89 75.71 76.89 75.95 75.58 75.06 76.81 75.60 76.43 77.72 74.60 75.14 74.82 74.62 75.22 74.73
65.71 66.01 65.58 66.02 67.29 67.02 64.94 64.83 65.33 66.08 68.87 68.46 68.26 67.44 67.33 67.51 67.71 69.36 70.37 70.72 71.22 71.72 72.00 73.13 73.85 75.32 75.99 74.84 75.79 74.49 73.64 74.65 75.16 75.39 75.95 77.31 75.47 76.82 75.43 76.63 75.27 75.08 76.58 75.56 75.75 76.00 74.37 74.09 73.63
66.26 63.10 64.45 63.37 64.85 64.43 65.29 62.17 62.03 66.61 68.02 66.95 66.60 66.08 67.04 67.35 68.37 68.91 70.53 70.99 72.08 72.04 72.70 73.42 74.13 74.44 74.81 74.93 75.32 74.77 74.74 74.21 74.29 75.05 76.91 76.85 77.42 77.67 77.14 74.99 74.40 75.64 76.43 77.51 76.33 75.71 75.57 73.36 73.46
63.63 62.03 57.93 62.04 64.03 64.77 65.54 58.04 63.47 67.12 66.46 64.89 65.19 65.84 66.48 67.65 68.68 70.00 70.67 71.47 72.49 72.67 72.87 73.72 73.91 74.00 74.20 75.17 76.13 75.92 76.08 75.26 75.24 75.27 76.17 77.22 77.77 77.49 77.90 74.80 75.29 75.77 76.56 75.97 74.83 74.51 73.41 73.50 73.40
59.63 56.29 56.96 59.25 62.74 61.98 61.90 59.68 64.83 66.33 65.27 64.92 65.58 66.07 66.79 68.05 69.68 70.67 71.11 71.87 72.45 73.14 73.46 73.55 73.60 74.03 74.77 75.96 76.12 76.52 77.33 75.71 75.48 75.59 75.56 77.61 77.58 77.27 78.55 76.44 76.31 78.39 76.25 75.23 76.80 72.80 76.09 72.75 73.53
53.52 55.16 58.03 57.35 58.58 59.61 57.94 58.90 64.10 65.26 64.76 63.83 64.83 66.28 66.24 67.16 68.56 71.03 71.44 72.04 72.77 73.61 73.98 74.01 73.81 75.04 77.16 76.42 76.91 75.39 75.62 75.18 75.48 75.31 75.81 77.46 76.97 77.14 77.75 76.84 76.87 78.05 76.38 75.09 75.13 77.79 74.86 74.19 73.41
58.29 57.45 57.33 58.58 59.16 57.59 57.35 58.53 60.20 64.01 65.49 63.64 64.30 65.29 65.98 66.62 69.38 71.12 71.52 71.91 72.62 73.44 73.46 73.89 74.21 75.68 75.64 74.07 73.78 73.73 74.68 76.00 76.75 75.74 77.30 77.46 77.40 77.56 78.24 76.44 76.95 77.62 77.57 77.33 76.90 76.12 75.39 73.13 74.19
58.41 58.88 56.45 57.92 58.95 58.26 57.33 56.78 59.32 61.48 65.05 64.81 64.29 64.57 66.35 66.95 68.80 70.59 70.92 71.52 72.04 72.86 73.27 73.96 75.26 75.98 76.44 75.17 78.56 77.87 74.30 74.98 74.85 75.36 77.23 78.09 77.28 77.56 77.08 79.02 77.42 75.87 76.19 77.26 77.66 77.55 74.98 72.58 73.55
58.44 56.00 55.91 54.85 58.09 58.75 57.13 53.48 56.60 60.26 62.61 65.00 65.56 66.01 67.99 67.73 67.57 70.19 70.43 71.14 71.95 72.61 73.45 74.25 75.49 76.10 76.65 77.53 77.38 76.85 77.08 76.88 74.25 75.30 75.75 76.57 77.29 77.30 77.86 77.71 78.27 77.60 77.77 75.74 77.84 76.72 77.15 72.09 73.12
53.87 61.64 58.83 55.02 56.55 49.94 57.51 47.21 54.16 58.19 59.56 61.31 63.30 65.02 66.50 67.07 68.28 69.89 70.61 71.20 71.32 73.05 73.99 75.30 76.00 76.36 76.62 77.63 78.18 75.37 74.67 72.76 74.94 75.54 75.98 76.34 77.29 76.92 77.39 77.78 77.76 78.41 78.38 79.04 77.35 77.19 78.57 78.08 72.11
55.19 58.81 58.33 57.51 56.29 54.75 54.58 51.95 53.82 59.18 57.85 58.91 60.88 64.63 66.49 66.01 68.59 67.70 69.94 71.38 71.72 73.46 73.86 74.79 76.22 77.03 77.42 77.94 76.45 75.99 75.93 73.25 72.41 74.58 77.42 78.47 77.86 77.19 76.85 77.78 77.95 77.97 76.89 77.99 78.38 77.34 78.53 76.69 75.67
59.22 57.83 57.75 58.34 55.92 50.78 54.98 55.47 52.87 55.30 59.71 60.70 61.45 62.84 64.46 67.38 69.09 69.71 70.03 71.21 72.13 73.41 73.09 74.60 75.71 76.87 76.77 77.21 76.91 77.13 76.33 76.02 73.35 75.49 75.11 75.28 75.52 76.29 77.24 77.18 77.77 77.87 78.00 77.45 76.58 77.84 77.52 78.07 78.61
59.04 57.25 51.20 49.39 49.96 49.31 55.79 54.39 56.80 60.73 62.59 64.32 64.46 63.30 64.99 68.23 67.42 69.36 67.97 71.17 72.35 72.57 73.76 73.74 75.42 75.60 76.09 76.64 76.04 76.36 75.84 75.73 75.47 75.14 75.08 73.52 74.58 74.57 76.54 77.62 77.28 76.61 77.84 78.03 77.90 77.85 78.07 76.97 76.50
56.02 56.15 51.83 45.37 46.75 50.60 57.25 51.40 56.19 64.11 65.58 67.45 68.04 66.55 66.01 66.99 69.25 68.88 70.57 71.96 71.51 71.52 73.43 73.75 74.98 75.39 75.97 75.99 76.37 76.86 77.02 74.99 74.46 76.10 76.21 75.32 74.55 74.98 77.69 77.35 77.26 77.12 77.83 77.58 78.29 76.74 75.43 78.73 75.98
54.28 53.28 57.68 53.42 50.22 49.07 53.05 57.71 60.02 64.56 64.21 65.75 67.24 67.88 66.94 68.35 66.58 67.08 70.56 72.13 71.86 73.35 72.18 74.46 75.06 75.52 75.74 75.71 76.26 76.46 76.43 76.08 76.02 72.28 76.16 76.82 77.56 77.01 78.14 77.13 77.35 77.37 77.28 77.80 78.41 76.24 77.17 77.87 77.27
54.70 56.72 51.32 52.73 45.85 45.43 50.44 52.84 55.31 59.41 62.22 64.38 66.02 67.28 68.48 69.02 68.31 69.31 69.01 70.44 72.62 73.05 73.87 74.16 74.75 75.21 75.47 75.39 75.56 75.67 75.77 76.06 76.34 76.53 76.38 72.31 76.21 76.53 77.40 77.31 77.27 77.41 77.83 77.77 78.13 77.91 77.97 77.16 76.24
51.17 50.98 52.56 53.72 52.21 47.52 46.92 51.00 61.24 62.12 63.89 64.93 66.22 67.38 68.63 67.61 67.75 67.61 70.07 69.76 73.26 73.87 72.97 73.79 73.39 75.08 74.76 75.34 75.54 75.50 75.06 75.14 75.87 75.05 75.65 76.52 76.41 76.65 76.98 77.33 77.15 76.89 77.23 77.61 77.38 78.46 77.08 76.77 76.70
53.70 51.67 52.05 48.39 48.83 51.20 50.54 51.44 64.20 64.70 65.23 66.29 66.77 67.58 69.46 68.95 68.98 67.51 68.41 70.71 72.94 73.76 74.68 74.75 75.76 73.64 74.83 74.13 76.08 75.56 75.70 75.43 74.57 75.02 75.38 76.80 76.65 77.45 76.94 77.58 77.22 76.50 76.98 77.21 77.06 76.93 76.18 75.84 75.62

GFSSGP_sfc_wetblb_108.txt.gz
Wetbulb
74.44 72.86 73.87 70.30 61.92 62.01 56.13 57.20 60.87 59.01 59.67 62.69 66.03 64.56 62.63 63.42 61.11 56.98 70.38 72.48 73.54 72.87 74.56 75.48 77.17 76.19 76.46 76.54 76.75 76.97 77.03 77.20 77.01 76.96 77.34 77.45 77.32 76.58 76.48 76.54 76.61 76.66 76.46 76.33 75.78 75.36 75.53 76.34 76.04
74.20 73.81 72.55 68.92 60.26 54.58 54.89 59.52 58.42 60.19 61.35 65.72 66.34 64.98 62.92 61.06 66.49 67.97 68.49 72.47 73.20 73.07 74.19 74.95 77.25 77.19 76.28 76.86 76.61 76.69 76.94 77.05 77.05 76.91 76.80 76.71 77.43 77.52 77.25 76.62 76.65 77.14 77.23 76.19 76.63 76.33 75.75 75.39 75.82
72.36 74.07 68.30 63.59 60.00 54.48 55.39 59.34 59.83 60.88 62.63 65.74 62.91 65.63 63.98 63.47 67.63 69.10 71.94 72.55 73.51 73.42 74.62 75.70 76.86 77.09 76.66 76.48 76.70 76.71 76.73 76.96 76.69 76.51 77.07 76.96 77.13 76.48 76.51 76.32 76.03 76.19 76.33 76.29 76.60 76.49 75.86 75.53 75.58
71.67 71.15 68.79 58.08 56.51 59.53 59.69 60.51 61.33 61.56 65.43 65.24 64.06 61.47 65.43 69.11 68.58 71.15 73.24 74.10 74.14 74.85 74.74 75.58 75.98 75.90 76.85 76.28 76.59 76.42 76.86 76.78 76.84 77.37 77.33 77.65 77.48 76.99 76.94 76.60 76.50 76.81 76.53 76.41 76.46 76.77 76.25 75.33 75.08
71.53 67.14 59.71 57.36 58.84 60.58 62.31 62.10 61.96 62.94 65.10 63.36 64.22 61.98 64.14 68.80 72.02 73.15 73.39 73.87 73.10 72.73 72.28 74.85 77.18 76.07 76.50 76.61 76.78 76.79 76.92 76.90 77.46 77.83 77.80 77.75 77.18 77.19 76.72 76.86 76.81 76.89 76.73 76.75 76.53 76.69 75.47 74.98 74.39
64.89 65.56 56.45 55.08 58.45 61.22 62.12 62.80 64.41 64.64 65.72 64.65 63.72 63.54 64.70 70.74 71.19 71.83 72.93 72.83 71.87 71.90 74.19 75.25 76.91 76.69 76.68 76.93 77.00 76.74 76.65 77.36 78.11 77.40 76.95 77.12 77.51 77.22 77.55 76.92 76.98 76.61 76.67 76.61 76.25 75.92 75.28 74.64 74.17
63.11 60.88 56.46 58.40 57.75 61.44 61.72 64.52 63.72 64.92 64.39 63.29 66.33 62.02 65.91 68.84 70.76 71.98 72.42 73.02 72.51 73.71 73.97 74.96 75.24 76.36 76.95 76.86 77.12 77.25 77.59 77.16 77.20 77.90 77.77 78.19 77.60 77.22 77.22 77.50 77.20 76.64 76.61 76.56 76.36 76.22 75.90 75.60 74.67
65.82 62.77 59.48 60.07 58.34 59.23 62.89 65.20 66.49 66.01 64.01 68.04 67.75 62.36 63.47 68.50 71.66 70.73 72.87 71.03 71.88 73.58 74.48 73.75 74.99 74.86 75.04 75.37 77.01 76.77 77.61 77.15 76.96 77.81 77.92 78.05 77.78 77.53 76.75 77.35 77.49 76.45 76.42 76.25 76.36 76.50 76.49 76.15 75.90
67.76 61.27 58.89 59.99 60.67 61.48 64.61 64.92 67.63 68.94 66.28 66.53 67.77 67.22 68.77 70.06 69.98 68.66 71.08 71.74 72.62 72.89 73.84 73.97 74.20 74.80 76.63 76.25 76.28 76.96 77.13 77.32 77.32 76.69 77.92 76.75 75.41 75.29 75.53 77.28 76.67 76.39 75.99 75.76 76.31 76.72 76.74 76.51 76.02
65.41 60.27 60.84 65.27 64.84 63.15 65.25 65.88 66.48 64.97 65.25 65.49 66.38 68.35 69.42 69.54 68.52 67.77 67.72 69.26 69.18 71.36 72.23 72.59 74.19 73.85 74.45 74.35 76.16 76.73 76.31 75.75 76.20 76.19 75.37 77.68 75.82 75.60 74.01 76.23 76.92 76.18 75.67 76.44 77.34 77.44 77.03 76.42 75.54
64.92 60.68 63.03 65.34 66.45 66.75 65.64 65.26 67.35 64.84 63.37 65.49 65.38 66.30 67.90 68.23 67.57 67.76 69.66 70.28 70.28 70.52 71.60 71.49 74.95 74.54 74.04 75.52 75.72 75.32 75.50 75.97 75.12 77.57 73.40 77.05 74.53 74.20 74.22 75.50 74.45 74.89 76.56 73.90 75.49 75.71 75.17 74.67 74.91
62.32 65.06 63.12 65.04 67.28 66.26 64.49 65.72 64.68 64.98 65.21 68.45 68.76 68.00 67.96 67.37 66.67 67.71 68.86 68.53 70.31 70.72 71.27 72.42 71.45 74.84 71.45 75.15 73.33 74.70 74.97 74.64 75.17 76.44 79.05 78.40 73.87 76.06 73.28 73.30 72.75 76.98 74.86 70.04 72.53 74.85 75.65 74.47 73.13
62.92 65.07 65.26 66.29 67.66 66.49 66.12 64.06 65.06 65.40 68.27 69.39 69.40 68.35 66.97 67.14 67.25 68.91 69.26 70.55 70.20 70.62 71.73 73.10 75.13 75.89 77.86 74.10 73.12 74.29 74.10 75.50 74.76 72.68 74.95 77.97 73.70 74.49 74.09 66.56 72.50 76.01 74.76 74.99 75.33 75.83 74.57 75.08 74.86
65.19 65.75 65.63 66.16 66.34 65.61 64.33 64.94 64.41 66.28 68.43 67.81 67.83 67.01 67.16 66.59 67.23 69.01 69.28 69.73 70.32 71.28 72.52 73.64 73.88 76.46 76.10 78.16 76.77 73.71 75.35 76.44 74.57 73.06 72.86 72.00 77.53 76.11 75.02 74.17 74.81 72.18 76.86 77.05 73.53 74.52 74.17 74.50 73.31
66.67 63.29 64.56 64.72 66.03 65.05 66.34 61.96 61.30 66.04 67.52 66.32 66.52 66.26 66.50 66.65 68.20 68.56 69.60 69.78 70.56 71.50 73.46 72.97 73.63 73.58 75.88 77.73 76.41 72.69 74.50 75.68 76.17 75.87 71.97 72.55 78.52 79.89 74.69 73.83 76.06 76.78 77.33 77.31 77.76 76.91 74.42 74.17 74.23
63.69 62.95 58.17 62.28 64.49 64.80 64.38 57.44 63.01 66.31 66.12 64.78 65.29 64.98 66.03 66.62 67.61 69.47 70.06 70.38 71.54 71.88 73.32 73.40 72.69 73.48 74.44 76.30 75.97 76.21 73.00 74.70 73.12 75.65 77.55 77.75 79.61 78.99 77.26 76.88 73.39 77.37 78.53 77.70 76.30 76.64 74.55 71.63 74.43
61.01 54.26 57.16 58.34 62.75 62.30 62.82 59.29 63.69 65.95 65.33 64.10 63.80 64.49 65.22 66.46 67.68 69.15 70.34 71.29 72.00 72.77 73.35 72.17 74.16 72.87 74.49 77.59 77.33 74.20 78.12 75.30 76.75 76.69 77.30 78.56 78.89 79.35 74.65 76.43 78.08 78.99 75.71 72.85 73.82 73.73 74.61 73.29 72.26
53.81 52.96 54.17 56.48 59.83 60.43 60.45 59.98 62.80 64.66 64.29 63.31 63.58 64.42 65.15 66.13 67.36 69.06 69.91 71.46 72.52 73.33 73.95 71.43 73.72 74.14 77.14 75.64 78.71 78.61 74.72 76.67 75.95 76.67 75.00 79.66 78.63 79.11 78.96 76.90 78.46 75.72 75.16 73.64 75.39 76.31 74.75 76.59 71.24
57.96 55.88 55.28 57.22 59.45 58.39 58.20 58.34 61.29 63.85 63.82 62.96 63.88 63.96 65.18 65.90 68.85 69.45 70.87 71.28 71.72 73.12 73.31 72.83 74.00 75.72 74.11 75.16 71.16 76.39 71.11 75.68 75.29 75.12 78.22 79.61 79.24 79.56 78.68 78.57 76.72 73.15 72.03 78.26 77.98 77.56 76.16 75.75 75.95
59.45 56.17 55.27 56.51 59.62 58.42 57.43 57.59 59.79 61.88 63.05 64.65 64.60 64.84 65.53 66.62 67.52 69.37 69.85 70.89 70.95 72.69 73.70 75.10 73.95 75.55 76.32 75.43 74.06 75.92 75.59 75.58 75.49 77.03 78.65 76.70 78.15 79.73 78.69 79.01 75.52 74.72 77.10 78.23 78.82 78.59 76.66 74.91 74.60
56.30 54.86 54.69 54.12 57.30 58.38 56.57 53.70 56.86 60.06 61.89 63.52 65.24 66.66 66.29 67.21 65.81 68.70 69.96 69.20 71.23 72.27 73.45 74.70 75.13 76.36 77.05 77.84 75.12 77.85 74.39 78.07 74.84 74.84 76.74 76.69 77.25 78.45 74.59 79.55 75.60 78.29 77.46 77.17 79.27 78.78 76.83 74.51 74.28
54.15 59.59 57.86 55.70 54.62 50.26 57.02 47.86 53.00 56.36 58.37 61.01 63.30 65.25 65.65 66.10 67.61 68.57 69.60 69.05 70.72 72.48 73.47 75.62 76.20 76.28 76.70 75.87 75.71 72.70 75.56 72.93 75.21 76.91 75.89 77.76 78.09 77.47 78.75 79.69 79.51 78.26 73.10 73.95 78.55 77.91 78.09 76.41 74.44
55.38 60.55 58.59 57.34 54.69 53.38 52.95 50.87 54.26 57.00 55.31 58.43 61.73 64.65 66.11 65.77 66.72 68.27 68.40 70.60 71.64 71.62 73.28 75.02 76.34 76.34 77.29 74.92 78.29 76.83 76.92 71.76 72.48 72.96 73.72 79.50 79.55 79.15 77.15 79.27 79.32 79.58 78.18 78.07 78.81 77.30 78.02 77.24 76.59
60.64 59.03 57.14 54.96 53.82 48.86 52.97 52.61 50.47 53.86 56.27 58.70 61.21 63.01 65.59 67.32 66.65 68.80 69.38 70.24 72.16 71.89 73.32 75.05 75.97 76.05 76.71 76.39 76.07 76.76 73.22 71.54 72.63 71.07 71.76 76.02 75.89 77.13 78.93 77.62 79.13 79.81 79.06 75.71 77.76 79.17 77.95 77.62 78.43
57.57 55.61 50.25 47.33 48.19 47.40 55.06 52.71 53.50 58.02 60.57 60.52 60.11 62.39 63.75 66.51 66.98 66.87 69.15 70.49 70.51 70.86 72.84 74.42 75.26 74.85 76.51 76.34 76.04 76.45 76.82 73.73 70.87 72.03 72.71 69.78 73.61 73.42 77.89 79.63 79.55 78.82 79.17 78.09 78.90 78.95 78.05 77.64 76.70
54.37 54.17 49.99 43.36 45.45 46.06 52.39 50.76 56.22 60.47 63.26 63.62 63.55 64.10 63.94 64.50 66.53 68.52 69.00 69.56 70.63 71.47 71.02 74.36 75.33 74.69 75.59 76.32 76.99 78.01 77.63 76.46 74.48 73.28 72.98 69.50 71.09 72.12 77.15 78.88 78.45 78.91 79.13 78.71 79.15 78.28 77.14 77.73 77.45
53.93 51.93 56.57 50.73 50.14 49.04 51.18 54.80 60.80 61.15 62.47 63.62 64.41 64.35 64.53 66.05 65.73 67.54 69.01 68.79 69.47 72.50 71.56 71.90 75.14 75.78 75.81 75.78 76.65 77.43 78.24 77.70 77.24 74.91 73.49 71.52 72.78 73.17 74.44 77.44 78.57 78.20 78.08 79.05 78.23 77.60 76.22 75.32 72.75
54.81 56.52 50.43 51.50 45.57 44.50 48.25 49.28 51.82 59.50 61.71 64.95 64.19 64.57 65.66 66.06 67.21 69.15 69.00 67.90 69.51 71.66 72.75 71.49 73.10 75.26 75.75 75.64 76.00 75.98 76.78 77.53 77.71 74.62 71.98 70.81 69.97 73.19 69.83 72.43 78.39 79.12 76.76 76.92 78.76 76.66 75.48 77.12 76.89
50.71 51.04 52.60 52.60 51.05 46.15 44.20 48.05 59.16 59.28 63.32 63.97 66.12 65.48 66.19 65.87 66.60 69.63 69.86 70.41 69.38 70.31 70.91 72.60 74.50 75.32 75.15 75.55 75.38 76.08 75.55 76.31 77.09 76.83 75.79 70.65 72.15 74.14 71.05 75.66 79.35 78.76 77.04 76.85 78.55 77.66 77.21 76.24 77.56
53.24 51.29 52.29 48.16 48.70 50.42 49.52 50.74 60.89 60.46 61.41 63.65 65.82 66.60 66.49 67.96 69.59 69.62 69.82 70.91 71.05 70.37 72.53 71.68 74.25 74.70 74.90 74.67 75.93 76.38 76.03 75.85 75.56 76.82 75.78 78.45 77.69 78.79 78.09 78.25 78.09 78.22 78.09 78.65 77.79 76.39 76.34 74.19 75.46

GFSSGP_sfc_wetblb_111.txt.gz
Wetbulb
73.37 72.98 71.47 69.98 60.74 60.29 52.60 54.42 60.74 59.77 60.37 63.81 63.95 62.44 61.07 62.77 59.51 54.23 68.79 71.01 71.56 72.41 73.72 74.78 77.21 76.95 76.95 77.00 77.23 77.13 77.02 76.92 76.45 77.66 77.63 76.54 76.67 76.82 76.90 76.71 76.55 76.41 76.62 74.80 75.28 76.43 76.24 76.13 76.24
71.21 71.83 69.87 67.23 57.73 51.06 51.79 57.42 55.86 60.99 62.96 63.10 63.95 63.34 61.35 59.78 65.34 66.09 67.85 71.17 72.66 73.21 73.57 75.02 76.78 77.30 76.93 76.97 76.98 76.97 77.13 76.99 76.80 76.90 77.83 76.92 77.09 77.24 77.25 76.63 76.27 76.27 76.87 76.74 76.22 75.44 75.64 75.86 75.99
70.80 72.28 66.02 61.88 57.61 52.83 50.85 57.06 57.21 62.21 64.43 62.93 62.21 64.84 63.94 61.86 66.57 67.25 70.70 71.30 72.36 72.49 73.85 74.86 77.58 77.30 77.07 76.91 76.67 76.94 76.90 76.84 76.82 77.03 77.48 77.17 76.51 76.18 76.22 76.30 76.57 76.61 76.60 76.60 76.38 75.33 75.33 75.47 75.49
68.25 69.12 65.55 56.01 55.30 59.95 56.61 57.61 59.47 62.20 63.14 63.53 63.13 61.09 66.11 68.87 68.07 70.26 72.91 72.79 72.32 72.91 73.99 76.44 77.25 76.49 76.52 76.57 76.75 76.82 76.71 76.67 76.86 77.06 77.01 76.73 76.93 76.93 76.79 76.71 76.69 76.41 76.57 76.48 76.62 75.36 74.86 74.70 74.28
66.97 64.32 56.94 55.45 57.00 58.56 59.23 60.78 62.36 60.58 61.99 62.44 63.60 61.66 63.72 68.75 70.69 70.47 71.02 72.76 70.82 71.40 72.49 73.75 76.99 77.09 76.81 76.76 76.82 77.04 76.77 76.92 76.89 77.03 77.01 77.08 76.85 76.83 77.03 76.89 77.02 76.91 76.66 76.53 76.57 75.03 74.50 74.14 73.56
61.52 62.65 55.24 53.48 57.12 58.73 59.61 63.78 63.40 61.86 62.51 63.40 62.46 63.20 63.90 69.86 70.24 71.23 72.26 69.54 70.20 71.50 73.58 73.84 76.64 76.99 77.35 76.54 76.74 77.01 77.10 77.29 77.34 77.19 77.55 77.34 77.04 76.97 77.65 76.78 76.58 76.42 76.31 76.14 75.50 74.81 74.28 73.98 73.37
62.58 57.13 54.78 57.06 58.17 56.83 61.03 65.83 63.37 61.57 62.11 62.58 65.00 61.31 64.53 65.75 69.54 71.20 70.38 70.28 72.41 73.12 73.48 73.96 73.87 75.00 76.76 77.58 76.73 77.00 77.19 77.13 76.94 77.60 77.41 77.14 76.99 76.89 77.17 76.58 76.64 76.64 76.47 76.14 75.69 75.06 74.72 74.28 73.55
64.49 60.82 58.50 59.31 58.28 57.21 63.10 65.02 64.75 62.54 61.71 66.48 66.19 60.91 59.55 66.48 69.53 70.43 70.53 70.76 71.37 72.54 73.08 72.89 73.33 74.01 73.73 74.47 76.92 76.90 76.98 77.08 77.25 77.28 77.37 77.86 77.33 76.67 76.80 77.38 77.37 76.53 76.44 76.31 75.86 75.25 75.08 74.95 74.75
67.64 58.65 56.74 57.89 58.29 59.24 64.61 63.36 67.79 67.62 64.09 65.00 66.55 65.08 66.29 69.65 69.92 68.40 67.50 68.71 70.64 71.85 72.03 72.42 72.91 72.69 72.96 74.03 75.26 76.41 76.85 76.93 77.11 76.95 77.10 76.97 73.81 73.63 74.73 76.17 77.08 76.28 76.02 76.16 76.17 75.80 75.77 75.95 76.23
63.92 58.96 58.89 62.98 63.35 62.48 64.28 64.45 64.13 64.09 63.83 64.13 64.50 66.65 68.37 69.38 68.96 68.19 68.25 68.31 67.78 68.78 71.43 71.53 72.62 72.98 72.86 74.06 73.68 73.82 74.55 73.46 73.03 69.81 71.95 72.65 72.36 71.62 73.90 75.45 76.61 75.91 75.68 75.66 75.86 75.11 75.48 76.52 74.12
64.36 58.79 60.48 61.66 64.47 65.69 64.65 64.75 65.96 64.31 61.30 63.95 62.62 64.58 65.33 66.20 66.51 66.97 67.42 68.64 68.04 69.34 70.93 70.59 71.12 72.16 70.79 72.42 72.79 73.16 73.20 73.11 70.80 67.40 68.25 72.21 72.11 70.99 68.64 71.89 73.20 72.84 74.81 67.34 72.34 68.71 71.53 73.12 73.93
61.52 63.39 62.63 61.80 64.10 62.88 64.68 66.72 64.06 64.94 63.92 66.43 65.82 66.22 65.60 63.79 66.69 67.21 67.05 68.04 68.04 69.41 69.40 70.45 71.53 70.32 71.12 73.08 72.47 71.65 72.24 71.97 71.36 71.26 72.38 71.92 69.38 66.13 66.53 69.79 71.90 71.54 68.57 65.12 70.23 71.10 70.96 72.57 72.95
62.43 61.06 61.43 61.86 63.29 64.10 66.69 64.43 64.92 64.76 66.65 66.90 66.50 66.24 64.74 63.34 67.19 68.30 69.03 69.39 68.05 68.99 69.38 69.44 71.49 71.10 69.49 71.40 72.39 71.67 71.26 71.49 70.74 71.54 71.30 71.16 70.42 69.89 68.59 67.07 70.73 67.43 71.55 70.77 69.86 70.81 70.99 70.83 70.71
64.67 63.17 62.82 64.02 64.73 66.25 63.65 63.29 65.22 65.56 67.34 66.04 65.76 64.01 64.78 64.01 67.07 67.04 67.94 68.25 68.08 69.61 70.39 71.02 71.02 71.85 72.90 71.64 72.23 71.17 71.37 71.20 70.05 70.14 70.31 70.54 70.57 70.82 69.61 66.14 70.72 69.92 71.23 71.39 69.81 70.19 71.27 71.09 69.44
64.81 62.10 63.82 63.97 65.23 63.49 65.21 60.61 61.54 65.78 66.83 65.02 64.87 64.25 64.81 64.52 67.05 66.80 67.10 67.56 69.70 70.15 70.60 70.20 69.94 70.99 72.18 70.68 70.55 69.10 70.65 72.56 69.98 66.89 65.49 66.60 69.54 72.84 70.50 71.27 70.22 71.36 72.64 72.46 72.67 71.87 72.40 68.98 70.89
62.56 61.76 56.42 61.63 64.17 63.08 63.31 57.06 62.12 65.34 64.87 63.48 63.95 64.46 64.21 64.87 66.76 68.21 68.39 68.50 70.10 69.77 69.02 70.55 71.28 70.58 69.96 70.78 72.19 70.86 71.21 71.84 72.01 69.43 68.22 68.38 72.97 74.15 72.44 72.73 71.16 71.68 71.68 71.42 72.43 71.73 70.99 69.42 69.00
57.44 52.83 52.55 56.35 62.88 60.24 60.85 56.78 62.88 64.77 64.09 62.48 62.58 63.07 63.34 64.86 65.56 67.80 68.24 69.29 69.95 69.68 69.40 70.35 69.66 69.14 69.93 71.10 72.22 71.25 70.40 69.94 71.47 72.71 73.88 73.37 73.21 75.25 71.26 71.79 73.13 73.26 73.04 71.23 69.98 70.61 69.56 68.65 68.20
52.78 52.57 53.65 53.40 59.45 60.53 59.32 59.10 62.76 63.13 62.66 62.14 60.34 61.31 62.07 63.78 63.95 66.79 69.00 69.35 69.24 70.50 70.22 69.69 69.97 68.87 71.27 71.53 74.08 72.42 71.96 72.31 74.10 73.30 73.68 73.83 72.63 74.97 74.02 74.13 69.32 66.86 69.50 72.76 73.42 71.75 71.98 72.28 69.19
56.61 55.06 54.91 56.93 60.35 58.75 57.75 58.46 60.35 62.31 62.25 60.68 59.17 60.36 62.39 63.36 64.97 66.33 69.48 69.71 69.51 69.52 70.10 71.02 69.84 72.08 70.26 71.09 69.03 69.45 69.22 71.82 72.17 72.72 73.92 73.59 73.35 73.92 73.75 73.28 65.42 65.95 69.15 70.12 73.37 72.74 71.87 71.89 70.81
57.47 54.45 52.98 56.94 59.14 57.93 57.02 56.78 59.93 61.34 61.36 62.79 62.74 61.78 62.27 64.70 64.63 65.49 68.58 69.05 68.99 68.77 68.53 70.82 71.04 71.21 69.49 71.88 70.90 71.92 70.96 72.30 72.84 73.14 73.53 73.47 74.53 73.64 74.19 73.21 69.94 69.93 71.11 72.66 72.75 73.19 72.76 71.18 69.28
56.06 54.22 54.00 53.75 56.38 57.34 56.77 53.50 56.06 60.60 61.52 62.43 63.05 65.26 64.26 64.64 64.46 65.57 67.27 68.04 69.22 69.04 70.26 70.21 71.97 70.43 72.00 72.70 72.24 72.06 70.96 73.31 71.93 71.67 72.54 73.85 74.56 74.02 73.22 73.81 72.26 71.36 71.02 70.20 72.96 73.63 72.45 71.40 71.43
52.77 58.05 56.91 54.67 52.46 48.56 55.82 46.70 52.44 56.67 57.76 59.40 61.47 62.80 63.29 63.95 64.89 66.41 67.15 67.15 68.69 69.70 71.26 70.94 71.33 71.01 72.37 72.27 72.39 70.14 69.70 68.17 70.44 70.53 72.70 72.99 74.23 74.55 73.60 73.73 73.89 72.52 71.93 71.13 72.96 73.40 73.42 72.85 71.11
54.07 57.09 56.98 55.36 52.04 52.66 51.85 49.46 52.13 55.27 54.57 57.16 59.13 62.19 64.84 65.20 65.14 66.16 66.42 67.57 69.33 70.55 70.50 71.88 71.88 71.47 72.09 71.27 72.38 70.88 69.20 69.89 70.61 70.74 70.39 70.61 73.51 74.83 74.78 73.47 73.05 73.58 73.24 72.35 72.67 73.83 72.75 73.34 72.52
60.35 57.48 56.29 55.03 52.30 46.27 50.81 50.67 48.82 53.01 54.66 57.46 59.56 61.49 63.99 64.91 65.88 67.44 68.03 68.02 69.04 70.32 71.05 72.02 71.64 71.19 72.11 70.30 72.30 70.73 69.48 68.41 69.30 69.37 70.36 70.05 71.25 72.51 73.57 74.29 74.18 73.24 73.04 72.91 72.72 72.75 72.00 72.97 72.59
56.75 52.30 44.67 44.21 44.76 44.49 51.71 50.63 52.50 56.43 58.28 59.31 59.30 60.44 63.36 65.14 65.43 66.24 66.29 67.61 68.71 69.08 70.33 72.43 71.80 70.42 71.96 71.83 71.83 71.53 71.32 69.76 69.40 68.42 69.61 68.22 67.83 70.58 70.64 72.43 72.73 72.89 72.74 73.09 73.01 72.44 71.53 72.70 71.69
53.75 51.88 45.71 39.69 42.36 45.78 53.13 48.88 52.94 57.97 60.87 60.53 61.84 61.70 63.23 64.79 65.53 65.84 66.91 67.55 68.47 69.28 70.89 71.81 71.75 70.98 71.71 71.90 71.58 71.81 71.94 70.99 70.04 70.67 70.81 67.72 68.10 70.31 71.62 72.35 73.32 73.11 74.08 73.58 73.63 72.39 73.07 71.97 71.46
49.28 47.96 52.97 47.33 48.48 43.13 49.15 52.28 58.81 59.94 59.10 60.72 60.59 61.48 62.00 64.20 64.89 65.96 66.70 68.38 68.79 69.15 71.18 72.27 71.74 71.36 71.87 72.64 72.52 71.57 71.80 71.02 70.86 70.82 70.39 69.26 67.40 69.83 71.76 72.52 72.75 73.75 73.87 73.37 73.33 72.80 71.70 71.71 70.37
52.08 52.23 43.56 44.71 41.33 40.83 46.76 48.23 50.92 55.22 57.89 59.77 60.29 59.63 61.33 63.41 63.46 65.69 66.35 67.79 68.99 68.88 70.49 72.93 72.74 71.70 71.81 72.94 72.66 72.54 72.42 72.01 71.28 70.54 70.19 67.40 67.74 69.08 71.38 72.39 71.84 73.76 73.01 72.31 72.86 72.11 71.14 72.19 71.72
46.04 44.54 45.50 45.55 44.61 42.01 43.09 46.17 55.74 55.54 58.25 58.57 60.92 62.59 62.32 62.45 63.68 63.82 65.26 67.59 68.20 69.23 70.57 71.28 72.09 72.64 72.12 72.15 72.65 72.39 72.36 72.12 71.21 71.55 70.15 69.54 68.70 70.12 70.27 70.84 71.50 72.86 72.21 73.29 72.69 72.36 71.97 73.16 71.47
48.20 45.14 45.66 40.81 40.48 44.17 44.96 46.98 57.41 58.21 59.64 60.43 59.57 62.24 64.15 64.25 64.25 64.61 66.68 67.09 68.25 68.85 68.60 70.01 69.98 71.53 72.12 72.07 72.59 72.27 72.34 72.27 72.07 71.97 70.39 68.30 68.98 71.04 71.12 70.15 72.76 72.69 72.77 73.14 71.42 72.09 73.28 71.77 71.64

GFSSGP_sfc_wetblb_114.txt.gz
Wetbulb
72.87 72.81 71.99 69.33 58.95 57.22 51.36 55.14 59.90 59.10 59.50 62.91 63.98 61.96 59.42 61.43 57.39 52.42 67.05 69.54 70.37 71.83 73.01 74.89 77.21 76.93 77.06 77.02 77.05 76.72 76.72 76.59 76.77 76.46 76.55 76.53 76.87 76.65 76.40 76.70 76.72 75.81 75.60 76.47 76.50 75.90 76.44 76.25 75.95
70.47 71.68 70.32 65.71 55.50 48.33 51.38 58.78 57.40 59.21 61.43 63.35 63.43 62.85 61.05 59.50 65.42 65.65 66.90 70.84 72.78 72.79 72.73 74.47 77.04 77.02 76.92 76.92 77.22 76.84 76.73 76.47 76.95 76.38 76.46 76.55 77.06 76.70 76.58 76.33 75.51 76.09 76.20 75.60 75.70 76.01 76.17 76.14 75.92
70.55 72.40 65.64 59.22 55.05 51.34 49.60 59.40 58.75 61.49 63.45 63.03 62.25 64.50 62.90 61.78 66.37 67.23 69.77 72.16 72.72 72.78 73.88 73.99 77.03 77.32 76.69 76.83 76.93 77.00 76.48 76.72 76.89 76.91 76.71 76.37 76.55 76.79 76.77 76.56 76.60 76.31 75.79 75.10 75.43 75.65 75.73 76.03 75.51
67.68 68.18 64.11 56.37 54.51 58.87 54.98 58.87 60.80 60.80 63.11 64.66 64.09 61.02 65.26 68.14 67.62 69.29 71.66 72.48 72.11 73.16 73.49 76.28 76.83 76.93 76.57 76.76 76.70 76.81 76.50 77.00 76.91 76.94 76.54 76.64 76.22 76.09 76.18 76.40 76.28 76.28 76.11 76.01 74.93 75.15 75.07 74.90 75.10
65.22 63.80 56.63 55.02 56.53 58.47 59.77 60.94 61.19 59.81 61.89 63.22 63.83 61.04 62.80 68.27 70.47 70.39 71.04 72.58 72.55 72.55 73.48 75.09 77.34 76.86 76.62 76.87 76.87 76.69 76.87 77.02 77.03 76.85 76.85 76.75 76.58 76.72 76.93 76.62 76.37 76.31 76.53 76.36 74.51 74.51 74.12 74.29 74.68
62.43 60.96 54.61 51.44 55.84 58.52 60.57 62.10 61.97 61.62 62.78 63.88 62.94 62.15 63.06 68.82 69.67 71.02 71.79 71.79 72.30 71.52 72.31 73.89 76.92 76.89 76.76 76.94 76.91 76.99 76.93 77.11 76.96 76.78 76.79 76.50 76.56 76.87 76.76 76.43 76.26 75.85 75.65 75.29 74.26 74.10 73.43 73.38 73.60
60.95 57.13 54.50 56.03 58.14 57.56 59.53 63.32 61.01 61.40 61.98 62.43 65.24 60.82 63.97 66.81 68.64 70.47 69.81 70.02 71.73 72.89 72.41 72.80 73.83 75.19 76.93 76.79 77.07 77.19 77.18 77.25 76.69 77.03 77.01 77.02 76.87 76.68 76.29 76.35 76.10 75.73 75.29 74.87 74.18 73.79 73.12 73.04 73.33
64.03 59.48 56.10 58.29 57.21 56.90 63.55 63.48 63.66 62.30 61.26 67.10 66.93 60.66 59.90 66.42 70.33 68.50 69.34 71.43 72.11 72.88 73.08 71.94 72.25 73.47 73.63 74.25 76.92 77.03 76.98 77.14 77.28 77.29 77.21 76.86 76.93 76.68 76.51 77.11 77.08 75.73 75.23 74.73 74.60 74.46 74.86 75.19 74.71
67.17 58.51 55.85 57.90 58.83 59.62 63.75 61.10 66.02 65.98 63.98 65.19 66.40 65.01 66.69 68.92 69.11 68.23 69.04 69.33 71.06 71.84 71.93 72.10 72.42 72.29 72.66 73.44 75.21 76.51 77.21 77.23 77.65 77.17 77.23 76.37 72.65 73.45 73.84 75.31 76.12 75.62 75.37 75.20 75.40 75.84 75.84 75.48 75.59
63.29 58.03 58.15 61.88 61.90 61.73 62.20 63.95 63.62 62.07 62.02 63.33 63.66 66.55 68.12 68.03 67.61 67.21 67.25 67.31 68.52 69.62 70.77 71.33 71.86 71.50 72.76 74.80 73.35 73.13 74.12 73.22 73.34 73.10 73.07 72.27 71.35 72.08 73.83 74.64 75.40 75.40 75.14 75.20 75.82 76.00 75.71 76.40 73.73
63.46 58.25 59.72 60.60 62.42 63.92 62.72 61.48 65.15 62.29 60.56 62.40 62.19 64.82 66.59 66.53 66.06 67.30 67.71 68.15 68.10 69.78 70.64 70.93 71.66 71.41 70.59 72.69 72.67 72.77 72.01 71.31 67.28 67.69 70.45 71.69 71.35 68.60 67.96 70.99 71.32 71.26 73.66 66.40 70.58 70.63 70.46 71.55 72.38
59.94 61.10 60.46 61.39 62.54 62.69 62.24 65.35 62.96 64.01 62.85 65.39 65.64 66.69 66.76 66.68 66.92 67.33 67.16 67.48 67.72 68.78 70.15 71.14 70.76 70.65 69.94 72.04 72.06 71.79 72.02 70.79 70.15 70.06 71.19 70.88 66.11 65.77 66.93 69.91 68.94 69.29 69.83 65.15 67.50 69.26 68.60 70.38 71.78
60.00 61.51 61.63 63.16 62.78 63.42 64.23 64.98 63.89 63.77 65.50 66.33 66.58 66.95 66.49 66.23 66.47 67.30 68.00 68.43 68.83 68.58 69.40 70.18 70.09 69.14 70.79 71.44 71.26 70.74 70.71 70.27 71.03 71.01 71.02 69.77 66.23 65.16 67.18 68.19 68.69 69.39 67.23 69.06 67.60 69.14 70.37 70.98 71.89
63.01 62.29 61.29 62.19 63.16 65.36 63.65 63.62 63.71 63.94 65.68 64.89 64.55 63.29 64.41 65.40 66.21 66.47 67.55 67.11 67.76 68.19 68.37 69.54 69.24 70.50 70.19 69.65 70.74 70.42 69.90 69.29 69.81 69.90 70.69 70.34 69.84 68.54 68.89 66.91 66.78 66.94 69.23 70.79 70.48 69.81 70.02 69.62 68.40
63.06 59.69 61.32 62.78 63.73 63.63 64.84 60.54 60.48 64.19 64.72 63.13 63.23 63.02 63.93 66.60 67.55 67.12 67.85 66.85 67.81 68.29 69.51 68.86 69.65 71.22 70.02 70.75 70.44 70.21 70.38 69.73 68.12 66.55 68.83 68.22 70.45 70.73 69.56 67.56 67.25 70.10 70.39 71.81 71.42 71.69 70.74 70.47 69.36
58.79 60.98 56.91 60.91 62.67 63.48 63.09 55.39 61.96 64.52 63.77 62.48 62.15 63.07 65.06 66.21 66.58 67.58 68.02 68.51 69.02 69.04 68.62 68.95 71.12 70.43 69.60 69.72 68.92 69.27 70.86 70.28 69.39 65.51 66.29 68.32 72.88 72.19 70.32 70.30 69.52 70.90 72.24 71.71 70.43 69.22 69.44 68.20 68.42
57.03 53.11 53.46 56.24 62.41 60.93 61.00 57.07 62.35 64.72 63.23 61.83 61.22 61.82 63.98 65.07 65.92 66.70 68.65 69.10 69.07 68.74 68.08 67.46 68.46 68.43 69.00 70.27 70.42 69.46 70.22 70.05 70.29 69.24 69.55 70.61 72.14 72.66 71.25 71.54 69.67 70.55 69.90 71.37 69.86 69.91 68.14 67.13 68.20
52.34 52.12 53.51 53.34 59.16 60.43 58.54 57.54 61.91 62.92 62.90 61.75 60.76 61.10 61.77 64.57 64.25 67.22 68.75 69.06 68.70 68.54 68.06 68.23 67.95 67.26 68.97 70.24 72.13 69.66 70.46 71.45 71.31 71.56 72.34 72.38 72.11 74.15 73.35 72.67 68.98 67.56 69.53 70.23 72.09 70.57 71.52 69.69 68.23
56.22 55.01 54.50 56.76 60.08 58.59 57.61 57.36 59.44 62.05 62.31 59.74 58.14 60.41 62.04 63.62 65.20 67.74 68.67 68.83 68.81 68.68 68.20 68.07 66.88 67.90 69.78 69.21 69.19 68.38 68.46 70.21 70.79 71.69 72.34 72.89 72.14 72.93 72.14 71.74 64.49 69.16 71.05 71.19 71.25 71.98 72.58 69.68 68.30
57.16 53.88 52.81 56.56 59.82 58.66 57.24 56.94 59.01 60.60 61.61 60.82 62.54 59.12 61.25 60.79 64.60 66.09 66.68 68.08 68.56 68.25 68.05 68.54 68.07 69.11 68.56 69.56 69.59 69.20 69.83 70.44 71.09 71.91 72.47 72.74 73.15 73.08 73.58 71.66 69.87 70.31 71.14 70.79 72.24 71.96 71.36 71.22 69.42
55.93 53.97 53.10 53.88 55.96 57.44 56.20 54.28 56.05 58.97 61.74 62.14 62.04 62.78 62.26 62.05 63.49 64.96 65.64 66.90 67.65 67.36 68.56 68.46 69.50 67.81 69.45 70.86 71.21 69.91 70.31 71.20 70.13 70.41 70.75 72.76 73.15 73.12 72.95 72.38 71.55 70.71 69.71 69.27 71.46 71.93 71.89 69.94 70.89
52.36 57.65 56.65 54.56 51.98 46.67 55.80 46.29 52.79 55.52 57.17 59.74 60.49 60.95 63.02 62.58 65.03 65.69 65.77 65.89 67.09 67.64 69.63 69.41 69.26 69.17 71.09 71.70 70.37 68.50 67.89 67.46 68.64 69.37 70.42 71.51 73.12 72.63 73.04 73.03 72.96 71.17 71.15 70.52 71.79 73.30 72.14 71.30 69.77
52.31 58.71 56.30 54.72 52.47 51.01 51.11 47.81 50.91 55.65 54.64 57.94 58.69 61.18 62.89 63.01 65.03 65.49 66.09 66.75 67.78 69.10 69.49 69.92 69.03 70.22 70.47 70.48 70.33 69.22 68.32 68.44 69.47 69.64 69.66 70.00 70.89 73.16 72.84 72.09 72.88 72.42 71.68 71.03 71.43 71.42 72.06 71.67 70.95
58.01 56.75 55.69 53.97 51.91 45.00 49.55 50.05 49.53 50.81 54.66 58.11 60.09 60.55 62.65 63.58 64.71 66.21 66.95 67.69 67.58 69.84 69.59 70.07 68.89 69.83 69.92 70.21 70.79 69.95 68.50 68.66 68.70 68.50 68.88 69.38 68.64 70.64 71.58 72.61 72.36 72.01 71.84 71.40 71.53 71.53 71.60 71.59 71.24
56.37 50.19 45.63 43.83 44.23 43.34 51.27 49.61 51.18 55.22 56.99 57.83 59.06 60.74 61.94 64.57 64.36 65.40 65.28 66.71 67.54 68.30 70.10 69.80 68.41 69.19 69.16 69.52 70.70 70.36 69.17 68.26 67.73 68.22 68.10 68.48 67.47 69.74 69.84 70.93 71.73 72.09 71.93 72.06 72.21 71.26 70.21 71.21 70.63
52.87 48.56 45.84 41.02 42.41 45.49 52.67 47.50 51.84 59.16 59.19 60.33 60.81 62.37 62.56 63.68 64.55 64.68 65.46 66.85 67.54 68.26 70.15 70.11 69.39 68.72 69.53 69.89 70.71 70.49 70.60 69.70 69.14 68.51 69.43 68.71 67.86 69.27 70.38 71.53 72.40 71.98 72.82 71.60 72.58 70.76 72.04 70.48 70.00
51.66 47.57 52.85 44.92 46.99 44.08 47.96 51.02 56.45 58.67 57.68 58.23 59.63 61.60 61.48 62.69 64.63 64.87 65.73 66.37 67.41 68.13 70.07 70.13 69.88 69.40 69.76 69.58 70.32 70.14 70.72 70.26 69.51 69.74 69.72 68.65 67.63 68.82 70.12 71.84 71.53 72.01 72.31 72.31 72.30 71.45 71.08 71.09 69.16
52.00 52.59 42.61 42.92 39.93 39.11 45.55 47.59 49.19 54.55 56.37 57.68 57.82 59.58 60.92 63.48 64.48 65.37 66.43 67.03 67.56 68.62 70.21 71.33 70.73 70.33 70.65 70.07 70.93 70.52 70.36 70.46 70.10 69.80 69.41 68.12 66.91 67.82 68.71 71.05 71.40 71.36 72.77 71.96 71.83 71.32 70.21 71.01 70.42
44.29 42.44 42.06 43.64 45.09 40.41 40.65 45.13 55.40 55.75 57.66 58.83 59.35 59.99 60.34 63.02 64.33 65.08 66.33 67.20 67.83 69.04 70.36 71.10 71.09 70.22 70.58 71.42 71.14 70.44 70.63 70.78 69.59 69.26 69.00 67.63 65.97 66.70 68.29 70.10 70.00 70.66 71.84 71.96 72.01 71.33 70.90 71.89 70.76
45.52 42.25 41.61 38.59 38.91 41.35 43.07 43.27 56.98 57.70 58.52 60.01 61.23 62.79 60.55 63.15 64.35 64.87 66.25 66.58 67.56 69.19 70.56 71.32 71.53 70.96 70.83 72.16 71.52 70.77 70.81 70.98 69.34 69.40 69.49 69.29 66.96 68.05 69.12 69.72 69.49 70.27 71.88 71.90 71.07 71.04 73.21 71.14 70.25

GFSSGP_sfc_wetblb_117.txt.gz
Wetbulb
73.27 72.20 71.82 68.62 56.99 54.17 50.62 54.15 58.93 55.99 56.74 60.52 61.81 60.66 58.73 60.81 56.00 50.11 64.63 67.34 68.98 69.63 72.57 74.82 76.31 76.14 76.43 76.59 76.45 76.68 76.37 75.78 76.25 76.09 75.94 76.21 76.30 76.42 76.49 76.46 76.31 76.22 76.19 75.83 75.82 75.87 75.90 75.89 75.64
70.53 71.50 69.89 64.83 52.62 47.80 50.68 58.05 56.94 58.29 60.69 61.95 62.55 61.20 60.45 58.87 64.54 63.18 64.80 69.28 70.10 71.55 72.18 73.97 76.85 76.65 76.41 76.59 76.73 76.53 76.61 75.95 76.22 76.04 75.96 76.14 76.34 76.02 76.14 75.36 74.59 74.84 75.79 75.56 76.13 76.13 75.97 75.83 75.72
69.82 72.61 64.59 57.30 53.69 46.77 51.52 57.86 58.06 60.71 62.56 62.25 61.63 63.65 62.52 61.13 64.49 64.44 68.46 70.48 72.22 71.69 72.69 73.72 76.30 76.56 76.39 76.77 76.74 76.62 76.22 76.18 76.12 76.22 75.94 75.70 76.05 75.39 75.17 76.49 76.03 75.44 74.98 75.33 75.50 75.68 75.72 75.39 75.54
67.36 67.95 63.70 55.04 52.28 56.13 56.03 58.34 60.52 60.79 63.19 64.17 63.02 60.10 64.39 67.27 66.50 68.58 70.91 71.96 71.50 72.27 73.19 74.90 76.31 76.08 76.11 76.58 76.53 76.41 76.39 76.61 76.49 76.22 75.95 76.07 76.05 76.21 76.19 76.18 75.94 76.10 75.58 74.67 75.00 75.33 75.17 75.09 75.75
64.66 63.26 56.47 54.74 54.44 57.19 59.59 60.92 61.26 60.23 61.86 62.54 62.87 60.07 62.43 67.72 69.75 70.81 71.08 71.94 71.87 72.41 73.55 74.00 76.34 76.20 76.41 76.17 76.58 76.61 76.46 76.57 76.32 76.18 76.28 76.27 76.07 75.97 75.78 75.64 75.72 75.71 75.96 74.42 74.39 74.59 74.37 74.86 75.47
60.62 60.58 53.97 51.79 53.45 57.84 59.69 61.43 62.22 61.51 62.60 62.78 61.84 61.74 62.70 67.98 68.82 70.02 71.72 72.14 72.89 72.22 73.21 73.90 76.14 76.14 76.36 76.49 76.62 76.63 76.69 76.71 76.75 76.60 76.39 76.62 76.52 76.63 76.49 76.00 75.56 75.53 75.61 74.25 73.84 73.61 73.81 74.48 74.56
58.68 57.94 54.25 54.39 54.48 57.02 58.87 63.63 61.82 61.62 61.75 61.91 64.34 60.15 63.60 66.57 69.59 71.13 71.31 71.64 71.20 71.74 71.90 73.13 73.87 75.42 76.71 76.62 76.56 76.75 76.65 76.51 76.51 76.55 76.22 76.42 76.38 76.06 75.89 75.64 75.42 75.25 74.89 74.45 73.98 73.73 73.98 74.37 74.25
62.63 59.86 56.46 57.03 55.48 55.55 61.03 62.29 63.86 62.15 61.04 66.44 65.99 60.09 60.46 65.23 69.95 69.27 69.24 70.11 70.79 71.16 72.13 71.74 72.31 73.43 73.02 73.90 76.71 76.66 76.73 76.78 76.74 76.52 76.43 76.32 76.00 75.83 75.77 76.24 76.22 75.28 75.06 75.03 74.70 74.39 74.66 75.43 75.11
66.48 57.39 54.95 56.46 57.44 59.20 62.57 60.70 64.22 66.19 63.50 64.63 65.85 64.49 66.20 68.80 67.97 67.93 69.13 69.96 70.67 71.73 70.92 71.14 72.09 71.60 72.13 73.24 75.03 76.30 76.78 76.86 76.75 76.26 76.05 76.00 72.42 73.07 73.75 75.00 75.72 75.56 75.81 75.72 75.70 75.16 74.82 75.17 75.56
62.40 56.14 58.15 61.42 61.62 60.96 61.54 61.45 62.43 62.21 61.79 62.38 63.37 66.49 68.08 68.61 65.80 67.33 67.59 68.05 68.86 69.42 70.25 70.95 71.17 71.46 72.25 74.39 72.91 72.55 74.86 73.87 73.50 73.29 72.49 71.42 70.88 71.96 73.55 74.60 75.90 76.06 75.91 75.40 75.81 75.52 75.79 75.23 73.48
63.10 56.67 60.38 61.19 62.50 63.20 62.97 62.13 63.39 60.94 59.99 62.18 62.12 64.27 66.45 65.51 66.29 67.03 67.45 68.19 68.27 69.52 70.49 70.74 70.47 71.17 71.76 71.72 71.92 72.06 71.39 70.89 69.34 70.03 70.84 71.02 70.57 68.11 69.04 70.11 70.83 70.43 73.48 69.30 66.84 68.99 68.46 69.63 70.26
59.32 61.97 61.33 61.82 62.85 62.64 61.54 64.08 61.37 61.87 62.40 65.36 65.54 65.72 65.72 64.71 65.85 66.44 67.13 67.51 67.95 69.01 69.77 70.28 70.72 70.64 69.68 71.98 71.28 71.40 70.66 67.96 67.32 67.74 69.33 69.03 65.72 65.75 66.43 68.52 68.54 67.26 69.60 69.31 66.30 68.35 68.82 69.34 70.02
60.88 60.83 61.47 62.65 62.97 62.54 63.54 62.91 62.86 62.48 64.43 66.18 66.35 65.55 64.88 64.98 66.31 67.81 67.64 68.00 68.01 68.50 69.16 69.91 70.12 69.80 69.99 71.19 70.96 70.73 70.79 69.28 69.87 69.96 70.57 68.19 63.49 63.81 65.68 66.81 67.02 68.00 66.07 68.58 69.13 69.05 69.45 69.62 69.76
62.54 61.99 61.53 61.94 62.18 63.10 63.02 63.68 64.60 63.78 65.13 64.95 65.21 64.64 65.02 65.56 66.43 66.16 67.21 66.96 68.12 68.00 68.80 69.51 69.38 69.40 70.25 70.11 70.26 70.16 69.97 69.84 70.36 70.09 69.99 69.10 67.63 65.92 67.68 66.66 65.24 66.54 68.09 70.23 69.74 69.93 68.99 69.10 68.51
63.18 59.66 60.42 61.74 62.50 61.28 63.80 59.97 59.99 63.89 64.52 63.77 64.36 64.76 65.48 65.98 66.04 66.42 67.80 67.23 67.84 67.58 68.34 68.71 68.73 69.41 69.28 69.29 69.82 69.69 69.11 69.28 68.67 69.71 69.51 69.42 69.94 69.28 68.93 67.35 67.10 68.99 70.27 70.92 70.30 70.28 70.48 69.41 68.65
59.20 59.51 54.95 60.03 61.24 62.17 61.65 54.43 61.18 63.58 62.50 62.14 62.90 64.42 64.37 64.84 66.22 67.40 67.85 67.36 67.60 67.61 67.85 68.42 70.85 70.03 69.05 69.51 69.46 69.71 69.22 68.38 66.81 65.85 66.99 68.34 71.27 70.79 69.17 68.62 69.71 70.40 71.03 70.80 69.76 68.66 68.53 67.71 67.59
56.72 52.24 52.83 55.90 59.54 61.11 60.36 56.72 61.20 63.38 62.17 61.30 60.78 61.36 62.50 64.60 65.52 66.70 67.58 67.72 67.55 67.92 67.37 67.78 68.64 68.46 69.07 68.60 68.43 68.65 69.87 69.79 68.14 65.53 68.09 69.43 72.44 71.95 70.06 70.59 69.32 68.65 69.24 70.69 71.41 69.68 67.39 66.65 66.93
51.09 52.51 53.58 53.84 57.35 59.83 57.83 57.96 61.48 62.10 61.70 60.28 59.36 61.96 63.09 63.52 63.89 66.35 67.39 68.39 68.21 67.57 67.20 67.37 67.44 67.73 68.89 69.45 68.64 68.82 69.03 69.09 69.81 69.80 70.51 71.46 71.81 72.85 71.96 70.71 67.07 67.46 69.57 71.34 71.20 70.28 70.64 67.62 66.79
55.98 54.75 53.85 55.78 58.75 58.33 57.03 57.43 59.69 61.37 62.19 59.62 57.67 59.62 61.88 62.78 64.51 66.55 68.02 68.53 67.90 67.39 66.45 66.57 65.89 66.97 68.69 68.85 68.43 67.83 67.70 69.52 69.60 71.32 71.48 71.91 71.66 72.44 71.77 67.63 65.49 70.11 70.57 71.05 72.07 71.51 70.50 69.20 67.79
55.53 53.90 53.09 56.15 59.16 57.71 56.68 56.20 59.71 60.20 61.28 60.41 60.19 57.75 61.38 60.73 63.80 66.20 66.93 67.36 67.19 66.95 66.96 66.47 65.63 67.82 68.43 68.30 68.73 67.92 68.93 69.26 69.87 71.43 71.24 71.75 72.04 72.78 72.50 70.82 69.08 69.85 69.27 70.88 71.52 71.02 70.04 70.06 69.38
54.37 53.50 53.03 53.27 55.97 57.15 56.36 54.32 56.90 59.56 61.11 62.04 61.14 61.37 62.80 62.56 63.21 64.96 65.76 66.15 67.12 66.70 66.84 66.92 66.43 68.17 68.06 69.32 70.24 69.00 70.16 70.06 69.55 69.72 69.76 70.67 71.73 72.44 72.68 71.41 70.54 69.93 68.50 69.86 70.68 71.14 70.40 68.51 67.81
51.24 56.84 55.58 54.13 51.76 47.12 55.75 45.82 53.33 57.20 56.78 58.79 60.03 60.60 59.99 62.60 64.35 65.14 65.17 65.59 66.78 67.21 68.18 67.20 67.63 67.07 69.24 70.09 69.15 68.03 67.75 66.97 68.11 68.35 69.80 70.72 72.13 71.66 72.41 72.16 71.55 70.57 70.28 70.07 71.49 71.92 70.76 69.77 67.77
50.77 57.56 55.27 53.87 51.73 49.55 50.72 47.74 49.92 56.52 55.68 57.22 58.41 60.05 60.59 62.62 63.82 64.10 65.05 66.02 67.19 67.98 68.30 68.17 67.78 68.62 70.01 70.15 69.04 67.90 67.32 67.78 68.22 68.51 68.72 69.52 70.29 71.72 73.01 71.62 71.88 70.90 70.46 70.75 70.81 70.92 70.50 70.97 68.62
58.48 54.87 54.07 53.72 49.53 43.30 48.38 49.12 48.33 52.00 55.34 57.54 58.28 60.81 61.33 62.21 63.90 64.58 65.51 66.35 66.70 68.01 68.40 68.45 67.60 68.48 69.21 69.71 69.28 68.72 67.96 67.64 68.09 68.00 68.36 68.99 68.70 70.06 71.09 72.27 71.53 71.34 70.67 70.75 71.03 70.36 71.09 70.44 70.75
55.68 50.65 43.54 42.31 43.35 42.44 51.44 48.42 48.87 54.80 56.83 58.61 58.70 60.51 61.86 62.23 63.92 64.20 64.40 64.85 65.97 67.00 67.96 68.55 67.85 67.86 68.37 69.73 69.66 69.10 68.47 68.51 68.09 67.96 68.02 68.02 67.91 69.03 69.55 70.76 71.52 71.13 71.11 71.27 71.27 70.27 69.40 70.28 69.91
51.33 48.57 43.90 39.39 41.65 44.45 52.18 46.92 50.13 58.03 58.95 59.57 61.50 62.42 62.60 63.20 63.95 64.37 65.10 65.30 66.12 67.57 67.76 68.50 67.46 68.10 67.91 68.88 69.44 69.65 69.08 68.56 67.91 67.82 67.84 67.89 68.23 69.07 69.71 70.59 71.46 71.47 71.82 70.55 71.20 70.28 71.28 70.06 69.61
51.04 45.87 49.59 46.16 43.57 43.30 48.29 51.51 55.05 58.23 57.54 57.77 57.64 61.08 61.65 62.86 63.74 64.52 65.16 65.95 66.42 67.62 68.26 68.24 67.72 67.85 68.51 68.26 69.05 69.14 69.79 69.19 68.89 68.57 67.88 68.20 68.41 68.74 69.06 71.42 71.10 71.54 71.18 71.71 71.19 70.30 70.43 70.10 68.64
51.40 52.52 44.43 44.00 38.05 37.74 44.65 46.92 48.19 53.04 54.60 56.07 57.27 59.03 61.06 63.05 63.85 64.06 64.93 66.03 66.93 67.87 69.06 69.02 68.80 67.73 69.02 68.60 69.03 69.09 69.68 69.88 69.43 69.14 68.76 68.49 67.64 67.10 69.31 70.52 70.97 70.79 70.99 71.92 71.16 70.52 70.09 70.01 69.35
43.70 42.10 41.13 42.97 42.22 38.36 39.21 43.69 54.02 53.52 56.23 55.75 57.07 59.70 61.50 62.31 64.04 64.35 65.09 66.07 67.14 68.13 68.84 69.09 69.22 68.77 68.69 68.88 68.98 68.92 69.44 69.63 69.25 68.74 68.93 68.76 67.60 66.59 66.77 67.53 70.02 69.47 70.85 71.29 70.54 70.70 70.31 69.68 70.10
46.99 40.86 39.84 38.22 37.41 38.30 39.97 39.60 54.57 57.04 57.61 59.73 59.69 61.27 61.20 62.81 63.77 64.65 65.65 66.39 66.93 66.84 67.79 69.09 69.69 69.36 69.85 69.86 69.54 69.48 69.67 69.72 68.75 68.35 68.34 68.13 66.46 65.65 66.14 67.96 69.21 68.94 70.44 69.74 70.15 70.42 71.46 70.50 69.58

GFSSGP_sfc_wetblb_120.txt.gz
Wetbulb
71.91 71.66 71.92 67.86 54.95 52.58 49.94 52.66 57.17 54.69 55.57 59.10 60.99 58.77 58.22 60.48 55.71 49.75 63.45 67.65 68.75 69.66 72.54 74.40 75.52 76.14 76.31 76.28 76.59 76.23 76.00 76.53 76.53 76.35 76.41 76.31 76.24 76.24 76.62 76.20 75.79 76.02 76.02 75.92 76.13 76.16 76.07 76.11 76.03
71.71 70.98 69.62 63.68 50.56 46.93 49.75 57.18 53.81 56.26 58.87 60.26 61.26 61.43 60.09 58.09 63.39 61.71 63.16 68.62 69.33 70.61 72.48 73.72 75.65 76.17 76.28 76.55 76.43 76.37 76.06 76.18 76.13 76.07 76.44 76.36 76.31 76.34 75.74 74.83 75.57 75.88 75.83 76.05 75.57 75.61 75.60 75.48 75.41
69.02 71.32 64.31 56.06 51.62 47.97 50.18 57.01 57.45 60.11 61.90 61.86 60.70 63.37 62.27 60.51 62.85 63.18 66.52 69.42 71.10 71.35 72.54 73.77 75.92 76.42 76.31 76.36 76.15 76.11 76.25 76.17 76.37 76.15 76.39 76.24 76.24 75.44 76.14 76.15 75.71 75.30 75.57 76.10 76.01 75.93 75.50 75.93 75.88
66.97 67.81 62.24 52.91 51.01 53.77 55.51 57.62 59.83 60.63 62.57 63.41 62.69 59.68 63.68 65.22 65.57 67.34 69.41 71.48 70.80 71.64 73.04 74.67 75.90 76.23 76.28 76.20 76.37 76.16 76.23 76.28 76.22 76.40 76.26 76.07 75.85 76.07 76.22 76.08 76.07 75.41 75.11 75.43 75.41 75.56 75.73 76.16 76.61
64.59 62.37 56.39 53.99 52.80 56.72 58.75 60.49 61.08 60.00 61.14 61.45 62.30 59.49 61.42 67.04 68.91 69.96 70.35 71.26 70.95 71.62 72.55 73.94 76.03 75.92 76.10 76.31 76.47 76.27 76.44 76.51 76.14 75.97 75.90 75.80 75.85 75.97 75.80 75.82 75.95 76.15 75.00 74.83 74.89 75.00 75.44 75.60 76.30
59.22 59.89 53.69 50.01 52.76 57.27 59.15 61.50 62.18 61.17 61.66 62.15 61.04 61.09 62.19 68.41 68.77 69.78 71.24 71.32 72.53 72.01 73.07 73.65 75.61 75.80 76.04 76.40 76.41 76.40 76.34 76.20 76.31 76.16 75.78 75.67 75.68 75.89 76.04 75.74 75.83 75.91 74.97 74.53 74.42 74.42 74.61 74.97 76.06
57.60 57.57 54.39 53.67 53.25 55.43 58.56 63.03 61.95 60.87 60.56 60.79 64.05 59.64 63.97 66.18 69.38 70.96 71.43 71.49 71.93 72.48 72.93 72.95 74.03 74.58 76.25 76.50 76.56 76.52 76.49 76.39 76.33 75.96 75.90 75.76 76.07 75.86 75.94 75.72 75.55 75.17 74.83 74.30 74.19 74.36 74.64 74.86 74.92
61.09 60.06 56.01 55.89 53.36 54.25 60.35 62.03 64.39 61.65 60.77 65.71 65.35 59.00 60.49 64.92 70.02 69.73 70.19 70.22 70.50 71.07 72.35 72.35 72.77 73.66 73.58 73.68 76.47 76.42 76.55 76.26 76.29 76.15 75.98 76.18 76.08 76.13 76.11 75.81 76.16 75.50 75.19 74.74 74.19 74.30 74.94 75.47 75.41
66.12 56.49 54.72 56.26 56.19 57.34 61.43 60.95 63.99 65.55 62.73 63.73 65.10 63.84 65.57 68.73 68.38 68.37 68.70 69.26 69.96 70.88 71.12 71.18 72.14 72.19 72.05 72.78 75.20 76.01 76.43 76.63 76.52 75.72 75.97 74.45 73.24 73.77 74.18 76.05 76.02 76.03 76.00 75.80 75.55 75.97 76.02 75.79 75.40
61.02 56.15 57.90 61.05 61.41 60.44 60.88 61.77 62.32 61.82 61.49 61.90 62.81 66.02 67.67 67.03 67.29 66.85 66.36 66.89 68.56 69.26 69.98 70.85 71.57 72.00 72.41 74.73 73.35 72.82 75.03 74.24 73.91 73.26 72.30 72.15 72.36 74.10 74.21 75.13 75.32 75.28 75.36 74.20 72.79 74.90 73.25 71.53 72.46
62.59 56.85 60.61 61.23 62.23 63.31 62.79 61.23 63.39 60.89 59.43 61.62 61.39 64.21 66.17 65.23 66.25 66.44 66.78 67.59 68.31 69.37 70.24 70.72 70.97 71.81 71.94 71.64 72.08 72.02 71.65 71.62 71.23 71.93 71.91 71.93 70.93 69.17 70.49 70.79 70.66 69.61 72.40 70.90 68.51 69.51 69.76 70.41 71.24
59.40 62.30 61.96 62.42 62.78 62.30 61.90 63.57 60.67 61.71 61.79 64.63 65.11 65.74 65.81 63.87 65.95 66.59 67.16 67.55 67.92 68.85 69.80 70.61 70.79 71.21 70.89 72.02 71.90 71.31 70.23 68.46 68.82 70.03 71.29 70.41 68.02 67.51 67.94 69.70 69.49 69.59 68.31 69.44 69.96 69.86 70.77 71.26 71.41
60.83 61.00 61.99 63.03 62.93 62.68 63.50 62.33 61.69 61.39 64.94 65.88 66.03 65.79 64.62 64.02 65.99 66.90 67.95 68.13 68.42 68.37 69.40 70.01 70.69 70.64 70.40 71.40 71.49 71.15 70.70 68.18 69.05 69.42 70.80 69.48 66.76 65.91 67.42 68.11 68.73 69.01 68.91 70.37 70.60 71.14 71.36 71.45 71.34
62.25 61.69 60.96 62.22 62.34 62.90 60.98 62.95 62.53 62.58 65.22 64.50 64.63 64.19 64.05 64.50 66.05 66.87 67.16 66.83 67.66 68.64 68.96 70.00 70.07 70.34 70.64 70.86 70.97 71.17 71.20 70.84 71.25 71.31 71.50 69.78 67.76 66.10 69.01 68.93 68.43 69.13 70.99 71.61 71.34 71.81 71.70 70.67 71.04
62.30 58.93 60.44 61.54 62.28 61.13 62.64 60.03 60.99 63.12 64.63 63.19 63.33 63.67 64.11 64.72 66.44 66.67 67.36 67.13 67.95 68.12 68.95 69.16 69.65 69.96 70.10 70.60 70.90 70.63 70.20 70.83 70.62 70.49 70.79 70.79 71.15 69.82 70.56 70.00 70.48 71.48 72.36 72.98 72.74 72.14 71.93 71.36 70.63
59.86 59.01 54.54 59.80 60.57 62.15 61.63 53.76 61.04 63.70 63.27 61.98 62.84 63.40 63.86 64.72 65.67 67.69 67.74 67.67 67.94 67.93 68.40 69.21 70.87 69.40 69.39 69.66 70.17 70.65 69.63 70.07 69.83 69.40 70.51 69.96 71.34 71.73 71.22 71.24 72.07 72.71 72.90 73.16 72.86 71.14 70.62 69.95 70.67
55.28 50.90 52.93 55.45 60.23 60.19 59.77 55.00 60.37 63.29 62.93 61.40 62.29 63.02 63.72 64.30 64.83 66.52 68.11 67.72 67.14 67.68 68.02 68.17 69.30 69.40 69.60 70.00 69.86 69.94 69.56 69.22 68.20 67.12 68.86 70.21 73.23 72.78 72.22 72.29 71.30 71.01 72.38 73.11 73.25 72.17 70.25 69.83 70.13
49.43 50.92 52.23 52.44 56.91 59.33 57.60 57.12 60.08 61.63 62.28 61.51 61.70 62.71 62.74 63.11 64.24 66.27 67.32 67.64 67.21 67.80 68.03 68.18 68.62 68.80 69.07 68.86 68.92 69.58 70.03 70.55 69.78 68.82 70.47 71.70 73.10 73.21 73.28 71.24 69.84 71.54 73.31 73.76 73.49 72.80 71.33 70.43 70.37
54.80 54.52 52.28 55.75 58.41 57.79 56.67 57.61 59.26 60.44 60.89 59.95 57.44 59.26 60.62 62.80 64.99 66.17 67.10 67.59 67.45 67.39 66.97 67.22 67.01 68.20 69.41 69.25 68.24 68.60 68.67 69.93 70.34 71.16 72.55 73.04 73.08 73.70 71.55 66.91 70.32 72.85 73.11 73.21 74.27 73.39 72.56 71.61 70.86
55.13 53.74 53.09 56.52 58.55 57.81 56.67 56.25 59.76 60.68 60.85 60.21 57.87 59.33 61.09 62.36 62.06 64.85 66.26 66.96 66.92 66.65 66.84 66.65 66.74 67.68 69.34 69.61 69.15 69.05 69.45 70.42 71.02 72.22 72.75 73.48 72.64 73.50 72.80 70.99 71.78 72.28 72.37 73.34 73.46 72.93 71.68 70.29 69.60
54.82 53.51 52.64 53.29 56.68 57.05 56.11 53.52 56.93 60.39 61.34 61.79 60.89 59.64 61.99 61.40 62.01 64.31 65.45 66.20 66.46 66.34 66.34 66.60 66.09 67.86 68.90 69.76 69.51 70.16 70.85 70.93 70.77 71.50 71.87 72.92 73.61 73.56 73.78 72.44 71.82 72.01 72.21 72.93 73.42 73.18 72.49 69.94 69.43
51.41 55.50 55.66 54.00 50.63 48.47 55.62 46.73 53.18 57.68 58.36 58.70 59.28 60.13 59.97 61.85 63.58 64.81 65.36 65.38 65.91 66.73 67.22 67.05 66.49 67.83 68.75 70.48 69.61 69.54 68.76 68.34 69.59 70.25 71.38 72.33 73.41 73.39 73.79 73.43 72.97 73.15 72.78 73.48 74.34 73.54 73.09 72.10 69.74
51.39 56.92 54.39 53.58 50.41 49.09 51.12 48.39 49.96 56.63 56.11 57.76 58.51 59.81 60.30 61.70 63.51 64.33 65.30 66.08 66.70 67.41 67.36 67.37 67.25 67.50 69.32 70.17 70.03 69.05 68.70 69.31 69.98 70.13 70.86 72.10 72.49 73.69 74.08 73.51 73.50 73.28 73.38 73.32 73.53 73.71 73.59 72.82 71.32
57.03 53.64 52.63 51.49 48.33 42.62 48.28 48.69 47.96 52.30 55.42 58.06 59.49 59.37 60.94 60.70 63.19 64.93 66.00 66.67 66.47 67.57 67.89 68.02 67.23 67.53 69.64 70.03 69.60 69.11 68.98 68.74 69.34 69.54 69.78 70.38 71.18 72.00 73.31 73.71 73.36 73.40 72.90 73.40 73.38 73.37 73.46 73.07 72.93
52.91 47.24 40.89 39.33 42.31 43.38 50.62 48.35 47.98 53.61 57.10 59.48 59.81 59.24 61.13 61.23 62.79 63.57 64.04 65.17 65.59 66.36 67.50 67.81 67.26 67.13 69.13 69.59 69.52 69.44 69.45 69.32 69.51 69.35 69.43 69.73 69.84 70.96 71.79 73.26 73.09 72.71 73.03 73.45 73.72 73.30 72.56 72.68 72.74
49.46 45.77 41.74 38.36 41.07 43.62 51.98 46.26 48.57 56.32 59.28 61.64 62.40 61.75 62.08 61.04 63.09 63.54 64.14 64.99 65.42 66.53 67.45 68.08 67.24 67.21 68.75 69.31 69.46 69.82 69.92 69.81 69.67 69.60 69.72 69.93 70.15 70.91 71.87 72.19 73.08 73.32 73.67 72.98 73.54 72.78 72.96 72.78 72.59
49.79 45.20 48.66 43.33 46.20 43.20 46.03 50.31 53.79 57.47 56.92 58.21 60.26 60.82 61.00 62.32 62.85 63.48 64.16 64.86 65.38 66.50 67.16 68.03 67.60 67.86 68.51 68.71 69.59 69.66 69.81 69.73 69.35 69.42 69.77 69.71 70.13 70.13 71.21 71.85 72.84 73.05 73.37 73.55 73.14 72.39 72.37 72.80 72.26
50.66 52.93 43.45 43.28 39.50 38.06 42.85 47.11 46.78 51.88 54.39 55.78 56.28 58.56 61.08 63.11 62.68 63.78 64.46 64.93 65.64 67.30 67.87 68.30 68.31 67.84 68.77 68.51 69.41 69.72 70.15 70.33 70.45 70.30 69.53 69.26 69.76 69.99 70.60 71.26 72.32 72.52 72.90 73.50 73.32 73.12 73.01 72.32 71.71
45.98 46.37 41.40 44.07 43.35 39.78 37.36 39.65 53.76 54.55 54.79 55.77 57.29 58.95 59.18 62.22 62.74 63.92 64.69 65.49 66.12 67.52 67.95 67.89 67.94 67.85 68.10 68.72 69.18 69.47 69.65 70.39 70.75 70.31 70.38 70.10 69.99 68.78 69.02 70.26 71.10 71.42 71.93 73.27 73.29 73.11 72.92 71.98 72.38
46.15 41.74 40.61 39.77 37.45 38.49 38.32 38.44 57.32 58.61 59.48 58.58 59.49 59.30 59.66 62.76 63.55 64.37 64.57 65.16 65.77 66.99 67.72 68.18 68.49 68.43 68.51 69.22 69.25 69.35 69.68 70.29 69.93 69.76 69.99 70.24 69.62 69.02 68.67 68.59 69.65 71.13 71.41 72.88 72.31 72.48 73.62 72.10 71.82

GFSSGP_sfc_wetblb_123.txt.gz
Wetbulb
73.10 72.50 73.41 71.02 60.56 59.47 53.64 54.62 59.29 57.14 57.85 61.78 62.77 60.58 59.96 61.93 57.68 55.00 68.20 70.31 70.67 71.20 73.62 73.54 74.41 74.64 75.21 75.73 76.71 76.41 76.36 76.09 76.54 76.59 76.65 76.59 76.55 76.24 76.36 75.99 75.93 76.60 76.45 76.36 76.36 76.51 76.26 76.56 76.64
73.56 71.14 71.32 67.78 57.73 52.33 53.79 58.50 56.89 58.93 61.26 63.25 62.96 63.12 61.61 59.26 63.78 64.50 66.82 70.63 71.45 72.86 74.42 74.59 75.47 75.63 75.96 75.99 76.48 76.14 76.51 76.38 76.50 76.59 76.70 76.33 76.39 75.80 75.91 76.13 76.18 76.45 75.88 76.02 76.01 75.53 75.53 75.69 76.10
72.75 71.73 66.37 62.42 57.79 53.31 54.22 59.05 58.92 61.18 62.77 62.98 62.41 65.11 62.81 60.63 64.13 65.96 69.61 71.24 72.13 73.63 74.97 75.25 75.39 75.97 75.95 75.97 76.24 76.35 76.39 76.54 76.38 76.67 76.25 76.28 75.91 76.71 76.38 75.80 75.86 76.47 76.20 76.28 75.86 75.78 76.11 76.20 76.00
70.07 70.26 65.74 58.87 55.19 57.24 58.34 60.37 61.88 61.78 63.28 64.32 63.76 60.50 64.17 66.35 65.90 68.52 70.92 71.98 72.22 73.67 75.57 75.36 76.00 76.21 76.13 76.13 76.01 76.48 76.49 76.21 76.47 76.29 76.51 75.70 76.56 76.04 76.53 76.20 75.61 75.77 75.97 75.99 75.80 76.35 76.66 76.84 76.50
68.27 66.34 60.12 56.80 55.98 58.62 61.36 62.59 63.14 61.75 62.17 62.89 63.30 59.95 61.63 68.41 70.21 70.49 71.14 71.77 72.37 73.51 74.77 75.62 76.05 76.21 76.26 75.88 76.32 76.05 76.37 76.36 76.17 76.08 76.29 76.24 76.24 76.27 76.22 76.22 76.14 75.25 75.48 75.61 75.53 75.97 76.27 76.45 75.64
64.13 64.15 56.19 52.33 55.84 59.23 61.66 63.73 63.62 62.66 62.93 62.71 61.50 61.46 63.48 70.38 69.34 70.41 71.49 72.03 73.54 73.32 74.32 75.38 75.70 75.74 76.20 76.17 76.45 76.54 76.28 76.31 76.09 76.09 75.92 75.89 75.99 76.24 76.16 76.16 75.95 75.08 75.00 75.14 75.00 75.34 75.56 76.33 75.42
62.43 61.50 56.29 54.91 56.24 57.67 60.29 64.41 62.82 62.19 62.05 61.54 64.21 60.75 64.87 68.38 70.45 71.66 72.11 72.78 72.70 72.79 73.81 75.14 74.93 76.14 75.91 76.34 76.50 76.52 76.34 76.09 76.21 75.81 75.93 75.89 76.00 76.28 76.19 75.75 75.28 74.91 74.43 74.63 74.70 75.17 75.42 75.25 75.56
64.61 63.56 57.57 57.25 56.25 56.07 62.18 63.76 64.93 63.08 61.93 66.48 66.08 60.60 61.96 68.30 71.56 72.01 72.13 72.10 72.97 73.34 73.55 74.44 75.64 75.79 75.84 76.73 76.33 76.54 76.77 76.45 75.98 76.12 76.32 76.13 76.41 76.36 76.43 76.41 76.41 75.21 74.64 74.07 74.45 75.00 75.34 75.39 75.36
66.81 60.03 56.39 56.26 57.09 58.34 63.49 62.16 65.17 66.72 63.74 64.90 66.26 65.29 67.58 70.47 71.29 70.38 70.40 71.53 72.54 72.82 73.49 74.76 75.08 75.77 75.95 76.74 76.48 76.55 76.61 76.35 76.09 76.40 76.42 76.53 76.10 75.63 75.66 76.42 76.22 76.06 75.73 75.52 74.95 75.04 75.67 75.45 75.02
61.97 58.95 58.48 60.96 62.23 60.58 62.54 62.47 62.62 62.02 62.61 63.31 65.04 67.91 69.33 70.06 69.31 68.55 68.74 68.99 70.02 70.64 72.63 74.31 74.61 74.47 75.75 76.38 76.90 77.03 77.12 77.20 76.95 76.48 76.39 76.06 76.20 76.47 76.11 75.14 74.21 75.23 74.39 73.97 72.05 73.29 72.33 72.96 75.32
62.63 58.35 61.27 62.02 63.29 64.53 62.62 62.81 64.03 61.30 60.50 63.59 63.39 66.03 67.87 68.21 68.53 69.09 69.20 68.66 68.18 70.04 72.53 73.60 74.64 75.11 75.37 76.24 76.48 76.46 76.58 75.97 76.30 76.10 75.70 75.78 75.10 74.45 74.96 75.15 74.00 74.54 72.37 73.91 73.31 73.51 74.53 73.50 74.76
60.91 63.03 62.63 62.49 63.50 63.98 62.44 64.26 62.63 62.72 63.29 66.35 66.88 67.78 67.80 67.64 68.47 68.77 67.43 67.86 69.21 70.53 71.81 73.48 74.15 74.97 75.01 75.19 75.58 75.19 74.47 74.73 74.29 75.16 75.83 75.22 73.68 73.19 74.09 74.32 73.77 74.08 74.39 75.16 76.03 75.68 76.10 75.96 75.96
61.83 62.15 63.07 63.28 63.53 64.27 64.54 63.15 61.89 62.98 65.92 67.06 67.83 67.71 67.29 67.98 68.32 68.41 68.97 69.89 70.74 70.39 71.73 73.04 74.09 74.92 75.16 75.15 75.22 73.98 73.58 73.52 74.07 75.06 75.58 75.32 73.37 72.97 73.24 73.14 73.97 74.41 75.32 76.10 76.45 76.68 76.67 76.18 75.30
62.60 62.64 61.65 62.68 62.93 63.92 62.48 63.28 63.58 64.48 66.26 66.27 66.70 66.76 67.26 67.53 68.10 68.98 69.63 69.64 70.20 70.65 71.72 72.83 73.35 74.63 74.89 74.47 75.06 74.70 74.67 73.95 75.18 75.40 75.96 74.67 73.48 72.25 73.66 74.49 74.78 75.81 76.65 77.13 77.07 76.75 76.67 75.71 74.73
63.54 59.74 61.19 61.71 62.11 61.34 63.74 60.98 61.11 65.38 66.17 65.34 65.98 66.65 66.95 67.35 69.09 69.06 69.91 70.19 71.10 71.48 72.37 72.54 72.98 73.80 74.65 75.07 75.27 75.59 76.43 75.71 75.51 75.56 75.44 75.09 75.59 75.59 75.84 75.46 75.85 76.67 77.54 77.92 78.01 76.94 76.76 74.52 73.89
59.83 59.19 56.19 58.43 61.24 61.68 62.60 57.05 63.55 65.87 64.74 64.30 65.50 65.93 66.45 67.29 68.51 69.99 70.55 70.93 71.86 71.69 72.25 73.26 72.64 73.32 74.02 74.73 75.27 75.34 75.78 75.51 75.60 75.43 75.78 74.85 75.67 76.22 76.19 75.99 76.51 76.83 78.20 78.44 77.56 76.11 74.44 73.60 74.08
58.26 52.72 54.56 55.61 59.77 60.27 60.94 57.89 62.28 65.34 64.32 63.53 65.02 65.66 66.26 66.97 68.33 69.99 70.89 71.24 71.52 72.37 72.56 72.96 73.69 73.65 74.12 74.86 74.76 75.00 74.56 74.83 74.76 74.70 74.92 75.56 76.73 76.34 76.92 76.67 75.71 76.81 78.24 78.08 77.64 75.84 75.33 73.63 73.82
52.76 53.29 53.71 53.41 56.46 59.44 58.35 58.13 61.66 64.07 62.74 63.30 64.76 65.60 66.04 66.45 67.59 69.78 70.86 71.28 72.05 72.35 73.18 73.61 73.57 74.23 74.90 74.48 74.55 74.82 74.23 74.58 74.08 73.22 74.63 75.81 77.37 76.91 77.59 76.31 75.50 77.70 77.88 77.30 76.41 76.23 75.64 75.29 75.27
55.51 55.05 53.41 54.54 57.51 56.81 57.03 58.56 60.74 62.84 63.34 63.44 64.39 65.05 65.78 66.43 68.69 69.85 70.72 71.34 71.42 72.00 72.31 73.21 73.20 73.90 73.71 73.09 72.69 72.99 72.42 73.83 73.41 74.23 75.47 76.28 76.95 77.40 77.20 75.42 76.61 77.84 77.63 77.53 77.99 77.26 76.17 74.71 75.38
56.70 55.24 54.09 56.73 58.02 56.88 56.92 56.82 60.37 61.85 62.06 63.42 64.09 64.79 65.64 66.66 67.54 68.67 70.00 70.67 70.84 71.64 72.29 72.76 72.90 73.86 74.06 73.51 73.95 74.13 74.13 74.53 74.98 75.20 76.31 76.78 76.28 77.26 77.25 75.78 76.88 77.30 77.52 77.56 77.62 77.45 76.07 74.67 75.72
56.35 54.68 54.34 54.51 57.56 57.77 56.49 54.29 56.86 60.35 62.23 63.03 64.34 65.21 66.23 66.35 66.63 67.94 68.99 69.91 70.71 71.01 71.89 72.44 72.96 73.67 74.14 74.65 73.85 74.32 74.70 74.99 74.31 75.71 77.16 76.31 76.74 76.83 77.11 76.36 76.70 76.95 77.69 76.85 77.42 77.18 76.28 73.92 74.04
52.63 57.66 56.74 55.44 54.49 50.63 56.36 48.14 54.15 57.92 59.52 61.53 62.58 63.19 64.71 65.92 67.45 68.21 68.85 69.59 70.46 70.89 72.16 72.58 72.85 73.20 73.86 74.98 74.00 74.35 72.71 72.66 74.91 77.22 76.89 76.72 77.09 76.69 76.94 76.70 76.89 77.69 77.36 78.04 77.93 77.28 76.82 76.68 73.65
53.96 58.85 57.01 55.70 53.89 53.22 52.85 50.29 53.30 57.31 57.61 60.49 62.55 63.42 64.10 65.97 66.54 67.21 68.44 69.93 70.89 71.11 71.32 71.95 72.78 72.90 73.89 74.52 74.88 74.70 73.79 73.92 75.14 74.65 75.42 76.93 77.11 76.86 76.83 77.47 76.98 77.04 76.95 78.07 77.76 77.64 77.52 76.44 75.43
59.78 56.98 55.80 54.93 53.39 47.46 52.00 51.14 51.00 54.62 58.38 59.87 62.31 63.88 64.61 65.10 66.54 67.73 69.23 70.37 70.57 71.20 71.32 71.61 71.94 72.52 73.37 74.10 74.89 74.67 74.32 74.14 73.35 73.99 73.64 74.46 75.62 75.99 77.23 77.04 77.45 77.86 77.03 77.14 77.42 77.79 76.89 77.51 77.03
57.08 54.43 48.55 46.37 46.56 46.62 52.06 50.25 52.62 57.02 60.06 62.24 62.02 63.09 65.08 65.60 66.16 67.41 68.23 69.09 69.99 70.18 70.82 71.36 71.74 71.73 72.64 73.42 74.34 74.73 74.89 75.05 74.69 74.62 73.64 74.42 74.02 74.48 76.50 77.27 77.09 77.97 77.34 77.17 77.62 77.57 77.05 76.92 76.27
54.73 52.31 48.02 41.16 44.33 47.67 53.27 49.20 54.30 59.65 60.51 62.85 65.04 63.86 65.54 65.75 66.08 67.09 68.30 69.12 69.74 70.29 70.92 71.29 71.40 71.54 72.52 73.12 74.20 74.96 75.53 74.39 74.38 75.08 74.46 74.13 74.14 74.73 76.31 76.20 76.94 76.86 77.19 77.12 77.56 76.61 76.25 76.36 76.10
53.78 50.59 54.52 48.99 50.31 47.43 49.91 53.96 57.96 59.77 59.41 61.40 62.62 63.05 63.52 64.96 66.03 66.69 68.30 69.41 69.88 70.35 70.88 71.21 71.43 71.86 72.27 72.88 74.14 74.53 74.75 74.95 74.58 75.29 75.15 74.17 75.02 74.60 74.99 75.72 75.95 76.56 76.73 76.99 77.12 75.51 75.97 76.59 76.53
56.28 57.10 49.92 50.71 42.86 40.36 46.95 49.48 52.16 56.45 58.13 59.95 60.67 61.90 63.26 64.98 64.74 64.90 66.16 68.92 69.91 70.67 71.33 71.84 72.07 71.78 72.16 73.01 73.90 74.15 74.42 75.05 75.25 75.12 74.67 74.79 74.74 74.71 74.71 74.86 75.36 75.86 76.52 76.86 77.14 77.04 76.78 76.55 76.08
53.40 52.99 51.24 50.64 48.88 44.59 43.99 46.40 57.23 57.39 59.10 59.83 60.10 63.04 64.83 64.64 65.80 66.14 65.52 68.65 69.91 70.43 71.02 71.05 71.85 71.88 71.84 72.50 73.29 73.98 74.04 74.32 74.59 74.52 75.02 75.16 74.93 74.39 73.94 74.64 74.88 75.34 75.63 76.26 76.68 76.83 76.58 76.16 76.21
54.05 53.29 53.66 48.46 45.28 49.08 47.69 47.71 58.92 59.42 60.25 61.36 61.27 62.44 64.11 65.59 66.08 65.77 66.19 67.13 69.28 69.92 70.57 70.49 71.51 71.79 72.07 72.72 73.04 72.95 73.62 74.19 73.79 74.26 74.67 75.22 74.92 74.83 74.66 73.80 73.84 73.94 74.99 75.85 76.04 75.75 75.59 75.70 75.41

GFSSGP_sfc_wetblb_126.txt.gz
Wetbulb
73.33 74.71 76.38 73.42 63.37 60.90 56.64 57.35 61.47 59.96 60.24 64.09 64.56 63.09 62.45 63.84 60.97 57.77 68.62 68.70 70.37 71.61 73.06 73.44 74.20 74.67 74.01 75.09 75.78 75.82 75.95 75.60 76.48 76.58 76.46 76.63 76.48 76.29 76.36 76.64 76.76 76.71 76.35 76.67 76.32 76.52 76.88 76.95 76.74
74.86 73.57 74.26 70.89 60.11 55.09 56.07 60.77 59.10 61.27 63.11 65.14 64.67 64.53 62.95 61.34 66.59 67.19 68.68 71.55 72.45 73.23 74.00 74.22 75.06 75.18 74.45 76.08 75.76 76.32 76.20 75.92 75.86 75.84 76.37 76.32 76.32 76.62 76.55 76.89 76.54 76.12 75.94 75.93 75.90 75.88 76.20 76.83 76.78
74.66 73.90 69.57 64.85 61.06 55.60 56.44 60.73 62.10 62.99 64.70 64.14 63.50 66.62 64.42 62.99 67.39 68.73 71.32 72.11 73.71 74.36 74.86 75.14 75.50 75.82 75.62 76.05 76.21 76.46 76.21 75.96 76.22 76.52 76.36 76.45 76.66 76.48 75.98 76.45 76.50 76.33 75.98 76.12 76.54 76.63 76.46 76.45 76.67
72.95 72.86 69.12 62.07 57.58 60.50 60.74 62.35 63.58 63.12 65.04 65.50 65.24 62.54 66.13 68.85 68.12 70.40 71.90 72.72 74.04 74.33 74.69 75.38 75.88 75.91 76.17 76.24 76.38 76.44 76.02 76.04 76.26 76.06 76.34 76.54 76.36 76.54 75.93 76.09 76.45 76.26 76.20 76.51 76.65 76.82 76.74 76.49 76.54
72.04 69.74 63.35 58.92 59.30 61.64 63.45 64.15 64.88 63.44 64.14 64.74 64.86 61.83 64.16 69.48 70.90 71.40 71.99 72.96 73.08 74.00 74.43 75.99 76.09 76.12 75.91 76.55 76.53 76.51 76.34 76.48 76.32 76.49 76.41 76.53 76.54 76.38 76.43 76.13 75.82 76.01 76.18 76.18 76.37 76.76 76.32 75.90 75.40
67.71 67.28 59.24 56.61 59.06 62.30 64.21 65.36 64.83 64.46 65.14 64.73 63.86 63.79 65.88 70.36 70.18 71.25 72.86 73.24 73.47 73.33 74.55 75.02 76.12 76.21 76.07 76.39 76.36 76.57 76.17 76.37 76.53 76.46 76.24 76.48 76.32 76.59 76.56 76.07 75.46 75.68 75.82 75.76 75.85 76.40 76.60 76.01 75.45
65.73 65.40 57.76 58.22 59.17 60.83 62.59 66.34 64.04 63.93 63.96 63.66 65.98 62.50 67.12 68.86 71.17 72.19 73.15 73.89 73.22 73.19 74.21 74.57 75.07 76.31 76.09 76.58 76.49 76.25 76.20 76.15 76.16 76.22 76.38 76.42 76.37 76.10 75.88 75.43 74.92 74.98 75.25 75.39 75.65 75.82 75.82 75.96 76.15
68.76 66.13 59.68 59.65 58.50 59.28 64.39 65.16 66.00 64.35 63.63 67.59 67.11 62.39 64.18 69.47 71.99 72.91 73.16 72.91 72.39 72.64 73.56 74.20 75.22 75.99 76.76 76.47 76.56 76.52 76.29 76.30 76.14 76.05 76.51 76.43 76.38 76.15 75.79 76.44 75.62 74.61 74.55 74.65 75.25 75.43 75.76 75.76 75.90
68.68 62.43 59.08 58.70 59.51 61.24 65.52 63.86 66.69 67.67 65.60 65.66 67.22 66.23 69.17 71.41 72.43 71.55 71.54 71.88 72.05 72.26 73.71 74.45 74.91 75.62 76.41 77.06 76.49 76.48 76.16 76.40 76.39 76.12 75.72 76.18 74.57 75.22 75.71 76.43 76.18 75.75 75.22 74.67 74.69 75.31 75.43 74.98 75.38
66.71 62.60 60.88 63.69 64.42 63.04 64.34 64.04 64.83 63.78 63.95 65.01 66.09 68.78 70.49 70.86 70.74 69.68 69.47 69.66 69.76 71.41 73.25 74.23 74.82 74.87 75.82 75.57 76.96 77.28 76.17 76.03 75.61 75.55 75.94 75.01 76.13 76.68 75.53 75.61 75.12 75.35 74.57 73.79 73.90 73.96 73.63 74.58 75.74
65.69 62.33 62.59 61.94 65.43 65.23 64.35 63.86 65.62 63.34 61.71 64.97 65.30 66.95 68.83 69.88 70.24 69.40 69.34 69.88 69.42 72.06 73.27 74.25 75.03 75.76 75.70 76.07 75.99 75.51 75.08 74.91 75.53 76.36 76.04 76.22 75.73 76.48 76.32 75.88 74.97 75.69 74.18 75.11 74.50 74.98 75.75 75.38 76.04
62.75 65.04 64.69 63.00 65.63 65.12 63.84 65.70 61.38 63.90 64.34 67.50 68.22 68.88 69.22 68.97 69.09 69.73 69.44 69.25 69.33 71.67 72.84 73.80 74.76 75.46 75.40 75.29 74.59 74.56 74.49 74.52 73.95 75.67 76.67 75.97 74.83 75.33 76.70 75.16 75.51 76.71 75.97 76.22 77.73 76.10 77.30 77.52 77.42
63.77 64.45 64.80 63.99 65.09 65.60 66.05 64.29 63.69 64.78 67.13 68.24 68.86 68.74 68.09 68.91 69.78 70.52 70.15 70.32 70.80 70.93 72.70 73.88 75.16 75.72 75.91 75.27 73.69 73.71 73.62 73.78 74.42 75.18 76.22 76.29 75.40 74.95 75.46 75.81 76.69 77.72 77.89 76.54 77.00 77.48 76.87 76.65 74.79
65.59 65.15 63.23 63.43 63.50 65.55 64.21 64.62 64.39 66.10 67.48 67.23 67.27 67.59 68.86 69.28 69.48 70.14 70.17 70.22 70.86 71.55 72.55 74.13 74.75 75.72 75.52 75.69 76.18 74.97 74.76 74.84 75.03 75.30 75.99 76.18 75.97 75.91 76.63 76.62 76.28 77.28 78.72 78.10 78.14 78.11 76.54 75.45 73.81
65.89 62.37 63.24 61.96 62.14 63.48 65.62 62.64 62.91 67.35 67.15 66.31 66.49 67.44 68.69 69.57 70.20 70.24 71.36 70.97 71.66 72.23 72.91 73.63 74.34 75.31 75.66 75.78 75.94 75.26 75.29 74.53 74.61 75.08 76.64 76.92 78.06 77.41 78.67 76.82 77.73 77.85 78.99 79.57 78.35 77.30 77.23 74.40 73.41
62.30 62.50 57.59 61.75 62.39 62.50 63.74 58.55 64.97 67.77 66.38 65.60 66.23 66.96 67.88 69.23 70.08 70.89 71.73 71.84 71.85 72.13 72.85 73.56 73.53 74.54 75.75 76.11 76.08 75.02 75.55 75.77 75.49 75.61 76.07 77.04 77.48 78.43 78.07 76.95 77.37 78.64 79.94 79.52 77.60 75.48 74.61 74.52 73.39
60.88 57.26 57.00 58.36 62.62 61.14 61.69 59.38 65.91 67.70 66.40 65.10 66.08 66.95 67.75 68.72 70.15 71.39 71.69 72.12 71.65 73.10 74.02 73.50 74.36 74.57 75.28 76.57 75.84 75.91 76.53 75.96 75.84 76.32 76.43 77.63 77.71 77.93 78.50 78.06 77.57 80.02 79.51 78.13 76.42 75.61 74.74 74.01 73.99
54.70 55.90 56.82 56.68 59.23 60.83 59.17 59.41 64.57 66.88 65.94 65.92 66.07 66.28 67.41 68.33 69.45 71.32 71.79 72.23 72.45 73.62 74.80 74.87 75.06 75.43 76.10 75.97 76.54 75.80 75.21 75.59 75.83 75.46 76.06 77.06 77.79 78.43 78.59 77.35 78.81 78.93 78.69 76.96 77.33 77.55 77.68 76.89 75.91
56.07 57.10 56.21 58.01 59.45 56.35 56.29 60.04 62.90 65.54 66.02 62.99 65.59 66.02 67.11 67.74 70.36 71.46 71.89 72.06 72.71 73.17 73.69 74.81 75.04 76.11 76.63 74.98 73.78 73.58 73.27 74.34 74.21 75.42 76.15 76.96 78.16 78.57 78.90 77.93 78.00 78.84 77.45 78.90 79.30 77.38 76.90 75.90 78.18
55.88 56.36 56.14 58.72 59.44 57.04 55.97 59.40 61.38 63.49 65.21 63.02 65.90 65.94 66.82 67.63 69.17 70.74 71.33 72.09 72.40 72.83 73.60 74.56 74.89 75.49 76.48 75.42 75.30 75.08 75.85 74.76 74.93 76.11 77.04 77.26 77.19 78.42 78.32 78.36 78.39 78.12 77.73 78.84 79.45 79.03 76.28 77.00 78.52
55.30 55.98 55.31 55.22 58.81 59.11 56.07 54.72 57.85 63.12 64.94 66.20 67.25 67.43 67.23 67.54 67.93 69.89 70.91 71.57 72.18 72.51 73.39 74.36 75.39 75.86 76.74 76.76 76.08 76.19 77.11 77.21 75.42 75.57 75.52 76.78 77.33 77.21 78.87 78.65 78.33 78.80 78.05 76.66 78.78 78.55 77.69 74.73 77.11
53.05 59.17 57.30 56.73 56.67 51.64 56.75 48.80 54.42 61.88 62.93 63.91 65.75 67.17 67.18 67.27 68.48 69.72 70.81 71.36 71.84 72.64 73.80 74.51 75.44 75.88 75.85 76.31 76.21 76.04 73.41 72.22 73.62 75.10 75.37 76.61 77.39 77.52 78.00 78.22 78.94 79.15 77.76 78.42 78.57 78.69 78.42 78.23 75.25
55.37 59.91 58.05 57.30 56.83 55.92 54.08 52.39 54.90 59.09 58.86 61.05 65.02 66.79 67.22 67.80 68.15 68.88 70.44 71.88 72.58 73.24 73.50 74.26 75.51 75.85 76.22 76.56 77.26 74.44 74.05 74.03 74.57 74.62 76.12 76.95 77.45 78.10 77.66 78.14 78.10 78.11 77.01 79.00 78.13 77.75 79.21 78.15 76.07
61.06 58.46 57.44 57.38 56.87 51.11 55.23 53.94 54.59 56.78 58.88 60.65 65.18 66.59 67.16 67.76 68.10 69.40 70.71 72.04 72.60 73.41 73.52 74.12 74.89 75.45 76.25 76.34 75.52 75.25 75.11 74.57 73.44 74.61 74.33 74.38 74.79 75.88 77.56 77.77 78.55 78.65 77.81 77.87 77.77 78.61 77.99 77.47 77.72
59.68 56.79 49.38 48.65 49.17 51.15 56.58 54.64 56.26 58.89 61.89 62.06 64.38 66.44 67.39 68.32 68.20 68.70 69.60 70.48 72.12 72.74 73.25 73.64 74.55 74.49 75.21 75.51 75.37 75.15 75.57 75.63 75.10 75.25 73.90 75.62 74.54 75.02 76.63 77.57 77.38 76.47 76.92 76.74 78.01 78.65 77.86 77.59 76.77
56.14 55.07 49.38 42.58 46.35 51.06 56.08 51.17 55.71 60.97 62.01 64.61 65.91 66.81 68.18 68.33 68.77 68.52 69.74 71.04 72.23 72.75 73.32 73.48 73.92 74.59 74.83 74.67 75.24 76.10 77.12 75.25 74.89 75.97 74.69 75.26 74.80 75.58 77.18 77.55 77.43 77.44 77.53 77.50 77.87 76.97 76.76 77.11 76.54
54.63 52.09 55.88 52.16 52.68 50.38 53.23 55.26 60.62 62.01 62.00 63.79 62.94 66.45 67.23 67.48 68.52 68.28 69.78 71.29 72.31 72.89 73.39 73.88 74.05 74.59 74.58 74.07 74.63 75.45 76.22 76.35 75.94 76.61 77.49 75.82 77.41 76.37 77.40 77.72 77.55 77.50 77.66 77.71 77.70 76.69 76.67 77.05 76.99
58.27 58.78 50.93 52.10 44.90 44.01 48.51 51.46 52.64 59.43 59.90 61.49 62.48 64.25 66.02 68.20 68.47 68.56 69.46 71.02 72.49 73.16 73.77 74.40 74.56 74.36 74.60 74.27 74.47 74.76 75.66 76.45 76.76 77.56 76.33 77.11 76.96 77.51 77.28 76.96 77.01 77.32 77.61 77.83 78.28 76.77 77.37 77.21 76.44
56.69 55.65 55.06 54.67 52.42 44.64 47.32 50.05 59.21 60.76 61.99 61.45 62.21 64.06 65.59 66.56 68.06 68.95 69.80 71.08 72.37 72.99 73.46 73.71 74.25 74.27 74.19 74.26 74.69 74.82 75.04 75.42 76.48 76.36 77.21 76.96 77.39 77.40 77.08 76.83 76.68 76.96 77.22 77.57 78.11 77.40 76.48 76.54 76.69
57.86 56.43 55.29 50.03 48.09 52.28 49.24 49.19 61.33 62.03 62.95 63.34 63.37 63.35 65.30 67.01 67.95 68.30 66.61 71.04 71.81 72.66 73.16 73.22 73.95 74.00 74.62 74.68 74.82 74.80 75.11 75.44 75.31 75.93 76.23 77.15 77.27 77.66 77.16 76.75 76.73 76.58 76.87 77.16 77.40 76.41 76.13 76.00 75.78

GFSSGP_sfc_wetblb_129.txt.gz
Wetbulb
72.00 75.66 76.39 73.84 64.76 61.60 54.79 57.65 61.83 60.43 61.07 64.60 65.78 62.79 62.72 64.34 60.29 57.19 68.67 69.41 69.53 69.79 72.04 72.95 74.09 73.90 75.14 75.40 76.20 75.59 75.90 76.45 76.42 76.42 76.52 76.36 76.38 76.42 76.60 76.44 76.79 76.64 76.53 76.43 76.73 76.81 76.95 76.73 76.78
75.28 75.17 74.60 70.98 58.20 51.53 55.42 59.96 59.42 61.96 64.06 65.35 65.82 65.25 63.63 62.71 66.79 67.03 67.87 71.47 71.69 70.99 72.38 73.86 74.61 74.31 75.63 75.45 76.09 75.90 76.02 76.33 76.48 76.51 76.70 76.59 76.65 76.46 76.74 76.28 76.11 76.23 76.18 76.24 76.34 76.97 76.95 76.59 76.45
75.80 75.06 70.92 66.37 57.54 53.28 55.12 60.18 62.03 64.07 65.11 64.41 63.94 66.45 65.47 63.91 67.57 67.66 70.70 72.10 71.90 72.52 74.01 73.89 75.05 74.86 76.09 75.44 76.11 75.92 76.24 76.34 76.52 76.31 76.18 76.15 76.53 76.65 76.65 76.36 76.37 76.18 76.48 76.76 76.74 76.40 76.76 76.59 76.23
73.85 72.97 70.94 60.13 56.66 59.53 60.01 61.83 63.42 63.42 65.11 66.07 65.00 62.75 67.07 69.59 68.80 70.71 72.66 72.02 71.55 71.96 74.30 75.12 75.55 75.65 76.40 76.11 76.09 76.13 76.01 75.92 75.95 76.59 76.34 76.39 76.07 76.01 76.36 76.62 76.59 76.57 76.71 76.96 77.62 76.74 76.38 76.76 76.23
73.06 69.75 61.74 58.43 58.12 61.56 62.98 63.89 63.71 62.43 63.87 64.14 64.85 62.48 64.59 69.20 71.12 71.78 72.53 72.35 72.41 73.64 74.22 75.18 75.84 76.16 76.26 76.46 76.12 76.08 76.24 76.57 76.68 76.59 76.61 76.59 76.40 76.88 76.35 76.38 76.49 76.60 76.76 76.85 76.88 76.32 75.85 75.23 74.93
67.92 67.86 56.65 55.79 58.45 62.07 63.80 64.88 64.12 63.63 64.94 65.10 63.32 64.21 65.55 70.41 70.29 71.32 72.27 71.84 72.63 73.53 73.74 74.97 76.33 76.08 76.51 76.34 76.32 76.26 76.46 76.21 76.21 76.36 76.46 76.29 76.59 76.87 76.10 75.79 76.15 76.21 76.29 76.46 76.85 76.51 76.37 75.70 74.35
65.60 63.73 57.19 57.25 59.49 61.25 63.00 66.29 62.77 63.46 64.28 63.75 66.35 63.15 66.23 68.46 70.97 71.93 72.35 72.56 72.10 73.15 72.25 74.01 75.31 76.54 76.54 76.44 76.40 76.49 76.44 76.36 76.35 76.50 76.78 76.56 76.35 76.18 75.59 75.36 75.70 75.86 76.01 76.12 76.13 76.23 76.01 76.23 75.48
68.49 65.26 60.14 58.96 58.02 59.64 64.50 65.65 65.23 63.76 63.83 67.63 67.42 63.28 63.74 68.93 71.42 72.34 72.71 71.96 71.79 72.07 72.45 72.76 74.30 75.04 75.96 76.28 76.19 76.39 76.45 76.42 76.33 76.57 76.40 76.51 75.81 75.43 75.38 76.43 75.28 75.04 75.34 75.63 75.64 75.62 75.46 75.74 76.29
70.26 61.97 57.43 58.77 59.41 62.27 65.83 64.39 67.17 67.73 65.43 65.81 67.34 66.49 68.98 70.75 71.59 71.20 70.61 70.43 70.64 71.48 71.88 74.41 74.55 75.98 76.64 76.26 76.48 76.35 76.42 76.66 76.12 76.07 76.40 76.85 75.56 75.76 75.70 76.62 75.60 75.19 74.66 74.67 74.77 74.77 75.36 75.45 75.93
66.81 60.70 59.30 65.10 64.41 63.15 64.45 65.04 65.00 64.20 64.42 64.88 65.74 68.87 70.33 70.70 70.36 69.74 68.66 68.77 70.03 71.14 71.88 71.97 74.24 73.94 75.00 74.72 76.55 76.22 75.41 75.84 74.87 74.64 76.15 75.75 76.59 75.49 74.68 75.80 75.73 75.56 75.48 76.07 75.93 75.67 75.89 76.02 76.69
66.64 62.61 63.93 63.06 66.74 65.55 64.86 64.94 65.61 63.29 62.72 65.20 65.15 67.48 69.06 69.80 69.65 68.54 69.07 69.18 70.29 71.41 72.34 72.91 74.11 75.55 75.11 75.73 75.39 75.24 74.59 74.07 74.40 75.42 77.74 76.31 75.01 75.21 75.71 75.27 75.78 75.27 75.90 74.31 74.81 75.10 75.19 75.23 75.26
63.57 65.89 64.74 63.74 66.67 64.98 64.19 65.32 62.68 65.36 65.17 67.69 68.34 68.99 68.95 68.51 68.28 68.18 69.13 69.31 70.68 72.01 72.65 73.04 74.90 75.74 74.53 75.15 73.86 74.44 73.41 73.08 73.18 75.28 76.70 76.40 74.69 75.08 75.83 74.15 75.14 75.53 74.22 75.80 75.98 74.75 76.39 76.19 76.15
64.53 65.24 66.02 65.55 66.42 66.32 66.89 63.64 62.41 64.96 66.99 68.61 68.63 68.56 68.81 68.68 68.61 69.54 70.16 70.11 71.43 71.69 72.69 73.52 74.83 76.09 76.22 74.98 73.62 73.94 73.76 73.06 74.40 75.66 76.48 75.87 74.49 74.79 74.84 76.20 76.09 75.74 75.18 74.77 75.26 75.93 75.90 75.35 74.32
66.64 66.56 65.31 64.19 65.79 65.99 64.59 64.61 65.67 65.29 67.46 67.63 67.78 67.35 67.45 67.33 68.32 69.88 69.99 69.66 70.74 72.00 72.84 74.16 74.17 75.63 75.58 74.80 75.27 74.02 75.42 73.53 73.63 74.20 75.83 76.68 74.97 75.64 75.34 75.59 75.18 75.30 75.88 75.87 75.84 76.59 75.73 74.37 73.08
67.19 63.60 64.36 63.20 62.37 65.27 66.73 62.04 62.15 66.66 67.23 66.14 66.61 67.29 67.41 68.32 69.21 69.24 70.38 70.57 71.75 72.12 73.56 73.61 74.64 75.42 75.89 75.67 75.09 74.71 73.62 73.71 73.67 74.53 76.49 76.60 76.69 77.51 79.92 75.25 77.72 75.46 76.67 77.63 76.90 76.67 76.30 73.91 73.13
63.30 63.25 56.97 61.31 63.22 63.92 64.96 58.02 64.54 67.54 66.41 65.00 65.82 66.75 67.85 67.71 69.04 70.40 70.39 71.36 72.48 72.73 73.22 73.97 73.82 74.59 74.83 75.23 75.31 75.15 76.35 74.27 76.59 75.34 75.54 76.43 77.55 77.86 78.32 76.06 76.77 76.51 77.89 76.52 75.70 75.33 74.32 72.93 72.95
61.94 55.47 58.11 60.07 64.56 62.08 61.97 59.93 65.11 67.77 66.28 64.06 65.15 66.43 67.21 68.17 68.95 70.63 71.11 71.43 72.16 73.16 73.46 73.75 74.79 74.13 74.98 75.78 75.94 76.25 76.06 74.96 76.42 74.96 75.18 76.91 76.80 77.27 77.49 75.62 77.72 79.47 77.20 76.90 74.62 74.20 74.73 73.67 73.14
50.40 54.45 58.28 58.27 62.43 62.72 60.04 60.33 62.71 66.46 65.44 64.15 64.53 65.83 67.02 67.20 68.09 70.54 71.10 71.42 71.82 73.36 73.93 74.31 74.24 75.18 75.90 75.37 76.80 75.14 74.78 75.39 74.63 77.04 76.07 77.02 76.84 77.25 78.60 76.64 78.04 78.28 75.90 76.09 77.43 78.89 76.20 75.14 73.60
56.71 57.29 57.88 59.97 62.09 60.27 58.23 58.92 61.67 64.84 65.27 62.96 63.99 65.74 66.19 67.07 69.52 70.44 71.27 71.92 71.69 73.05 73.64 74.58 74.96 75.87 75.32 74.29 73.33 73.92 71.96 74.83 74.59 74.67 76.85 77.19 76.91 77.46 78.34 75.95 77.43 76.54 77.81 79.34 78.37 77.10 77.19 75.13 76.28
56.48 56.14 57.81 59.98 61.50 60.11 56.31 57.58 60.76 64.84 64.27 65.61 64.87 64.65 65.18 67.15 68.54 69.56 70.53 71.22 71.72 72.36 73.57 74.55 75.39 76.32 76.13 75.96 75.67 76.01 73.31 74.01 74.90 75.85 76.55 77.09 76.80 77.50 77.78 78.26 77.26 77.55 76.64 78.69 78.90 79.02 76.78 74.97 76.54
56.34 56.46 53.85 56.48 60.09 60.71 56.79 54.17 56.65 63.95 66.62 67.51 64.72 65.98 67.22 66.72 67.32 69.48 70.06 70.56 71.53 72.00 73.01 74.13 75.18 76.11 76.49 76.48 75.94 75.83 76.53 77.08 74.97 75.62 75.42 76.17 76.94 77.24 77.94 77.58 78.30 78.45 78.42 76.41 77.81 78.26 79.18 73.03 75.12
53.20 59.09 58.23 57.00 57.61 51.82 57.97 47.93 55.04 59.66 63.40 64.54 64.97 66.94 66.61 67.11 68.41 69.46 69.95 70.59 70.98 72.40 73.30 74.29 75.71 76.67 76.07 76.92 75.49 78.05 73.69 72.45 72.93 74.28 75.50 76.80 77.30 77.45 77.36 77.73 77.91 78.41 78.54 78.87 77.57 77.85 78.19 78.64 73.34
54.91 59.03 58.98 57.97 55.27 54.21 54.91 50.18 53.97 59.63 59.17 63.14 64.63 67.01 67.09 67.26 68.20 68.90 69.62 70.63 71.69 72.66 73.29 74.11 75.49 77.34 76.73 76.58 77.07 75.12 75.34 74.13 74.89 75.80 77.71 77.97 79.05 77.72 77.37 77.82 77.83 78.23 77.04 79.23 78.45 77.90 78.66 77.42 75.61
58.60 57.92 58.56 58.34 56.06 51.95 53.98 52.59 52.24 57.17 61.23 64.11 66.49 66.62 67.92 67.17 67.98 69.24 70.29 71.48 71.63 72.84 73.35 73.99 75.37 76.39 77.30 76.58 76.44 76.26 75.84 73.43 74.79 75.64 74.65 74.72 75.07 76.31 77.56 77.88 78.05 78.48 78.28 77.96 77.64 79.12 78.16 78.27 78.21
57.73 55.55 50.06 49.29 49.98 49.05 53.65 52.98 55.08 59.95 62.58 64.19 66.13 66.86 68.26 68.67 68.32 68.42 69.59 70.39 71.53 72.34 73.04 73.94 75.24 75.26 75.59 75.92 75.21 75.60 75.87 75.93 75.72 75.62 74.55 74.35 74.23 74.11 78.38 78.20 78.06 77.14 78.23 77.40 78.12 78.44 78.17 77.84 77.07
55.79 55.07 50.43 43.52 47.18 48.11 56.33 52.18 53.59 62.15 63.40 64.99 65.28 67.44 68.54 67.15 68.90 68.23 69.49 70.40 71.51 72.20 73.06 73.77 74.71 75.37 75.53 75.24 76.55 77.19 76.61 75.42 75.20 76.30 75.67 75.09 74.34 73.98 79.33 77.73 78.10 78.64 77.81 77.77 78.10 76.71 76.53 76.73 76.74
53.92 52.85 56.89 50.88 53.10 50.95 48.22 57.95 61.69 62.74 63.17 63.77 63.51 64.66 67.11 67.53 67.78 68.66 69.27 70.47 71.63 72.29 73.35 73.99 74.80 75.46 75.78 74.99 75.56 76.30 77.01 76.20 76.38 78.64 77.76 76.05 77.59 74.88 77.38 77.34 78.77 77.87 78.87 78.66 78.45 76.36 78.10 77.35 77.36
55.71 57.69 51.92 51.38 44.54 44.47 51.37 49.53 51.38 59.56 62.39 63.34 63.95 65.16 66.17 66.88 68.48 68.97 69.22 70.20 71.65 72.65 73.37 74.36 74.95 75.41 75.80 75.25 74.96 74.79 75.62 76.63 76.76 77.46 76.66 77.56 77.56 77.49 77.30 76.92 77.38 77.33 77.78 77.84 78.48 77.97 77.75 77.28 75.99
55.30 53.40 53.95 54.77 55.07 48.68 47.93 48.25 59.10 62.26 63.61 62.20 63.03 64.92 64.95 66.64 69.10 69.49 69.15 70.58 71.85 72.63 73.37 73.76 74.59 74.98 75.36 75.17 74.78 74.78 74.90 75.70 76.63 76.23 77.08 77.01 77.46 78.23 77.60 77.65 77.73 77.13 77.20 77.55 77.91 77.93 77.79 76.48 77.81
52.02 52.13 54.52 51.26 48.38 47.73 45.09 49.71 62.79 64.56 65.17 65.18 62.80 63.49 65.43 65.53 69.94 70.18 70.05 70.46 71.84 72.69 73.19 73.53 74.27 74.66 75.27 75.61 75.41 74.82 75.21 75.79 75.07 76.02 76.70 77.49 77.39 77.84 77.93 78.14 77.41 77.35 77.20 77.51 77.71 76.73 76.89 76.07 75.93

GFSSGP_sfc_wetblb_132.txt.gz
Wetbulb
70.49 72.64 73.79 67.09 60.15 58.18 55.47 56.70 60.41 59.54 60.38 64.36 64.61 61.97 61.37 62.34 60.28 56.71 69.66 69.46 68.81 69.68 72.11 73.04 75.07 75.09 75.36 76.56 75.70 75.52 75.80 76.43 76.35 76.44 76.53 76.58 76.64 76.79 76.76 76.83 77.03 76.84 76.81 76.84 76.98 76.91 77.12 76.98 76.83
70.27 72.82 71.17 64.00 55.95 52.94 54.99 60.17 58.29 60.15 63.20 64.22 64.80 64.01 62.62 60.96 65.65 66.00 66.91 69.67 70.25 70.66 71.96 72.84 75.94 75.97 75.54 76.77 76.56 75.97 76.50 76.58 76.47 76.53 76.61 76.85 76.74 76.86 76.63 76.64 76.75 76.63 77.43 77.13 77.38 77.08 76.80 76.92 76.91
72.62 75.06 61.21 59.36 57.89 53.78 54.86 60.31 60.63 63.53 65.14 63.77 63.07 65.07 63.90 61.39 65.91 66.97 69.18 69.88 70.80 71.36 72.64 73.62 75.65 76.46 75.92 76.37 76.16 76.22 76.11 76.55 76.94 76.86 76.39 76.67 76.86 76.61 76.59 76.75 76.69 76.72 77.32 76.97 77.05 76.75 76.47 76.58 76.21
73.19 72.18 68.98 59.49 56.57 59.23 59.47 60.98 62.32 63.16 63.82 64.42 64.25 61.77 66.32 68.19 66.74 69.20 71.71 71.07 70.77 70.81 72.74 75.17 76.07 76.25 76.14 76.15 76.06 76.12 76.69 76.56 77.02 76.85 77.20 76.74 77.01 76.76 76.78 76.86 77.03 77.11 77.36 77.44 76.81 76.86 77.13 75.86 75.72
73.14 66.51 58.56 58.57 58.10 60.23 61.77 63.10 64.23 60.89 62.72 63.45 63.34 61.63 63.14 68.15 70.34 71.49 71.98 71.96 71.40 72.13 73.28 74.33 77.21 76.85 76.43 75.96 76.08 76.14 76.39 76.54 76.87 76.78 76.37 77.62 76.69 76.95 76.89 76.92 77.03 77.14 77.12 77.06 76.08 75.80 75.64 75.28 74.70
65.29 63.26 54.69 54.96 57.93 60.94 63.41 64.15 63.06 62.93 59.39 63.58 63.05 62.23 63.37 68.93 70.36 70.83 72.56 71.16 71.92 71.98 72.85 74.17 76.83 76.61 76.61 76.21 76.22 76.62 76.63 76.69 77.07 77.30 77.24 76.75 77.74 76.39 76.53 76.67 76.64 76.70 76.92 77.17 76.64 76.39 75.50 74.41 73.47
59.59 58.32 56.49 56.10 58.68 59.85 62.93 64.51 63.24 63.07 62.52 62.56 65.56 60.66 64.47 66.81 70.14 71.14 71.71 71.91 71.51 72.30 72.63 73.93 74.97 76.46 76.58 76.60 76.74 76.71 76.66 76.67 76.68 77.42 77.18 77.04 76.80 76.09 76.03 76.56 76.45 76.36 76.44 76.56 76.47 76.44 76.38 75.91 74.78
62.33 62.74 57.70 59.12 57.03 58.10 63.44 64.29 65.39 63.78 62.68 67.34 66.81 60.48 61.75 67.50 70.22 70.11 69.79 71.32 72.16 72.20 72.00 73.43 74.21 74.35 75.13 75.28 76.65 76.71 76.62 76.45 76.76 77.07 76.83 77.29 76.34 75.60 75.63 76.89 76.89 76.08 76.13 75.77 75.86 76.03 76.14 76.66 76.32
69.76 57.58 53.22 58.40 59.49 60.37 63.92 62.93 66.23 66.49 64.77 65.46 65.45 65.24 66.99 69.13 70.14 68.47 69.23 70.36 70.60 70.21 70.44 68.54 73.63 74.93 75.84 75.85 76.20 76.60 76.85 76.95 77.02 76.31 76.83 76.56 74.99 74.78 74.40 76.50 76.36 75.38 75.33 75.87 75.63 76.03 76.45 76.20 76.90
64.45 56.83 56.86 61.92 61.16 62.36 64.02 63.65 63.24 63.22 63.11 63.94 65.29 67.22 68.18 69.00 68.95 67.40 67.17 67.39 69.42 70.37 70.19 70.70 71.62 73.73 74.46 73.48 76.25 75.94 75.13 75.04 75.39 75.83 75.38 73.74 75.78 73.83 72.42 75.84 77.23 76.61 76.55 76.89 77.36 77.69 77.28 76.14 75.07
65.09 57.82 61.32 63.62 65.00 65.57 64.31 63.16 64.43 63.14 61.82 64.35 63.95 65.91 67.35 68.00 67.58 67.34 67.39 68.42 69.79 69.35 68.09 70.11 68.34 69.48 73.76 74.66 75.44 74.82 74.89 74.64 75.47 77.30 77.67 75.89 73.93 75.04 74.30 74.87 73.75 74.22 76.20 74.13 75.79 74.93 74.84 74.58 74.62
62.20 65.79 65.18 64.12 64.42 64.62 64.02 65.23 63.87 63.41 63.82 67.56 67.17 67.60 67.61 67.48 66.89 67.02 67.51 68.57 69.60 71.00 71.52 72.16 69.90 69.10 73.42 75.06 73.91 74.86 74.45 72.99 73.10 74.44 77.25 75.36 68.82 71.62 72.99 74.53 75.65 75.67 74.96 74.92 75.25 75.91 76.23 76.06 75.70
61.94 65.38 65.57 65.22 66.44 65.20 65.72 63.06 63.69 64.21 66.96 68.18 67.90 67.65 67.07 67.25 66.86 67.22 68.80 70.98 70.80 71.09 71.46 72.89 74.56 73.00 68.44 66.75 72.15 73.46 74.01 72.33 74.40 75.37 72.72 74.14 75.40 76.96 76.51 76.11 74.97 76.89 75.37 75.45 75.83 75.98 76.01 75.50 74.97
62.18 66.09 64.85 65.08 65.17 66.05 63.01 64.03 64.86 64.21 66.91 66.93 66.66 66.41 67.26 67.11 67.22 67.33 68.72 69.14 70.65 71.13 72.17 73.45 74.39 76.75 74.77 73.21 75.53 75.41 73.51 73.50 73.61 75.74 76.37 78.35 77.31 76.56 77.14 77.27 75.35 76.01 75.38 77.02 77.41 77.06 76.82 75.92 73.84
66.86 63.06 63.89 63.19 63.89 64.05 61.26 59.15 61.58 64.78 66.47 65.66 65.93 66.82 67.25 67.58 67.23 68.58 68.74 69.61 70.88 71.72 72.81 73.36 73.40 75.44 72.71 77.80 77.07 71.74 71.05 74.63 74.89 75.65 77.59 78.25 76.77 76.08 80.38 76.34 76.60 77.75 77.95 78.14 78.11 77.18 77.12 74.34 73.89
63.29 63.22 57.16 61.00 62.26 62.84 61.92 54.71 63.62 65.69 64.82 63.81 64.73 65.80 67.05 66.92 67.83 69.32 69.90 70.37 70.85 72.60 73.52 72.61 73.22 73.66 74.78 75.91 76.88 73.27 73.87 76.77 73.40 75.25 76.68 78.39 76.89 77.27 78.54 75.61 72.09 71.09 71.65 76.24 77.02 76.03 75.29 73.56 73.30
55.08 53.19 54.69 58.77 62.43 62.47 61.82 58.82 62.66 66.01 64.23 63.28 64.92 66.18 66.24 67.22 67.90 69.88 70.22 71.26 71.73 72.05 73.78 73.01 73.99 73.86 72.26 77.85 73.02 75.15 75.52 76.68 71.90 74.84 73.63 77.16 77.26 76.65 76.98 73.51 67.35 66.46 71.06 70.40 74.22 76.04 75.88 74.10 74.46
52.36 52.80 55.43 56.91 62.23 62.90 59.96 59.56 62.06 64.73 62.58 63.26 64.06 65.81 65.96 66.23 67.96 70.22 70.71 69.96 72.24 73.37 74.09 72.90 74.67 73.76 72.70 77.61 76.47 73.01 70.87 73.84 76.62 75.50 75.56 78.28 76.80 76.59 72.83 73.19 65.85 67.06 67.19 68.85 74.85 78.85 78.80 76.35 74.87
57.90 56.41 54.67 59.49 62.90 60.77 59.96 60.33 59.38 61.19 63.01 63.69 63.93 65.65 65.36 66.03 69.19 70.02 70.57 70.86 72.08 72.82 73.01 75.49 73.90 74.58 75.92 76.50 74.83 74.54 70.77 73.68 76.62 77.65 77.99 75.56 74.41 77.10 74.46 73.91 70.27 67.35 70.26 71.33 79.19 78.21 77.45 75.66 75.85
56.96 55.44 56.86 59.80 62.18 60.17 59.41 58.08 59.82 58.98 58.86 63.58 63.82 64.70 65.48 66.73 67.71 69.76 69.55 70.13 71.29 72.57 73.10 74.15 76.22 77.31 77.03 77.84 77.22 73.84 72.79 76.23 72.02 77.59 78.95 78.06 76.65 77.31 75.72 74.71 67.66 66.66 71.59 74.54 77.37 78.52 74.35 69.60 71.44
55.01 54.20 56.52 55.18 60.06 61.08 58.55 55.69 58.95 61.99 62.77 64.37 64.53 65.77 66.33 65.12 66.77 67.97 69.44 70.02 71.31 72.44 73.83 73.48 74.42 77.19 77.48 77.46 74.76 73.79 75.40 74.47 76.73 75.34 76.44 76.91 77.28 78.23 74.58 77.84 74.14 74.35 66.00 66.52 76.25 75.03 67.31 64.45 68.78
51.81 59.54 57.87 57.16 57.37 52.71 58.51 49.25 55.64 58.55 60.30 62.67 63.53 65.80 65.65 66.73 68.54 68.10 68.92 69.59 70.64 72.18 73.83 75.18 76.11 76.56 76.91 78.91 76.58 75.39 72.47 73.36 75.14 72.27 73.68 76.11 78.85 79.27 77.05 79.47 79.43 76.75 72.10 71.66 76.67 76.78 74.31 68.58 67.31
53.29 58.44 57.47 56.56 55.49 56.07 54.64 51.03 53.00 57.81 57.18 57.40 58.65 63.94 65.34 67.07 67.72 66.72 68.82 69.65 71.22 72.17 72.63 75.37 76.27 76.95 78.17 77.77 78.20 76.55 76.96 72.20 71.63 76.18 77.71 79.05 79.86 79.72 78.67 79.42 79.21 79.05 78.62 78.55 78.30 77.88 77.54 77.02 76.34
56.44 56.40 57.46 56.75 54.66 49.07 53.78 53.63 51.51 54.19 56.98 59.62 63.92 65.54 66.61 67.28 68.09 68.69 69.86 71.31 70.94 72.75 72.60 74.25 75.89 76.05 77.37 77.16 77.37 76.61 74.66 70.31 69.41 74.30 75.17 75.58 76.26 77.03 78.57 79.56 78.51 79.48 78.81 78.20 78.42 78.66 78.17 78.63 78.39
54.28 52.24 47.71 46.80 47.82 48.20 55.71 53.00 54.92 56.52 59.41 61.49 64.32 66.35 66.41 69.50 66.10 67.17 68.99 69.64 71.18 70.99 72.60 74.21 75.25 75.24 76.23 76.08 76.33 76.08 76.19 74.75 75.44 76.79 76.39 78.09 76.57 74.99 76.57 79.81 79.07 78.94 78.99 78.84 79.14 79.12 77.85 77.39 76.62
53.47 52.53 48.26 44.00 44.26 45.64 54.84 50.22 54.94 60.33 62.86 65.27 65.38 67.67 67.75 68.22 66.85 67.02 69.39 70.40 71.25 72.08 73.04 73.97 74.98 75.06 75.65 76.08 76.26 77.35 77.21 75.50 75.84 77.67 77.31 78.38 73.66 74.56 72.66 75.66 78.55 79.52 78.77 78.68 78.95 78.03 77.91 76.12 74.93
51.68 51.49 55.89 50.68 49.87 46.70 51.58 52.89 57.03 60.19 62.11 64.05 64.43 65.02 67.04 67.20 68.40 65.71 69.32 71.33 71.68 72.41 72.82 74.38 75.19 75.50 75.53 75.30 76.39 76.31 77.13 77.11 76.17 79.75 78.83 77.20 73.65 74.86 71.19 72.60 75.64 78.32 79.02 77.82 77.58 76.97 77.73 76.09 75.96
54.68 56.63 49.88 51.37 42.58 43.59 47.88 46.41 47.73 54.25 56.37 61.81 62.31 63.43 65.29 66.54 67.20 69.03 68.68 70.40 71.97 72.91 73.38 74.11 75.63 75.71 76.00 75.62 75.66 75.49 75.61 76.36 77.28 79.19 73.63 76.71 74.16 72.86 74.43 73.94 76.51 78.21 78.88 79.07 79.10 77.75 77.37 76.73 73.93
54.46 52.79 52.58 52.51 50.88 46.04 45.48 47.71 55.23 57.19 59.02 61.53 63.82 65.21 65.08 65.10 66.43 69.92 70.82 69.44 72.03 72.22 72.77 73.32 74.77 75.78 75.81 75.67 75.28 75.15 75.29 76.07 77.06 76.88 75.49 77.13 78.50 72.42 75.36 78.17 77.32 78.39 78.23 79.16 78.97 78.09 76.61 76.02 76.25
54.77 48.69 50.24 49.15 46.61 49.19 48.60 49.17 59.29 61.85 63.79 63.20 62.41 65.84 65.39 66.32 66.33 66.64 66.76 69.44 70.26 72.33 72.63 72.80 73.96 75.06 75.46 75.56 76.12 75.35 75.66 75.63 75.50 76.67 77.85 79.46 78.56 79.13 79.07 77.87 79.13 78.12 78.16 77.51 78.24 76.94 76.55 75.98 75.17